# Wetter Temperatur Luftdruck Luftfeuchtigkeit Sichtweite Windgeschwindigkeit Windrichtung Zeit
1 Clouds 11 1009 93 10000 4.1 210 19:42 17.10.2019
2 Clouds 12 1009 87 0 1 180 19:20 17.10.2019
3 Clouds 12 1009 87 10000 4.1 250 18:59 17.10.2019
4 Clouds 12 1009 87 10000 4.1 250 18:39 17.10.2019
5 Clouds 13 1009 76 10000 2.6 250 18:21 17.10.2019
6 Clouds 14 1009 71 10000 6.7 260 17:54 17.10.2019
7 Clouds 14 1009 71 10000 6.7 260 17:36 17.10.2019
8 Clouds 14 1009 76 10000 5.1 240 17:18 17.10.2019
9 Clouds 14 1009 82 10000 5.7 250 16:41 17.10.2019
10 Clouds 14 1008 77 10000 3.6 230 16:19 17.10.2019
11 Clouds 14 1008 82 10000 5.1 260 15:59 17.10.2019
12 Clouds 14 1008 82 10000 5.1 260 15:40 17.10.2019
13 Clouds 14 1008 82 10000 2.6 220 15:20 17.10.2019
14 Clouds 14 1008 82 10000 5.1 250 14:58 17.10.2019
15 Clouds 14 1008 82 10000 5.1 250 14:39 17.10.2019
16 Clouds 14 1008 87 10000 2.6 230 14:20 17.10.2019
17 Clouds 14 1008 82 10000 4.1 260 13:41 17.10.2019
18 Clouds 14 1007 93 10000 2.6 250 13:21 17.10.2019
19 Clouds 14 1007 93 8000 4.6 260 12:58 17.10.2019
20 Clouds 14 1007 93 8000 4.6 260 12:40 17.10.2019
21 Clouds 14 1007 93 7000 2.6 260 12:20 17.10.2019
22 Clouds 14 1007 100 10000 4.1 280 11:57 17.10.2019
23 Clouds 14 1007 100 10000 4.1 280 11:38 17.10.2019
24 Drizzle 14 1007 93 2500 2.6 220 11:18 17.10.2019
25 Drizzle 14 1006 93 3000 4.1 230 10:42 17.10.2019
26 Drizzle 14 1006 93 4500 3.1 180 10:20 17.10.2019
27 Drizzle 14 1006 93 4500 3.1 180 09:59 17.10.2019
28 Drizzle 13 1006 93 3000 4.6 210 09:41 17.10.2019
29 Drizzle 13 1006 93 3000 4.6 210 09:41 17.10.2019
30 Drizzle 13 1005 93 2500 2.6 180 09:21 17.10.2019
31 Drizzle 13 1005 93 3000 4.1 200 08:58 17.10.2019
32 Drizzle 13 1005 93 3000 4.1 200 08:58 17.10.2019
33 Drizzle 13 1005 93 3000 4.1 200 08:39 17.10.2019
34 Drizzle 13 1005 100 4000 3.1 170 08:20 17.10.2019
35 Drizzle 13 1005 100 3500 4.6 200 07:54 17.10.2019
36 -273 0 0 0 0 0 07:54 17.10.2019
37 Drizzle 13 1005 100 3500 4.6 200 07:36 17.10.2019
38 Rain 13 1005 100 5000 3.1 160 07:18 17.10.2019
39 Rain 13 1005 100 0 5.1 190 06:39 17.10.2019
40 Rain 13 1005 100 0 3.6 150 06:20 17.10.2019
41 Rain 13 1005 100 0 5.7 190 05:51 17.10.2019
42 Rain 13 1005 93 0 3.6 140 05:31 17.10.2019
43 Rain 13 1005 93 0 5.1 180 04:52 17.10.2019
44 Rain 12 1005 100 0 5.1 180 03:54 17.10.2019
45 Clouds 12 1006 93 0 4.1 180 02:36 17.10.2019
46 Clouds 11 1006 93 0 5.1 170 00:57 17.10.2019
47 Clouds 10 1006 93 0 5.1 170 00:38 17.10.2019
48 Clouds 10 1007 93 0 3.1 140 00:18 17.10.2019
49 Clouds 10 1007 93 0 5.7 180 23:42 16.10.2019
50 Mist 10 1007 93 0 3.1 120 23:21 16.10.2019
51 Mist 10 1007 93 0 3.1 120 23:21 16.10.2019
52 Clouds 10 1007 93 0 6.2 190 22:56 16.10.2019
53 Clouds 10 1007 93 0 6.2 190 22:37 16.10.2019
54 Fog 10 1007 93 9000 2.6 130 22:18 16.10.2019
55 Clouds 10 1007 93 0 4.6 200 21:56 16.10.2019
56 Clouds 10 1007 93 0 4.6 200 21:37 16.10.2019
57 Clouds 10 1007 93 8000 2.1 190 21:19 16.10.2019
58 Clouds 11 1007 93 0 3.1 210 20:57 16.10.2019
59 Clouds 11 1007 93 0 3.1 210 20:38 16.10.2019
60 Clouds 11 1007 93 0 3.6 240 20:20 16.10.2019
61 Clouds 12 1007 87 0 3.6 240 19:57 16.10.2019
62 Clouds 12 1007 87 0 3.6 240 19:38 16.10.2019
63 Clouds 12 1007 93 0 3.1 240 19:20 16.10.2019
64 Clouds 13 1007 87 7000 4.1 240 18:39 16.10.2019
65 Rain 13 1006 87 10000 2.6 240 18:19 16.10.2019
66 Clouds 14 1006 87 10000 6.7 260 17:58 16.10.2019
67 Clouds 14 1006 87 10000 6.7 260 17:58 16.10.2019
68 Clouds 14 1006 87 10000 6.7 260 17:39 16.10.2019
69 Clouds 14 1007 82 10000 5.7 250 17:21 16.10.2019
70 Clouds 14 1006 93 10000 2.1 250 16:59 16.10.2019
71 Clouds 14 1006 87 10000 4.1 270 16:41 16.10.2019
72 -273 0 0 0 0 0 16:41 16.10.2019
73 Clouds 14 1006 87 10000 2.1 250 16:21 16.10.2019
74 -273 0 0 0 0 0 15:57 16.10.2019
75 Clouds 14 1006 93 10000 4.6 270 15:55 16.10.2019
76 Clouds 14 1006 93 10000 4.6 270 15:36 16.10.2019
77 Clouds 13 1007 93 9000 2.6 270 15:18 16.10.2019
78 Clouds 13 1007 93 9000 2.6 270 15:18 16.10.2019
79 Clouds 13 1006 100 10000 4.1 270 14:55 16.10.2019
80 Clouds 13 1006 100 10000 4.1 270 14:37 16.10.2019
81 Clouds 13 1006 93 8000 2.6 280 14:18 16.10.2019
82 Clouds 13 1006 100 8000 7.2 280 13:55 16.10.2019
83 Clouds 13 1006 100 8000 7.2 280 13:36 16.10.2019
84 Drizzle 13 1006 93 4500 1.5 240 13:18 16.10.2019
85 Rain 13 1006 93 3000 3.6 270 12:40 16.10.2019
86 Drizzle 13 1006 93 2500 2.1 250 12:18 16.10.2019
87 Drizzle 13 1006 100 1200 3.6 260 11:42 16.10.2019
88 Drizzle 13 1006 100 4000 1.5 310 11:18 16.10.2019
89 Rain 13 1006 100 4000 2.1 260 10:39 16.10.2019
90 Rain 13 1006 100 6000 0.5 250 10:20 16.10.2019
91 Rain 13 1006 100 4000 2.1 290 09:56 16.10.2019
92 Rain 13 1006 100 4000 2.1 290 09:38 16.10.2019
93 Rain 13 1005 100 2500 1.5 250 09:19 16.10.2019
94 Rain 13 1005 100 2000 2.1 260 08:43 16.10.2019
95 Rain 13 1005 100 2000 1.5 0 08:24 16.10.2019
96 Rain 13 1005 100 1500 2.6 260 07:55 16.10.2019
97 Rain 13 1005 100 1500 2.6 260 07:37 16.10.2019
98 Rain 13 1005 100 1000 0.5 200 07:18 16.10.2019
99 Rain 13 1005 100 0 1 230 06:39 16.10.2019
100 Rain 13 1005 100 0 1 230 06:39 16.10.2019
101 Rain 13 1005 100 0 1 0 05:54 16.10.2019
102 Mist 13 1006 100 0 2.6 250 03:27 16.10.2019
103 Rain 13 1006 100 0 2.1 270 02:49 16.10.2019
104 Mist 13 1006 100 4000 0.5 190 01:19 16.10.2019
105 Clouds 13 1006 100 0 2.1 260 00:52 16.10.2019
106 Clouds 13 1006 100 6000 1.5 200 00:32 16.10.2019
107 Clouds 13 1005 100 0 0.5 0 23:42 15.10.2019
108 Clouds 13 1005 100 0 0.5 0 23:42 15.10.2019
109 Fog 12 1006 100 0 1 0 23:22 15.10.2019
110 Clouds 13 1006 100 0 2.1 250 22:57 15.10.2019
111 Clouds 13 1006 100 0 2.1 250 22:38 15.10.2019
112 Fog 13 1006 93 6000 0.5 90 22:20 15.10.2019
113 Clouds 13 1006 93 0 2.1 280 21:57 15.10.2019
114 Clouds 13 1006 93 0 2.1 280 21:38 15.10.2019
115 Clouds 13 1006 93 0 1 250 21:20 15.10.2019
116 Clouds 14 1006 93 0 2.6 270 20:58 15.10.2019
117 Clouds 14 1006 93 0 2.6 270 20:40 15.10.2019
118 Clouds 14 1006 93 0 2.6 270 20:40 15.10.2019
119 Clouds 14 1006 93 10000 1 280 20:21 15.10.2019
120 Clouds 14 1006 87 0 1 220 19:59 15.10.2019
121 Clouds 14 1006 87 0 3.6 260 19:41 15.10.2019
122 Clouds 14 1006 87 0 3.6 260 19:41 15.10.2019
123 Clouds 15 1005 93 9000 1 210 19:20 15.10.2019
124 Clouds 15 1005 87 10000 4.1 270 18:55 15.10.2019
125 Clouds 15 1005 87 10000 4.1 270 18:55 15.10.2019
126 Clouds 16 1005 87 10000 4.1 270 18:37 15.10.2019
127 Clouds 16 1005 87 10000 1.5 180 18:19 15.10.2019
128 Clouds 17 1005 77 10000 5.1 260 17:42 15.10.2019
129 -273 0 0 0 0 0 17:41 15.10.2019
130 Clouds 17 1005 77 10000 5.1 260 17:41 15.10.2019
131 Clouds 17 1005 87 10000 3.6 230 17:21 15.10.2019
132 Clouds 18 1005 77 10000 5.1 270 16:59 15.10.2019
133 Clouds 18 1005 77 10000 5.1 270 16:40 15.10.2019
134 Clouds 18 1005 82 10000 4.1 210 16:21 15.10.2019
135 Clouds 18 1005 77 10000 1.5 240 15:55 15.10.2019
136 Clouds 18 1005 77 10000 1.5 240 15:37 15.10.2019
137 Clouds 18 1005 82 10000 2.6 190 15:19 15.10.2019
138 Clouds 18 1005 72 10000 1.5 0 14:54 15.10.2019
139 Clouds 18 1005 72 10000 1.5 0 14:36 15.10.2019
140 Clouds 18 1005 82 10000 3.1 180 14:18 15.10.2019
141 Clouds 17 1005 77 10000 3.6 230 13:43 15.10.2019
142 Clouds 17 1005 87 10000 4.6 140 13:20 15.10.2019
143 Clouds 16 1005 82 10000 3.6 180 12:46 15.10.2019
144 Clouds 15 1005 87 10000 7.2 120 12:23 15.10.2019
145 Clouds 15 1005 82 10000 4.1 130 11:59 15.10.2019
146 Clouds 15 1005 82 10000 4.1 130 11:41 15.10.2019
147 Clouds 14 1006 93 10000 6.2 120 11:20 15.10.2019
148 Clouds 13 1006 93 0 4.1 140 10:46 15.10.2019
149 Clear 13 1006 93 10000 2.6 130 10:24 15.10.2019
150 Clouds 12 1006 93 0 4.6 140 09:59 15.10.2019
151 Clouds 12 1006 93 0 4.6 140 09:40 15.10.2019
152 Clouds 12 1006 93 10000 8.2 120 09:21 15.10.2019
153 Clouds 12 1006 93 0 6.7 140 08:58 15.10.2019
154 -273 0 0 0 0 0 08:40 15.10.2019
155 Clouds 12 1006 87 10000 8.7 120 08:20 15.10.2019
156 Clouds 11 1006 93 0 6.7 130 07:44 15.10.2019
157 Clouds 11 1006 93 10000 10.3 120 07:23 15.10.2019
158 Clouds 11 1006 93 10000 10.3 120 07:23 15.10.2019
159 Clouds 12 1006 93 0 8.2 130 06:58 15.10.2019
160 Clouds 12 1006 93 0 8.2 130 06:39 15.10.2019
161 Clouds 12 1007 93 0 7.7 130 05:56 15.10.2019
162 Clouds 12 1007 93 0 7.7 130 05:37 15.10.2019
163 Clouds 12 1008 93 0 9.3 130 04:53 15.10.2019
164 Clouds 12 1009 87 0 9.8 110 04:19 15.10.2019
165 Clouds 12 1009 87 0 8.2 130 03:35 15.10.2019
166 Rain 12 1010 87 0 7.7 110 02:19 15.10.2019
167 Rain 12 1010 93 0 9.3 130 01:41 15.10.2019
168 Rain 12 1010 93 0 9.8 100 01:18 15.10.2019
169 Rain 12 1012 93 0 6.7 90 00:26 15.10.2019
170 Rain 12 1011 93 0 5.7 110 23:59 14.10.2019
171 Rain 12 1011 93 0 5.7 110 23:39 14.10.2019
172 Rain 12 1012 87 0 6.2 100 23:19 14.10.2019
173 Rain 12 1012 93 0 7.7 130 22:40 14.10.2019
174 Rain 12 1013 87 0 4.6 110 22:21 14.10.2019
175 Rain 12 1013 82 0 3.6 160 21:59 14.10.2019
176 Rain 13 1013 82 0 3.6 160 21:40 14.10.2019
177 Rain 13 1013 76 0 4.6 110 21:21 14.10.2019
178 Rain 13 1013 87 0 5.1 130 20:59 14.10.2019
179 Rain 13 1013 87 0 5.1 130 20:39 14.10.2019
180 Rain 13 1013 76 0 5.1 100 20:20 14.10.2019
181 Rain 13 1013 87 0 4.6 120 19:58 14.10.2019
182 Rain 13 1013 87 0 4.6 120 19:40 14.10.2019
183 Rain 13 1014 87 0 2.6 110 19:22 14.10.2019
184 Rain 13 1014 87 10000 3.1 110 18:58 14.10.2019
185 Rain 13 1014 87 10000 3.1 110 18:38 14.10.2019
186 Rain 14 1014 82 10000 2.1 110 18:18 14.10.2019
187 Clouds 14 1014 82 10000 2.1 110 17:44 14.10.2019
188 Clear 14 1014 82 10000 3.1 80 17:26 14.10.2019
189 Clouds 15 1014 82 10000 1.5 120 16:59 14.10.2019
190 Clouds 15 1014 82 10000 1.5 120 16:40 14.10.2019
191 Clear 15 1014 71 10000 1 60 16:20 14.10.2019
192 Clouds 15 1014 72 10000 1 0 15:42 14.10.2019
193 Clouds 15 1014 67 10000 1 280 15:22 14.10.2019
194 Clouds 15 1014 67 10000 0.5 0 14:56 14.10.2019
195 Clouds 15 1014 67 10000 0.5 0 14:38 14.10.2019
196 Clouds 15 1014 71 10000 3.1 350 14:19 14.10.2019
197 Clouds 15 1014 67 10000 2.1 290 13:43 14.10.2019
198 Clouds 15 1014 76 10000 3.1 320 13:21 14.10.2019
199 Clouds 15 1014 72 10000 4.6 310 12:55 14.10.2019
200 Clouds 15 1014 72 10000 4.6 310 12:37 14.10.2019
201 Clouds 15 1014 76 10000 3.1 290 12:18 14.10.2019
202 Clouds 15 1014 76 10000 3.1 290 12:18 14.10.2019
203 Clouds 15 1014 76 10000 3.1 290 12:18 14.10.2019
204 Clouds 14 1014 76 10000 6.2 290 11:44 14.10.2019
205 Clouds 14 1014 87 10000 4.1 250 11:26 14.10.2019
206 Clouds 14 1012 76 10000 6.7 290 10:57 14.10.2019
207 Clouds 14 1012 76 10000 6.7 290 10:57 14.10.2019
208 Clouds 14 1012 76 10000 6.7 290 10:38 14.10.2019
209 Rain 13 1012 76 10000 3.6 290 10:19 14.10.2019
210 Clouds 13 1012 82 10000 8.2 280 09:42 14.10.2019
211 Clouds 13 1011 76 10000 6.2 280 09:21 14.10.2019
212 Clouds 13 1010 82 10000 10.8 290 08:51 14.10.2019
213 Clouds 13 1009 82 10000 6.2 250 08:23 14.10.2019
214 Clouds 13 1009 82 10000 10.8 280 07:59 14.10.2019
215 Clouds 13 1009 82 10000 10.8 280 07:39 14.10.2019
216 Clouds 13 1008 82 10000 7.2 250 07:18 14.10.2019
217 Clouds 13 1008 87 10000 11.3 270 06:36 14.10.2019
218 Clouds 13 1007 82 0 7.7 250 06:18 14.10.2019
219 Clouds 13 1007 82 10000 12.9 260 05:42 14.10.2019
220 Clouds 14 1006 76 10000 11.3 250 04:42 14.10.2019
221 Clouds 14 1004 82 0 7.7 240 03:27 14.10.2019
222 Clouds 15 1005 87 10000 12.9 250 02:42 14.10.2019
223 Clouds 16 1003 82 0 7.7 240 01:23 14.10.2019
224 Clouds 16 1003 82 10000 11.8 250 00:53 14.10.2019
225 Rain 17 1003 77 0 7.2 240 00:19 14.10.2019
226 Clouds 17 1003 82 10000 11.3 250 23:45 13.10.2019
227 Clouds 17 1002 87 10000 9.8 230 23:20 13.10.2019
228 Clouds 18 1002 82 10000 10.3 260 22:58 13.10.2019
229 Clouds 18 1002 82 10000 10.3 260 22:40 13.10.2019
230 Rain 18 1002 93 0 6.2 250 22:21 13.10.2019
231 Rain 18 1001 88 10000 10.3 220 21:58 13.10.2019
232 Rain 18 1001 88 10000 10.3 220 21:37 13.10.2019
233 Rain 17 1001 93 0 4.1 150 21:19 13.10.2019
234 Rain 17 1002 100 8000 6.7 180 20:57 13.10.2019
235 Rain 17 1002 100 8000 6.7 180 20:57 13.10.2019
236 Rain 17 1002 100 8000 6.7 180 20:38 13.10.2019
237 -273 0 0 0 0 0 20:20 13.10.2019
238 Thunderstorm 16 1003 100 3500 6.2 170 19:58 13.10.2019
239 Thunderstorm 16 1003 100 3500 6.2 170 19:39 13.10.2019
240 Rain 15 1004 93 4000 6.2 140 19:21 13.10.2019
241 Rain 15 1004 100 3000 5.7 150 18:57 13.10.2019
242 -273 0 0 0 0 0 18:56 13.10.2019
243 Rain 15 1004 100 3000 5.7 150 18:56 13.10.2019
244 Rain 15 1004 100 3000 5.7 150 18:36 13.10.2019
245 Mist 15 1005 100 6000 5.1 130 18:18 13.10.2019
246 Mist 14 1005 93 3800 4.6 140 17:44 13.10.2019
247 Rain 14 1006 93 7000 5.7 120 17:26 13.10.2019
248 Rain 14 1006 93 7000 5.7 120 17:25 13.10.2019
249 Rain 14 1006 100 4300 3.1 120 16:56 13.10.2019
250 Mist 14 1006 93 10000 5.7 120 16:36 13.10.2019
251 Mist 13 1006 93 4000 2.6 110 16:18 13.10.2019
252 Mist 13 1007 100 4300 4.6 130 15:55 13.10.2019
253 Mist 13 1007 100 4300 4.6 130 15:55 13.10.2019
254 Drizzle 13 1008 100 10000 6.7 120 15:36 13.10.2019
255 Drizzle 12 1008 93 5000 5.7 120 15:18 13.10.2019
256 Drizzle 12 1008 93 4500 5.1 130 14:56 13.10.2019
257 Drizzle 12 1008 93 4500 5.1 130 14:37 13.10.2019
258 Drizzle 12 1009 93 0 5.7 120 14:18 13.10.2019
259 Drizzle 12 1009 100 4800 4.1 120 13:39 13.10.2019
260 Drizzle 12 1009 100 8000 4.1 130 13:21 13.10.2019
261 Drizzle 12 1009 93 8000 3.1 130 12:57 13.10.2019
262 Drizzle 12 1009 93 8000 3.1 130 12:39 13.10.2019
263 Drizzle 11 1010 93 0 3.1 130 12:20 13.10.2019
264 Drizzle 11 1009 100 8000 3.6 140 11:58 13.10.2019
265 Drizzle 11 1009 100 8000 3.6 140 11:39 13.10.2019
266 Clouds 11 1010 93 10000 1.5 170 11:20 13.10.2019
267 Drizzle 11 1010 93 6000 2.6 170 10:43 13.10.2019
268 Rain 11 1010 100 0 1.5 140 10:24 13.10.2019
269 Rain 11 1010 93 5000 1.5 0 09:59 13.10.2019
270 Rain 11 1010 93 5000 1.5 0 09:59 13.10.2019
271 Rain 11 1010 93 5000 1.5 0 09:39 13.10.2019
272 Mist 11 1010 93 0 1.5 170 09:20 13.10.2019
273 Mist 11 1009 93 5000 3.6 190 08:43 13.10.2019
274 Rain 11 1009 93 5000 4.1 200 08:25 13.10.2019
275 Rain 11 1009 93 5000 4.1 200 08:25 13.10.2019
276 Rain 11 1009 93 4800 4.6 210 07:51 13.10.2019
277 Drizzle 11 1009 93 0 2.6 180 07:33 13.10.2019
278 Rain 11 1009 100 0 4.6 200 06:53 13.10.2019
279 Drizzle 11 1009 93 0 3.1 180 06:23 13.10.2019
280 Clouds 11 1009 93 0 2.6 190 05:19 13.10.2019
281 Clouds 11 1009 93 0 2.6 190 04:34 13.10.2019
282 Clouds 11 1009 93 0 2.6 190 04:34 13.10.2019
283 Clouds 11 1009 93 0 3.6 200 04:34 13.10.2019
284 Rain 11 1009 93 0 3.1 200 03:24 13.10.2019
285 Rain 12 1009 93 0 3.1 200 02:30 13.10.2019
286 Rain 11 1009 93 0 4.6 230 01:36 13.10.2019
287 Rain 11 1009 93 0 4.6 240 00:56 13.10.2019
288 Rain 11 1009 93 0 4.6 240 00:56 13.10.2019
289 Rain 12 1009 93 0 4.6 240 00:37 13.10.2019
290 Rain 12 1009 93 0 5.1 240 00:19 13.10.2019
291 Rain 12 1009 93 0 5.1 240 23:42 12.10.2019
292 Rain 12 1009 93 0 5.1 240 23:42 12.10.2019
293 Rain 12 1008 87 0 2.6 220 23:23 12.10.2019
294 Clouds 12 1008 87 0 5.1 230 22:59 12.10.2019
295 Clouds 12 1008 87 0 5.1 230 22:40 12.10.2019
296 Clouds 12 1008 93 0 2.1 220 22:22 12.10.2019
297 Clouds 12 1008 93 0 5.1 230 21:58 12.10.2019
298 Clouds 12 1008 93 0 5.1 230 21:40 12.10.2019
299 Clouds 12 1008 93 0 5.1 230 21:40 12.10.2019
300 Clouds 12 1007 87 0 2.6 230 21:21 12.10.2019
301 Clouds 12 1007 87 0 4.6 250 20:54 12.10.2019
302 Clouds 12 1007 87 0 4.6 250 20:54 12.10.2019
303 Clouds 12 1007 87 0 4.6 250 20:54 12.10.2019
304 Rain 13 1007 87 0 4.6 250 20:36 12.10.2019
305 Rain 13 1007 87 0 3.6 240 20:18 12.10.2019
306 Rain 13 1007 87 0 6.2 240 19:36 12.10.2019
307 Rain 13 1007 87 0 3.1 230 19:18 12.10.2019
308 Rain 13 1007 87 10000 6.2 250 18:44 12.10.2019
309 Clouds 13 1006 82 10000 4.6 250 18:26 12.10.2019
310 Clouds 13 1006 93 10000 7.2 250 17:46 12.10.2019
311 Rain 13 1006 82 0 5.1 230 17:25 12.10.2019
312 Clouds 13 1006 82 10000 8.2 250 16:59 12.10.2019
313 Clouds 14 1006 82 10000 8.2 250 16:40 12.10.2019
314 Clouds 13 1005 82 10000 5.7 230 16:21 12.10.2019
315 Clouds 13 1006 87 10000 7.2 240 15:57 12.10.2019
316 Clouds 13 1006 87 10000 7.2 240 15:38 12.10.2019
317 Clouds 13 1005 82 10000 4.6 230 15:19 12.10.2019
318 Clouds 13 1005 82 10000 6.7 230 14:41 12.10.2019
319 Clouds 13 1005 82 10000 4.6 230 14:20 12.10.2019
320 Clouds 14 1005 82 10000 8.7 250 13:52 12.10.2019
321 Clouds 14 1007 76 10000 5.1 240 13:33 12.10.2019
322 Rain 13 1005 82 10000 8.7 250 12:57 12.10.2019
323 Rain 13 1005 82 10000 8.7 250 12:38 12.10.2019
324 Clouds 13 1004 82 10000 5.7 230 12:20 12.10.2019
325 Clouds 13 1004 82 10000 7.2 240 11:47 12.10.2019
326 Rain 12 1003 76 10000 4.6 230 11:26 12.10.2019
327 Rain 12 1003 82 10000 6.7 240 10:59 12.10.2019
328 Rain 12 1003 82 10000 6.7 240 10:40 12.10.2019
329 Rain 12 1002 87 10000 7.7 230 10:22 12.10.2019
330 Rain 12 1003 87 10000 6.7 230 09:57 12.10.2019
331 Rain 12 1003 87 10000 6.7 230 09:57 12.10.2019
332 Rain 12 1003 87 10000 6.7 230 09:39 12.10.2019
333 Rain 12 1002 87 10000 4.6 230 09:20 12.10.2019
334 -273 0 0 0 0 0 08:56 12.10.2019
335 Rain 12 1002 87 10000 7.2 240 08:55 12.10.2019
336 Rain 11 1002 87 10000 7.2 240 08:36 12.10.2019
337 Rain 11 1002 87 10000 4.6 230 08:18 12.10.2019
338 Rain 12 1001 87 10000 3.6 220 07:33 12.10.2019
339 Rain 12 1002 87 0 7.2 240 06:44 12.10.2019
340 Rain 12 1001 82 0 8.2 240 05:46 12.10.2019
341 Rain 13 1001 87 0 5.7 250 04:52 12.10.2019
342 Clouds 13 1001 93 0 7.2 270 03:57 12.10.2019
343 Rain 14 1000 93 0 7.7 270 02:57 12.10.2019
344 Rain 14 999 93 0 7.7 250 01:36 12.10.2019
345 Rain 14 999 100 0 8.2 250 00:59 12.10.2019
346 Rain 14 999 100 0 8.2 250 00:39 12.10.2019
347 Rain 14 999 93 0 11.8 270 23:57 11.10.2019
348 Rain 14 999 93 0 11.8 270 23:39 11.10.2019
349 Rain 14 999 93 3500 5.7 240 23:20 11.10.2019
350 Rain 14 999 93 3500 5.7 240 23:20 11.10.2019
351 Rain 14 999 93 0 11.8 240 22:40 11.10.2019
352 Rain 14 998 93 4000 8.7 220 22:21 11.10.2019
353 Rain 14 999 93 0 12.9 230 21:56 11.10.2019
354 Rain 14 999 93 0 12.9 230 21:38 11.10.2019
355 Rain 14 998 93 6000 7.2 220 21:20 11.10.2019
356 Rain 14 999 93 0 12.9 240 20:44 11.10.2019
357 Rain 14 1002 87 3500 7.2 220 20:26 11.10.2019
358 Rain 14 1000 93 0 11.3 230 19:58 11.10.2019
359 Rain 14 1000 93 0 11.3 230 19:39 11.10.2019
360 Rain 14 998 93 7000 10.3 230 19:18 11.10.2019
361 Rain 14 1000 93 1500 11.3 240 18:58 11.10.2019
362 Rain 14 1000 93 2500 4.1 230 18:38 11.10.2019
363 Rain 14 1000 93 2500 4.1 230 18:38 11.10.2019
364 Rain 14 1001 93 1000 10.3 250 18:19 11.10.2019
365 Rain 14 1001 93 8000 11.3 240 17:58 11.10.2019
366 Rain 14 1001 93 8000 11.3 240 17:38 11.10.2019
367 Rain 14 1001 93 8000 10.3 230 17:19 11.10.2019
368 Rain 14 1001 93 3000 7.7 220 16:58 11.10.2019
369 Rain 14 1001 93 3000 7.7 220 16:39 11.10.2019
370 Rain 14 1001 93 8000 6.2 220 16:19 11.10.2019
371 Rain 14 1002 93 10000 9.3 240 15:41 11.10.2019
372 Rain 14 1002 93 10000 9.3 240 15:41 11.10.2019
373 Rain 14 1002 93 10000 9.3 240 15:41 11.10.2019
374 Rain 14 1004 87 4500 5.7 220 15:20 11.10.2019
375 Rain 14 1003 93 9000 9.3 240 14:58 11.10.2019
376 Rain 14 1003 93 9000 9.3 240 14:58 11.10.2019
377 Rain 14 1003 93 9000 9.3 240 14:39 11.10.2019
378 Rain 14 1002 93 6000 5.7 220 14:19 11.10.2019
379 Rain 14 1003 93 4000 9.3 240 13:45 11.10.2019
380 Rain 14 1006 93 10000 6.7 220 13:25 11.10.2019
381 Rain 14 1003 93 6000 9.3 230 12:57 11.10.2019
382 Rain 14 1003 93 6000 9.3 230 12:39 11.10.2019
383 Rain 14 1003 87 10000 6.2 230 12:20 11.10.2019
384 Rain 14 1004 87 6000 8.7 240 11:58 11.10.2019
385 Rain 14 1004 87 6000 8.7 240 11:38 11.10.2019
386 Rain 14 1004 87 6000 8.7 240 11:38 11.10.2019
387 Clouds 14 1003 87 10000 5.1 240 11:20 11.10.2019
388 Rain 14 1004 93 8000 8.7 250 10:55 11.10.2019
389 Rain 14 1004 93 8000 8.7 250 10:55 11.10.2019
390 Rain 14 1004 93 8000 8.7 250 10:36 11.10.2019
391 Rain 13 1003 87 10000 5.1 240 10:18 11.10.2019
392 Rain 13 1003 93 6000 11.8 270 09:42 11.10.2019
393 Rain 13 1003 93 8000 11.8 270 09:21 11.10.2019
394 Rain 13 1002 93 3000 11.3 230 08:59 11.10.2019
395 Rain 12 1002 93 3000 11.3 230 08:38 11.10.2019
396 Rain 12 1002 87 10000 7.2 220 08:20 11.10.2019
397 Rain 12 1002 93 8000 10.3 210 07:53 11.10.2019
398 Rain 12 1002 93 8000 10.3 210 07:34 11.10.2019
399 Rain 12 1003 93 0 8.7 210 06:50 11.10.2019
400 Rain 12 1003 87 0 6.2 220 06:25 11.10.2019
401 Rain 12 1004 87 0 10.8 230 05:48 11.10.2019
402 Rain 12 1003 87 0 6.2 210 05:30 11.10.2019
403 Rain 12 1004 93 0 9.3 230 04:58 11.10.2019
404 Rain 12 1005 93 0 8.7 220 03:40 11.10.2019
405 Rain 11 1007 93 0 3.1 190 01:28 11.10.2019
406 Rain 11 1007 87 0 5.1 210 00:41 11.10.2019
407 Rain 11 1006 87 0 3.6 220 00:20 11.10.2019
408 Rain 11 1006 87 0 3.6 220 00:20 11.10.2019
409 Rain 11 1007 87 0 6.2 230 23:41 10.10.2019
410 Rain 11 1006 87 0 4.1 230 23:20 10.10.2019
411 Rain 11 1007 87 0 7.2 250 22:56 10.10.2019
412 Rain 11 1007 87 0 7.2 250 22:36 10.10.2019
413 Rain 11 1006 87 10000 3.6 230 22:18 10.10.2019
414 Rain 11 1007 87 0 7.7 250 21:54 10.10.2019
415 Clouds 11 1006 87 10000 3.1 230 21:36 10.10.2019
416 Rain 11 1006 87 10000 4.1 230 21:18 10.10.2019
417 Rain 11 1006 87 0 7.2 250 20:41 10.10.2019
418 Clouds 11 1005 93 10000 4.1 240 20:20 10.10.2019
419 Clouds 11 1005 93 10000 4.1 240 20:20 10.10.2019
420 Clouds 11 1005 93 10000 4.1 240 20:20 10.10.2019
421 Rain 11 1006 81 0 9.3 260 19:57 10.10.2019
422 Rain 11 1006 81 0 9.3 260 19:39 10.10.2019
423 Rain 11 1005 81 10000 5.1 240 19:19 10.10.2019
424 Rain 12 1006 81 10000 10.3 260 18:54 10.10.2019
425 Rain 12 1006 81 10000 10.3 260 18:36 10.10.2019
426 Rain 12 1006 81 10000 10.3 260 18:36 10.10.2019
427 Rain 12 1005 82 10000 4.1 240 18:18 10.10.2019
428 Rain 13 1005 76 10000 10.8 260 17:41 10.10.2019
429 Rain 13 1005 76 10000 10.8 260 17:41 10.10.2019
430 Clouds 13 1004 82 10000 3.6 230 17:20 10.10.2019
431 Clouds 13 1004 71 10000 7.7 250 16:58 10.10.2019
432 Clouds 13 1004 71 10000 7.7 250 16:40 10.10.2019
433 Rain 13 1004 76 10000 5.7 230 16:21 10.10.2019
434 Rain 13 1004 76 8000 7.7 250 15:43 10.10.2019
435 Rain 12 1005 81 10000 7.7 230 15:25 10.10.2019
436 Rain 12 1004 81 10000 7.2 230 14:59 10.10.2019
437 Rain 12 1004 81 10000 7.2 230 14:38 10.10.2019
438 Rain 12 1004 81 10000 7.2 230 14:38 10.10.2019
439 Rain 12 1005 87 10000 7.2 250 14:19 10.10.2019
440 Thunderstorm 12 1004 81 8000 8.2 230 13:59 10.10.2019
441 Thunderstorm 12 1004 81 8000 8.2 230 13:40 10.10.2019
442 Rain 12 1003 82 10000 5.7 210 13:19 10.10.2019
443 Rain 12 1003 82 10000 5.7 210 13:19 10.10.2019
444 Rain 12 1004 81 10000 7.2 230 12:56 10.10.2019
445 Rain 12 1004 81 10000 7.2 230 12:38 10.10.2019
446 Rain 11 1003 82 10000 5.7 210 12:19 10.10.2019
447 Rain 11 1003 87 10000 5.7 210 11:55 10.10.2019
448 Rain 11 1003 87 10000 5.7 210 11:36 10.10.2019
449 Rain 11 1003 81 10000 2.1 230 11:18 10.10.2019
450 Rain 11 1003 87 10000 4.6 210 10:44 10.10.2019
451 Rain 10 1003 93 10000 4.6 260 10:25 10.10.2019
452 Rain 10 1003 93 6000 5.7 230 09:56 10.10.2019
453 Rain 10 1003 93 6000 5.7 230 09:37 10.10.2019
454 Rain 9 1001 87 10000 3.1 210 09:19 10.10.2019
455 Clouds 9 1001 93 10000 5.1 220 08:41 10.10.2019
456 Rain 9 1002 87 5000 7.2 230 08:23 10.10.2019
457 Rain 9 1001 93 10000 5.7 220 07:58 10.10.2019
458 Rain 9 1001 93 10000 5.7 220 07:40 10.10.2019
459 Rain 9 1000 93 10000 3.6 210 07:20 10.10.2019
460 Rain 9 1000 100 0 5.7 210 06:45 10.10.2019
461 Rain 9 1002 93 5000 3.6 230 06:24 10.10.2019
462 Rain 9 1000 87 0 3.1 200 05:24 10.10.2019
463 Rain 9 1000 100 0 5.1 210 04:37 10.10.2019
464 Rain 9 999 93 0 3.6 210 03:27 10.10.2019
465 Rain 9 1000 93 0 4.6 210 01:42 10.10.2019
466 Rain 9 999 87 0 3.6 200 01:24 10.10.2019
467 Rain 9 1000 93 0 6.2 210 00:53 10.10.2019
468 Rain 9 1000 93 0 5.1 210 00:21 10.10.2019
469 Rain 9 1000 93 0 5.1 210 23:39 09.10.2019
470 Rain 9 999 87 0 3.1 190 23:20 09.10.2019
471 Rain 10 1000 93 0 4.6 220 22:44 09.10.2019
472 Clouds 10 1000 93 10000 2.6 190 22:24 09.10.2019
473 Clouds 10 1000 93 10000 2.6 190 21:59 09.10.2019
474 Rain 10 1000 93 0 4.6 220 21:40 09.10.2019
475 Rain 10 1000 87 10000 2.6 230 21:20 09.10.2019
476 Rain 10 1000 93 0 3.6 250 20:56 09.10.2019
477 Rain 10 1000 93 0 3.6 250 20:38 09.10.2019
478 Rain 10 1000 93 0 3.6 250 20:38 09.10.2019
479 Rain 11 1000 87 7000 4.1 230 20:19 09.10.2019
480 Rain 11 1000 93 0 4.1 250 19:58 09.10.2019
481 Rain 11 1000 93 0 4.1 250 19:39 09.10.2019
482 Rain 11 1000 81 10000 3.1 200 19:20 09.10.2019
483 Rain 12 1000 87 8000 5.7 220 18:38 09.10.2019
484 Rain 12 1000 82 10000 3.6 200 18:20 09.10.2019
485 Rain 13 1000 82 10000 5.7 230 17:57 09.10.2019
486 Rain 13 1000 82 10000 5.7 230 17:37 09.10.2019
487 Clouds 13 1000 82 10000 4.6 210 17:19 09.10.2019
488 Clouds 13 1000 82 10000 5.7 230 16:55 09.10.2019
489 Clouds 13 1000 82 10000 4.1 210 16:37 09.10.2019
490 Rain 13 1001 82 10000 7.2 220 16:18 09.10.2019
491 Rain 13 1001 82 10000 7.7 230 15:55 09.10.2019
492 Rain 13 1001 82 10000 7.7 230 15:55 09.10.2019
493 Rain 13 1001 82 10000 7.7 230 15:36 09.10.2019
494 Clouds 13 1000 82 10000 4.6 210 15:18 09.10.2019
495 Clouds 13 1001 82 10000 6.2 230 14:44 09.10.2019
496 Clouds 13 1001 82 10000 5.1 210 14:18 09.10.2019
497 Clouds 13 1001 82 10000 7.2 240 13:58 09.10.2019
498 Rain 13 1001 82 10000 7.2 240 13:36 09.10.2019
499 Clouds 13 1001 87 10000 4.6 200 13:18 09.10.2019
500 Rain 13 1001 87 8000 7.2 230 12:42 09.10.2019
501 Clouds 13 1001 87 10000 4.1 190 12:22 09.10.2019
502 Clouds 13 1001 87 10000 4.1 190 12:22 09.10.2019
503 Rain 12 1001 93 8000 5.7 220 11:58 09.10.2019
504 Rain 12 1001 93 8000 5.7 220 11:39 09.10.2019
505 Rain 12 1001 87 5000 3.6 200 11:20 09.10.2019
506 Rain 12 1001 100 3000 5.7 210 10:58 09.10.2019
507 Rain 12 1001 100 3000 5.7 210 10:40 09.10.2019
508 Clouds 11 1001 87 10000 4.1 200 10:18 09.10.2019
509 Clouds 11 1001 93 10000 6.7 210 09:43 09.10.2019
510 Rain 11 1001 93 3500 1 240 09:20 09.10.2019
511 Rain 11 1001 93 10000 6.7 210 08:57 09.10.2019
512 Rain 10 1001 93 10000 6.7 210 08:37 09.10.2019
513 Clouds 10 1001 93 10000 3.6 200 08:19 09.10.2019
514 Rain 10 1001 87 10000 6.7 210 07:47 09.10.2019
515 Rain 10 1000 87 10000 4.1 200 07:24 09.10.2019
516 Rain 10 1000 93 10000 6.2 220 06:56 09.10.2019
517 Clouds 10 1000 93 10000 3.6 210 06:34 09.10.2019
518 Clouds 10 1000 93 10000 5.7 220 05:51 09.10.2019
519 Rain 10 999 93 10000 4.1 230 04:41 09.10.2019
520 Clouds 11 999 93 10000 4.1 220 03:43 09.10.2019
521 Clouds 11 999 93 10000 4.1 220 03:43 09.10.2019
522 Rain 12 999 87 0 6.7 230 02:27 09.10.2019
523 Rain 11 999 93 0 4.1 210 01:22 09.10.2019
524 Clouds 11 999 87 10000 5.7 220 00:59 09.10.2019
525 Clouds 11 999 87 10000 5.7 220 00:40 09.10.2019
526 Rain 11 999 87 0 3.1 190 00:22 09.10.2019
527 Clouds 11 999 87 10000 6.2 210 23:58 08.10.2019
528 Clouds 11 999 87 10000 6.2 210 23:38 08.10.2019
529 Clouds 11 999 93 10000 2.6 190 23:18 08.10.2019
530 Clouds 11 999 93 10000 2.6 190 23:18 08.10.2019
531 Clouds 11 999 93 10000 5.7 220 22:55 08.10.2019
532 Clouds 11 999 93 10000 5.7 220 22:36 08.10.2019
533 Clouds 11 999 93 10000 2.6 180 22:18 08.10.2019
534 Clouds 11 1000 93 10000 6.2 220 21:55 08.10.2019
535 Rain 11 1000 93 10000 3.1 190 21:36 08.10.2019
536 Rain 11 999 93 10000 3.1 210 21:18 08.10.2019
537 Rain 11 1000 87 10000 5.1 220 20:54 08.10.2019
538 Rain 11 1000 87 10000 5.1 220 20:36 08.10.2019
539 Clouds 12 1000 87 10000 2.6 210 20:18 08.10.2019
540 Clouds 12 1000 93 10000 6.2 230 19:41 08.10.2019
541 Rain 12 1001 87 10000 3.1 230 19:23 08.10.2019
542 Rain 12 1000 87 10000 10.3 290 18:59 08.10.2019
543 Rain 12 1000 87 10000 10.3 290 18:40 08.10.2019
544 Rain 13 999 76 10000 3.1 240 18:22 08.10.2019
545 Rain 13 1000 76 10000 6.2 270 17:57 08.10.2019
546 Rain 13 1000 76 10000 6.2 270 17:39 08.10.2019
547 Rain 14 999 77 10000 3.1 250 17:18 08.10.2019
548 Rain 14 1000 77 10000 7.7 280 16:55 08.10.2019
549 Rain 14 1000 77 10000 7.7 280 16:37 08.10.2019
550 Rain 14 1000 82 10000 3.6 240 16:18 08.10.2019
551 Rain 14 1000 71 10000 3.6 310 15:38 08.10.2019
552 Rain 15 999 77 10000 6.7 260 15:19 08.10.2019
553 Rain 15 1000 77 10000 6.7 270 14:55 08.10.2019
554 Clouds 15 1000 77 10000 6.7 270 14:37 08.10.2019
555 Clouds 15 1000 72 10000 3.6 270 14:19 08.10.2019
556 Rain 15 1000 82 10000 8.2 290 13:54 08.10.2019
557 -273 0 0 0 0 0 13:54 08.10.2019
558 Rain 15 1000 82 10000 8.2 290 13:36 08.10.2019
559 Rain 15 1000 77 10000 5.1 280 13:18 08.10.2019
560 Rain 15 1000 77 10000 11.3 290 12:40 08.10.2019
561 Rain 14 1000 82 10000 4.6 280 12:20 08.10.2019
562 Rain 14 1000 93 10000 7.2 300 11:57 08.10.2019
563 Clouds 14 1000 93 10000 7.2 300 11:38 08.10.2019
564 Clouds 13 999 87 10000 4.1 250 11:20 08.10.2019
565 Rain 12 1000 93 9000 6.2 260 10:42 08.10.2019
566 Rain 12 1000 93 6000 7.2 250 10:22 08.10.2019
567 Mist 12 999 93 10000 4.1 230 09:59 08.10.2019
568 Mist 11 1000 93 2000 6.7 210 09:40 08.10.2019
569 Mist 11 1000 93 2000 6.7 210 09:40 08.10.2019
570 Rain 11 1000 93 10000 5.1 200 09:22 08.10.2019
571 Rain 10 1000 93 2000 7.2 200 08:45 08.10.2019
572 Rain 10 1000 93 4000 4.6 170 08:25 08.10.2019
573 Rain 9 1001 100 2000 9.3 190 07:57 08.10.2019
574 Rain 9 1001 100 2000 9.3 190 07:38 08.10.2019
575 Rain 9 1002 93 4000 5.1 160 07:19 08.10.2019
576 Rain 9 1002 93 0 8.2 180 06:45 08.10.2019
577 Rain 8 1003 93 6000 5.7 170 06:21 08.10.2019
578 Rain 8 1004 93 0 7.7 180 05:43 08.10.2019
579 Rain 8 1004 93 0 7.7 180 05:43 08.10.2019
580 Rain 8 1004 93 10000 4.1 160 05:19 08.10.2019
581 Rain 8 1007 87 10000 4.1 160 03:31 08.10.2019
582 Rain 8 1008 81 0 5.1 170 02:43 08.10.2019
583 Rain 8 1009 81 10000 4.6 150 02:25 08.10.2019
584 Rain 8 1010 75 0 5.7 170 01:41 08.10.2019
585 Rain 7 1011 75 0 6.2 170 00:56 08.10.2019
586 Clear 7 1012 81 10000 4.1 150 00:25 08.10.2019
587 Clouds 7 1012 87 0 5.1 160 23:58 07.10.2019
588 Clouds 7 1012 87 0 5.1 160 23:38 07.10.2019
589 Clear 7 1013 87 10000 3.6 130 23:19 07.10.2019
590 Clouds 7 1014 87 0 4.6 160 22:55 07.10.2019
591 Clouds 7 1014 87 0 4.6 160 22:37 07.10.2019
592 Clear 7 1014 87 10000 3.6 130 22:18 07.10.2019
593 Clouds 7 1015 87 0 4.6 150 21:54 07.10.2019
594 Clouds 7 1015 87 0 4.6 150 21:36 07.10.2019
595 Clear 7 1016 81 10000 3.1 140 21:18 07.10.2019
596 Clouds 7 1016 87 0 4.6 150 20:55 07.10.2019
597 Clouds 7 1016 87 0 4.6 150 20:37 07.10.2019
598 Clear 7 1016 81 10000 2.6 140 20:18 07.10.2019
599 Clouds 7 1016 87 0 3.6 140 19:42 07.10.2019
600 Clear 8 1017 81 10000 2.1 130 19:21 07.10.2019
601 Clouds 8 1017 81 0 3.1 150 18:59 07.10.2019
602 Clouds 8 1017 81 0 3.1 150 18:41 07.10.2019
603 Clouds 9 1018 75 10000 2.6 140 18:19 07.10.2019
604 Clouds 9 1017 76 0 1.5 150 17:58 07.10.2019
605 Clouds 10 1017 76 0 1.5 150 17:40 07.10.2019
606 Clouds 10 1018 70 10000 4.6 120 17:18 07.10.2019
607 Clouds 10 1018 71 0 3.1 150 16:44 07.10.2019
608 Clouds 11 1019 66 10000 3.1 120 16:26 07.10.2019
609 Clouds 11 1019 66 0 2.1 150 15:57 07.10.2019
610 Clouds 11 1019 66 0 2.1 150 15:38 07.10.2019
611 Clouds 11 1019 61 10000 1.5 180 15:20 07.10.2019
612 Clouds 11 1020 61 0 1.5 50 14:41 07.10.2019
613 Clouds 10 1020 61 10000 2.6 150 14:23 07.10.2019
614 Clouds 10 1020 61 0 2.1 130 13:45 07.10.2019
615 Clouds 10 1020 61 10000 2.1 100 13:21 07.10.2019
616 Clouds 10 1021 61 0 2.6 130 12:58 07.10.2019
617 Clouds 10 1021 61 0 2.6 130 12:40 07.10.2019
618 Clouds 10 1021 57 10000 2.1 70 12:21 07.10.2019
619 Clouds 9 1021 66 0 3.6 120 11:59 07.10.2019
620 Clouds 9 1021 66 0 3.6 120 11:40 07.10.2019
621 Clouds 9 1021 61 10000 2.1 90 11:21 07.10.2019
622 Clouds 9 1021 76 0 2.1 100 10:58 07.10.2019
623 Clouds 8 1021 76 0 2.1 100 10:39 07.10.2019
624 Clouds 7 1022 75 10000 0.5 340 10:20 07.10.2019
625 Fog 6 1022 93 0 1.5 70 09:40 07.10.2019
626 Fog 5 1021 81 10000 2.49 72.918 09:22 07.10.2019
627 Fog 4 1021 100 0 2.6 80 08:44 07.10.2019
628 Fog 3 1021 86 10000 0.5 0 08:21 07.10.2019
629 Fog 3 1021 93 0 3.6 100 07:59 07.10.2019
630 Fog 3 1021 93 0 3.6 100 07:40 07.10.2019
631 Fog 3 1021 86 10000 1 160 07:20 07.10.2019
632 Fog 4 1021 100 0 4.1 100 06:44 07.10.2019
633 Clear 4 1021 75 0 2.1 60 06:22 07.10.2019
634 Fog 4 1021 75 0 3.1 50 05:27 07.10.2019
635 Clear 5 1021 86 0 3.6 70 04:56 07.10.2019
636 Clear 5 1021 75 0 2.6 70 04:20 07.10.2019
637 Clear 5 1021 93 0 4.1 80 03:44 07.10.2019
638 Clear 5 1021 75 0 4.1 70 03:18 07.10.2019
639 Clear 6 1021 75 0 5.1 70 02:20 07.10.2019
640 Clear 6 1021 87 0 3.6 60 01:47 07.10.2019
641 Clear 6 1021 81 0 4.1 60 01:19 07.10.2019
642 Clear 6 1020 93 0 4.1 90 00:38 07.10.2019
643 Clear 6 1020 87 0 5.1 70 00:19 07.10.2019
644 Clear 7 1020 87 0 3.1 90 23:42 06.10.2019
645 Clear 7 1020 87 0 3.1 90 23:42 06.10.2019
646 Clear 7 1020 87 0 3.1 90 23:42 06.10.2019
647 Fog 6 1020 81 0 6.2 70 23:21 06.10.2019
648 Fog 6 1020 81 0 3.6 70 22:59 06.10.2019
649 Fog 6 1020 81 0 3.6 70 22:41 06.10.2019
650 Clear 6 1020 81 0 6.2 70 22:22 06.10.2019
651 Clear 6 1020 81 0 4.1 100 21:57 06.10.2019
652 Clear 6 1020 81 0 4.1 100 21:38 06.10.2019
653 Clear 6 1020 81 0 4.1 100 21:38 06.10.2019
654 Clear 6 1020 81 0 4.1 100 21:38 06.10.2019
655 Clouds 7 1020 81 0 6.7 70 21:19 06.10.2019
656 Clouds 7 1019 81 0 5.1 90 20:58 06.10.2019
657 Clouds 7 1019 81 0 5.1 90 20:40 06.10.2019
658 Clouds 7 1020 81 10000 3.1 70 20:20 06.10.2019
659 Clouds 7 1020 81 10000 3.1 70 20:20 06.10.2019
660 Clouds 7 1019 75 0 4.1 110 19:57 06.10.2019
661 Clouds 7 1019 75 0 4.1 110 19:37 06.10.2019
662 Clouds 8 1019 76 10000 6.7 80 19:19 06.10.2019
663 Clouds 8 1019 66 10000 5.1 120 18:57 06.10.2019
664 Clouds 9 1019 66 10000 5.1 120 18:38 06.10.2019
665 Clouds 9 1019 71 10000 6.2 80 18:19 06.10.2019
666 Clouds 9 1019 71 10000 6.2 80 18:19 06.10.2019
667 Clouds 10 1019 71 10000 5.7 90 17:57 06.10.2019
668 Clouds 10 1019 71 10000 5.7 90 17:39 06.10.2019
669 Clouds 10 1019 76 10000 4.6 80 17:19 06.10.2019
670 Clouds 10 1019 71 10000 6.2 120 16:42 06.10.2019
671 Clouds 10 1019 71 10000 6.2 90 16:24 06.10.2019
672 Clouds 11 1019 71 10000 5.1 120 15:58 06.10.2019
673 Clouds 11 1019 71 10000 5.1 120 15:39 06.10.2019
674 Clouds 11 1020 71 10000 6.2 100 15:18 06.10.2019
675 Clouds 11 1019 66 10000 5.7 130 14:43 06.10.2019
676 Rain 11 1020 71 0 6.7 100 14:24 06.10.2019
677 Clouds 11 1020 66 10000 4.6 110 13:58 06.10.2019
678 Clouds 11 1020 66 10000 4.6 110 13:39 06.10.2019
679 Rain 11 1021 76 0 5.7 90 13:20 06.10.2019
680 Rain 10 1020 71 10000 4.1 100 12:57 06.10.2019
681 Rain 10 1020 71 10000 4.1 100 12:39 06.10.2019
682 Clouds 10 1021 76 0 5.1 120 12:20 06.10.2019
683 Rain 10 1021 81 10000 3.6 120 11:57 06.10.2019
684 Rain 10 1021 81 10000 3.6 120 11:38 06.10.2019
685 Rain 9 1021 76 0 5.1 120 11:20 06.10.2019
686 Rain 9 1021 87 10000 3.6 110 10:44 06.10.2019
687 Rain 9 1021 87 10000 3.6 110 10:44 06.10.2019
688 Clouds 8 1022 76 10000 4.1 130 10:25 06.10.2019
689 Clouds 8 1021 93 10000 3.1 110 09:58 06.10.2019
690 Clouds 8 1021 93 10000 3.1 110 09:39 06.10.2019
691 Clouds 7 1021 76 0 4.1 100 09:18 06.10.2019
692 Clouds 7 1021 87 10000 2.6 140 08:43 06.10.2019
693 Clouds 7 1021 81 0 4.6 100 08:21 06.10.2019
694 Clouds 7 1021 93 10000 3.1 160 07:56 06.10.2019
695 Clouds 7 1022 87 10000 3.1 70 07:33 06.10.2019
696 Clouds 7 1022 75 0 4.6 90 06:20 06.10.2019
697 Clouds 7 1022 93 10000 2.1 160 05:34 06.10.2019
698 Clouds 7 1022 100 10000 3.6 120 03:56 06.10.2019
699 Clouds 7 1022 93 10000 2.6 130 02:46 06.10.2019
700 Clouds 7 1022 75 0 3.1 90 02:27 06.10.2019
701 Clouds 7 1022 93 10000 2.6 80 01:46 06.10.2019
702 Clouds 7 1023 81 0 4.1 70 01:27 06.10.2019
703 Clouds 7 1023 87 10000 3.1 70 00:57 06.10.2019
704 Clouds 7 1023 75 0 3.1 70 00:28 06.10.2019
705 Clouds 7 1023 87 10000 3.1 70 23:45 05.10.2019
706 Clear 7 1023 70 0 4.6 50 23:23 05.10.2019
707 Clouds 7 1023 75 10000 4.6 80 22:59 05.10.2019
708 Clouds 7 1023 75 10000 4.6 80 22:40 05.10.2019
709 Fog 7 1023 75 0 3.6 50 22:20 05.10.2019
710 Fog 7 1022 81 10000 4.1 70 21:57 05.10.2019
711 Fog 7 1022 81 10000 4.1 70 21:39 05.10.2019
712 Fog 7 1022 65 0 4.6 50 21:20 05.10.2019
713 Fog 7 1022 81 10000 5.1 70 20:56 05.10.2019
714 Fog 7 1022 81 10000 5.1 70 20:38 05.10.2019
715 Fog 7 1022 70 0 4.6 40 20:19 05.10.2019
716 Fog 8 1021 81 10000 4.1 70 19:39 05.10.2019
717 Clouds 8 1021 70 0 4.6 50 19:21 05.10.2019
718 Clouds 9 1021 75 10000 4.1 70 18:57 05.10.2019
719 Clouds 9 1021 75 10000 4.1 70 18:39 05.10.2019
720 Rain 9 1021 66 0 5.1 50 18:20 05.10.2019
721 Rain 9 1020 71 10000 2.6 80 17:56 05.10.2019
722 Rain 10 1021 66 10000 4.6 50 17:37 05.10.2019
723 Rain 10 1020 66 10000 4.6 50 17:19 05.10.2019
724 Rain 10 1020 71 10000 2.6 70 16:42 05.10.2019
725 Rain 10 1020 66 10000 4.6 50 16:22 05.10.2019
726 Rain 10 1020 71 10000 3.1 70 15:58 05.10.2019
727 Clouds 10 1020 71 10000 3.1 70 15:40 05.10.2019
728 Rain 10 1020 71 10000 4.1 40 15:21 05.10.2019
729 Rain 10 1020 71 10000 4.1 40 15:21 05.10.2019
730 Clouds 10 1019 76 10000 3.6 60 14:58 05.10.2019
731 Clouds 10 1019 76 10000 3.6 60 14:58 05.10.2019
732 Clouds 10 1019 76 10000 3.6 60 14:40 05.10.2019
733 Clouds 10 1019 76 10000 3.6 60 14:20 05.10.2019
734 Clouds 10 1019 76 10000 4.1 60 13:42 05.10.2019
735 Clouds 10 1019 76 10000 5.7 70 13:23 05.10.2019
736 Clouds 10 1019 76 10000 3.6 70 12:57 05.10.2019
737 Clouds 10 1019 76 10000 3.6 70 12:39 05.10.2019
738 Clouds 10 1019 76 10000 3.6 70 12:39 05.10.2019
739 Clouds 10 1019 76 10000 3.6 70 12:39 05.10.2019
740 Clouds 10 1019 76 10000 5.7 60 12:18 05.10.2019
741 Clouds 10 1018 76 10000 2.6 60 11:39 05.10.2019
742 Clouds 10 1018 76 10000 6.2 50 11:19 05.10.2019
743 Clouds 9 1018 81 10000 3.6 80 10:54 05.10.2019
744 Clouds 9 1018 81 10000 3.6 80 10:36 05.10.2019
745 Clouds 9 1017 87 10000 6.7 50 10:18 05.10.2019
746 Clouds 9 1017 81 10000 3.6 70 09:39 05.10.2019
747 Clouds 8 1016 81 10000 5.7 50 09:21 05.10.2019
748 Clouds 8 1016 81 10000 4.1 70 08:42 05.10.2019
749 Clouds 8 1015 87 10000 5.1 70 08:22 05.10.2019
750 Clouds 8 1015 87 10000 5.1 70 07:59 05.10.2019
751 Clouds 8 1015 87 10000 5.1 70 07:39 05.10.2019
752 Clouds 8 1014 87 10000 6.2 60 07:20 05.10.2019
753 Clouds 8 1014 87 10000 5.1 70 06:50 05.10.2019
754 Clouds 8 1014 87 0 7.2 50 06:18 05.10.2019
755 Rain 9 1013 87 10000 4.1 70 04:46 05.10.2019
756 Clouds 8 1012 87 0 6.2 60 03:31 05.10.2019
757 Clouds 8 1012 81 0 6.2 50 02:25 05.10.2019
758 Clouds 8 1011 81 0 6.7 60 01:25 05.10.2019
759 Clouds 8 1011 81 0 6.7 60 01:25 05.10.2019
760 Clouds 8 1010 87 10000 4.6 70 00:47 05.10.2019
761 Clouds 8 1010 87 10000 4.6 70 00:47 05.10.2019
762 Clear 9 1011 87 10000 4.1 60 00:27 05.10.2019
763 Clouds 9 1010 81 10000 5.7 60 23:56 04.10.2019
764 Clouds 9 1010 81 10000 5.7 60 23:37 04.10.2019
765 Clouds 9 1010 87 0 7.2 60 23:18 04.10.2019
766 Clouds 9 1009 76 10000 4.6 80 22:41 04.10.2019
767 Clouds 9 1010 87 10000 3.6 80 22:23 04.10.2019
768 Clouds 9 1009 71 10000 4.6 90 21:58 04.10.2019
769 Clouds 9 1009 71 10000 4.6 90 21:40 04.10.2019
770 Clouds 9 1010 81 10000 3.1 60 21:22 04.10.2019
771 Clouds 9 1008 76 10000 5.1 100 20:58 04.10.2019
772 Clouds 9 1008 76 10000 5.1 100 20:40 04.10.2019
773 Clouds 9 1009 81 10000 3.6 60 20:21 04.10.2019
774 Clouds 9 1008 87 10000 4.1 130 19:55 04.10.2019
775 Clouds 9 1008 76 10000 6.7 90 19:37 04.10.2019
776 Clouds 10 1007 87 10000 4.6 100 19:19 04.10.2019
777 Clouds 10 1007 87 10000 4.6 130 18:54 04.10.2019
778 Rain 10 1007 87 10000 4.6 130 18:36 04.10.2019
779 Rain 10 1008 87 10000 4.6 120 18:18 04.10.2019
780 Rain 10 1007 87 10000 6.2 120 17:39 04.10.2019
781 Rain 10 1007 87 10000 8.7 110 17:21 04.10.2019
782 Rain 10 1007 93 10000 3.6 130 16:58 04.10.2019
783 Rain 10 1007 93 10000 3.6 130 16:39 04.10.2019
784 Rain 10 1007 93 5000 7.2 120 16:18 04.10.2019
785 Rain 10 1007 93 5000 7.2 120 16:18 04.10.2019
786 Rain 10 1007 93 10000 1 0 15:56 04.10.2019
787 Rain 10 1007 93 10000 1 0 15:37 04.10.2019
788 Rain 10 1008 87 10000 3.6 120 15:37 04.10.2019
789 Rain 10 1007 93 6000 7.2 130 15:19 04.10.2019
790 Rain 10 1007 93 10000 3.6 130 14:55 04.10.2019
791 Rain 10 1007 93 10000 3.6 130 14:37 04.10.2019
792 Rain 10 1007 93 10000 3.1 140 14:19 04.10.2019
793 Rain 10 1007 93 8000 4.6 140 13:44 04.10.2019
794 Drizzle 10 1008 87 10000 6.7 140 13:21 04.10.2019
795 Drizzle 10 1008 93 5000 4.6 150 12:54 04.10.2019
796 Drizzle 10 1008 93 5000 4.6 150 12:36 04.10.2019
797 Rain 9 1008 93 4500 4.6 160 12:18 04.10.2019
798 Rain 9 1008 87 7000 4.6 160 11:42 04.10.2019
799 Rain 9 1008 87 7000 4.6 160 11:41 04.10.2019
800 Mist 9 1008 93 3800 2.6 130 11:21 04.10.2019
801 Mist 9 1008 93 5000 3.6 160 10:41 04.10.2019
802 Mist 9 1008 87 8000 5.7 130 10:21 04.10.2019
803 Mist 8 1008 93 5000 5.1 150 09:58 04.10.2019
804 Mist 8 1008 93 5000 5.1 150 09:40 04.10.2019
805 Fog 8 1008 93 6000 3.6 150 09:22 04.10.2019
806 Rain 8 1009 93 9000 3.6 160 08:43 04.10.2019
807 Rain 7 1009 100 700 2.1 130 08:25 04.10.2019
808 Rain 7 1009 93 10000 3.6 150 07:47 04.10.2019
809 Rain 7 1009 100 10000 1.5 140 07:24 04.10.2019
810 Clouds 7 1009 93 10000 4.6 160 06:56 04.10.2019
811 Clouds 7 1009 93 10000 4.6 160 06:37 04.10.2019
812 Clear 7 1009 87 10000 3.1 120 06:18 04.10.2019
813 Clouds 6 1010 87 10000 3.1 130 05:19 04.10.2019
814 Clouds 6 1010 93 10000 6.2 160 04:35 04.10.2019
815 Clouds 7 1012 93 10000 4.6 160 02:56 04.10.2019
816 Clouds 6 1012 93 10000 4.6 160 02:37 04.10.2019
817 Clouds 6 1012 93 10000 4.6 160 02:37 04.10.2019
818 Clouds 6 1012 93 10000 4.1 150 01:43 04.10.2019
819 Clear 6 1013 87 0 2.1 120 01:25 04.10.2019
820 Clear 7 1013 81 0 2.1 140 00:32 04.10.2019
821 Clouds 7 1013 93 10000 4.1 140 23:39 03.10.2019
822 Clouds 7 1013 93 10000 1.5 110 23:21 03.10.2019
823 Clouds 7 1014 87 10000 3.1 140 22:57 03.10.2019
824 Clouds 8 1014 87 10000 3.1 140 22:39 03.10.2019
825 Clouds 8 1014 81 10000 1 90 22:21 03.10.2019
826 Clouds 8 1014 81 10000 1 90 22:21 03.10.2019
827 Clouds 9 1014 81 10000 2.6 130 21:57 03.10.2019
828 Clouds 9 1014 81 10000 2.6 130 21:39 03.10.2019
829 Clouds 9 1014 76 10000 1 40 21:19 03.10.2019
830 Clouds 9 1014 87 10000 2.1 130 20:58 03.10.2019
831 Clouds 9 1014 87 10000 2.1 130 20:38 03.10.2019
832 Clouds 9 1014 87 10000 2.1 130 20:38 03.10.2019
833 Clouds 9 1014 81 10000 0.5 230 20:20 03.10.2019
834 Clouds 9 1014 87 10000 3.1 80 19:56 03.10.2019
835 Clouds 9 1014 87 10000 3.1 80 19:37 03.10.2019
836 Clouds 10 1014 71 10000 1 320 19:19 03.10.2019
837 Clouds 10 1014 76 10000 2.6 80 18:56 03.10.2019
838 Clouds 10 1014 76 10000 2.6 80 18:37 03.10.2019
839 Clouds 11 1014 71 10000 1.5 50 18:18 03.10.2019
840 Clouds 11 1014 71 10000 2.1 80 17:42 03.10.2019
841 Clouds 11 1014 66 10000 1.5 360 17:21 03.10.2019
842 Clouds 11 1014 66 10000 1 80 16:57 03.10.2019
843 Clouds 11 1014 66 10000 1 80 16:39 03.10.2019
844 Clouds 11 1014 71 10000 2.1 40 16:20 03.10.2019
845 Clouds 11 1014 71 10000 2.6 40 15:45 03.10.2019
846 Clouds 12 1014 71 10000 2.6 20 15:24 03.10.2019
847 Clouds 11 1015 71 10000 3.6 30 14:59 03.10.2019
848 Clouds 11 1015 71 10000 3.6 30 14:37 03.10.2019
849 Clouds 11 1015 71 10000 1.5 360 14:19 03.10.2019
850 Rain 11 1015 71 10000 3.1 20 13:44 03.10.2019
851 Rain 11 1016 81 10000 4.1 340 13:26 03.10.2019
852 Rain 11 1015 76 10000 3.6 20 12:59 03.10.2019
853 Rain 11 1015 76 10000 3.6 20 12:40 03.10.2019
854 Rain 11 1015 81 10000 3.1 360 12:20 03.10.2019
855 Rain 11 1015 81 10000 3.1 360 12:20 03.10.2019
856 Rain 11 1014 81 10000 4.6 20 11:59 03.10.2019
857 Rain 10 1014 81 10000 4.6 20 11:40 03.10.2019
858 Clouds 10 1014 81 10000 4.6 340 11:21 03.10.2019
859 Clouds 10 1014 81 10000 5.7 40 10:58 03.10.2019
860 Clouds 9 1014 81 10000 5.7 40 10:39 03.10.2019
861 Clouds 8 1014 87 10000 1.5 350 10:18 03.10.2019
862 Clouds 8 1014 87 10000 1.5 350 10:18 03.10.2019
863 Clouds 8 1013 93 10000 2.6 10 09:56 03.10.2019
864 Clouds 8 1013 93 10000 2.6 10 09:56 03.10.2019
865 Clouds 7 1013 93 10000 2.6 10 09:38 03.10.2019
866 Clouds 6 1014 93 10000 1.5 330 09:19 03.10.2019
867 Clouds 6 1013 93 10000 2.1 320 08:43 03.10.2019
868 Clear 5 1013 93 10000 1.5 350 08:25 03.10.2019
869 Clouds 5 1012 100 10000 3.1 360 07:55 03.10.2019
870 Clouds 5 1012 100 10000 3.1 360 07:37 03.10.2019
871 Clouds 5 1012 93 10000 2.6 350 07:19 03.10.2019
872 Clouds 6 1012 93 10000 2.1 340 06:27 03.10.2019
873 Clouds 6 1011 93 10000 6.7 10 05:50 03.10.2019
874 Clouds 6 1011 93 10000 3.1 330 05:31 03.10.2019
875 Clouds 6 1011 93 10000 3.6 330 04:47 03.10.2019
876 Clouds 6 1011 93 10000 3.1 330 04:18 03.10.2019
877 Clouds 7 1011 93 10000 3.1 330 03:19 03.10.2019
878 Clouds 7 1011 93 10000 4.1 330 02:33 03.10.2019
879 Clouds 7 1009 87 10000 9.3 350 01:42 03.10.2019
880 Clouds 7 1010 87 10000 4.1 310 01:20 03.10.2019
881 Clouds 8 1009 87 10000 6.7 330 00:41 03.10.2019
882 Clouds 8 1008 87 10000 6.2 330 23:58 02.10.2019
883 Clouds 8 1008 87 10000 6.2 330 23:38 02.10.2019
884 Clouds 8 1007 81 10000 6.7 330 23:20 02.10.2019
885 Clouds 9 1006 87 10000 9.3 360 22:43 02.10.2019
886 Clouds 9 1006 87 10000 9.3 360 22:43 02.10.2019
887 Clouds 9 1007 87 10000 4.1 340 22:21 02.10.2019
888 Clouds 9 1005 81 10000 9.3 340 21:56 02.10.2019
889 Clouds 9 1005 81 10000 9.3 340 21:38 02.10.2019
890 Rain 9 1004 87 10000 9.8 340 21:19 02.10.2019
891 Rain 9 1004 87 10000 8.7 340 20:56 02.10.2019
892 Rain 9 1004 87 10000 8.7 340 20:38 02.10.2019
893 Clouds 9 1003 87 10000 3.6 280 20:20 02.10.2019
894 Drizzle 10 1003 93 10000 7.7 300 19:54 02.10.2019
895 Drizzle 10 1003 87 10000 3.1 290 19:36 02.10.2019
896 Rain 10 1003 87 10000 3.6 270 19:18 02.10.2019
897 -273 0 0 0 0 0 18:55 02.10.2019
898 Rain 10 1003 87 10000 6.7 260 18:36 02.10.2019
899 Rain 10 1003 87 10000 4.6 240 18:18 02.10.2019
900 Rain 10 1003 87 10000 7.7 240 17:42 02.10.2019
901 Rain 11 1003 81 10000 5.1 240 17:21 02.10.2019
902 Rain 11 1003 81 10000 5.1 240 17:21 02.10.2019
903 Rain 10 1003 81 10000 7.7 250 16:58 02.10.2019
904 Rain 11 1003 81 10000 7.7 250 16:39 02.10.2019
905 Rain 11 1003 76 10000 4.6 250 16:20 02.10.2019
906 Rain 11 1003 76 10000 4.6 250 15:56 02.10.2019
907 Rain 11 1004 62 10000 9.8 290 15:37 02.10.2019
908 Rain 11 1003 81 10000 6.2 270 15:18 02.10.2019
909 Rain 11 1003 81 10000 6.2 270 15:18 02.10.2019
910 Rain 12 1004 71 10000 9.8 270 14:45 02.10.2019
911 Rain 13 1003 66 10000 6.2 260 14:27 02.10.2019
912 Rain 12 1004 71 10000 12.3 280 13:58 02.10.2019
913 Rain 13 1004 54 10000 6.7 290 13:40 02.10.2019
914 Rain 12 1002 66 10000 7.2 280 13:21 02.10.2019
915 Clouds 12 1003 66 10000 11.3 270 12:54 02.10.2019
916 Clouds 12 1004 66 10000 8.7 290 12:36 02.10.2019
917 Clear 12 1002 71 10000 4.6 260 12:18 02.10.2019
918 Clear 12 1002 71 10000 4.6 260 12:18 02.10.2019
919 Clouds 11 1003 62 10000 5.1 270 11:41 02.10.2019
920 Clear 11 1002 71 10000 4.1 260 11:21 02.10.2019
921 Clouds 10 1003 76 10000 4.1 270 10:40 02.10.2019
922 Clouds 9 1002 76 10000 3.6 250 10:19 02.10.2019
923 Clouds 9 1002 76 10000 3.6 250 10:19 02.10.2019
924 Clouds 7 1002 87 10000 2.6 240 09:42 02.10.2019
925 Clouds 6 1001 87 10000 2.6 250 09:21 02.10.2019
926 Clouds 6 1001 100 10000 4.6 270 08:59 02.10.2019
927 Clouds 5 1002 93 10000 3.1 220 08:41 02.10.2019
928 Clouds 5 1001 93 10000 2.6 270 08:22 02.10.2019
929 Clouds 5 1001 100 10000 4.1 270 07:55 02.10.2019
930 Clouds 5 1001 93 10000 1.5 250 07:37 02.10.2019
931 Clouds 5 1000 87 10000 3.6 260 07:18 02.10.2019
932 Fog 5 1000 81 0 3.6 250 06:29 02.10.2019
933 Fog 5 1000 100 0 4.1 280 05:51 02.10.2019
934 Clear 5 1000 87 0 3.1 250 05:22 02.10.2019
935 Fog 6 1000 87 0 3.1 250 04:18 02.10.2019
936 Fog 6 1000 100 0 3.6 270 03:50 02.10.2019
937 Clouds 6 1001 93 7000 1.5 250 02:38 02.10.2019
938 Fog 6 1000 87 0 3.1 250 02:20 02.10.2019
939 Fog 7 1000 81 0 3.1 250 01:18 02.10.2019
940 Clouds 7 1000 81 0 2.6 250 00:30 02.10.2019
941 Clouds 7 1000 100 0 4.6 300 23:59 01.10.2019
942 Clouds 7 1000 93 10000 2.1 250 23:41 01.10.2019
943 Clouds 7 1000 93 10000 2.1 250 23:41 01.10.2019
944 Clouds 8 999 87 0 2.6 250 23:22 01.10.2019
945 Clouds 7 999 100 0 4.6 310 22:58 01.10.2019
946 Clouds 8 1000 93 10000 2.1 270 22:38 01.10.2019
947 Clouds 8 1000 93 10000 1.5 270 22:18 01.10.2019
948 Clouds 8 999 93 10000 2.1 240 21:44 01.10.2019
949 Clear 8 999 87 10000 2.1 260 21:25 01.10.2019
950 Clouds 8 999 93 0 3.6 280 20:59 01.10.2019
951 Clouds 9 999 100 10000 2.1 270 20:39 01.10.2019
952 Clouds 9 998 81 10000 2.1 250 20:21 01.10.2019
953 Clouds 9 999 81 0 4.1 300 19:59 01.10.2019
954 Clouds 9 999 93 10000 2.1 290 19:41 01.10.2019
955 Clouds 9 998 76 10000 2.6 280 19:23 01.10.2019
956 Clouds 10 999 81 10000 4.1 320 18:58 01.10.2019
957 Clouds 10 999 81 10000 1.5 320 18:38 01.10.2019
958 Rain 10 998 71 10000 4.1 300 18:19 01.10.2019
959 Rain 10 998 87 10000 3.1 310 17:55 01.10.2019
960 Rain 10 998 71 10000 3.1 320 17:36 01.10.2019
961 Rain 10 998 71 10000 3.1 320 17:18 01.10.2019
962 Rain 10 998 81 10000 3.1 340 16:54 01.10.2019
963 Drizzle 10 998 87 5000 3.1 20 16:36 01.10.2019
964 Drizzle 10 998 87 5000 3.1 20 16:18 01.10.2019
965 Clouds 10 998 71 10000 3.1 350 15:42 01.10.2019
966 Rain 10 998 81 10000 2.6 350 15:21 01.10.2019
967 Rain 10 997 87 5000 3.1 20 14:41 01.10.2019
968 Drizzle 10 998 81 10000 2.6 10 14:20 01.10.2019
969 Drizzle 10 998 87 10000 4.6 30 13:57 01.10.2019
970 Rain 10 997 87 10000 4.6 50 13:38 01.10.2019
971 Rain 10 998 87 10000 2.6 10 13:19 01.10.2019
972 Rain 10 998 87 10000 1 0 12:57 01.10.2019
973 Rain 10 998 87 10000 1 0 12:57 01.10.2019
974 Rain 10 997 93 10000 5.1 50 12:38 01.10.2019
975 Rain 10 998 81 10000 1.5 30 12:18 01.10.2019
976 Rain 10 998 81 10000 1.5 30 12:18 01.10.2019
977 Rain 10 998 93 10000 2.6 70 11:57 01.10.2019
978 Rain 10 998 100 9000 4.1 50 11:37 01.10.2019
979 Rain 10 999 87 10000 2.1 20 11:18 01.10.2019
980 Rain 10 999 93 8000 3.1 70 10:48 01.10.2019
981 Rain 10 999 93 10000 1.5 70 10:28 01.10.2019
982 Rain 10 1000 93 7000 3.1 70 09:47 01.10.2019
983 Rain 9 999 93 5000 3.1 70 09:27 01.10.2019
984 Rain 9 1000 93 7000 2.6 80 08:56 01.10.2019
985 Rain 9 999 93 3000 4.1 60 08:38 01.10.2019
986 Rain 9 1000 93 6000 2.1 20 08:20 01.10.2019
987 Rain 10 1000 93 6000 1.78 125.919 07:42 01.10.2019
988 Rain 10 1000 93 8000 1.5 60 07:22 01.10.2019
989 Rain 10 1000 100 8000 1 90 06:45 01.10.2019
990 Rain 10 1002 93 10000 1 230 06:18 01.10.2019
991 Rain 10 1001 93 0 0.5 0 06:18 01.10.2019
992 Rain 10 1002 100 8000 1.5 140 05:45 01.10.2019
993 Rain 10 1003 93 10000 1 270 04:49 01.10.2019
994 Rain 10 1003 87 0 1.5 210 04:26 01.10.2019
995 Clouds 10 1004 93 10000 1.5 190 02:26 01.10.2019
996 Drizzle 10 1004 87 10000 4.1 270 01:58 01.10.2019
997 Clouds 10 1004 93 10000 4.6 280 00:53 01.10.2019
998 Rain 9 1004 81 0 2.1 270 00:26 01.10.2019
999 Clouds 9 1005 93 10000 5.1 290 23:55 30.09.2019
1000 Rain 10 1005 93 10000 3.1 230 23:37 30.09.2019
1001 Rain 10 1004 81 0 2.1 240 23:19 30.09.2019
1002 Rain 10 1005 87 10000 3.1 240 22:42 30.09.2019
1003 Clouds 10 1004 81 10000 3.1 270 22:24 30.09.2019
1004 Rain 10 1004 81 10000 7.2 290 21:57 30.09.2019
1005 Clouds 10 1005 87 10000 4.1 270 21:38 30.09.2019
1006 Clouds 11 1004 76 10000 2.1 290 21:19 30.09.2019
1007 Clouds 11 1004 76 10000 2.1 290 21:19 30.09.2019
1008 Clouds 11 1004 76 10000 9.3 300 20:56 30.09.2019
1009 Clouds 11 1005 81 10000 3.6 270 20:38 30.09.2019
1010 Clouds 12 1003 71 10000 3.6 280 20:20 30.09.2019
1011 Clouds 12 1004 76 10000 8.2 290 19:56 30.09.2019
1012 Clouds 12 1004 76 10000 8.2 290 19:56 30.09.2019
1013 Rain 12 1005 71 10000 5.1 290 19:38 30.09.2019
1014 Clouds 12 1003 66 10000 4.1 280 19:19 30.09.2019
1015 Clouds 13 1003 66 10000 9.8 300 18:56 30.09.2019
1016 Clouds 13 1004 66 10000 6.7 290 18:37 30.09.2019
1017 Clouds 13 1003 66 10000 6.2 290 18:19 30.09.2019
1018 Clouds 13 1004 66 10000 8.2 300 17:42 30.09.2019
1019 Clouds 14 1002 66 10000 6.7 290 17:22 30.09.2019
1020 Clouds 14 1002 62 10000 16.5 310 16:56 30.09.2019
1021 Rain 14 1001 62 10000 8.2 290 16:38 30.09.2019
1022 Rain 14 1001 62 10000 8.2 290 16:19 30.09.2019
1023 Rain 14 1001 62 10000 17.5 310 15:57 30.09.2019
1024 Rain 14 1002 71 10000 11.3 310 15:37 30.09.2019
1025 Rain 15 1000 54 10000 9.3 290 15:19 30.09.2019
1026 Rain 15 1000 67 10000 17 310 14:57 30.09.2019
1027 Rain 15 1001 76 10000 11.3 300 14:37 30.09.2019
1028 Rain 15 999 67 10000 8.7 300 14:18 30.09.2019
1029 Rain 15 999 67 10000 8.7 300 14:18 30.09.2019
1030 Rain 15 999 67 10000 8.7 300 14:18 30.09.2019
1031 Rain 15 999 62 10000 12.9 290 13:56 30.09.2019
1032 Rain 15 1000 67 10000 11.8 290 13:37 30.09.2019
1033 Rain 15 998 72 10000 8.2 300 13:19 30.09.2019
1034 Rain 15 999 72 10000 10.8 290 12:42 30.09.2019
1035 Rain 15 997 77 10000 14.9 310 12:22 30.09.2019
1036 Rain 15 997 77 10000 11.8 300 11:57 30.09.2019
1037 -273 0 0 0 0 0 11:57 30.09.2019
1038 Rain 15 997 77 10000 11.8 300 11:57 30.09.2019
1039 Rain 14 998 77 10000 8.7 300 11:38 30.09.2019
1040 Rain 14 995 76 10000 6.2 300 11:19 30.09.2019
1041 Rain 14 995 76 10000 6.2 300 11:19 30.09.2019
1042 Rain 13 996 82 10000 8.2 290 10:41 30.09.2019
1043 Clouds 13 994 76 10000 5.7 290 10:20 30.09.2019
1044 Clouds 13 994 82 10000 10.3 320 09:59 30.09.2019
1045 Drizzle 12 995 87 10000 6.7 300 09:39 30.09.2019
1046 Drizzle 12 995 87 10000 6.7 300 09:39 30.09.2019
1047 Rain 12 995 87 9000 9.3 310 09:21 30.09.2019
1048 Rain 12 993 93 10000 9.8 320 08:51 30.09.2019
1049 Rain 12 992 93 10000 6.7 300 08:33 30.09.2019
1050 Rain 12 993 93 5000 7.7 320 07:46 30.09.2019
1051 Rain 12 992 93 10000 5.1 300 07:28 30.09.2019
1052 Rain 12 990 100 0 12.9 340 06:59 30.09.2019
1053 Rain 12 990 93 5000 10.8 330 06:40 30.09.2019
1054 Rain 13 988 93 0 11.8 350 05:51 30.09.2019
1055 Rain 14 987 93 0 8.7 350 05:33 30.09.2019
1056 Rain 15 987 93 0 3.6 250 02:49 30.09.2019
1057 Rain 15 988 93 7000 4.6 240 01:41 30.09.2019
1058 Rain 15 988 93 0 5.7 260 00:55 30.09.2019
1059 Rain 15 988 93 6000 6.2 250 00:37 30.09.2019
1060 Rain 15 987 93 0 2.1 210 00:18 30.09.2019
1061 Mist 15 988 93 6000 5.7 240 23:39 29.09.2019
1062 Mist 15 988 100 0 2.6 170 23:20 29.09.2019
1063 Rain 15 988 100 0 3.1 170 22:43 29.09.2019
1064 Rain 14 988 100 0 3.1 160 22:25 29.09.2019
1065 Rain 14 988 100 0 4.6 200 21:59 29.09.2019
1066 Rain 14 989 100 2600 5.1 220 21:39 29.09.2019
1067 Rain 14 988 93 5000 2.6 160 21:20 29.09.2019
1068 Rain 14 989 93 0 6.2 190 20:59 29.09.2019
1069 Rain 14 990 93 1900 4.1 190 20:41 29.09.2019
1070 Rain 14 990 93 1900 4.1 190 20:41 29.09.2019
1071 Rain 14 990 93 6000 4.1 140 20:19 29.09.2019
1072 Rain 14 990 93 0 5.7 190 19:56 29.09.2019
1073 Rain 14 990 93 0 5.7 190 19:55 29.09.2019
1074 Rain 14 991 93 5000 3.6 200 19:36 29.09.2019
1075 Rain 13 991 93 4000 3.1 200 19:18 29.09.2019
1076 Rain 13 991 100 3000 4.1 150 18:55 29.09.2019
1077 Rain 13 992 100 4000 3.6 140 18:36 29.09.2019
1078 Rain 13 992 100 4000 3.6 140 18:18 29.09.2019
1079 Rain 13 992 100 2800 4.1 160 17:55 29.09.2019
1080 Rain 13 993 100 2500 4.6 180 17:36 29.09.2019
1081 Rain 13 993 100 2500 4.6 180 17:18 29.09.2019
1082 Rain 13 993 100 3000 5.1 190 16:54 29.09.2019
1083 Drizzle 13 994 93 8000 3.1 180 16:36 29.09.2019
1084 Drizzle 13 994 93 10000 3.6 170 16:18 29.09.2019
1085 Drizzle 13 995 93 3000 4.6 190 15:39 29.09.2019
1086 Drizzle 13 995 93 3000 4.6 190 15:19 29.09.2019
1087 Rain 13 996 93 9000 4.1 190 14:59 29.09.2019
1088 Rain 13 996 93 6000 5.1 190 14:38 29.09.2019
1089 Rain 13 996 93 8000 4.6 190 14:20 29.09.2019
1090 Rain 14 997 87 10000 4.6 210 13:57 29.09.2019
1091 Rain 13 997 93 5000 5.1 190 13:38 29.09.2019
1092 Rain 14 997 87 10000 3.6 200 13:18 29.09.2019
1093 Rain 14 998 87 10000 5.1 210 12:57 29.09.2019
1094 Rain 14 998 87 5000 6.7 200 12:39 29.09.2019
1095 Rain 14 998 87 10000 3.6 210 12:21 29.09.2019
1096 Rain 14 999 87 10000 5.1 220 11:55 29.09.2019
1097 Rain 14 999 87 9000 6.7 200 11:37 29.09.2019
1098 Rain 13 999 87 0 5.7 210 11:18 29.09.2019
1099 Rain 13 999 87 10000 6.7 230 10:55 29.09.2019
1100 Rain 14 999 93 6000 7.2 230 10:36 29.09.2019
1101 Rain 14 999 93 6000 7.2 230 10:36 29.09.2019
1102 Rain 14 999 93 6000 7.2 230 10:18 29.09.2019
1103 Rain 14 999 93 0 2.1 220 09:44 29.09.2019
1104 Rain 14 999 93 0 2.1 230 09:20 29.09.2019
1105 Rain 14 1000 93 10000 4.6 230 08:57 29.09.2019
1106 Clouds 14 1001 93 3000 7.7 230 08:37 29.09.2019
1107 Clouds 14 1000 93 0 2.1 200 08:18 29.09.2019
1108 Rain 14 1001 93 1100 6.7 230 07:41 29.09.2019
1109 Rain 14 1001 93 1100 6.7 230 07:41 29.09.2019
1110 Clouds 14 1000 93 0 3.1 200 07:23 29.09.2019
1111 Clouds 13 1001 93 4700 6.2 220 06:42 29.09.2019
1112 Rain 13 1001 87 0 5.7 240 04:59 29.09.2019
1113 Rain 12 1003 93 2500 3.6 220 04:25 29.09.2019
1114 Rain 12 1002 82 0 7.7 240 03:56 29.09.2019
1115 Rain 12 1002 82 0 7.2 240 02:47 29.09.2019
1116 Rain 12 1002 87 0 3.1 230 02:18 29.09.2019
1117 Clouds 12 1002 87 0 4.1 230 01:32 29.09.2019
1118 Rain 12 1002 87 0 8.2 250 00:52 29.09.2019
1119 Rain 12 1002 87 0 4.6 240 00:21 29.09.2019
1120 Rain 13 1003 87 9000 4.6 250 23:43 28.09.2019
1121 Rain 13 1001 87 0 6.2 250 23:23 28.09.2019
1122 Drizzle 13 1002 87 0 10.3 260 22:59 28.09.2019
1123 Rain 13 1003 93 7000 6.2 220 22:38 28.09.2019
1124 Clouds 13 1003 87 10000 4.6 230 22:20 28.09.2019
1125 Rain 14 1001 87 0 6.2 230 21:57 28.09.2019
1126 Rain 14 1003 87 8000 6.7 220 21:38 28.09.2019
1127 Rain 14 1000 93 5000 5.1 200 21:20 28.09.2019
1128 Rain 14 1002 93 0 6.7 210 20:57 28.09.2019
1129 Rain 14 1002 93 2500 5.1 200 20:38 28.09.2019
1130 Rain 14 1003 87 10000 4.1 230 20:18 28.09.2019
1131 Rain 14 1003 87 10000 4.1 230 20:18 28.09.2019
1132 Rain 14 1002 87 0 7.2 200 19:56 28.09.2019
1133 Rain 14 1002 87 0 7.2 200 19:56 28.09.2019
1134 Rain 14 1003 87 9000 4.1 180 19:37 28.09.2019
1135 Rain 14 1001 87 4000 6.7 200 19:19 28.09.2019
1136 Rain 15 1003 82 0 7.2 210 18:54 28.09.2019
1137 Rain 15 1004 87 4800 4.6 210 18:36 28.09.2019
1138 Rain 15 1003 82 0 5.1 200 18:18 28.09.2019
1139 Rain 16 1004 72 10000 6.2 210 17:42 28.09.2019
1140 Clouds 16 1003 67 10000 5.7 210 17:22 28.09.2019
1141 Clouds 16 1003 67 10000 5.7 210 17:22 28.09.2019
1142 Rain 16 1004 72 0 7.7 230 16:57 28.09.2019
1143 Rain 16 1004 67 10000 8.2 220 16:38 28.09.2019
1144 Clouds 16 1004 77 10000 7.7 210 16:20 28.09.2019
1145 Rain 17 1005 63 10000 9.3 230 15:41 28.09.2019
1146 Rain 16 1004 72 10000 6.2 210 15:22 28.09.2019
1147 Rain 16 1004 72 0 5.1 230 14:56 28.09.2019
1148 Rain 16 1005 67 10000 10.3 230 14:38 28.09.2019
1149 Rain 16 1004 77 10000 5.7 210 14:19 28.09.2019
1150 Rain 16 1005 77 0 8.7 230 13:56 28.09.2019
1151 Rain 16 1005 87 10000 3.1 230 13:37 28.09.2019
1152 Rain 16 1005 87 10000 3.1 230 13:19 28.09.2019
1153 Rain 15 1006 72 10000 9.3 230 12:40 28.09.2019
1154 Rain 15 1005 82 10000 4.1 220 12:19 28.09.2019
1155 Rain 15 1004 77 10000 5.1 210 11:54 28.09.2019
1156 Rain 15 1005 72 10000 9.3 230 11:36 28.09.2019
1157 Rain 15 1004 82 0 5.7 220 11:18 28.09.2019
1158 Rain 15 1005 82 10000 7.7 220 10:40 28.09.2019
1159 Clouds 15 1004 87 10000 4.6 200 10:20 28.09.2019
1160 Rain 14 1004 93 0 5.1 210 09:54 28.09.2019
1161 Rain 14 1005 87 9000 6.7 220 09:36 28.09.2019
1162 Rain 14 1004 87 10000 3.6 190 09:18 28.09.2019
1163 Rain 14 1003 87 10000 3.6 190 08:42 28.09.2019
1164 Clouds 13 1003 87 10000 3.1 190 08:23 28.09.2019
1165 Rain 13 1003 93 0 4.6 200 07:45 28.09.2019
1166 Rain 13 1003 87 10000 3.6 180 07:21 28.09.2019
1167 Clouds 13 1003 93 10000 5.7 200 06:53 28.09.2019
1168 Rain 13 1003 82 0 3.6 180 06:31 28.09.2019
1169 Clouds 13 1003 87 10000 5.1 210 05:55 28.09.2019
1170 Rain 13 1003 87 0 3.6 190 05:20 28.09.2019
1171 Rain 13 1004 87 10000 4.1 200 04:39 28.09.2019
1172 Clouds 14 1003 87 10000 6.7 200 03:56 28.09.2019
1173 Rain 13 1003 87 0 3.6 170 03:23 28.09.2019
1174 Clouds 13 1003 93 10000 6.7 180 02:56 28.09.2019
1175 Rain 13 1004 87 0 3.6 160 02:32 28.09.2019
1176 Clouds 13 1004 93 10000 6.7 180 01:49 28.09.2019
1177 Rain 13 1004 87 0 3.6 160 01:26 28.09.2019
1178 Clouds 13 1004 93 10000 6.7 180 00:58 28.09.2019
1179 Rain 13 1004 87 10000 3.6 150 00:38 28.09.2019
1180 Rain 13 1004 87 0 3.6 160 00:18 28.09.2019
1181 Rain 13 1005 82 0 3.1 170 23:37 27.09.2019
1182 Rain 13 1005 82 0 3.1 170 23:19 27.09.2019
1183 Clouds 13 1005 93 10000 6.2 180 22:47 27.09.2019
1184 Clouds 14 1005 82 10000 3.6 180 22:20 27.09.2019
1185 Rain 14 1005 93 10000 3.1 200 21:58 27.09.2019
1186 Rain 14 1005 87 10000 4.1 180 21:39 27.09.2019
1187 Clear 14 1005 87 10000 3.1 150 21:20 27.09.2019
1188 Clouds 14 1005 93 10000 4.1 200 20:58 27.09.2019
1189 Clouds 14 1005 93 10000 4.1 200 20:58 27.09.2019
1190 Rain 14 1005 87 8000 2.6 170 20:39 27.09.2019
1191 Clear 14 1005 82 10000 2.1 170 20:19 27.09.2019
1192 Clouds 15 1005 87 9000 4.1 200 19:57 27.09.2019
1193 Rain 15 1005 82 10000 3.1 180 19:38 27.09.2019
1194 Rain 15 1005 82 10000 3.1 180 19:38 27.09.2019
1195 Rain 15 1005 82 10000 2.1 210 19:19 27.09.2019
1196 Rain 16 1005 77 10000 2.1 200 18:41 27.09.2019
1197 Rain 16 1005 77 10000 3.6 210 18:23 27.09.2019
1198 Rain 17 1005 82 0 4.1 230 17:56 27.09.2019
1199 Rain 17 1005 72 10000 5.7 240 17:38 27.09.2019
1200 Rain 17 1005 82 10000 4.1 210 17:19 27.09.2019
1201 Rain 17 1005 82 0 5.1 240 16:57 27.09.2019
1202 Rain 17 1005 63 10000 6.7 240 16:37 27.09.2019
1203 Rain 17 1005 63 10000 6.7 240 16:37 27.09.2019
1204 Rain 17 1004 68 10000 5.7 230 16:18 27.09.2019
1205 Rain 17 1004 68 10000 5.7 230 16:18 27.09.2019
1206 Rain 17 1005 68 0 7.2 260 15:45 27.09.2019
1207 Rain 17 1004 77 10000 3.6 220 15:21 27.09.2019
1208 Rain 17 1004 77 10000 3.6 220 15:21 27.09.2019
1209 Rain 17 1004 77 0 6.2 240 14:59 27.09.2019
1210 Rain 17 1005 77 10000 6.7 240 14:41 27.09.2019
1211 Clouds 17 1004 77 10000 3.6 230 14:21 27.09.2019
1212 Rain 16 1005 82 0 5.7 240 13:58 27.09.2019
1213 Rain 17 1005 77 10000 7.2 220 13:40 27.09.2019
1214 Clouds 17 1004 82 10000 5.1 200 13:21 27.09.2019
1215 Clouds 17 1004 82 10000 5.1 200 13:21 27.09.2019
1216 Clouds 17 1004 82 10000 5.1 200 13:21 27.09.2019
1217 Rain 16 1005 82 0 5.7 230 12:54 27.09.2019
1218 Clouds 16 1005 82 10000 6.2 220 12:24 27.09.2019
1219 Rain 16 1004 82 0 5.1 230 11:59 27.09.2019
1220 Clouds 16 1005 82 8000 5.1 210 11:38 27.09.2019
1221 Clouds 15 1004 87 10000 3.1 190 11:20 27.09.2019
1222 Rain 15 1005 93 0 4.6 230 10:54 27.09.2019
1223 Rain 15 1005 87 8000 5.1 220 10:36 27.09.2019
1224 Rain 15 1004 93 8000 4.6 210 10:18 27.09.2019
1225 Rain 15 1005 100 5000 5.1 230 09:41 27.09.2019
1226 Rain 15 1005 93 7000 5.1 230 09:20 27.09.2019
1227 Rain 15 1004 93 0 5.1 230 08:55 27.09.2019
1228 Clouds 15 1005 93 7000 4.6 220 08:37 27.09.2019
1229 Clouds 15 1004 93 10000 2.6 200 08:19 27.09.2019
1230 Clouds 15 1004 93 0 4.6 230 07:45 27.09.2019
1231 Rain 15 1004 93 10000 3.1 160 07:22 27.09.2019
1232 Rain 15 1004 93 8000 4.6 230 06:42 27.09.2019
1233 Rain 15 1004 93 7000 3.1 230 06:23 27.09.2019
1234 Rain 15 1004 93 0 2.1 200 05:49 27.09.2019
1235 Rain 15 1004 93 0 3.6 150 05:31 27.09.2019
1236 Rain 16 1005 100 0 4.6 200 03:54 27.09.2019
1237 Rain 16 1005 93 6000 5.1 170 02:41 27.09.2019
1238 Rain 16 1005 93 4600 4.6 160 01:44 27.09.2019
1239 Rain 16 1005 93 0 6.7 180 00:59 27.09.2019
1240 Rain 16 1006 93 0 5.7 150 00:20 27.09.2019
1241 Drizzle 16 1006 93 0 6.2 170 23:56 26.09.2019
1242 Rain 16 1006 93 8000 5.1 160 23:38 26.09.2019
1243 Rain 16 1005 100 4500 5.1 170 23:18 26.09.2019
1244 Rain 16 1005 100 4500 5.1 170 23:18 26.09.2019
1245 Drizzle 16 1006 93 0 7.2 170 22:56 26.09.2019
1246 Mist 16 1006 93 5000 5.1 170 22:38 26.09.2019
1247 Mist 16 1006 93 4500 6.2 150 22:18 26.09.2019
1248 Rain 16 1006 93 0 6.2 170 21:55 26.09.2019
1249 Drizzle 16 1007 93 6000 6.7 140 21:36 26.09.2019
1250 Drizzle 16 1007 93 6000 6.7 140 21:18 26.09.2019
1251 Rain 16 1006 93 0 5.1 160 20:57 26.09.2019
1252 Rain 16 1007 93 8000 4.6 160 20:39 26.09.2019
1253 Rain 16 1006 93 3500 4.6 130 20:20 26.09.2019
1254 Rain 16 1007 93 7000 4.1 150 19:40 26.09.2019
1255 Rain 16 1007 93 5000 2.1 140 19:19 26.09.2019
1256 Rain 16 1007 87 4500 5.1 150 18:59 26.09.2019
1257 Rain 16 1007 93 2600 3.6 150 18:40 26.09.2019
1258 Rain 16 1007 87 8000 5.1 140 18:22 26.09.2019
1259 Clouds 16 1007 87 9000 4.1 160 17:57 26.09.2019
1260 Mist 16 1008 87 5000 5.1 150 17:37 26.09.2019
1261 Mist 16 1008 87 5000 5.1 150 17:18 26.09.2019
1262 -273 0 0 0 0 0 16:54 26.09.2019
1263 Clouds 16 1007 87 6000 3.6 140 16:36 26.09.2019
1264 Drizzle 16 1008 87 6000 5.7 140 16:18 26.09.2019
1265 Mist 16 1008 93 6000 3.6 140 15:40 26.09.2019
1266 Mist 15 1007 87 8000 5.7 130 15:22 26.09.2019
1267 Mist 15 1007 87 8000 5.7 130 15:22 26.09.2019
1268 Mist 15 1008 82 9000 5.1 170 14:58 26.09.2019
1269 Mist 15 1008 93 5000 4.6 160 14:39 26.09.2019
1270 Mist 15 1008 93 5000 6.2 130 14:21 26.09.2019
1271 Mist 15 1008 82 10000 4.6 160 13:57 26.09.2019
1272 Mist 15 1008 93 5000 5.7 140 13:39 26.09.2019
1273 Mist 15 1008 93 5000 5.7 140 13:19 26.09.2019
1274 Drizzle 15 1008 100 3500 3.1 140 12:41 26.09.2019
1275 Mist 15 1008 82 10000 5.1 130 12:22 26.09.2019
1276 Mist 15 1008 87 8000 4.1 140 11:57 26.09.2019
1277 Mist 15 1008 100 5000 2.6 140 11:38 26.09.2019
1278 Mist 14 1008 87 8000 5.1 120 11:19 26.09.2019
1279 Mist 14 1008 100 900 2.6 140 10:42 26.09.2019
1280 Mist 14 1008 93 2500 4.6 140 10:23 26.09.2019
1281 Mist 14 1007 93 2000 3.1 150 09:58 26.09.2019
1282 Mist 13 1007 93 2000 3.1 140 09:40 26.09.2019
1283 Mist 13 1007 93 2000 3.1 140 09:20 26.09.2019
1284 Mist 13 1007 100 2000 2.6 150 08:51 26.09.2019
1285 Mist 13 1007 93 2200 3.6 100 08:31 26.09.2019
1286 Mist 13 1007 100 1600 3.1 120 07:48 26.09.2019
1287 Mist 13 1007 93 2000 3.1 100 07:22 26.09.2019
1288 Mist 13 1007 100 1400 2.1 140 06:55 26.09.2019
1289 Mist 13 1007 93 0 3.6 90 06:29 26.09.2019
1290 Mist 13 1006 100 1200 2.1 150 06:00 26.09.2019
1291 Mist 13 1006 93 700 2.6 140 05:32 26.09.2019
1292 Mist 14 1006 93 0 3.6 110 04:34 26.09.2019
1293 Mist 14 1006 93 0 4.1 90 02:34 26.09.2019
1294 Mist 14 1006 93 1800 3.1 120 01:48 26.09.2019
1295 Mist 14 1006 93 0 4.6 90 01:26 26.09.2019
1296 Mist 14 1006 93 0 4.6 90 00:46 26.09.2019
1297 Mist 14 1006 93 0 4.1 100 00:28 26.09.2019
1298 Mist 14 1006 100 1600 1 90 23:44 25.09.2019
1299 Mist 14 1006 93 0 4.6 90 23:25 25.09.2019
1300 Mist 14 1006 93 2000 3.6 110 22:56 25.09.2019
1301 Mist 14 1006 100 1800 1 110 22:37 25.09.2019
1302 Mist 14 1006 93 2500 3.6 80 22:19 25.09.2019
1303 Mist 14 1006 100 2000 2.1 90 21:56 25.09.2019
1304 Mist 14 1006 100 2100 1 90 21:37 25.09.2019
1305 Mist 14 1006 93 2500 4.6 80 21:18 25.09.2019
1306 Mist 14 1006 93 1500 2.1 100 20:56 25.09.2019
1307 Mist 14 1006 100 1400 1.5 40 20:37 25.09.2019
1308 Mist 15 1006 93 4500 2.6 100 20:19 25.09.2019
1309 Mist 15 1006 93 4500 2.6 100 20:19 25.09.2019
1310 Mist 15 1006 93 3400 1 90 19:41 25.09.2019
1311 Mist 15 1006 93 3400 1 90 19:41 25.09.2019
1312 Mist 15 1006 93 3000 2.1 70 19:21 25.09.2019
1313 Mist 15 1005 93 2500 1.5 100 18:57 25.09.2019
1314 Mist 15 1005 93 7000 1.5 90 18:39 25.09.2019
1315 Mist 16 1006 93 2800 1.5 110 18:21 25.09.2019
1316 Mist 16 1005 93 2500 2.1 100 17:58 25.09.2019
1317 -273 0 0 0 0 0 17:37 25.09.2019
1318 Mist 16 1005 87 4000 0.5 0 17:18 25.09.2019
1319 Mist 16 1005 100 3000 2.1 100 16:44 25.09.2019
1320 Rain 16 1006 93 2800 2.1 120 16:26 25.09.2019
1321 Rain 16 1006 93 2800 2.1 120 16:26 25.09.2019
1322 Rain 16 1005 100 3000 3.1 110 15:58 25.09.2019
1323 Rain 16 1005 77 9000 2.1 80 15:40 25.09.2019
1324 Rain 16 1006 87 4000 3.6 90 15:21 25.09.2019
1325 Rain 16 1005 100 3000 3.6 120 14:54 25.09.2019
1326 Rain 16 1005 82 7000 2.1 60 14:36 25.09.2019
1327 Rain 16 1005 82 7000 1.5 80 14:18 25.09.2019
1328 Rain 16 1005 87 7000 1.5 60 13:41 25.09.2019
1329 Rain 16 1006 87 5000 6.2 90 13:20 25.09.2019
1330 Rain 15 1005 93 2500 4.1 120 12:58 25.09.2019
1331 Mist 15 1005 87 8000 1.5 0 12:39 25.09.2019
1332 Mist 15 1005 87 8000 1.5 0 12:21 25.09.2019
1333 Mist 15 1005 93 6000 1 0 11:42 25.09.2019
1334 Mist 15 1005 93 4000 6.2 90 11:22 25.09.2019
1335 Mist 15 1005 93 2500 4.1 110 10:59 25.09.2019
1336 Mist 15 1005 93 5000 1.5 110 10:41 25.09.2019
1337 Mist 14 1005 93 5000 1.5 90 10:21 25.09.2019
1338 Mist 14 1005 93 2500 4.1 110 09:56 25.09.2019
1339 Mist 14 1005 93 2000 3.1 110 09:36 25.09.2019
1340 Mist 14 1005 93 2000 3.1 110 09:18 25.09.2019
1341 Mist 14 1004 100 4000 2.1 70 08:42 25.09.2019
1342 Mist 13 1005 93 4000 4.6 100 08:21 25.09.2019
1343 Mist 13 1005 100 4000 3.6 120 07:57 25.09.2019
1344 Mist 13 1004 100 3800 1.5 90 07:37 25.09.2019
1345 Mist 13 1005 100 3500 3.1 100 07:19 25.09.2019
1346 Mist 13 1004 93 3500 2.1 80 06:43 25.09.2019
1347 Mist 13 1005 93 0 3.6 100 06:21 25.09.2019
1348 Mist 13 1005 93 0 5.1 100 05:28 25.09.2019
1349 Mist 13 1005 93 5000 5.1 120 04:50 25.09.2019
1350 Mist 14 1006 93 0 5.1 110 02:19 25.09.2019
1351 Mist 14 1006 93 5000 3.1 110 00:45 25.09.2019
1352 Mist 14 1007 93 0 4.6 110 00:25 25.09.2019
1353 Mist 14 1007 100 1500 3.6 100 23:58 24.09.2019
1354 Mist 14 1007 93 4900 2.1 100 23:39 24.09.2019
1355 Mist 14 1008 100 0 3.1 110 23:20 24.09.2019
1356 Mist 14 1007 93 3400 2.1 80 22:39 24.09.2019
1357 Mist 14 1008 100 2200 3.6 120 22:21 24.09.2019
1358 Mist 14 1008 93 5000 4.1 120 21:58 24.09.2019
1359 Mist 14 1008 93 3300 2.6 80 21:38 24.09.2019
1360 Mist 14 1008 100 4500 2.6 100 21:19 24.09.2019
1361 Mist 14 1008 93 7000 4.1 130 20:58 24.09.2019
1362 Mist 14 1008 100 2800 3.1 80 20:40 24.09.2019
1363 Mist 15 1009 93 5000 3.1 100 20:22 24.09.2019
1364 Mist 15 1008 93 6000 4.1 140 19:59 24.09.2019
1365 Clouds 15 1008 93 5000 3.1 90 19:41 24.09.2019
1366 Clouds 16 1009 93 6000 3.6 130 19:18 24.09.2019
1367 Clear 16 1009 87 10000 2.6 100 18:55 24.09.2019
1368 Clouds 16 1008 82 9000 3.1 80 18:37 24.09.2019
1369 Clouds 17 1009 87 8000 3.1 130 18:19 24.09.2019
1370 Clouds 18 1009 82 7000 2.6 100 17:55 24.09.2019
1371 Clouds 18 1009 59 10000 2.6 140 17:37 24.09.2019
1372 Clouds 18 1009 59 10000 2.6 140 17:18 24.09.2019
1373 Clouds 18 1009 56 10000 3.1 150 16:41 24.09.2019
1374 Clouds 19 1010 82 8000 4.6 140 16:20 24.09.2019
1375 Clouds 19 1010 72 10000 2.1 110 15:57 24.09.2019
1376 Clouds 19 1009 59 10000 3.6 110 15:38 24.09.2019
1377 Clouds 19 1010 77 10000 3.1 110 15:19 24.09.2019
1378 Clouds 19 1010 59 10000 2.1 120 14:37 24.09.2019
1379 Clouds 18 1011 72 10000 2.6 100 14:18 24.09.2019
1380 Clouds 18 1011 63 10000 2.1 140 13:41 24.09.2019
1381 Clouds 18 1011 77 10000 1 0 13:21 24.09.2019
1382 Mist 17 1011 63 10000 1.5 0 12:44 24.09.2019
1383 Mist 17 1012 82 10000 1.5 240 12:22 24.09.2019
1384 Mist 16 1012 82 10000 2.1 210 11:58 24.09.2019
1385 Mist 16 1012 82 10000 2.1 210 11:58 24.09.2019
1386 Mist 16 1012 82 10000 2.6 200 11:40 24.09.2019
1387 Mist 16 1012 82 8000 2.6 220 11:21 24.09.2019
1388 Mist 15 1012 87 5000 2.1 190 10:42 24.09.2019
1389 Mist 15 1012 87 5000 2.1 190 10:22 24.09.2019
1390 Mist 15 1012 93 3000 1.5 210 09:59 24.09.2019
1391 Mist 15 1012 93 3500 2.6 230 09:41 24.09.2019
1392 Mist 14 1012 100 1500 2.1 180 09:20 24.09.2019
1393 Mist 14 1012 100 1500 2.1 180 08:57 24.09.2019
1394 Mist 14 1012 100 2200 2.6 180 08:38 24.09.2019
1395 Mist 14 1012 100 2200 2.6 180 08:19 24.09.2019
1396 Drizzle 14 1012 93 2000 2.1 160 07:46 24.09.2019
1397 Mist 14 1012 100 400 2.1 190 07:25 24.09.2019
1398 Mist 14 1012 100 0 0.5 0 06:51 24.09.2019
1399 Mist 14 1012 100 0 0.5 250 06:32 24.09.2019
1400 Mist 14 1013 100 0 1.5 270 05:51 24.09.2019
1401 Mist 14 1013 93 0 0.5 290 05:18 24.09.2019
1402 Clouds 14 1013 100 4800 2.1 230 03:44 24.09.2019
1403 Mist 14 1013 100 0 1.5 80 02:48 24.09.2019
1404 Clouds 14 1014 93 0 1.5 80 02:30 24.09.2019
1405 Clouds 14 1014 87 0 2.6 100 01:22 24.09.2019
1406 Clouds 14 1014 93 3100 1.5 240 00:37 24.09.2019
1407 Clouds 14 1014 87 0 3.6 110 00:18 24.09.2019
1408 Clouds 14 1014 93 3200 1.5 280 23:40 23.09.2019
1409 Clouds 14 1014 93 0 3.1 110 23:21 23.09.2019
1410 Clouds 14 1014 100 2900 1 0 22:40 23.09.2019
1411 Clouds 14 1015 93 6000 3.6 110 22:21 23.09.2019
1412 Clouds 14 1014 87 0 4.1 130 21:58 23.09.2019
1413 Clouds 14 1014 93 3100 2.1 70 21:40 23.09.2019
1414 Clouds 14 1015 87 10000 4.1 100 21:20 23.09.2019
1415 Clouds 14 1014 93 0 5.1 120 20:56 23.09.2019
1416 Clouds 15 1014 87 10000 5.1 100 20:37 23.09.2019
1417 Clouds 15 1014 87 10000 5.1 100 20:18 23.09.2019
1418 Clouds 15 1014 87 10000 5.7 90 19:39 23.09.2019
1419 Clouds 15 1014 87 10000 5.7 90 19:39 23.09.2019
1420 Clouds 16 1014 87 10000 5.7 90 19:21 23.09.2019
1421 Clouds 16 1014 87 10000 4.6 100 18:58 23.09.2019
1422 Clouds 16 1014 82 10000 6.2 90 18:39 23.09.2019
1423 Clouds 17 1014 82 10000 6.2 90 18:18 23.09.2019
1424 Clouds 17 1013 77 9000 6.2 130 17:56 23.09.2019
1425 Clouds 18 1013 77 10000 3.6 50 17:37 23.09.2019
1426 Clouds 18 1014 77 10000 6.2 110 17:19 23.09.2019
1427 Clouds 18 1013 77 10000 4.6 130 16:54 23.09.2019
1428 Clouds 18 1013 82 10000 6.2 90 16:36 23.09.2019
1429 Clouds 18 1013 82 10000 6.2 90 16:36 23.09.2019
1430 Clouds 19 1013 82 10000 6.2 90 16:18 23.09.2019
1431 Clouds 19 1013 72 10000 6.7 130 15:55 23.09.2019
1432 Clouds 19 1013 72 10000 5.7 50 15:36 23.09.2019
1433 Clouds 19 1013 72 10000 7.2 100 15:18 23.09.2019
1434 Clouds 19 1013 72 10000 5.1 60 14:39 23.09.2019
1435 Clouds 19 1013 72 10000 7.2 110 14:20 23.09.2019
1436 Clouds 19 1013 82 10000 8.2 120 13:58 23.09.2019
1437 Clouds 19 1014 77 10000 6.7 100 13:38 23.09.2019
1438 Clouds 19 1014 77 10000 6.7 100 13:18 23.09.2019
1439 Clouds 18 1013 68 10000 4.1 80 12:43 23.09.2019
1440 Clouds 17 1014 82 10000 6.7 110 12:23 23.09.2019
1441 Clouds 17 1013 82 10000 7.2 120 11:57 23.09.2019
1442 Clouds 16 1014 82 10000 7.7 100 11:39 23.09.2019
1443 Clouds 16 1014 82 10000 7.7 100 11:20 23.09.2019
1444 Clouds 16 1013 87 10000 8.7 130 10:49 23.09.2019
1445 Clouds 15 1014 87 10000 7.7 100 10:22 23.09.2019
1446 Clouds 15 1013 87 10000 7.2 130 09:58 23.09.2019
1447 Clouds 15 1012 87 8000 5.1 90 09:37 23.09.2019
1448 Clouds 14 1013 87 10000 8.7 100 09:19 23.09.2019
1449 Clouds 14 1012 93 8000 4.6 90 08:45 23.09.2019
1450 Clouds 14 1013 87 10000 7.2 100 08:26 23.09.2019
1451 Clouds 14 1012 87 10000 8.2 130 07:56 23.09.2019
1452 Clouds 14 1013 93 9000 7.2 110 07:28 23.09.2019
1453 Clouds 13 1011 93 6000 4.6 80 06:31 23.09.2019
1454 Clouds 13 1012 87 9000 7.7 120 05:51 23.09.2019
1455 Clouds 13 1012 93 0 7.7 100 05:21 23.09.2019
1456 Clouds 13 1012 93 10000 8.2 130 04:54 23.09.2019
1457 Clouds 14 1011 87 6000 4.1 80 02:42 23.09.2019
1458 Clouds 14 1011 93 10000 3.6 70 00:46 23.09.2019
1459 Clouds 14 1012 77 0 7.2 110 00:22 23.09.2019
1460 Clouds 14 1011 82 10000 5.1 130 23:52 22.09.2019
1461 Clouds 14 1011 77 0 6.2 100 23:32 22.09.2019
1462 Clouds 14 1011 82 10000 6.2 120 22:58 22.09.2019
1463 Clouds 14 1010 87 9000 2.6 70 22:40 22.09.2019
1464 Clear 15 1011 82 10000 4.6 90 22:22 22.09.2019
1465 Clouds 15 1011 77 0 5.1 100 21:43 22.09.2019
1466 Clouds 15 1011 77 0 5.1 100 21:43 22.09.2019
1467 Clouds 15 1011 77 0 5.1 90 21:23 22.09.2019
1468 Clouds 15 1011 77 10000 5.7 130 20:59 22.09.2019
1469 Clouds 15 1010 82 10000 3.6 80 20:41 22.09.2019
1470 Clear 15 1011 77 10000 1.5 130 20:23 22.09.2019
1471 Clouds 16 1010 77 10000 3.6 70 19:42 22.09.2019
1472 Clear 17 1011 67 10000 5.7 120 19:24 22.09.2019
1473 Clear 17 1011 67 10000 5.7 120 18:59 22.09.2019
1474 Clouds 18 1010 68 10000 4.1 70 18:41 22.09.2019
1475 Clear 20 1011 59 10000 6.7 110 18:20 22.09.2019
1476 Clouds 20 1010 59 10000 5.1 120 17:59 22.09.2019
1477 Clear 20 1010 56 10000 4.6 80 17:41 22.09.2019
1478 Clear 21 1011 59 10000 6.7 100 17:20 22.09.2019
1479 Clear 21 1011 63 10000 3.6 110 16:46 22.09.2019
1480 Clear 21 1011 52 10000 6.2 100 16:27 22.09.2019
1481 Clear 21 1011 68 10000 4.6 110 15:58 22.09.2019
1482 Clear 21 1011 49 10000 4.6 100 15:40 22.09.2019
1483 Clear 21 1012 52 10000 6.2 110 15:21 22.09.2019
1484 Clear 21 1012 64 10000 3.6 100 14:46 22.09.2019
1485 Clear 21 1012 59 0 5.7 130 14:26 22.09.2019
1486 Clear 21 1012 64 10000 2.6 110 13:59 22.09.2019
1487 Clear 21 1012 49 10000 4.6 120 13:41 22.09.2019
1488 Clear 20 1013 55 0 6.7 130 13:22 22.09.2019
1489 Clear 20 1013 64 10000 2.6 100 12:56 22.09.2019
1490 Clear 19 1012 52 10000 5.1 120 12:38 22.09.2019
1491 Clear 19 1013 72 10000 3.6 110 12:18 22.09.2019
1492 Clear 17 1013 59 10000 3.6 120 11:43 22.09.2019
1493 Clear 17 1014 72 0 4.6 120 11:24 22.09.2019
1494 Clear 17 1014 77 10000 3.6 130 10:55 22.09.2019
1495 Clear 17 1014 77 10000 3.6 130 10:55 22.09.2019
1496 Clear 15 1013 67 10000 3.6 110 10:37 22.09.2019
1497 Clouds 15 1014 100 9000 3.6 90 10:19 22.09.2019
1498 Clouds 15 1014 100 9000 3.6 90 10:19 22.09.2019
1499 Fog 14 1013 76 10000 3.1 100 09:42 22.09.2019
1500 Fog 12 1014 100 300 3.1 90 09:21 22.09.2019
1501 Fog 11 1014 100 10000 4.1 130 08:55 22.09.2019
1502 Rain 10 1014 100 10000 2.1 80 08:37 22.09.2019
1503 Rain 9 1014 100 0 2.1 110 08:18 22.09.2019
1504 Fog 9 1014 100 8000 2.1 80 07:41 22.09.2019
1505 Fog 9 1014 100 100 2.1 70 07:23 22.09.2019
1506 Fog 9 1014 93 0 3.6 150 06:57 22.09.2019
1507 Fog 9 1014 93 10000 1.5 110 06:31 22.09.2019
1508 Fog 9 1016 93 0 4.1 160 03:56 22.09.2019
1509 Rain 10 1016 100 0 2.1 130 02:44 22.09.2019
1510 Rain 10 1017 93 0 2.1 110 02:24 22.09.2019
1511 Fog 10 1017 100 8000 2.6 80 01:37 22.09.2019
1512 Fog 11 1017 100 6000 1.5 120 00:46 22.09.2019
1513 Fog 11 1017 93 0 1.5 130 00:27 22.09.2019
1514 Mist 11 1018 93 0 3.1 130 23:51 21.09.2019
1515 Mist 11 1018 93 0 0.5 70 23:33 21.09.2019
1516 Fog 12 1017 93 8000 1 110 22:43 21.09.2019
1517 Fog 12 1017 93 8000 1 110 22:43 21.09.2019
1518 Fog 12 1018 87 0 1 120 22:24 21.09.2019
1519 Fog 13 1018 100 0 1 60 21:59 21.09.2019
1520 Fog 13 1018 93 9000 1.5 130 21:41 21.09.2019
1521 Fog 13 1018 87 0 1.5 140 21:19 21.09.2019
1522 Fog 14 1018 93 0 1 340 20:56 21.09.2019
1523 Clear 14 1018 82 0 2.6 150 20:36 21.09.2019
1524 Clear 15 1018 82 0 2.6 150 20:18 21.09.2019
1525 Clear 15 1018 82 0 2.6 150 20:18 21.09.2019
1526 Clear 16 1019 82 10000 0.5 230 19:43 21.09.2019
1527 Clear 18 1019 63 0 0.5 160 19:19 21.09.2019
1528 Clear 19 1019 64 8000 1 270 18:40 21.09.2019
1529 Clear 20 1019 63 0 1 350 18:22 21.09.2019
1530 Clear 20 1019 60 9000 1.5 280 17:43 21.09.2019
1531 Clear 20 1019 60 10000 2.1 340 17:24 21.09.2019
1532 Clouds 20 1019 56 10000 2.1 260 16:58 21.09.2019
1533 Clouds 20 1020 63 10000 3.1 340 16:39 21.09.2019
1534 Clouds 20 1020 63 10000 3.1 340 16:20 21.09.2019
1535 Clear 20 1020 68 9000 2.1 290 15:45 21.09.2019
1536 Clear 20 1020 68 9000 2.1 290 15:45 21.09.2019
1537 Clouds 20 1020 63 10000 4.1 330 15:23 21.09.2019
1538 Clouds 19 1021 64 10000 4.1 270 14:50 21.09.2019
1539 Clouds 19 1021 72 10000 4.6 330 14:31 21.09.2019
1540 Clouds 18 1021 68 10000 4.6 280 13:55 21.09.2019
1541 Clear 18 1021 72 10000 4.1 280 13:37 21.09.2019
1542 Clouds 18 1021 68 10000 5.1 330 13:18 21.09.2019
1543 Clouds 18 1021 72 10000 4.6 280 12:55 21.09.2019
1544 Clouds 17 1021 67 10000 3.6 290 12:37 21.09.2019
1545 Clouds 17 1021 67 10000 3.6 290 12:19 21.09.2019
1546 Clouds 17 1021 67 10000 3.6 290 12:19 21.09.2019
1547 Clear 16 1022 82 10000 3.6 300 11:43 21.09.2019
1548 Clouds 15 1022 77 10000 3.6 280 11:24 21.09.2019
1549 Clouds 15 1022 82 10000 6.7 300 10:54 21.09.2019
1550 Clear 15 1022 87 10000 4.6 290 10:36 21.09.2019
1551 Clouds 14 1022 87 10000 4.6 290 10:18 21.09.2019
1552 Clear 13 1022 100 10000 3.1 260 09:40 21.09.2019
1553 Clouds 13 1022 87 10000 3.1 290 09:21 21.09.2019
1554 Mist 12 1022 87 10000 5.7 270 08:52 21.09.2019
1555 Clouds 11 1022 93 10000 3.1 260 08:29 21.09.2019
1556 Clouds 11 1022 93 10000 3.1 260 07:43 21.09.2019
1557 Clouds 11 1022 93 10000 3.1 260 07:24 21.09.2019
1558 Clouds 11 1022 93 10000 5.7 280 06:59 21.09.2019
1559 Fog 11 1022 93 0 1.5 250 06:34 21.09.2019
1560 Fog 11 1022 93 10000 5.1 270 05:51 21.09.2019
1561 Fog 11 1022 93 0 2.6 250 04:37 21.09.2019
1562 Fog 12 1023 93 900 2.6 260 03:25 21.09.2019
1563 Clouds 12 1023 82 0 3.1 280 02:22 21.09.2019
1564 Clouds 12 1023 100 150 2.1 250 01:46 21.09.2019
1565 Clouds 13 1023 93 10000 5.1 280 00:58 21.09.2019
1566 Clouds 13 1023 82 0 3.6 290 00:23 21.09.2019
1567 Clouds 13 1024 93 10000 6.2 290 23:48 20.09.2019
1568 Clouds 14 1024 82 0 3.1 280 23:30 20.09.2019
1569 Clouds 14 1024 87 10000 5.1 300 22:46 20.09.2019
1570 Clouds 14 1024 87 10000 6.7 290 22:26 20.09.2019
1571 Clouds 14 1024 93 10000 6.7 290 21:58 20.09.2019
1572 Clouds 14 1025 93 10000 3.6 260 21:39 20.09.2019
1573 Clouds 14 1024 93 10000 7.2 290 21:21 20.09.2019
1574 Clouds 14 1024 93 10000 6.7 290 20:59 20.09.2019
1575 Clouds 14 1025 93 10000 4.1 260 20:41 20.09.2019
1576 Clouds 15 1024 87 10000 3.6 270 20:20 20.09.2019
1577 Clouds 15 1024 87 10000 7.2 270 19:56 20.09.2019
1578 Clouds 15 1024 82 10000 4.1 280 19:37 20.09.2019
1579 Clouds 15 1024 82 10000 4.1 280 19:18 20.09.2019
1580 Clouds 15 1025 87 10000 7.2 270 18:39 20.09.2019
1581 Clouds 15 1025 87 10000 7.2 270 18:20 20.09.2019
1582 Drizzle 16 1025 87 10000 10.3 290 17:57 20.09.2019
1583 Rain 16 1025 82 10000 3.6 270 17:38 20.09.2019
1584 Rain 16 1025 82 10000 3.6 270 17:18 20.09.2019
1585 Rain 16 1026 77 10000 6.2 270 16:41 20.09.2019
1586 Rain 16 1025 72 10000 5.1 270 16:19 20.09.2019
1587 Clouds 16 1026 77 10000 5.1 270 15:42 20.09.2019
1588 Clouds 16 1025 77 10000 4.1 280 15:23 20.09.2019
1589 Clouds 16 1026 77 10000 8.2 290 14:57 20.09.2019
1590 Clouds 16 1026 82 10000 5.7 270 14:38 20.09.2019
1591 Drizzle 16 1026 77 10000 5.1 270 14:18 20.09.2019
1592 Drizzle 16 1027 77 10000 8.2 270 13:45 20.09.2019
1593 Drizzle 16 1027 77 10000 8.7 310 13:27 20.09.2019
1594 Drizzle 16 1027 77 10000 8.7 310 12:56 20.09.2019
1595 Drizzle 15 1027 77 10000 6.2 270 12:36 20.09.2019
1596 Drizzle 15 1027 77 10000 6.2 270 12:18 20.09.2019
1597 Drizzle 15 1027 72 10000 9.3 290 11:45 20.09.2019
1598 Drizzle 15 1027 72 10000 9.3 290 11:20 20.09.2019
1599 Drizzle 14 1027 87 10000 4.6 270 10:43 20.09.2019
1600 Drizzle 14 1027 100 7000 5.7 280 10:23 20.09.2019
1601 Drizzle 13 1027 93 10000 5.1 270 09:55 20.09.2019
1602 Drizzle 13 1027 93 8000 5.7 280 09:36 20.09.2019
1603 Drizzle 12 1027 87 7000 5.7 270 09:18 20.09.2019
1604 Clouds 12 1027 87 7000 4.6 260 08:41 20.09.2019
1605 Clouds 11 1027 87 7000 4.6 260 08:21 20.09.2019
1606 Drizzle 11 1026 87 5000 5.7 280 07:45 20.09.2019
1607 Drizzle 11 1026 87 5000 5.7 280 07:26 20.09.2019
1608 Drizzle 10 1027 93 10000 3.1 270 06:44 20.09.2019
1609 Drizzle 10 1027 81 10000 2.1 250 06:21 20.09.2019
1610 Clouds 10 1028 93 10000 2.1 240 05:44 20.09.2019
1611 Clouds 10 1028 93 10000 1.5 260 03:42 20.09.2019
1612 Clouds 10 1028 76 0 2.1 270 03:19 20.09.2019
1613 Clouds 9 1028 93 10000 2.1 260 01:44 20.09.2019
1614 Clouds 9 1028 87 10000 1.5 260 00:53 20.09.2019
1615 Clouds 9 1028 76 0 2.6 290 00:25 20.09.2019
1616 Clouds 9 1029 87 10000 2.1 260 23:44 19.09.2019
1617 Clear 9 1029 87 10000 2.6 290 23:20 19.09.2019
1618 Clouds 9 1028 76 10000 4.1 310 22:57 19.09.2019
1619 Clear 9 1028 87 10000 2.6 280 22:37 19.09.2019
1620 Clear 9 1028 87 10000 2.6 280 22:19 19.09.2019
1621 Clouds 10 1028 76 10000 5.7 310 21:56 19.09.2019
1622 Clouds 10 1029 87 10000 2.1 280 21:37 19.09.2019
1623 Clear 10 1028 71 10000 3.1 290 21:18 19.09.2019
1624 Clear 11 1028 71 10000 2.6 290 20:43 19.09.2019
1625 Clouds 11 1028 76 10000 4.1 290 20:22 19.09.2019
1626 Clouds 11 1028 71 10000 7.2 310 19:56 19.09.2019
1627 Clouds 12 1028 71 10000 7.2 310 19:37 19.09.2019
1628 Clouds 13 1027 58 10000 3.6 300 19:19 19.09.2019
1629 Clouds 13 1027 58 10000 3.1 290 18:43 19.09.2019
1630 Clouds 14 1027 58 10000 3.1 290 18:24 19.09.2019
1631 Clouds 14 1027 51 10000 4.1 310 17:57 19.09.2019
1632 Clouds 15 1027 51 10000 5.1 320 17:39 19.09.2019
1633 Clouds 15 1027 51 10000 5.1 320 17:21 19.09.2019
1634 Clouds 15 1027 54 10000 7.7 310 16:57 19.09.2019
1635 Clouds 15 1028 54 10000 6.2 330 16:38 19.09.2019
1636 Clouds 15 1027 54 10000 4.1 330 16:18 19.09.2019
1637 Clouds 15 1028 54 10000 4.1 330 15:39 19.09.2019
1638 Clouds 15 1028 54 10000 4.1 330 15:18 19.09.2019
1639 Clouds 15 1028 54 10000 5.7 320 14:42 19.09.2019
1640 Clouds 15 1028 62 10000 4.6 320 14:23 19.09.2019
1641 Clouds 15 1028 62 10000 5.7 340 13:59 19.09.2019
1642 Clouds 15 1028 62 10000 5.7 320 13:39 19.09.2019
1643 Clouds 15 1028 62 10000 5.7 320 13:19 19.09.2019
1644 Clouds 14 1028 58 10000 5.7 320 12:40 19.09.2019
1645 Clouds 13 1028 66 10000 5.7 320 12:20 19.09.2019
1646 Clouds 13 1028 62 10000 9.3 340 11:58 19.09.2019
1647 Clouds 13 1028 62 10000 5.1 330 11:39 19.09.2019
1648 Clouds 13 1027 71 10000 6.7 320 11:20 19.09.2019
1649 Clouds 12 1027 71 10000 5.1 330 10:56 19.09.2019
1650 Clouds 13 1027 71 10000 5.1 330 10:56 19.09.2019
1651 Clouds 12 1027 71 10000 5.1 330 10:56 19.09.2019
1652 Clouds 12 1027 71 10000 5.1 330 10:56 19.09.2019
1653 Clouds 11 1026 76 10000 6.2 320 10:36 19.09.2019
1654 Clouds 11 1026 76 10000 6.2 320 10:18 19.09.2019
1655 Clouds 11 1027 87 10000 3.1 300 09:41 19.09.2019
1656 Clouds 9 1026 76 10000 3.6 310 09:22 19.09.2019
1657 Clouds 8 1026 81 10000 4.6 310 08:56 19.09.2019
1658 Clouds 8 1026 81 10000 4.6 310 08:56 19.09.2019
1659 Fog 7 1025 81 10000 3.6 300 08:36 19.09.2019
1660 Fog 7 1025 81 10000 3.6 300 08:18 19.09.2019
1661 Fog 6 1026 93 10000 2.1 270 07:42 19.09.2019
1662 Fog 6 1026 93 10000 2.1 280 07:21 19.09.2019
1663 Fog 6 1026 93 10000 2.1 280 07:21 19.09.2019
1664 Fog 6 1025 81 10000 5.7 320 06:47 19.09.2019
1665 Clouds 6 1025 81 0 4.1 300 06:27 19.09.2019
1666 Clouds 7 1025 87 10000 5.7 320 05:52 19.09.2019
1667 Clouds 7 1025 87 10000 6.2 320 04:58 19.09.2019
1668 Clouds 7 1025 87 10000 5.7 320 03:52 19.09.2019
1669 Clouds 8 1025 87 10000 6.2 320 02:47 19.09.2019
1670 Clouds 9 1024 81 0 4.6 300 01:32 19.09.2019
1671 Clouds 8 1024 87 10000 7.2 310 00:50 19.09.2019
1672 Clouds 8 1024 87 10000 7.2 310 00:50 19.09.2019
1673 Clouds 9 1023 81 0 4.1 290 00:26 19.09.2019
1674 Clouds 9 1023 81 0 4.1 290 00:26 19.09.2019
1675 Rain 9 1024 87 10000 3.6 290 23:42 18.09.2019
1676 Rain 9 1023 76 0 4.1 280 23:22 18.09.2019
1677 Clouds 10 1024 81 10000 7.2 310 22:55 18.09.2019
1678 Clouds 10 1023 81 10000 3.6 290 22:37 18.09.2019
1679 Clouds 10 1023 81 10000 3.6 290 22:18 18.09.2019
1680 Clouds 10 1023 81 10000 6.7 310 21:55 18.09.2019
1681 Clouds 10 1023 81 10000 4.1 300 21:37 18.09.2019
1682 Clouds 10 1023 81 10000 4.1 300 21:18 18.09.2019
1683 Clouds 11 1023 71 10000 6.7 320 20:55 18.09.2019
1684 Clouds 11 1023 71 10000 6.7 320 20:55 18.09.2019
1685 Clouds 11 1023 87 10000 5.1 290 20:37 18.09.2019
1686 Clouds 11 1023 87 10000 5.1 290 20:18 18.09.2019
1687 Clouds 11 1022 81 10000 5.1 300 19:54 18.09.2019
1688 Clouds 12 1022 71 10000 5.7 300 19:36 18.09.2019
1689 Clouds 12 1022 62 10000 11.3 330 19:18 18.09.2019
1690 Clouds 12 1022 62 10000 11.3 330 18:54 18.09.2019
1691 Rain 12 1023 62 10000 6.7 310 18:36 18.09.2019
1692 Clouds 13 1022 62 10000 7.7 310 18:18 18.09.2019
1693 Rain 13 1023 54 10000 8.7 310 17:40 18.09.2019
1694 Rain 13 1023 50 10000 9.3 310 17:19 18.09.2019
1695 Rain 14 1022 76 10000 8.2 320 16:58 18.09.2019
1696 Clouds 14 1023 54 10000 9.8 300 16:39 18.09.2019
1697 Clouds 14 1021 67 10000 6.2 310 16:21 18.09.2019
1698 Rain 13 1022 71 10000 11.3 320 15:56 18.09.2019
1699 Rain 14 1022 66 8000 13.4 330 15:38 18.09.2019
1700 Rain 13 1022 66 8000 13.4 330 15:20 18.09.2019
1701 Rain 14 1022 58 5000 12.9 330 14:58 18.09.2019
1702 Rain 13 1022 66 10000 7.7 330 14:39 18.09.2019
1703 Clouds 13 1021 62 10000 5.7 310 14:21 18.09.2019
1704 Rain 13 1022 71 10000 8.7 310 13:58 18.09.2019
1705 Rain 14 1023 62 10000 9.8 320 13:37 18.09.2019
1706 Rain 13 1022 66 10000 11.8 330 13:18 18.09.2019
1707 Clouds 13 1022 58 10000 9.8 300 12:42 18.09.2019
1708 Clouds 13 1021 58 10000 7.7 300 12:22 18.09.2019
1709 Clouds 13 1022 50 10000 6.2 310 11:40 18.09.2019
1710 Clouds 13 1022 50 10000 6.2 310 11:40 18.09.2019
1711 Clouds 13 1021 58 10000 7.7 300 11:20 18.09.2019
1712 Clouds 13 1021 62 10000 9.3 320 10:58 18.09.2019
1713 Clouds 12 1022 62 10000 7.2 320 10:39 18.09.2019
1714 Clouds 12 1020 62 10000 5.7 300 10:20 18.09.2019
1715 Clouds 12 1021 66 10000 8.2 310 09:57 18.09.2019
1716 Clouds 11 1021 71 10000 5.7 310 09:37 18.09.2019
1717 Clouds 11 1020 66 10000 4.1 300 09:19 18.09.2019
1718 Clouds 10 1021 76 10000 3.6 290 08:41 18.09.2019
1719 Rain 10 1019 71 10000 5.1 300 08:23 18.09.2019
1720 Clouds 10 1019 71 10000 4.1 300 07:45 18.09.2019
1721 Clouds 10 1019 71 10000 4.1 300 07:26 18.09.2019
1722 -273 0 0 0 0 0 06:55 18.09.2019
1723 Clouds 9 1019 76 10000 8.2 320 06:55 18.09.2019
1724 Clouds 9 1018 71 0 6.7 300 06:31 18.09.2019
1725 Clouds 9 1019 87 10000 2.6 290 05:40 18.09.2019
1726 Clouds 9 1019 87 10000 3.1 280 04:42 18.09.2019
1727 Rain 9 1018 87 10000 3.6 310 02:41 18.09.2019
1728 Clouds 9 1018 81 10000 8.2 320 01:54 18.09.2019
1729 Clear 9 1017 76 10000 5.7 300 01:20 18.09.2019
1730 Clear 9 1016 76 10000 4.1 300 00:47 18.09.2019
1731 Clear 9 1016 76 10000 4.1 290 00:19 18.09.2019
1732 Clouds 8 1017 87 10000 3.6 300 23:44 17.09.2019
1733 Clouds 9 1016 81 10000 2.6 280 23:22 17.09.2019
1734 Clouds 9 1016 87 10000 4.1 310 22:42 17.09.2019
1735 Clouds 9 1016 87 10000 4.1 310 22:42 17.09.2019
1736 Clear 9 1015 71 10000 4.6 300 22:24 17.09.2019
1737 Clouds 9 1015 76 10000 7.2 330 21:55 17.09.2019
1738 Clouds 9 1015 87 10000 4.1 300 21:37 17.09.2019
1739 Clear 9 1014 71 10000 9.3 310 21:19 17.09.2019
1740 Clear 9 1014 71 10000 9.3 310 21:19 17.09.2019
1741 Clouds 10 1014 76 10000 9.8 320 20:58 17.09.2019
1742 Rain 9 1015 87 10000 5.1 290 20:40 17.09.2019
1743 Rain 10 1013 76 10000 7.7 300 20:21 17.09.2019
1744 Rain 10 1013 76 10000 11.8 310 19:58 17.09.2019
1745 Rain 10 1014 87 10000 8.2 330 19:39 17.09.2019
1746 Rain 11 1012 71 10000 6.7 290 19:19 17.09.2019
1747 Rain 11 1012 71 10000 6.7 290 18:56 17.09.2019
1748 Rain 11 1014 76 10000 10.8 310 18:38 17.09.2019
1749 Clouds 12 1012 71 10000 7.7 290 18:20 17.09.2019
1750 Rain 12 1013 62 10000 9.8 310 17:46 17.09.2019
1751 Rain 13 1013 58 10000 12.3 310 17:20 17.09.2019
1752 Rain 12 1011 62 10000 17 320 16:57 17.09.2019
1753 Rain 12 1012 66 6000 11.8 300 16:39 17.09.2019
1754 Rain 12 1012 66 6000 11.8 300 16:39 17.09.2019
1755 Rain 12 1012 66 6000 11.8 300 16:21 17.09.2019
1756 Rain 12 1012 66 6000 11.8 300 16:21 17.09.2019
1757 Rain 12 1012 66 6000 11.8 300 16:21 17.09.2019
1758 Rain 12 1012 76 10000 10.8 320 15:40 17.09.2019
1759 Rain 12 1010 81 8000 8.7 310 15:21 17.09.2019
1760 Rain 12 1011 66 10000 14.4 320 14:57 17.09.2019
1761 Rain 12 1011 66 7000 17.5 310 14:39 17.09.2019
1762 Rain 12 1011 66 7000 17.5 310 14:19 17.09.2019
1763 Rain 12 1011 71 10000 14.9 310 13:57 17.09.2019
1764 Rain 12 1012 81 10000 11.3 290 13:38 17.09.2019
1765 Rain 12 1010 54 10000 9.3 290 13:20 17.09.2019
1766 Rain 12 1011 71 7000 11.3 310 12:42 17.09.2019
1767 Rain 12 1011 71 7000 11.3 310 12:20 17.09.2019
1768 Rain 12 1011 76 10000 10.8 320 11:57 17.09.2019
1769 Rain 12 1012 76 10000 8.7 290 11:38 17.09.2019
1770 Rain 12 1011 66 10000 9.3 310 11:38 17.09.2019
1771 Rain 12 1011 76 10000 11.3 290 11:18 17.09.2019
1772 Rain 12 1011 76 10000 11.3 290 11:18 17.09.2019
1773 Drizzle 12 1012 81 10000 5.7 290 10:41 17.09.2019
1774 Rain 12 1011 62 10000 4.6 280 10:21 17.09.2019
1775 Rain 12 1011 71 10000 10.3 300 09:58 17.09.2019
1776 Rain 12 1012 76 10000 6.7 290 09:39 17.09.2019
1777 Rain 11 1011 71 10000 4.1 280 09:19 17.09.2019
1778 Rain 11 1012 81 10000 5.7 290 08:44 17.09.2019
1779 Rain 11 1011 81 10000 2.6 270 08:25 17.09.2019
1780 Rain 10 1011 87 10000 7.2 290 07:46 17.09.2019
1781 Rain 10 1011 81 10000 3.6 280 07:28 17.09.2019
1782 Rain 11 1012 93 0 9.3 290 06:59 17.09.2019
1783 Rain 11 1013 87 9000 5.1 280 06:40 17.09.2019
1784 Rain 10 1012 93 0 8.7 290 05:58 17.09.2019
1785 Rain 10 1012 87 0 3.1 260 05:33 17.09.2019
1786 Clouds 10 1012 87 10000 4.1 260 04:20 17.09.2019
1787 Rain 11 1015 81 10000 2.6 250 02:41 17.09.2019
1788 -273 0 0 0 0 0 01:55 17.09.2019
1789 Rain 10 1015 76 0 8.2 280 00:59 17.09.2019
1790 Rain 11 1014 76 0 3.6 260 00:22 17.09.2019
1791 Rain 11 1016 87 10000 4.1 250 23:37 16.09.2019
1792 Rain 11 1015 66 0 4.1 270 23:18 16.09.2019
1793 Rain 11 1016 87 10000 3.6 240 22:42 16.09.2019
1794 Rain 11 1016 87 10000 3.6 240 22:42 16.09.2019
1795 Clear 11 1015 76 10000 2.6 260 22:24 16.09.2019
1796 Rain 11 1016 71 0 6.2 290 21:59 16.09.2019
1797 Clouds 11 1015 71 10000 3.1 270 21:39 16.09.2019
1798 Clouds 11 1015 71 10000 3.1 270 21:20 16.09.2019
1799 Clear 12 1016 71 0 6.2 280 20:58 16.09.2019
1800 Clear 12 1016 87 6000 3.1 250 20:39 16.09.2019
1801 Clouds 12 1015 66 10000 3.1 290 20:19 16.09.2019
1802 Clear 13 1016 66 0 8.2 300 19:56 16.09.2019
1803 Clear 13 1016 87 6000 3.6 280 19:37 16.09.2019
1804 Clouds 14 1015 62 10000 4.1 280 19:18 16.09.2019
1805 Clear 14 1017 62 6000 5.7 290 18:43 16.09.2019
1806 Clouds 15 1015 62 10000 5.1 300 18:25 16.09.2019
1807 Clear 15 1016 62 0 11.8 310 17:55 16.09.2019
1808 Clouds 15 1017 58 10000 6.2 280 17:37 16.09.2019
1809 Clouds 15 1017 58 10000 6.2 280 17:19 16.09.2019
1810 Clouds 15 1016 58 10000 5.1 310 16:43 16.09.2019
1811 Clouds 15 1016 58 10000 5.1 310 16:21 16.09.2019
1812 Clear 15 1016 55 0 10.8 320 15:57 16.09.2019
1813 Clouds 16 1017 58 10000 7.2 300 15:39 16.09.2019
1814 Clouds 16 1016 51 10000 7.7 310 15:20 16.09.2019
1815 Clouds 16 1016 51 10000 7.7 310 15:20 16.09.2019
1816 Rain 16 1017 54 0 9.3 320 14:58 16.09.2019
1817 Clouds 16 1017 59 10000 7.7 300 14:39 16.09.2019
1818 Clouds 16 1016 51 10000 4.6 290 14:20 16.09.2019
1819 Clouds 15 1017 55 10000 6.2 310 13:43 16.09.2019
1820 Clouds 15 1016 47 10000 5.1 290 13:22 16.09.2019
1821 Clouds 15 1016 51 10000 4.6 290 12:59 16.09.2019
1822 Clouds 15 1017 55 10000 7.7 290 12:39 16.09.2019
1823 Clouds 15 1017 58 10000 6.2 310 12:21 16.09.2019
1824 Clouds 14 1017 67 10000 7.2 270 11:45 16.09.2019
1825 Clouds 14 1017 62 10000 4.6 290 11:23 16.09.2019
1826 Rain 14 1017 67 0 7.7 320 10:56 16.09.2019
1827 Clouds 14 1018 67 10000 6.7 290 10:37 16.09.2019
1828 Clouds 13 1017 71 10000 5.7 310 10:18 16.09.2019
1829 Rain 13 1017 76 0 6.2 290 09:55 16.09.2019
1830 Clouds 12 1017 81 10000 5.1 270 09:36 16.09.2019
1831 Clouds 12 1016 76 10000 3.1 290 09:18 16.09.2019
1832 Clouds 11 1017 76 10000 3.1 240 08:41 16.09.2019
1833 Clouds 10 1016 71 10000 3.1 280 08:22 16.09.2019
1834 Clouds 10 1017 81 10000 2.6 260 07:43 16.09.2019
1835 Clouds 10 1016 71 10000 5.1 270 07:24 16.09.2019
1836 Clouds 10 1017 71 10000 7.2 290 06:58 16.09.2019
1837 Clouds 10 1017 76 10000 3.1 250 06:39 16.09.2019
1838 Clouds 11 1016 66 10000 3.6 270 06:21 16.09.2019
1839 Clouds 11 1018 76 10000 3.6 260 05:43 16.09.2019
1840 Clouds 11 1017 66 0 3.6 280 05:21 16.09.2019
1841 Clouds 11 1018 87 10000 3.6 260 03:46 16.09.2019
1842 Clouds 11 1018 81 10000 3.1 270 01:40 16.09.2019
1843 Clouds 11 1018 81 10000 4.1 260 00:38 16.09.2019
1844 Clear 11 1017 71 0 4.6 250 00:20 16.09.2019
1845 Clear 11 1018 87 10000 4.1 270 23:39 15.09.2019
1846 Clear 11 1016 66 0 3.6 270 23:20 15.09.2019
1847 Clear 12 1018 87 10000 3.6 270 22:40 15.09.2019
1848 Clear 12 1016 71 0 3.6 270 22:21 15.09.2019
1849 Clouds 13 1017 71 10000 9.3 300 21:58 15.09.2019
1850 Clouds 13 1017 71 10000 9.3 300 21:58 15.09.2019
1851 Clear 13 1018 76 10000 4.6 290 21:40 15.09.2019
1852 Clear 13 1018 76 10000 4.6 290 21:40 15.09.2019
1853 Clouds 13 1016 66 0 3.6 280 21:21 15.09.2019
1854 Clouds 14 1017 71 10000 10.8 310 20:59 15.09.2019
1855 Clouds 13 1017 71 10000 4.6 280 20:41 15.09.2019
1856 Clouds 14 1016 71 0 5.7 290 20:23 15.09.2019
1857 Clouds 14 1016 76 10000 9.8 290 19:45 15.09.2019
1858 Clouds 15 1016 62 10000 5.1 280 19:23 15.09.2019
1859 Clouds 15 1016 71 10000 8.7 290 18:55 15.09.2019
1860 Clouds 15 1016 62 10000 6.2 280 18:36 15.09.2019
1861 Clouds 15 1016 62 10000 6.2 280 18:18 15.09.2019
1862 Clouds 16 1017 67 10000 7.7 290 17:40 15.09.2019
1863 Clouds 16 1016 59 10000 6.7 290 17:21 15.09.2019
1864 Clouds 16 1016 63 0 14.4 300 16:55 15.09.2019
1865 Clouds 17 1017 67 10000 8.7 290 16:36 15.09.2019
1866 Clouds 17 1016 55 10000 7.7 290 16:18 15.09.2019
1867 Clouds 17 1016 63 10000 11.3 280 15:41 15.09.2019
1868 Clouds 17 1015 63 10000 7.7 300 15:21 15.09.2019
1869 Rain 17 1015 72 0 14.9 310 14:58 15.09.2019
1870 Rain 17 1016 87 6000 8.2 280 14:40 15.09.2019
1871 Drizzle 16 1014 68 0 6.7 290 14:21 15.09.2019
1872 Drizzle 17 1015 82 0 13.4 290 13:47 15.09.2019
1873 Rain 16 1014 82 0 4.6 290 13:24 15.09.2019
1874 Drizzle 16 1015 88 0 11.8 280 12:58 15.09.2019
1875 Drizzle 16 1016 93 2400 7.2 280 12:39 15.09.2019
1876 Rain 16 1015 87 10000 7.7 280 12:18 15.09.2019
1877 Drizzle 16 1016 93 10000 8.7 270 11:42 15.09.2019
1878 Drizzle 16 1014 93 6000 9.8 260 11:22 15.09.2019
1879 Rain 16 1015 87 0 12.3 280 10:59 15.09.2019
1880 Rain 16 1016 87 5000 8.7 240 10:40 15.09.2019
1881 Rain 16 1014 87 0 7.2 250 10:21 15.09.2019
1882 Drizzle 16 1016 87 10000 9.3 240 09:42 15.09.2019
1883 Drizzle 15 1014 93 7000 9.3 260 09:21 15.09.2019
1884 Drizzle 15 1015 82 0 8.2 250 08:58 15.09.2019
1885 Clouds 15 1017 82 10000 8.2 230 08:39 15.09.2019
1886 Clouds 15 1015 77 0 5.7 240 08:18 15.09.2019
1887 Clouds 14 1017 82 10000 5.7 230 07:41 15.09.2019
1888 Clouds 13 1017 81 10000 5.1 220 06:44 15.09.2019
1889 Clouds 13 1017 82 10000 8.2 240 05:58 15.09.2019
1890 Clouds 12 1020 87 0 3.6 190 03:19 15.09.2019
1891 Clouds 12 1021 82 0 3.1 190 02:19 15.09.2019
1892 Clouds 12 1022 82 0 3.6 210 01:36 15.09.2019
1893 Clouds 12 1023 82 10000 6.2 220 00:57 15.09.2019
1894 Clouds 12 1024 87 10000 3.6 200 00:37 15.09.2019
1895 Clouds 12 1024 82 0 3.1 200 00:19 15.09.2019
1896 Clouds 12 1024 81 10000 5.7 220 23:56 14.09.2019
1897 Clouds 12 1024 82 0 3.1 200 23:38 14.09.2019
1898 Clouds 12 1024 82 0 3.1 200 23:19 14.09.2019
1899 Clouds 12 1025 76 10000 5.1 220 22:57 14.09.2019
1900 Clouds 12 1025 76 10000 5.1 220 22:57 14.09.2019
1901 Clouds 12 1026 81 9000 3.6 210 22:38 14.09.2019
1902 Clouds 12 1026 82 0 3.1 190 22:18 14.09.2019
1903 Clouds 12 1027 87 10000 3.1 210 21:40 14.09.2019
1904 Clouds 12 1027 82 0 2.6 200 21:21 14.09.2019
1905 Clouds 12 1027 82 10000 4.1 220 20:59 14.09.2019
1906 Clouds 13 1028 81 10000 3.1 210 20:40 14.09.2019
1907 Clouds 14 1027 71 0 2.1 210 20:22 14.09.2019
1908 Clouds 14 1028 67 10000 4.1 240 19:51 14.09.2019
1909 Clouds 15 1028 59 0 3.6 240 19:23 14.09.2019
1910 Clouds 15 1028 59 0 3.6 240 19:23 14.09.2019
1911 Clouds 15 1028 71 10000 4.1 230 18:58 14.09.2019
1912 Clouds 16 1028 59 0 4.1 230 18:39 14.09.2019
1913 Clouds 16 1028 59 0 4.1 230 18:20 14.09.2019
1914 Clouds 17 1029 59 0 8.2 270 17:57 14.09.2019
1915 Clouds 17 1030 59 10000 6.7 260 17:39 14.09.2019
1916 Clouds 17 1030 51 10000 4.1 240 17:20 14.09.2019
1917 Clouds 17 1030 51 10000 6.7 240 16:43 14.09.2019
1918 Clouds 17 1030 59 10000 4.1 250 16:21 14.09.2019
1919 Clouds 17 1031 55 10000 4.6 270 15:43 14.09.2019
1920 Clouds 17 1031 48 10000 3.6 260 15:23 14.09.2019
1921 Clouds 17 1032 52 0 7.7 260 14:59 14.09.2019
1922 Clouds 17 1032 55 10000 6.2 270 14:40 14.09.2019
1923 Clouds 17 1032 55 10000 3.6 260 14:19 14.09.2019
1924 Clouds 17 1032 59 0 6.7 260 13:47 14.09.2019
1925 Clouds 17 1032 59 0 6.7 260 13:47 14.09.2019
1926 Clouds 17 1032 55 10000 4.1 240 13:22 14.09.2019
1927 Clouds 17 1032 55 10000 4.1 240 13:22 14.09.2019
1928 Clouds 17 1033 63 0 5.7 280 12:48 14.09.2019
1929 Clouds 16 1033 59 10000 3.1 280 12:26 14.09.2019
1930 Clouds 16 1033 62 10000 4.1 260 11:43 14.09.2019
1931 Clear 15 1033 63 10000 3.6 270 11:21 14.09.2019
1932 Clouds 15 1033 72 0 4.1 270 10:58 14.09.2019
1933 Clear 14 1033 72 10000 2.6 240 10:37 14.09.2019
1934 Clear 14 1033 72 10000 2.6 240 10:18 14.09.2019
1935 Clouds 13 1033 76 0 4.1 270 09:56 14.09.2019
1936 Clouds 13 1034 81 10000 2.1 220 09:38 14.09.2019
1937 Clear 11 1033 76 10000 2.6 250 09:18 14.09.2019
1938 Clouds 10 1033 93 0 3.6 260 08:45 14.09.2019
1939 Clear 8 1033 81 10000 3.1 240 08:23 14.09.2019
1940 Clear 8 1033 81 10000 3.1 240 08:23 14.09.2019
1941 Clouds 7 1033 100 0 3.1 260 07:46 14.09.2019
1942 Fog 7 1033 87 10000 3.1 240 07:28 14.09.2019
1943 Fog 7 1033 87 10000 3.1 240 07:28 14.09.2019
1944 Fog 7 1033 100 10000 1 230 06:40 14.09.2019
1945 Fog 7 1032 87 0 2.6 240 06:21 14.09.2019
1946 Fog 7 1033 81 0 3.6 250 05:25 14.09.2019
1947 Fog 7 1034 93 10000 0.5 240 03:45 14.09.2019
1948 Clouds 8 1033 100 10000 3.1 270 02:52 14.09.2019
1949 Clouds 9 1033 93 10000 4.1 290 01:50 14.09.2019
1950 Clouds 9 1033 81 0 3.1 240 01:22 14.09.2019
1951 Clouds 9 1033 87 10000 4.1 290 00:58 14.09.2019
1952 Clouds 9 1034 100 10000 2.1 270 00:38 14.09.2019
1953 Clouds 10 1033 76 0 2.6 280 00:20 14.09.2019
1954 Clouds 10 1032 76 0 3.1 280 23:38 13.09.2019
1955 Clouds 10 1032 76 0 3.1 280 23:19 13.09.2019
1956 Clouds 10 1032 87 10000 5.1 300 22:58 13.09.2019
1957 Clear 11 1032 76 10000 2.6 280 22:38 13.09.2019
1958 Clear 11 1032 76 10000 2.6 280 22:20 13.09.2019
1959 Clouds 12 1033 87 10000 2.6 260 21:42 13.09.2019
1960 Clear 12 1032 71 10000 3.1 290 21:20 13.09.2019
1961 Clouds 12 1032 76 10000 5.7 310 20:59 13.09.2019
1962 Clouds 13 1032 81 10000 2.6 290 20:40 13.09.2019
1963 Clear 14 1031 67 10000 4.6 300 20:21 13.09.2019
1964 Clouds 14 1031 72 10000 7.7 310 19:58 13.09.2019
1965 Clouds 14 1031 67 10000 4.6 310 19:40 13.09.2019
1966 Clouds 15 1031 67 10000 4.6 310 19:19 13.09.2019
1967 Clouds 15 1031 63 10000 8.7 310 18:57 13.09.2019
1968 Clouds 16 1030 59 10000 4.6 290 18:37 13.09.2019
1969 Clouds 16 1030 59 10000 4.6 290 18:18 13.09.2019
1970 Clouds 16 1030 59 10000 4.6 290 18:18 13.09.2019
1971 Clouds 16 1031 55 10000 6.7 310 17:41 13.09.2019
1972 Clouds 16 1030 59 10000 6.7 310 17:19 13.09.2019
1973 Rain 17 1031 63 10000 10.3 300 16:54 13.09.2019
1974 Clouds 17 1031 59 10000 7.2 300 16:36 13.09.2019
1975 Clouds 17 1030 59 10000 10.8 320 16:18 13.09.2019
1976 Clouds 17 1031 48 10000 6.7 320 15:40 13.09.2019
1977 Clouds 17 1030 48 10000 6.7 300 15:20 13.09.2019
1978 Clouds 18 1030 48 10000 8.7 310 14:44 13.09.2019
1979 Clouds 18 1029 52 10000 5.7 290 14:23 13.09.2019
1980 Clouds 18 1029 55 10000 10.8 320 13:56 13.09.2019
1981 Clouds 18 1029 55 10000 10.8 320 13:56 13.09.2019
1982 Clouds 18 1028 52 10000 5.7 300 13:38 13.09.2019
1983 Clouds 17 1028 52 10000 5.7 300 13:19 13.09.2019
1984 Clouds 17 1029 63 10000 8.2 320 12:44 13.09.2019
1985 Clouds 17 1028 59 10000 6.2 300 12:23 13.09.2019
1986 Clouds 17 1028 63 10000 11.3 330 11:56 13.09.2019
1987 Clouds 16 1027 63 10000 7.7 310 11:20 13.09.2019
1988 Clouds 16 1027 72 10000 7.7 320 10:41 13.09.2019
1989 Clouds 16 1026 72 10000 6.7 310 10:21 13.09.2019
1990 Clouds 16 1026 72 10000 6.7 310 10:21 13.09.2019
1991 Clouds 15 1026 82 10000 8.2 330 09:54 13.09.2019
1992 Clouds 15 1026 82 10000 6.2 320 09:36 13.09.2019
1993 Clouds 15 1026 82 10000 6.2 320 09:36 13.09.2019
1994 Clouds 15 1025 82 10000 5.7 310 09:18 13.09.2019
1995 Clouds 15 1025 87 10000 3.6 330 08:41 13.09.2019
1996 Rain 15 1024 87 10000 6.2 310 08:21 13.09.2019
1997 Clouds 15 1024 87 10000 6.2 330 07:59 13.09.2019
1998 Clouds 15 1023 87 10000 6.2 330 07:40 13.09.2019
1999 Rain 15 1022 93 10000 7.7 340 06:54 13.09.2019
2000 Drizzle 16 1021 93 9000 7.7 280 06:34 13.09.2019
2001 Rain 17 1020 93 4000 11.3 290 05:32 13.09.2019
2002 Drizzle 17 1020 93 10000 9.8 250 03:48 13.09.2019
2003 Drizzle 17 1020 93 0 4.6 200 03:24 13.09.2019
2004 Drizzle 16 1021 93 0 4.1 200 02:19 13.09.2019
2005 Drizzle 16 1022 87 10000 5.1 220 01:36 13.09.2019
2006 Drizzle 16 1022 82 10000 6.2 240 00:59 13.09.2019
2007 Drizzle 16 1022 77 0 2.6 220 00:34 13.09.2019
2008 Drizzle 16 1022 82 0 3.1 220 23:48 12.09.2019
2009 Clouds 16 1022 82 0 2.6 220 23:25 12.09.2019
2010 Clouds 16 1023 82 10000 5.1 230 22:58 12.09.2019
2011 Clouds 16 1024 82 10000 3.6 220 22:39 12.09.2019
2012 Clouds 16 1022 82 10000 5.1 230 22:21 12.09.2019
2013 Clouds 16 1023 77 10000 5.1 230 21:55 12.09.2019
2014 Clouds 16 1024 87 10000 4.1 220 21:37 12.09.2019
2015 Clouds 16 1023 82 10000 5.1 230 21:18 12.09.2019
2016 Clouds 16 1024 82 10000 3.1 220 20:44 12.09.2019
2017 Clouds 16 1023 82 10000 5.7 230 20:23 12.09.2019
2018 Clouds 16 1023 77 10000 6.7 260 19:57 12.09.2019
2019 Clouds 16 1024 82 10000 5.1 240 19:39 12.09.2019
2020 Clouds 17 1023 82 10000 5.7 230 19:19 12.09.2019
2021 Clouds 17 1023 82 10000 6.7 240 18:56 12.09.2019
2022 Clouds 18 1023 68 10000 6.2 250 18:36 12.09.2019
2023 Clouds 18 1023 68 10000 6.2 250 18:18 12.09.2019
2024 Rain 18 1024 63 10000 7.2 260 17:41 12.09.2019
2025 Clouds 18 1024 72 10000 7.7 270 17:20 12.09.2019
2026 Clouds 19 1023 72 10000 10.3 290 16:58 12.09.2019
2027 Clouds 18 1024 63 10000 8.2 270 16:40 12.09.2019
2028 Clouds 19 1023 68 10000 4.6 270 16:19 12.09.2019
2029 Clouds 19 1024 63 10000 9.3 260 15:41 12.09.2019
2030 Clouds 19 1023 72 10000 4.1 270 15:23 12.09.2019
2031 Clouds 19 1023 72 10000 4.1 270 15:23 12.09.2019
2032 Clouds 19 1023 72 10000 4.1 270 15:23 12.09.2019
2033 Clouds 19 1023 72 10000 10.8 270 14:47 12.09.2019
2034 Clouds 18 1023 77 10000 4.1 250 14:23 12.09.2019
2035 Clouds 18 1023 72 10000 10.3 270 13:59 12.09.2019
2036 Clouds 18 1024 82 10000 5.1 250 13:39 12.09.2019
2037 Rain 18 1023 72 10000 4.1 250 13:20 12.09.2019
2038 Rain 17 1023 63 10000 8.7 250 12:48 12.09.2019
2039 Clouds 17 1023 77 10000 5.1 250 12:19 12.09.2019
2040 Clouds 17 1023 77 10000 5.1 250 11:58 12.09.2019
2041 Clouds 17 1023 82 10000 5.7 230 11:39 12.09.2019
2042 Clouds 17 1023 82 10000 5.7 230 11:39 12.09.2019
2043 Clouds 17 1022 77 10000 4.6 230 11:21 12.09.2019
2044 Clouds 17 1022 77 10000 4.6 230 11:21 12.09.2019
2045 Clouds 16 1022 82 10000 4.1 250 10:48 12.09.2019
2046 Clouds 16 1022 87 10000 3.1 210 10:26 12.09.2019
2047 Clouds 15 1022 93 10000 5.1 220 09:56 12.09.2019
2048 Clouds 15 1022 93 10000 5.1 220 09:38 12.09.2019
2049 Clouds 15 1021 87 10000 3.1 210 09:18 12.09.2019
2050 Mist 14 1022 100 10000 3.6 200 08:43 12.09.2019
2051 Mist 14 1021 87 10000 3.1 210 08:23 12.09.2019
2052 Mist 13 1021 87 10000 5.7 230 07:54 12.09.2019
2053 Mist 13 1020 93 10000 2.1 210 07:36 12.09.2019
2054 Mist 13 1020 93 10000 2.1 210 07:18 12.09.2019
2055 Rain 13 1021 93 10000 3.1 240 06:44 12.09.2019
2056 Rain 12 1020 93 10000 4.1 250 05:59 12.09.2019
2057 Rain 12 1021 93 10000 1.5 270 05:39 12.09.2019
2058 Clouds 12 1019 93 10000 4.1 260 04:47 12.09.2019
2059 Clouds 12 1019 87 10000 5.1 260 03:46 12.09.2019
2060 Clear 13 1019 93 10000 3.6 240 01:43 12.09.2019
2061 Clear 14 1017 87 0 2.6 240 01:24 12.09.2019
2062 Clouds 14 1017 93 10000 5.7 270 00:50 12.09.2019
2063 Clear 14 1016 87 0 3.1 260 00:31 12.09.2019
2064 Rain 15 1017 93 9000 3.6 230 23:45 11.09.2019
2065 Rain 15 1016 93 0 4.1 240 23:25 11.09.2019
2066 Clouds 15 1015 100 10000 2.6 220 22:58 11.09.2019
2067 Rain 15 1017 93 9000 5.7 240 22:38 11.09.2019
2068 Drizzle 15 1017 93 5000 4.6 220 22:20 11.09.2019
2069 Rain 15 1015 100 8000 8.2 240 21:59 11.09.2019
2070 Drizzle 14 1016 100 4800 8.2 220 21:41 11.09.2019
2071 Drizzle 14 1014 100 6000 5.7 210 21:22 11.09.2019
2072 Drizzle 14 1014 100 3000 7.7 220 20:56 11.09.2019
2073 Drizzle 14 1016 93 2100 8.2 220 20:38 11.09.2019
2074 Drizzle 14 1016 93 7000 4.6 210 20:19 11.09.2019
2075 Drizzle 14 1014 93 3500 7.7 210 19:56 11.09.2019
2076 Rain 14 1016 100 1600 6.7 210 19:37 11.09.2019
2077 Rain 14 1014 93 6000 5.7 200 19:37 11.09.2019
2078 Rain 14 1014 93 6000 5.7 200 19:19 11.09.2019
2079 Rain 14 1016 100 5000 7.2 210 18:44 11.09.2019
2080 Rain 14 1014 93 5000 7.2 200 18:26 11.09.2019
2081 Rain 14 1015 100 8000 8.2 220 17:59 11.09.2019
2082 Rain 14 1015 87 5000 9.3 230 17:41 11.09.2019
2083 Rain 14 1015 87 5000 9.3 230 17:22 11.09.2019
2084 Rain 15 1015 87 10000 8.7 240 16:57 11.09.2019
2085 Rain 15 1016 82 8000 8.2 230 16:38 11.09.2019
2086 Rain 16 1015 82 8000 7.2 210 16:19 11.09.2019
2087 Rain 15 1015 87 7000 6.7 200 15:47 11.09.2019
2088 Rain 16 1015 87 8000 7.2 230 15:47 11.09.2019
2089 Rain 16 1014 93 5000 10.8 220 15:24 11.09.2019
2090 Rain 17 1015 82 10000 8.2 220 14:59 11.09.2019
2091 Rain 17 1016 72 10000 8.7 220 14:40 11.09.2019
2092 Rain 17 1015 68 10000 8.2 210 14:20 11.09.2019
2093 Rain 17 1015 68 10000 8.2 210 14:20 11.09.2019
2094 Rain 17 1015 72 10000 8.2 220 13:58 11.09.2019
2095 Clouds 17 1016 68 10000 9.3 220 13:37 11.09.2019
2096 Clouds 17 1015 68 10000 6.2 200 13:18 11.09.2019
2097 Clouds 17 1016 72 10000 9.3 220 12:42 11.09.2019
2098 Clouds 17 1016 77 10000 5.1 200 12:22 11.09.2019
2099 Clouds 17 1016 72 10000 7.7 220 11:58 11.09.2019
2100 Clouds 16 1016 77 10000 6.2 200 11:38 11.09.2019
2101 Clouds 16 1016 77 10000 6.2 200 11:20 11.09.2019
2102 Clouds 16 1016 87 10000 5.1 210 10:55 11.09.2019
2103 Clouds 15 1017 82 10000 6.7 200 10:36 11.09.2019
2104 Clouds 15 1016 82 10000 5.1 200 10:18 11.09.2019
2105 Rain 14 1017 93 10000 4.1 200 09:37 11.09.2019
2106 Rain 13 1016 87 10000 4.1 200 09:19 11.09.2019
2107 Clouds 12 1017 93 10000 4.1 190 08:42 11.09.2019
2108 Clouds 12 1016 87 10000 3.1 200 08:22 11.09.2019
2109 Clouds 11 1016 93 10000 6.7 200 07:57 11.09.2019
2110 Clouds 11 1017 93 10000 3.6 190 07:39 11.09.2019
2111 Clouds 11 1017 93 10000 3.6 190 07:39 11.09.2019
2112 Clouds 11 1016 93 10000 2.6 170 07:20 11.09.2019
2113 Clouds 11 1016 93 10000 2.6 170 07:20 11.09.2019
2114 Fog 11 1017 93 10000 4.1 200 06:44 11.09.2019
2115 Fog 11 1016 93 0 2.6 190 06:21 11.09.2019
2116 Clear 11 1016 93 0 2.6 200 05:35 11.09.2019
2117 Clouds 11 1017 93 10000 7.2 240 04:59 11.09.2019
2118 Clear 11 1016 93 0 2.6 210 04:21 11.09.2019
2119 Clear 11 1016 87 0 3.1 240 03:29 11.09.2019
2120 Clouds 11 1016 87 0 3.1 240 02:32 11.09.2019
2121 Clouds 12 1016 87 0 3.1 250 01:33 11.09.2019
2122 Clouds 12 1017 93 10000 3.6 240 00:40 11.09.2019
2123 Clouds 13 1016 93 0 3.1 260 00:20 11.09.2019
2124 Clouds 13 1016 93 0 3.1 260 00:20 11.09.2019
2125 Clouds 13 1017 93 10000 3.1 230 23:41 10.09.2019
2126 Clouds 13 1015 87 0 3.6 270 23:22 10.09.2019
2127 Clouds 13 1015 93 10000 7.2 290 22:57 10.09.2019
2128 Clouds 13 1016 93 10000 2.6 250 22:38 10.09.2019
2129 Clouds 14 1015 87 10000 3.6 270 22:19 10.09.2019
2130 Clouds 14 1015 87 10000 3.6 270 22:19 10.09.2019
2131 Clouds 14 1015 93 10000 7.7 280 21:55 10.09.2019
2132 Clouds 14 1015 93 10000 7.7 280 21:55 10.09.2019
2133 Clouds 14 1016 93 10000 3.6 260 21:37 10.09.2019
2134 Clouds 14 1014 87 10000 3.6 260 21:18 10.09.2019
2135 Clouds 14 1014 87 10000 7.2 280 20:57 10.09.2019
2136 Clouds 15 1014 87 10000 3.6 270 20:38 10.09.2019
2137 Clouds 15 1014 87 10000 3.6 270 20:19 10.09.2019
2138 Clouds 15 1014 87 10000 8.7 290 19:55 10.09.2019
2139 Rain 15 1015 87 10000 3.1 260 19:37 10.09.2019
2140 Rain 15 1015 87 10000 3.1 260 19:37 10.09.2019
2141 Clouds 15 1014 82 10000 9.8 300 19:18 10.09.2019
2142 Rain 15 1014 93 10000 6.2 270 18:46 10.09.2019
2143 Rain 15 1015 93 10000 5.1 290 18:23 10.09.2019
2144 Rain 15 1013 87 9000 10.3 290 17:59 10.09.2019
2145 Rain 15 1014 93 10000 6.7 290 17:41 10.09.2019
2146 Rain 15 1014 87 6000 6.2 310 17:21 10.09.2019
2147 Rain 16 1013 93 10000 10.8 290 16:57 10.09.2019
2148 Rain 16 1014 87 5000 6.7 280 16:39 10.09.2019
2149 Rain 16 1012 87 10000 3.6 290 16:20 10.09.2019
2150 Rain 16 1012 93 10000 11.8 290 15:57 10.09.2019
2151 Rain 16 1013 82 10000 7.2 300 15:39 10.09.2019
2152 Rain 16 1011 88 10000 3.1 290 15:20 10.09.2019
2153 Rain 17 1013 77 10000 8.7 280 14:41 10.09.2019
2154 Rain 16 1011 82 10000 4.1 310 14:22 10.09.2019
2155 Rain 16 1011 82 10000 12.9 310 13:54 10.09.2019
2156 Rain 17 1011 87 10000 6.2 280 13:36 10.09.2019
2157 Rain 17 1011 87 10000 6.2 280 13:18 10.09.2019
2158 Rain 17 1011 82 10000 9.8 300 12:42 10.09.2019
2159 Rain 17 1011 82 10000 9.8 300 12:24 10.09.2019
2160 Rain 17 1010 77 10000 6.2 290 11:54 10.09.2019
2161 Clouds 16 1011 87 10000 6.2 290 11:36 10.09.2019
2162 Clouds 16 1011 82 10000 6.7 290 11:18 10.09.2019
2163 Clouds 15 1010 82 10000 4.6 290 10:39 10.09.2019
2164 Clouds 15 1010 82 10000 4.6 290 10:19 10.09.2019
2165 Clouds 15 1010 77 10000 5.1 290 09:55 10.09.2019
2166 Clouds 14 1011 87 10000 6.7 280 09:37 10.09.2019
2167 Clouds 14 1010 82 10000 4.1 290 09:18 10.09.2019
2168 Clouds 13 1010 82 10000 5.1 290 08:43 10.09.2019
2169 Clouds 13 1010 82 10000 5.1 290 08:24 10.09.2019
2170 Clouds 13 1010 82 10000 5.1 290 08:24 10.09.2019
2171 Clouds 12 1010 87 10000 4.6 290 07:44 10.09.2019
2172 Clouds 12 1010 87 10000 4.6 290 07:26 10.09.2019
2173 Clouds 12 1010 87 10000 4.6 290 07:26 10.09.2019
2174 Clouds 12 1010 93 10000 3.6 280 06:53 10.09.2019
2175 Clear 12 1010 87 10000 3.6 280 06:35 10.09.2019
2176 Rain 12 1011 93 10000 3.6 280 05:24 10.09.2019
2177 Rain 12 1010 87 0 4.6 300 03:50 10.09.2019
2178 Rain 13 1012 93 10000 3.1 300 02:23 10.09.2019
2179 Rain 13 1012 93 10000 3.1 300 02:23 10.09.2019
2180 Rain 13 1011 93 0 5.7 310 01:57 10.09.2019
2181 Rain 13 1011 93 0 5.7 310 01:57 10.09.2019
2182 Rain 13 1011 93 0 4.1 300 01:39 10.09.2019
2183 Rain 13 1011 87 0 4.6 310 00:54 10.09.2019
2184 Rain 13 1011 87 0 5.1 310 00:25 10.09.2019
2185 Rain 13 1012 100 4800 1.5 310 23:47 09.09.2019
2186 Rain 13 1012 93 10000 2.1 330 23:20 09.09.2019
2187 Rain 13 1012 87 10000 5.1 320 22:57 09.09.2019
2188 Rain 13 1012 93 8000 6.2 330 22:38 09.09.2019
2189 Rain 13 1013 93 10000 1.5 330 22:20 09.09.2019
2190 Rain 13 1013 93 10000 1.5 330 21:57 09.09.2019
2191 Rain 13 1012 93 10000 4.6 320 21:39 09.09.2019
2192 Rain 13 1012 93 10000 4.6 320 21:20 09.09.2019
2193 Rain 13 1012 87 8000 5.1 320 20:56 09.09.2019
2194 Rain 13 1012 87 10000 4.6 330 20:37 09.09.2019
2195 Rain 14 1012 87 10000 4.6 330 20:19 09.09.2019
2196 Rain 14 1012 87 10000 3.6 330 19:58 09.09.2019
2197 Rain 14 1012 93 10000 2.1 320 19:39 09.09.2019
2198 Rain 14 1012 87 10000 2.6 340 19:19 09.09.2019
2199 Rain 14 1012 87 10000 2.6 340 18:58 09.09.2019
2200 Rain 15 1012 82 10000 3.1 70 18:40 09.09.2019
2201 Rain 15 1012 87 10000 2.6 10 18:21 09.09.2019
2202 Rain 15 1012 87 10000 2.6 10 17:58 09.09.2019
2203 Rain 16 1012 87 10000 3.6 10 17:40 09.09.2019
2204 Rain 16 1012 87 10000 3.6 10 17:21 09.09.2019
2205 Rain 16 1012 77 10000 3.1 20 16:56 09.09.2019
2206 Clouds 17 1012 77 10000 3.6 30 16:38 09.09.2019
2207 Clouds 17 1012 77 10000 3.6 30 16:19 09.09.2019
2208 Clouds 17 1012 67 10000 3.1 20 15:55 09.09.2019
2209 Clouds 17 1012 67 10000 3.1 20 15:55 09.09.2019
2210 -273 0 0 0 0 0 15:55 09.09.2019
2211 Clouds 18 1013 72 10000 2.6 20 15:36 09.09.2019
2212 Clouds 18 1013 77 10000 3.6 40 15:18 09.09.2019
2213 Clouds 18 1013 77 10000 3.6 40 14:54 09.09.2019
2214 Clouds 18 1013 72 10000 3.6 40 14:36 09.09.2019
2215 Clouds 18 1013 72 10000 1.5 10 14:18 09.09.2019
2216 Clouds 17 1013 63 10000 1.5 330 13:43 09.09.2019
2217 Clouds 17 1014 67 10000 1.5 50 13:19 09.09.2019
2218 Clouds 17 1014 67 10000 1.5 50 12:57 09.09.2019
2219 Clouds 17 1014 72 10000 1 70 12:38 09.09.2019
2220 Clouds 16 1014 72 10000 1.5 60 12:19 09.09.2019
2221 Clouds 16 1014 77 10000 1.5 70 11:46 09.09.2019
2222 Clouds 15 1014 77 10000 1.5 70 11:22 09.09.2019
2223 Clouds 15 1014 93 6000 0.5 300 10:58 09.09.2019
2224 Mist 15 1014 82 10000 1.5 80 10:39 09.09.2019
2225 Mist 14 1014 82 10000 1.5 80 10:20 09.09.2019
2226 Mist 14 1015 100 7000 0.5 50 09:56 09.09.2019
2227 Mist 12 1015 93 5000 1.5 60 09:37 09.09.2019
2228 Mist 12 1015 93 10000 1 10 09:18 09.09.2019
2229 Mist 11 1015 93 10000 0.5 130 08:38 09.09.2019
2230 Mist 10 1015 100 8000 0.5 40 08:19 09.09.2019
2231 Mist 9 1015 100 800 0.5 50 07:45 09.09.2019
2232 Mist 9 1016 100 300 1 70 07:22 09.09.2019
2233 Mist 9 1015 100 3000 0.5 20 06:56 09.09.2019
2234 Mist 9 1015 100 3000 0.5 20 06:56 09.09.2019
2235 Fog 9 1015 100 8000 1 40 06:32 09.09.2019
2236 Mist 10 1016 93 10000 1 40 04:55 09.09.2019
2237 Mist 10 1016 93 10000 1 40 04:55 09.09.2019
2238 Fog 10 1017 93 0 0.5 80 02:43 09.09.2019
2239 Fog 11 1017 93 0 0.5 90 02:19 09.09.2019
2240 Fog 11 1017 93 10000 2.6 100 00:41 09.09.2019
2241 Fog 11 1017 87 0 1.5 50 00:21 09.09.2019
2242 Fog 11 1018 93 0 0.5 0 23:44 08.09.2019
2243 Clouds 11 1018 93 0 0.5 0 23:23 08.09.2019
2244 Clouds 12 1018 93 10000 0.5 100 22:56 08.09.2019
2245 Clouds 12 1018 93 10000 0.5 80 22:37 08.09.2019
2246 Clouds 12 1018 87 10000 0.5 30 22:19 08.09.2019
2247 Clouds 13 1018 87 10000 1.5 40 21:42 08.09.2019
2248 Clouds 13 1018 87 10000 1.5 40 21:23 08.09.2019
2249 Rain 14 1018 82 0 2.6 60 20:58 08.09.2019
2250 Clouds 14 1019 82 10000 2.1 40 20:39 08.09.2019
2251 Clouds 15 1019 82 10000 2.1 40 20:20 08.09.2019
2252 Clear 15 1018 82 10000 2.6 60 19:59 08.09.2019
2253 Rain 16 1018 77 10000 2.6 110 19:38 08.09.2019
2254 Rain 16 1018 77 10000 3.1 50 19:19 08.09.2019
2255 Rain 16 1018 77 10000 3.1 50 19:19 08.09.2019
2256 Rain 17 1018 77 10000 3.1 50 18:57 08.09.2019
2257 Clouds 17 1018 63 10000 3.1 120 18:38 08.09.2019
2258 Clouds 17 1018 67 10000 3.1 60 18:18 08.09.2019
2259 Clouds 17 1018 67 10000 3.1 60 17:56 08.09.2019
2260 Clouds 18 1018 67 10000 3.6 70 17:36 08.09.2019
2261 Clouds 18 1018 63 10000 2.6 60 17:18 08.09.2019
2262 Rain 18 1018 63 10000 1.5 10 16:43 08.09.2019
2263 Rain 18 1018 63 10000 1.5 10 16:22 08.09.2019
2264 Rain 18 1018 63 10000 1.5 360 15:58 08.09.2019
2265 Clouds 18 1019 63 10000 4.1 110 15:40 08.09.2019
2266 Clouds 18 1019 63 10000 4.1 110 15:21 08.09.2019
2267 Clouds 18 1019 59 10000 3.6 130 14:57 08.09.2019
2268 Clouds 18 1019 59 10000 3.6 130 14:57 08.09.2019
2269 Clouds 18 1018 63 10000 2.6 80 14:38 08.09.2019
2270 Clouds 18 1018 63 10000 2.6 80 14:20 08.09.2019
2271 Clouds 18 1018 63 10000 2.6 80 13:56 08.09.2019
2272 Clouds 18 1018 63 10000 2.1 100 13:37 08.09.2019
2273 Clouds 17 1018 63 10000 2.1 100 13:19 08.09.2019
2274 Clouds 17 1018 68 10000 2.1 90 12:42 08.09.2019
2275 Clouds 17 1018 68 10000 2.1 90 12:42 08.09.2019
2276 Clouds 17 1018 68 10000 2.1 90 12:23 08.09.2019
2277 Clouds 16 1018 72 0 1.5 30 11:58 08.09.2019
2278 Clouds 15 1019 100 10000 1 70 11:40 08.09.2019
2279 Clouds 15 1019 100 10000 1 70 11:20 08.09.2019
2280 Clouds 15 1018 82 0 1 0 10:58 08.09.2019
2281 Fog 14 1018 82 0 1 40 10:40 08.09.2019
2282 Fog 14 1018 82 0 1 40 10:21 08.09.2019
2283 Fog 12 1018 100 0 2.1 350 09:39 08.09.2019
2284 Fog 11 1018 100 0 2.1 350 09:21 08.09.2019
2285 Fog 10 1018 100 0 1 340 08:57 08.09.2019
2286 Fog 9 1018 100 0 1 300 08:38 08.09.2019
2287 Fog 8 1018 100 0 0.5 270 08:18 08.09.2019
2288 Fog 7 1018 100 0 0.5 270 07:40 08.09.2019
2289 Fog 7 1018 100 0 0.5 270 07:21 08.09.2019
2290 Fog 7 1018 100 0 0.5 280 06:53 08.09.2019
2291 Fog 7 1018 100 0 0.5 280 06:53 08.09.2019
2292 Fog 7 1018 100 8000 1 290 06:33 08.09.2019
2293 Fog 7 1018 100 200 1.85 0.372 05:39 08.09.2019
2294 Fog 8 1017 100 0 1.5 300 04:27 08.09.2019
2295 Fog 8 1018 93 200 0.5 270 03:19 08.09.2019
2296 Fog 9 1018 93 200 0.5 290 02:29 08.09.2019
2297 Fog 9 1017 100 0 1.5 280 01:52 08.09.2019
2298 Fog 9 1017 100 0 2.1 250 01:23 08.09.2019
2299 Fog 10 1017 93 0 1 240 00:46 08.09.2019
2300 Fog 10 1017 93 0 1 240 00:27 08.09.2019
2301 Fog 11 1017 93 0 1.5 240 23:39 07.09.2019
2302 Fog 11 1017 93 0 2.1 240 23:21 07.09.2019
2303 Fog 11 1017 93 0 2.1 240 22:59 07.09.2019
2304 Fog 11 1017 93 0 2.1 240 22:59 07.09.2019
2305 Fog 11 1017 87 0 2.1 230 22:40 07.09.2019
2306 Fog 11 1017 87 0 2.1 240 22:22 07.09.2019
2307 Fog 12 1017 87 0 2.1 240 21:55 07.09.2019
2308 Fog 12 1017 93 10000 0.5 240 21:37 07.09.2019
2309 Fog 13 1017 93 10000 0.5 240 21:19 07.09.2019
2310 Rain 14 1016 87 0 2.1 200 20:39 07.09.2019
2311 Rain 14 1016 87 0 2.1 200 20:21 07.09.2019
2312 Rain 15 1016 82 0 2.1 190 19:56 07.09.2019
2313 Rain 16 1016 72 0 2.1 200 19:38 07.09.2019
2314 Rain 16 1016 67 0 2.6 200 19:19 07.09.2019
2315 Rain 16 1016 67 0 2.6 200 18:58 07.09.2019
2316 Rain 16 1016 67 0 3.1 200 18:38 07.09.2019
2317 Rain 16 1016 67 0 3.1 200 18:20 07.09.2019
2318 Rain 17 1016 72 0 2.6 200 17:58 07.09.2019
2319 Rain 17 1016 72 0 2.6 200 17:58 07.09.2019
2320 Rain 17 1016 72 10000 5.1 240 17:39 07.09.2019
2321 Rain 17 1016 72 10000 5.1 240 17:18 07.09.2019
2322 Rain 17 1015 63 10000 3.1 200 16:56 07.09.2019
2323 Clouds 16 1015 63 10000 3.6 200 16:37 07.09.2019
2324 Clouds 16 1015 63 10000 3.6 200 16:18 07.09.2019
2325 Rain 16 1015 63 10000 4.6 240 15:44 07.09.2019
2326 Rain 16 1015 63 10000 4.6 240 15:25 07.09.2019
2327 Rain 16 1015 67 10000 5.1 270 14:56 07.09.2019
2328 Rain 16 1015 72 10000 4.6 230 14:36 07.09.2019
2329 Rain 16 1015 72 10000 4.6 230 14:36 07.09.2019
2330 Rain 16 1015 59 10000 4.6 240 14:18 07.09.2019
2331 Rain 16 1015 59 10000 4.6 240 13:55 07.09.2019
2332 Rain 16 1015 59 10000 4.6 240 13:55 07.09.2019
2333 Clouds 17 1015 63 10000 4.1 200 13:37 07.09.2019
2334 Clouds 16 1015 72 10000 3.6 190 13:18 07.09.2019
2335 Rain 16 1015 72 10000 4.6 200 12:41 07.09.2019
2336 Rain 16 1015 72 10000 4.6 200 12:23 07.09.2019
2337 Clouds 16 1015 77 10000 3.6 200 11:41 07.09.2019
2338 Clouds 15 1015 77 10000 3.6 200 11:22 07.09.2019
2339 Clouds 15 1015 77 10000 3.6 200 10:56 07.09.2019
2340 Rain 14 1015 77 10000 2.6 180 10:37 07.09.2019
2341 Rain 14 1015 77 10000 2.6 180 10:18 07.09.2019
2342 Rain 14 1015 93 10000 4.1 190 09:42 07.09.2019
2343 Rain 13 1014 87 10000 3.6 200 09:22 07.09.2019
2344 Rain 13 1014 87 10000 2.6 200 08:57 07.09.2019
2345 Rain 12 1014 87 10000 4.1 210 08:36 07.09.2019
2346 Rain 11 1014 93 10000 2.6 180 08:18 07.09.2019
2347 Clouds 11 1014 93 10000 2.6 180 07:43 07.09.2019
2348 Fog 10 1014 93 0 2.6 190 07:22 07.09.2019
2349 Fog 10 1014 93 0 2.6 200 06:43 07.09.2019
2350 Clouds 11 1014 100 10000 2.1 210 05:41 07.09.2019
2351 Clouds 11 1014 100 10000 2.1 210 05:41 07.09.2019
2352 Rain 12 1013 93 10000 2.1 190 04:26 07.09.2019
2353 Rain 12 1015 87 7000 3.1 220 03:44 07.09.2019
2354 Rain 12 1013 93 10000 3.6 200 02:31 07.09.2019
2355 Rain 12 1013 93 0 2.6 180 01:44 07.09.2019
2356 Rain 12 1013 93 0 2.6 210 00:55 07.09.2019
2357 Rain 13 1014 87 0 2.1 230 00:37 07.09.2019
2358 Rain 13 1014 76 0 3.6 220 00:18 07.09.2019
2359 Rain 13 1014 76 0 4.6 190 23:38 06.09.2019
2360 Rain 13 1014 82 0 4.6 180 23:20 06.09.2019
2361 Rain 13 1014 82 0 4.6 180 22:57 06.09.2019
2362 Rain 13 1014 87 10000 5.1 180 22:37 06.09.2019
2363 Rain 13 1014 87 10000 5.1 180 22:19 06.09.2019
2364 Rain 13 1014 87 10000 4.6 180 21:56 06.09.2019
2365 Rain 13 1015 87 10000 3.6 170 21:38 06.09.2019
2366 Rain 13 1015 87 10000 3.6 170 21:20 06.09.2019
2367 Rain 13 1015 93 8000 2.6 190 20:55 06.09.2019
2368 Rain 13 1016 87 8000 4.1 200 20:37 06.09.2019
2369 Rain 14 1016 87 9000 3.6 200 20:18 06.09.2019
2370 Rain 14 1016 87 9000 3.6 200 20:18 06.09.2019
2371 Rain 14 1016 93 6000 3.6 220 19:42 06.09.2019
2372 Rain 14 1016 93 6000 3.6 220 19:24 06.09.2019
2373 Rain 14 1016 87 4500 4.6 230 18:59 06.09.2019
2374 Rain 14 1016 93 3500 6.2 230 18:40 06.09.2019
2375 Rain 15 1016 87 5000 4.6 210 18:22 06.09.2019
2376 Rain 15 1016 87 5000 4.6 210 17:57 06.09.2019
2377 Rain 15 1016 87 5000 4.6 210 17:57 06.09.2019
2378 Rain 15 1016 82 8000 5.7 220 17:37 06.09.2019
2379 Rain 15 1016 82 8000 5.7 220 17:19 06.09.2019
2380 Thunderstorm 15 1017 93 4500 3.1 230 16:39 06.09.2019
2381 Thunderstorm 15 1017 93 4500 3.1 230 16:18 06.09.2019
2382 Thunderstorm 15 1017 87 10000 5.7 240 15:42 06.09.2019
2383 Thunderstorm 15 1017 87 10000 5.7 240 15:42 06.09.2019
2384 Thunderstorm 15 1017 87 10000 5.7 240 15:23 06.09.2019
2385 Rain 15 1017 87 8000 3.1 200 14:55 06.09.2019
2386 Rain 15 1017 87 8000 3.1 200 14:55 06.09.2019
2387 Rain 15 1017 87 3500 2.6 260 14:37 06.09.2019
2388 Rain 15 1017 87 4000 3.6 200 14:18 06.09.2019
2389 Clouds 15 1016 67 10000 6.7 240 13:41 06.09.2019
2390 Clouds 15 1016 67 10000 6.7 240 13:41 06.09.2019
2391 Clouds 15 1016 67 10000 6.7 240 13:20 06.09.2019
2392 Rain 15 1018 82 10000 6.2 210 12:38 06.09.2019
2393 Rain 14 1018 82 10000 6.2 210 12:20 06.09.2019
2394 Rain 14 1018 87 10000 4.6 210 11:54 06.09.2019
2395 Rain 14 1018 93 10000 4.1 200 11:36 06.09.2019
2396 Rain 13 1018 93 10000 4.1 200 11:18 06.09.2019
2397 Rain 13 1018 87 10000 5.1 210 10:40 06.09.2019
2398 Rain 13 1018 87 10000 5.1 210 10:22 06.09.2019
2399 Rain 13 1017 100 10000 4.1 200 09:58 06.09.2019
2400 Rain 12 1017 93 10000 4.1 190 09:36 06.09.2019
2401 Rain 12 1017 93 10000 3.6 180 09:18 06.09.2019
2402 Rain 12 1019 93 10000 6.2 210 08:44 06.09.2019
2403 Rain 12 1017 93 10000 3.6 190 08:26 06.09.2019
2404 Rain 11 1018 87 8000 3.1 180 07:49 06.09.2019
2405 Rain 11 1018 87 8000 3.1 180 07:28 06.09.2019
2406 Rain 11 1018 87 10000 3.1 190 06:58 06.09.2019
2407 Rain 11 1018 93 10000 5.1 190 06:31 06.09.2019
2408 Clouds 10 1020 93 10000 2.6 190 05:44 06.09.2019
2409 Rain 10 1019 87 0 3.1 200 04:54 06.09.2019
2410 Rain 10 1018 76 0 3.1 220 04:19 06.09.2019
2411 Clouds 10 1018 93 10000 1.5 210 02:40 06.09.2019
2412 Rain 10 1018 81 0 3.6 240 00:51 06.09.2019
2413 Rain 10 1018 81 0 4.1 240 00:20 06.09.2019
2414 Rain 10 1018 81 0 4.1 240 00:20 06.09.2019
2415 Rain 10 1019 87 10000 3.6 230 23:41 05.09.2019
2416 Rain 10 1018 87 10000 3.6 250 23:22 05.09.2019
2417 Rain 10 1018 76 10000 3.1 270 22:45 05.09.2019
2418 Clouds 11 1018 76 10000 3.1 270 22:25 05.09.2019
2419 Clouds 11 1017 81 10000 4.1 250 21:57 05.09.2019
2420 Rain 11 1017 81 10000 3.6 250 21:39 05.09.2019
2421 Rain 11 1017 81 10000 3.6 250 21:39 05.09.2019
2422 Rain 11 1017 81 10000 3.6 250 21:20 05.09.2019
2423 Rain 11 1017 81 10000 3.6 250 20:58 05.09.2019
2424 Rain 11 1016 81 10000 3.1 250 20:39 05.09.2019
2425 Rain 12 1016 71 10000 3.1 290 20:20 05.09.2019
2426 Rain 12 1016 71 10000 3.1 290 19:57 05.09.2019
2427 Rain 13 1016 81 10000 7.7 300 19:39 05.09.2019
2428 Rain 13 1015 76 10000 5.7 290 19:20 05.09.2019
2429 Rain 14 1015 76 10000 11.8 330 18:45 05.09.2019
2430 Rain 14 1015 76 10000 11.8 330 18:27 05.09.2019
2431 Rain 15 1014 67 10000 6.7 290 17:59 05.09.2019
2432 Rain 15 1014 62 10000 9.3 290 17:40 05.09.2019
2433 Rain 15 1014 62 10000 9.3 290 17:22 05.09.2019
2434 Rain 15 1013 67 10000 9.8 280 16:57 05.09.2019
2435 Rain 15 1012 72 10000 5.1 280 16:39 05.09.2019
2436 Rain 15 1012 72 10000 5.1 280 16:19 05.09.2019
2437 Rain 15 1011 63 10000 4.6 280 15:40 05.09.2019
2438 Rain 15 1011 63 10000 4.6 280 15:40 05.09.2019
2439 Rain 15 1011 63 10000 4.6 280 15:19 05.09.2019
2440 Rain 16 1011 72 10000 7.7 250 14:58 05.09.2019
2441 Rain 15 1010 67 10000 6.2 290 14:40 05.09.2019
2442 Rain 15 1010 67 10000 6.2 290 14:20 05.09.2019
2443 Clouds 15 1011 76 10000 9.3 300 13:43 05.09.2019
2444 Rain 15 1010 77 10000 8.2 270 13:23 05.09.2019
2445 Rain 15 1009 77 10000 3.6 270 12:54 05.09.2019
2446 Clouds 15 1009 82 10000 5.7 280 12:36 05.09.2019
2447 Clouds 15 1009 82 10000 5.7 280 12:36 05.09.2019
2448 Clouds 15 1009 82 10000 5.7 280 12:36 05.09.2019
2449 Rain 14 1009 93 10000 4.1 240 12:18 05.09.2019
2450 Rain 13 1009 87 10000 5.1 260 11:43 05.09.2019
2451 Rain 13 1009 87 10000 5.1 260 11:20 05.09.2019
2452 Rain 13 1008 87 9000 2.1 230 10:42 05.09.2019
2453 Rain 13 1008 87 9000 2.1 230 10:23 05.09.2019
2454 Rain 13 1008 93 5000 3.6 240 10:23 05.09.2019
2455 Rain 13 1008 93 10000 2.1 210 09:59 05.09.2019
2456 Rain 13 1007 93 10000 2.6 240 09:40 05.09.2019
2457 Rain 12 1007 93 10000 2.6 240 09:19 05.09.2019
2458 Rain 12 1007 93 10000 2.6 240 09:19 05.09.2019
2459 Rain 12 1008 93 3000 5.7 250 08:46 05.09.2019
2460 Rain 12 1008 93 3000 5.7 250 08:27 05.09.2019
2461 Rain 12 1007 93 5000 4.6 200 07:48 05.09.2019
2462 Rain 12 1007 93 5000 4.6 200 07:29 05.09.2019
2463 Rain 12 1007 93 4000 7.7 230 06:58 05.09.2019
2464 Rain 12 1007 93 10000 5.7 220 06:39 05.09.2019
2465 Rain 12 1007 87 0 3.1 200 06:18 05.09.2019
2466 Rain 12 1007 87 0 2.6 190 05:40 05.09.2019
2467 Rain 12 1007 87 0 2.6 190 05:22 05.09.2019
2468 Rain 12 1007 87 0 2.6 180 04:29 05.09.2019
2469 Rain 12 1008 87 0 2.1 230 03:41 05.09.2019
2470 Rain 12 1008 93 0 3.6 250 02:55 05.09.2019
2471 Clouds 12 1008 93 10000 2.6 240 02:28 05.09.2019
2472 Rain 12 1008 93 0 2.6 220 01:48 05.09.2019
2473 Clouds 13 1008 93 0 3.1 240 00:51 05.09.2019
2474 Rain 14 1008 93 0 2.6 240 00:23 05.09.2019
2475 Rain 14 1007 93 0 3.6 250 23:59 04.09.2019
2476 Rain 14 1007 100 8000 3.1 290 23:39 04.09.2019
2477 Rain 15 1007 100 8000 3.1 290 23:19 04.09.2019
2478 Rain 15 1008 93 9000 7.7 230 22:47 04.09.2019
2479 Rain 16 1007 93 10000 3.6 220 22:20 04.09.2019
2480 -273 0 0 0 0 0 21:56 04.09.2019
2481 Rain 16 1007 93 10000 1.5 240 21:38 04.09.2019
2482 Rain 16 1007 93 2500 7.2 210 21:19 04.09.2019
2483 Rain 16 1007 93 2500 7.2 210 20:55 04.09.2019
2484 Rain 16 1006 93 10000 4.6 180 20:36 04.09.2019
2485 Rain 16 1007 93 8000 4.6 190 20:18 04.09.2019
2486 Rain 16 1007 93 7000 6.7 210 19:40 04.09.2019
2487 Rain 16 1007 93 10000 3.6 180 19:21 04.09.2019
2488 Rain 16 1008 93 5000 5.7 210 18:42 04.09.2019
2489 Rain 16 1008 87 7000 3.6 190 18:24 04.09.2019
2490 Rain 16 1008 87 7000 3.6 190 17:59 04.09.2019
2491 Rain 17 1008 100 4000 6.7 190 17:40 04.09.2019
2492 Rain 17 1008 100 4000 6.7 190 17:22 04.09.2019
2493 Rain 18 1008 100 3000 7.2 190 16:56 04.09.2019
2494 Rain 18 1008 93 5000 7.2 190 16:38 04.09.2019
2495 Rain 18 1009 63 10000 5.1 180 16:19 04.09.2019
2496 Rain 18 1009 63 10000 5.7 190 15:41 04.09.2019
2497 Rain 19 1009 63 10000 5.7 190 15:22 04.09.2019
2498 Rain 19 1009 77 10000 8.2 200 14:58 04.09.2019
2499 Clouds 19 1010 68 10000 5.1 200 14:39 04.09.2019
2500 Clouds 19 1010 68 10000 5.1 200 14:21 04.09.2019
2501 Clouds 19 1010 68 10000 6.2 200 13:58 04.09.2019
2502 Clouds 19 1010 68 10000 6.2 200 13:58 04.09.2019
2503 Clouds 19 1010 68 10000 7.2 220 13:39 04.09.2019
2504 Clouds 19 1011 63 10000 5.7 200 13:21 04.09.2019
2505 Clouds 18 1011 72 10000 5.7 210 12:44 04.09.2019
2506 Clouds 18 1011 72 10000 5.7 210 12:26 04.09.2019
2507 Clouds 18 1011 82 10000 7.2 200 11:58 04.09.2019
2508 Clouds 18 1012 72 10000 4.6 190 11:39 04.09.2019
2509 Clouds 18 1012 72 10000 4.6 190 11:20 04.09.2019
2510 Clouds 17 1012 77 10000 6.7 200 10:56 04.09.2019
2511 Clouds 16 1013 77 10000 4.6 180 10:38 04.09.2019
2512 Clouds 16 1013 77 10000 4.6 180 10:19 04.09.2019
2513 Clouds 16 1014 82 10000 4.6 200 09:45 04.09.2019
2514 Clouds 15 1014 87 10000 4.1 190 09:21 04.09.2019
2515 Clouds 15 1013 93 10000 4.1 190 08:43 04.09.2019
2516 Clouds 15 1013 93 10000 4.1 190 08:24 04.09.2019
2517 Clouds 15 1014 87 10000 3.1 170 07:59 04.09.2019
2518 Clouds 15 1014 100 10000 3.6 180 07:37 04.09.2019
2519 Clouds 15 1014 93 10000 2.6 180 06:59 04.09.2019
2520 Clouds 15 1014 93 10000 5.1 200 06:39 04.09.2019
2521 Clouds 15 1014 93 10000 5.1 200 06:39 04.09.2019
2522 Clouds 15 1015 100 10000 3.1 180 04:55 04.09.2019
2523 Rain 15 1016 100 0 3.1 190 04:23 04.09.2019
2524 Rain 15 1017 93 10000 4.1 190 03:21 04.09.2019
2525 Rain 15 1017 87 0 3.6 240 01:21 04.09.2019
2526 Rain 15 1018 100 9000 4.1 240 00:45 04.09.2019
2527 Rain 15 1018 100 9000 4.1 240 00:27 04.09.2019
2528 Clouds 15 1017 87 0 3.1 220 23:52 03.09.2019
2529 Clouds 15 1017 93 10000 3.1 200 23:27 03.09.2019
2530 Clouds 15 1017 93 10000 2.1 220 22:57 03.09.2019
2531 Clouds 15 1018 93 10000 2.6 240 22:38 03.09.2019
2532 Clouds 15 1018 93 10000 2.6 240 22:20 03.09.2019
2533 Clouds 16 1018 87 10000 3.1 260 21:55 03.09.2019
2534 Clouds 16 1018 87 10000 2.6 260 21:36 03.09.2019
2535 Clouds 16 1018 82 10000 2.6 260 21:18 03.09.2019
2536 Rain 16 1018 82 10000 6.7 280 20:41 03.09.2019
2537 Rain 17 1017 77 10000 3.1 270 20:21 03.09.2019
2538 Clouds 17 1017 82 10000 3.1 260 19:55 03.09.2019
2539 Clouds 17 1018 77 10000 8.7 290 19:37 03.09.2019
2540 Rain 18 1017 77 10000 4.6 280 19:18 03.09.2019
2541 Rain 18 1017 72 10000 9.8 280 18:44 03.09.2019
2542 Rain 18 1017 77 10000 4.1 290 18:25 03.09.2019
2543 Rain 19 1017 72 10000 5.7 270 17:58 03.09.2019
2544 Clouds 19 1017 77 10000 10.3 270 17:39 03.09.2019
2545 Clouds 19 1017 64 10000 5.7 270 17:19 03.09.2019
2546 Rain 19 1016 68 10000 5.1 280 16:55 03.09.2019
2547 Rain 19 1016 68 10000 5.1 270 16:36 03.09.2019
2548 Rain 19 1016 72 10000 4.6 270 16:18 03.09.2019
2549 Rain 19 1016 72 10000 5.7 270 15:40 03.09.2019
2550 Rain 19 1016 72 10000 5.7 270 15:21 03.09.2019
2551 Rain 19 1016 72 10000 5.7 270 14:58 03.09.2019
2552 Rain 19 1016 72 10000 6.2 270 14:40 03.09.2019
2553 Rain 18 1016 72 10000 6.2 270 14:20 03.09.2019
2554 Rain 18 1016 77 10000 5.7 270 13:56 03.09.2019
2555 Rain 18 1016 77 10000 5.7 270 13:56 03.09.2019
2556 Rain 18 1016 82 10000 11.3 290 13:37 03.09.2019
2557 Rain 18 1015 88 10000 6.2 260 13:19 03.09.2019
2558 Rain 18 1015 93 9000 4.6 280 12:48 03.09.2019
2559 Rain 17 1015 93 9000 4.6 280 12:30 03.09.2019
2560 Rain 17 1015 88 9000 4.1 250 11:59 03.09.2019
2561 Rain 17 1015 88 10000 6.7 260 11:38 03.09.2019
2562 Rain 16 1015 88 10000 6.7 260 11:19 03.09.2019
2563 -273 0 0 0 0 0 10:55 03.09.2019
2564 Rain 15 1015 93 10000 5.1 250 10:37 03.09.2019
2565 Rain 15 1015 100 7000 5.1 250 10:18 03.09.2019
2566 Rain 14 1015 100 4000 4.6 210 09:42 03.09.2019
2567 Rain 14 1015 100 4000 4.6 210 09:24 03.09.2019
2568 Rain 14 1015 93 7000 3.6 190 08:44 03.09.2019
2569 Rain 13 1015 93 7000 3.6 190 08:26 03.09.2019
2570 Rain 13 1015 93 6000 4.1 190 07:58 03.09.2019
2571 Rain 13 1015 93 6000 4.6 190 07:39 03.09.2019
2572 Rain 13 1015 87 10000 4.1 190 07:21 03.09.2019
2573 Rain 13 1015 93 8000 6.2 200 06:43 03.09.2019
2574 Rain 13 1016 87 0 4.1 180 05:52 03.09.2019
2575 Rain 14 1017 87 0 5.1 200 03:35 03.09.2019
2576 Rain 14 1018 87 0 4.1 180 02:43 03.09.2019
2577 Rain 14 1018 87 0 4.1 180 02:23 03.09.2019
2578 Rain 14 1018 87 0 3.1 180 01:48 03.09.2019
2579 Rain 14 1018 87 0 3.1 180 01:28 03.09.2019
2580 Rain 14 1019 82 10000 6.2 200 00:40 03.09.2019
2581 Rain 14 1019 77 0 3.1 200 00:18 03.09.2019
2582 Rain 14 1019 77 0 3.6 190 23:40 02.09.2019
2583 Rain 14 1019 77 0 3.6 190 23:40 02.09.2019
2584 Clouds 13 1020 87 10000 5.1 200 23:20 02.09.2019
2585 Clouds 13 1020 87 10000 5.1 200 22:56 02.09.2019
2586 Rain 14 1019 72 10000 3.1 210 22:38 02.09.2019
2587 Rain 14 1019 72 10000 3.1 210 22:38 02.09.2019
2588 Rain 14 1020 76 10000 2.1 190 22:19 02.09.2019
2589 Rain 14 1020 76 10000 2.1 190 21:56 02.09.2019
2590 Clouds 14 1020 76 10000 1.5 190 21:38 02.09.2019
2591 Clouds 14 1020 76 10000 1.5 190 21:20 02.09.2019
2592 Clouds 14 1020 71 10000 1.5 210 20:57 02.09.2019
2593 Clouds 15 1020 76 10000 3.6 230 20:39 02.09.2019
2594 Clouds 15 1020 59 10000 3.1 260 20:18 02.09.2019
2595 Clouds 15 1020 59 10000 3.1 260 19:56 02.09.2019
2596 Clouds 16 1020 63 10000 6.7 280 19:38 02.09.2019
2597 Clouds 17 1020 55 10000 3.6 260 19:19 02.09.2019
2598 Clouds 17 1020 59 10000 7.2 300 18:40 02.09.2019
2599 Clouds 17 1020 59 10000 7.2 300 18:40 02.09.2019
2600 Clouds 17 1019 55 10000 4.1 300 18:22 02.09.2019
2601 Clouds 17 1019 55 10000 4.1 300 17:57 02.09.2019
2602 Clouds 17 1019 55 10000 4.1 290 17:39 02.09.2019
2603 Clouds 17 1019 52 10000 4.6 290 17:20 02.09.2019
2604 Clouds 17 1019 52 10000 4.6 290 16:54 02.09.2019
2605 Clouds 17 1019 52 10000 4.6 290 16:36 02.09.2019
2606 Clouds 17 1019 55 10000 4.1 290 16:18 02.09.2019
2607 Rain 18 1019 52 10000 6.2 290 15:44 02.09.2019
2608 Rain 18 1019 52 10000 6.2 290 15:22 02.09.2019
2609 Rain 18 1019 52 10000 6.2 290 15:22 02.09.2019
2610 Rain 18 1019 48 10000 5.1 280 14:56 02.09.2019
2611 Rain 18 1019 52 10000 5.7 240 14:37 02.09.2019
2612 Rain 17 1019 52 10000 5.7 240 14:19 02.09.2019
2613 Rain 17 1019 72 10000 4.6 250 13:45 02.09.2019
2614 Rain 17 1019 72 10000 4.6 250 13:25 02.09.2019
2615 Rain 16 1018 67 10000 3.6 230 12:59 02.09.2019
2616 Rain 15 1019 87 10000 2.6 200 12:41 02.09.2019
2617 Clouds 16 1018 67 10000 3.6 230 12:23 02.09.2019
2618 Rain 15 1019 87 8000 6.2 270 11:56 02.09.2019
2619 Rain 15 1018 59 6000 4.6 280 11:38 02.09.2019
2620 Rain 15 1018 82 10000 4.1 220 11:19 02.09.2019
2621 Rain 15 1018 87 6000 3.6 220 10:42 02.09.2019
2622 Rain 14 1018 87 6000 3.6 220 10:22 02.09.2019
2623 Rain 13 1017 67 10000 5.1 290 09:59 02.09.2019
2624 Rain 13 1017 72 10000 4.6 270 09:40 02.09.2019
2625 Rain 13 1017 72 10000 4.6 270 09:20 02.09.2019
2626 Clouds 12 1016 76 10000 3.6 240 08:44 02.09.2019
2627 Clouds 12 1016 76 10000 3.6 240 08:22 02.09.2019
2628 Rain 11 1016 82 10000 4.1 240 07:57 02.09.2019
2629 Rain 11 1016 81 10000 5.1 250 07:39 02.09.2019
2630 Rain 10 1015 81 10000 2.6 220 07:20 02.09.2019
2631 Rain 10 1015 81 0 6.2 240 06:43 02.09.2019
2632 Rain 11 1015 81 0 2.6 210 05:54 02.09.2019
2633 Rain 11 1015 81 0 2.6 210 05:54 02.09.2019
2634 Rain 10 1015 81 0 2.6 210 05:54 02.09.2019
2635 Rain 11 1015 82 0 2.6 220 05:27 02.09.2019
2636 Rain 11 1015 87 0 2.1 230 04:53 02.09.2019
2637 Rain 11 1014 81 0 2.6 200 02:42 02.09.2019
2638 Rain 11 1015 76 0 2.6 260 01:43 02.09.2019
2639 Rain 12 1014 71 0 5.1 240 00:47 02.09.2019
2640 Fog 12 1014 71 0 5.1 240 00:28 02.09.2019
2641 Rain 12 1014 82 10000 4.1 250 23:41 01.09.2019
2642 Rain 12 1014 76 0 2.6 240 23:21 01.09.2019
2643 Rain 12 1014 76 0 2.6 240 22:57 01.09.2019
2644 Fog 13 1014 76 0 2.1 220 22:39 01.09.2019
2645 Fog 13 1014 76 0 2.6 230 22:19 01.09.2019
2646 Fog 13 1014 76 0 2.6 230 21:57 01.09.2019
2647 Clear 14 1014 72 0 2.6 240 21:37 01.09.2019
2648 Clouds 14 1014 72 0 2.6 250 21:19 01.09.2019
2649 Clouds 15 1014 72 0 2.6 250 20:56 01.09.2019
2650 Clouds 15 1013 67 0 5.1 280 20:36 01.09.2019
2651 Clouds 16 1013 72 10000 2.1 270 20:18 01.09.2019
2652 Clouds 16 1013 67 0 7.2 290 19:55 01.09.2019
2653 -273 0 0 0 0 0 19:55 01.09.2019
2654 Clouds 17 1013 67 0 7.2 290 19:37 01.09.2019
2655 Clouds 17 1012 63 10000 6.7 280 19:18 01.09.2019
2656 Clouds 17 1013 72 10000 4.6 300 18:41 01.09.2019
2657 Clouds 17 1012 77 10000 3.1 300 18:23 01.09.2019
2658 Clouds 17 1012 77 10000 3.1 300 17:55 01.09.2019
2659 Clouds 17 1012 77 10000 4.1 280 17:37 01.09.2019
2660 Clouds 17 1012 82 10000 3.6 290 17:18 01.09.2019
2661 Clouds 18 1012 68 10000 3.6 280 16:39 01.09.2019
2662 Clouds 18 1011 52 10000 4.1 290 16:18 01.09.2019
2663 Rain 19 1011 48 10000 5.1 290 15:47 01.09.2019
2664 Rain 19 1011 48 10000 5.1 290 15:29 01.09.2019
2665 Rain 19 1011 48 10000 5.1 290 15:29 01.09.2019
2666 Clouds 19 1011 55 10000 4.1 310 14:57 01.09.2019
2667 Clouds 19 1011 55 10000 4.6 280 14:38 01.09.2019
2668 Rain 19 1011 52 10000 4.6 300 14:20 01.09.2019
2669 Clear 19 1011 52 10000 4.6 300 13:54 01.09.2019
2670 Rain 18 1011 55 0 4.6 310 13:36 01.09.2019
2671 Clouds 18 1010 72 0 3.1 310 13:18 01.09.2019
2672 Clouds 17 1010 77 0 4.6 300 12:40 01.09.2019
2673 Rain 17 1010 77 0 4.6 300 12:21 01.09.2019
2674 Rain 17 1010 82 10000 4.1 300 11:41 01.09.2019
2675 Rain 18 1010 82 10000 4.1 300 11:20 01.09.2019
2676 Rain 18 1010 87 10000 3.6 300 10:59 01.09.2019
2677 Drizzle 18 1009 88 0 2.6 250 10:41 01.09.2019
2678 Drizzle 18 1009 88 0 2.6 250 10:21 01.09.2019
2679 Mist 18 1008 93 0 2.1 210 09:43 01.09.2019
2680 Mist 18 1008 93 0 2.1 210 09:25 01.09.2019
2681 Mist 17 1007 100 4000 2.1 230 08:44 01.09.2019
2682 Mist 17 1007 100 4000 2.1 230 08:24 01.09.2019
2683 Mist 17 1007 93 0 2.1 240 07:51 01.09.2019
2684 Mist 17 1007 93 0 3.1 240 07:33 01.09.2019
2685 Mist 16 1007 93 0 2.6 250 06:51 01.09.2019
2686 Mist 16 1007 93 0 2.6 250 06:28 01.09.2019
2687 Mist 16 1006 93 0 2.6 220 05:56 01.09.2019
2688 Mist 17 1006 93 2500 1.5 330 04:32 01.09.2019
2689 Rain 18 1006 88 0 4.1 330 03:42 01.09.2019
2690 Thunderstorm 18 1007 93 3500 4.1 290 02:58 01.09.2019
2691 Thunderstorm 19 1007 77 0 4.6 290 02:28 01.09.2019
2692 Rain 19 1005 68 0 3.6 310 01:51 01.09.2019
2693 Thunderstorm 20 1005 83 0 2.6 160 01:24 01.09.2019
2694 Thunderstorm 19 1006 100 0 1 0 00:47 01.09.2019
2695 Rain 20 1006 100 0 1 0 00:23 01.09.2019
2696 Rain 20 1006 88 0 2.6 150 23:55 31.08.2019
2697 Rain 20 1007 83 0 3.6 140 23:36 31.08.2019
2698 Rain 20 1007 83 0 3.6 140 23:18 31.08.2019
2699 Rain 21 1008 83 0 3.6 140 22:44 31.08.2019
2700 Rain 21 1008 83 0 3.6 140 22:26 31.08.2019
2701 Rain 21 1008 83 0 4.1 140 21:58 31.08.2019
2702 Clouds 22 1009 88 0 4.1 140 21:39 31.08.2019
2703 Clouds 22 1009 88 0 4.1 140 21:20 31.08.2019
2704 Clouds 23 1009 83 0 4.6 140 20:49 31.08.2019
2705 Clouds 24 1009 83 0 4.6 140 20:31 31.08.2019
2706 Clouds 25 1009 78 0 4.6 140 19:57 31.08.2019
2707 Clouds 26 1009 69 0 4.1 130 19:39 31.08.2019
2708 Clouds 26 1009 73 0 3.6 120 19:21 31.08.2019
2709 Clouds 26 1009 73 0 3.6 120 19:21 31.08.2019
2710 Clouds 27 1010 65 0 3.1 110 18:40 31.08.2019
2711 Clouds 27 1010 57 0 5.7 130 18:21 31.08.2019
2712 Clouds 28 1010 57 0 5.7 130 17:58 31.08.2019
2713 Clouds 28 1011 57 0 5.7 130 17:37 31.08.2019
2714 Clouds 28 1011 57 0 5.7 130 17:37 31.08.2019
2715 Clouds 28 1011 54 0 6.2 130 17:19 31.08.2019
2716 Clouds 28 1011 54 0 6.2 130 16:59 31.08.2019
2717 Clouds 28 1012 50 0 5.1 130 16:41 31.08.2019
2718 Clouds 28 1012 50 0 5.1 130 16:21 31.08.2019
2719 Clouds 28 1012 50 0 6.2 130 15:59 31.08.2019
2720 Clouds 27 1013 51 10000 4.1 140 15:38 31.08.2019
2721 Clouds 28 1013 47 10000 4.1 160 15:18 31.08.2019
2722 Clouds 27 1014 57 0 6.2 120 14:42 31.08.2019
2723 Clouds 26 1014 57 0 6.2 120 14:24 31.08.2019
2724 Clouds 26 1014 57 0 6.2 120 13:56 31.08.2019
2725 Clouds 26 1014 50 0 4.1 170 13:36 31.08.2019
2726 Clouds 26 1015 64 0 6.7 120 13:18 31.08.2019
2727 Clouds 25 1015 57 0 4.1 160 12:42 31.08.2019
2728 Clouds 24 1015 64 0 5.7 120 12:21 31.08.2019
2729 Clear 24 1015 69 10000 4.6 140 11:59 31.08.2019
2730 Clear 23 1016 60 10000 4.1 170 11:40 31.08.2019
2731 Clear 23 1016 60 10000 4.1 170 11:22 31.08.2019
2732 Clear 23 1016 56 10000 3.6 160 10:55 31.08.2019
2733 Clear 21 1016 68 10000 4.1 150 10:36 31.08.2019
2734 Clear 20 1017 68 10000 2.6 150 10:18 31.08.2019
2735 Clear 18 1017 77 10000 2.1 150 09:40 31.08.2019
2736 Clear 18 1017 77 10000 2.1 150 09:40 31.08.2019
2737 Clear 17 1017 77 10000 2.6 160 09:21 31.08.2019
2738 Clouds 15 1017 87 10000 1.5 140 08:45 31.08.2019
2739 Fog 15 1017 82 10000 1.5 150 08:27 31.08.2019
2740 Fog 14 1017 87 10000 2.1 120 07:58 31.08.2019
2741 Fog 13 1017 93 10000 0.5 50 07:37 31.08.2019
2742 Fog 13 1018 93 0 1 120 07:18 31.08.2019
2743 Fog 13 1018 93 9000 3.1 170 06:26 31.08.2019
2744 Fog 13 1018 93 9000 3.1 170 06:26 31.08.2019
2745 Fog 13 1018 93 10000 1 110 05:50 31.08.2019
2746 Mist 13 1018 82 10000 2.1 160 05:27 31.08.2019
2747 Mist 14 1018 93 0 1.5 150 04:28 31.08.2019
2748 Clouds 13 1019 93 0 1 160 03:42 31.08.2019
2749 Clouds 14 1020 87 0 1 130 02:22 31.08.2019
2750 Clouds 14 1020 93 10000 3.1 170 01:47 31.08.2019
2751 Clouds 13 1020 93 10000 3.1 170 01:28 31.08.2019
2752 Clouds 14 1020 93 10000 3.6 170 00:46 31.08.2019
2753 Clouds 13 1020 93 10000 3.6 170 00:27 31.08.2019
2754 Clouds 14 1020 77 0 1 120 23:49 30.08.2019
2755 Clear 14 1021 87 10000 1.5 160 23:19 30.08.2019
2756 Clear 14 1021 87 10000 1.5 160 22:58 30.08.2019
2757 Clear 15 1021 67 10000 1.5 160 22:38 30.08.2019
2758 Clear 15 1021 67 10000 2.1 160 22:20 30.08.2019
2759 Clear 15 1021 67 10000 2.1 160 21:57 30.08.2019
2760 Clear 16 1021 67 10000 2.1 170 21:36 30.08.2019
2761 Clear 16 1021 67 10000 1.5 190 21:18 30.08.2019
2762 Clear 17 1021 67 10000 1.5 190 20:56 30.08.2019
2763 Clouds 19 1021 59 10000 1.5 170 20:38 30.08.2019
2764 Clouds 19 1021 52 10000 2.1 210 20:19 30.08.2019
2765 Clouds 19 1021 52 10000 2.1 210 20:19 30.08.2019
2766 Clouds 19 1021 52 10000 2.1 210 19:55 30.08.2019
2767 Clouds 20 1021 52 10000 3.1 240 19:36 30.08.2019
2768 Clouds 20 1021 52 10000 2.1 230 19:18 30.08.2019
2769 Clouds 21 1021 49 10000 4.6 250 18:44 30.08.2019
2770 Clouds 21 1021 49 10000 4.6 250 18:24 30.08.2019
2771 Clouds 21 1021 49 10000 4.6 250 18:24 30.08.2019
2772 Clouds 21 1021 43 10000 3.1 220 17:57 30.08.2019
2773 Clouds 22 1021 46 10000 3.1 240 17:39 30.08.2019
2774 Clouds 22 1021 46 10000 3.1 240 17:19 30.08.2019
2775 Clouds 22 1021 43 10000 3.6 230 17:19 30.08.2019
2776 Clouds 22 1021 43 10000 3.6 230 16:56 30.08.2019
2777 Clouds 22 1021 46 10000 3.6 230 16:38 30.08.2019
2778 Clouds 23 1021 46 10000 3.6 230 16:19 30.08.2019
2779 Clouds 22 1021 56 10000 4.1 230 15:39 30.08.2019
2780 Clouds 22 1021 56 10000 4.1 210 15:20 30.08.2019
2781 Clouds 23 1022 56 10000 6.7 240 14:45 30.08.2019
2782 Clouds 22 1021 60 10000 5.1 210 14:26 30.08.2019
2783 Clouds 22 1021 60 10000 5.1 210 14:26 30.08.2019
2784 Clouds 22 1022 56 10000 4.1 230 13:57 30.08.2019
2785 Clouds 22 1021 56 10000 4.1 220 13:39 30.08.2019
2786 Clouds 22 1021 56 10000 4.1 220 13:20 30.08.2019
2787 Clouds 21 1022 64 10000 5.1 230 12:45 30.08.2019
2788 Clouds 21 1022 64 10000 5.1 230 12:25 30.08.2019
2789 Clouds 21 1022 64 10000 4.1 210 11:57 30.08.2019
2790 Clouds 20 1022 68 10000 4.6 210 11:39 30.08.2019
2791 Clouds 20 1022 72 10000 4.6 210 11:21 30.08.2019
2792 Clouds 19 1022 72 10000 3.6 210 10:37 30.08.2019
2793 Clouds 19 1022 72 10000 3.6 210 10:19 30.08.2019
2794 Mist 18 1021 82 10000 3.6 200 09:55 30.08.2019
2795 Mist 17 1021 88 10000 3.1 200 09:36 30.08.2019
2796 Mist 17 1021 88 10000 2.6 200 09:18 30.08.2019
2797 Mist 16 1022 93 6000 2.1 150 08:44 30.08.2019
2798 Mist 15 1021 93 10000 2.6 180 08:24 30.08.2019
2799 Mist 15 1021 100 800 0.5 90 07:47 30.08.2019
2800 Fog 14 1021 93 10000 1.5 200 07:27 30.08.2019
2801 Fog 14 1021 93 10000 2.1 190 06:58 30.08.2019
2802 Fog 14 1021 93 0 4.6 210 06:40 30.08.2019
2803 Fog 14 1021 100 50 0.5 0 06:20 30.08.2019
2804 Mist 14 1020 93 0 1.5 210 05:32 30.08.2019
2805 Fog 14 1020 93 0 2.6 180 03:57 30.08.2019
2806 Fog 14 1020 93 0 2.6 180 03:57 30.08.2019
2807 Fog 14 1020 100 0 2.1 210 03:37 30.08.2019
2808 Fog 14 1020 93 0 2.6 210 02:44 30.08.2019
2809 Fog 14 1021 100 50 1 160 02:19 30.08.2019
2810 Fog 15 1020 93 0 1.5 220 00:57 30.08.2019
2811 Fog 15 1020 93 0 1.5 220 00:23 30.08.2019
2812 Fog 15 1019 93 0 1.5 220 23:49 29.08.2019
2813 Fog 15 1019 93 0 1.5 220 23:49 29.08.2019
2814 Clouds 15 1019 93 0 1.5 220 23:23 29.08.2019
2815 Clouds 15 1019 93 0 1.5 220 23:23 29.08.2019
2816 Clouds 16 1019 82 0 2.1 230 22:59 29.08.2019
2817 Clouds 16 1019 82 10000 2.6 240 22:41 29.08.2019
2818 Clouds 16 1019 82 10000 2.6 240 22:22 29.08.2019
2819 Clear 17 1019 88 10000 2.1 250 21:42 29.08.2019
2820 Clouds 18 1019 87 10000 1 260 21:22 29.08.2019
2821 Clouds 18 1019 72 10000 2.6 240 20:59 29.08.2019
2822 Clouds 18 1018 72 10000 2.6 260 20:41 29.08.2019
2823 Clouds 19 1018 68 10000 3.6 260 20:20 29.08.2019
2824 Clear 20 1018 77 0 5.7 290 19:58 29.08.2019
2825 Clear 20 1018 77 0 5.7 290 19:39 29.08.2019
2826 Clouds 21 1018 64 10000 3.6 280 19:21 29.08.2019
2827 Clouds 21 1018 68 10000 7.7 290 18:42 29.08.2019
2828 Clouds 22 1017 68 10000 4.6 300 18:21 29.08.2019
2829 Clouds 22 1017 68 10000 8.7 300 17:56 29.08.2019
2830 Clouds 22 1017 60 10000 3.6 280 17:38 29.08.2019
2831 Clouds 22 1016 64 10000 5.7 250 17:19 29.08.2019
2832 Clouds 23 1017 73 10000 6.7 290 16:57 29.08.2019
2833 Clouds 22 1017 60 10000 6.7 250 16:39 29.08.2019
2834 Clouds 22 1016 64 10000 5.7 240 16:20 29.08.2019
2835 Clouds 23 1016 68 10000 6.7 260 15:39 29.08.2019
2836 Clouds 23 1016 68 10000 6.7 260 15:21 29.08.2019
2837 Clouds 23 1016 73 10000 7.2 250 14:50 29.08.2019
2838 Clouds 23 1016 69 10000 5.7 240 14:26 29.08.2019
2839 Clouds 23 1015 64 10000 7.2 240 13:59 29.08.2019
2840 Clouds 22 1015 78 10000 5.1 250 13:40 29.08.2019
2841 Clouds 22 1015 78 10000 5.1 250 13:21 29.08.2019
2842 Rain 22 1015 83 10000 4.6 260 12:59 29.08.2019
2843 Rain 22 1015 78 6000 8.2 250 12:41 29.08.2019
2844 Mist 21 1015 78 10000 3.6 220 12:22 29.08.2019
2845 Mist 21 1015 78 10000 3.6 220 11:59 29.08.2019
2846 Mist 21 1015 88 6000 3.6 230 11:40 29.08.2019
2847 Mist 21 1015 88 6000 3.6 230 11:20 29.08.2019
2848 Mist 21 1015 88 6000 3.6 230 11:20 29.08.2019
2849 Mist 20 1015 88 4000 2.6 240 10:55 29.08.2019
2850 Mist 20 1015 88 10000 1.5 200 10:37 29.08.2019
2851 Mist 20 1015 94 5000 4.1 230 10:19 29.08.2019
2852 Mist 20 1014 93 9000 2.1 250 09:41 29.08.2019
2853 Mist 19 1014 93 9000 2.1 250 09:18 29.08.2019
2854 Rain 19 1015 100 2500 3.1 210 08:45 29.08.2019
2855 Rain 19 1014 93 5000 2.6 250 08:25 29.08.2019
2856 Rain 19 1013 94 1500 2.1 240 07:54 29.08.2019
2857 Rain 19 1014 94 1600 2.6 240 07:34 29.08.2019
2858 Rain 19 1014 94 1600 2.6 240 07:34 29.08.2019
2859 Rain 19 1013 94 1800 2.6 240 06:59 29.08.2019
2860 Rain 19 1013 94 1500 2.6 240 06:38 29.08.2019
2861 Rain 19 1013 94 1500 4.1 260 05:52 29.08.2019
2862 Mist 19 1013 100 1500 2.1 260 05:31 29.08.2019
2863 Rain 19 1013 93 4500 1.5 250 04:48 29.08.2019
2864 Rain 19 1013 100 1500 0.5 250 04:28 29.08.2019
2865 Rain 19 1013 77 0 3.1 220 01:55 29.08.2019
2866 Rain 20 1013 88 8000 7.2 240 01:35 29.08.2019
2867 Rain 20 1014 88 6000 5.7 220 00:48 29.08.2019
2868 Rain 21 1014 88 6000 5.7 220 00:24 29.08.2019
2869 Mist 20 1012 83 0 1.5 240 23:59 28.08.2019
2870 Thunderstorm 20 1012 88 6000 1.5 250 23:40 28.08.2019
2871 Thunderstorm 21 1012 88 6000 1.5 250 23:22 28.08.2019
2872 Thunderstorm 21 1012 88 6000 1.5 250 23:22 28.08.2019
2873 Thunderstorm 21 1012 93 7000 1.5 220 22:57 28.08.2019
2874 Clouds 21 1012 83 8000 2.1 250 22:38 28.08.2019
2875 Clear 21 1012 83 10000 2.1 240 22:18 28.08.2019
2876 Clear 21 1012 83 10000 2.1 240 21:54 28.08.2019
2877 Clear 23 1012 83 10000 1 140 21:36 28.08.2019
2878 Clear 23 1012 73 10000 2.1 240 21:18 28.08.2019
2879 Clear 25 1012 78 10000 2.1 220 20:40 28.08.2019
2880 Clear 26 1011 69 10000 1 170 20:22 28.08.2019
2881 Clear 26 1011 69 10000 1 170 19:55 28.08.2019
2882 Clouds 27 1011 69 10000 2.1 260 19:37 28.08.2019
2883 Clear 28 1011 74 10000 2.6 140 19:18 28.08.2019
2884 Clear 29 1011 48 10000 4.1 250 18:41 28.08.2019
2885 Clear 29 1011 69 10000 3.6 120 18:21 28.08.2019
2886 Clear 30 1011 48 10000 4.1 210 17:40 28.08.2019
2887 Clear 30 1011 65 10000 3.6 120 17:21 28.08.2019
2888 Clear 31 1011 55 10000 4.1 210 16:59 28.08.2019
2889 Clear 31 1011 55 10000 3.6 200 16:41 28.08.2019
2890 Clear 30 1011 61 10000 4.1 120 16:18 28.08.2019
2891 Clear 30 1011 61 10000 4.1 120 15:54 28.08.2019
2892 Clear 30 1012 58 10000 4.1 210 15:36 28.08.2019
2893 Clear 30 1011 55 10000 2.1 160 15:18 28.08.2019
2894 Clear 30 1011 55 10000 2.1 160 14:55 28.08.2019
2895 Clear 30 1012 65 10000 2.6 110 14:36 28.08.2019
2896 Clear 30 1012 65 10000 3.1 110 14:18 28.08.2019
2897 Clear 29 1012 65 10000 3.6 100 13:39 28.08.2019
2898 Clear 29 1012 65 10000 3.6 100 13:39 28.08.2019
2899 Clear 29 1012 73 10000 5.7 120 13:20 28.08.2019
2900 Clear 28 1012 73 10000 5.7 120 12:58 28.08.2019
2901 Clear 27 1012 73 10000 5.1 120 12:40 28.08.2019
2902 Clear 27 1012 73 10000 5.1 120 12:21 28.08.2019
2903 Clear 26 1012 78 10000 3.1 90 11:41 28.08.2019
2904 Clear 25 1012 78 10000 3.1 110 11:22 28.08.2019
2905 Clear 25 1012 78 10000 3.1 110 10:58 28.08.2019
2906 Clear 24 1012 83 10000 3.1 110 10:40 28.08.2019
2907 Clear 23 1012 83 10000 3.1 110 10:20 28.08.2019
2908 Clear 22 1013 94 10000 3.1 110 09:42 28.08.2019
2909 Clear 21 1013 94 10000 3.1 110 09:22 28.08.2019
2910 Clouds 21 1013 94 9000 3.1 110 08:59 28.08.2019
2911 Clouds 20 1013 88 8000 3.6 130 08:38 28.08.2019
2912 Clouds 20 1013 88 8000 3.1 120 08:19 28.08.2019
2913 Fog 19 1013 94 8000 3.1 80 07:39 28.08.2019
2914 Fog 19 1013 94 8000 3.6 110 07:20 28.08.2019
2915 Fog 19 1013 94 8000 3.6 110 06:51 28.08.2019
2916 Clouds 19 1013 100 0 3.1 120 06:31 28.08.2019
2917 Clear 19 1014 93 10000 2.6 90 05:29 28.08.2019
2918 Rain 20 1015 83 0 5.1 120 02:24 28.08.2019
2919 Clouds 21 1015 88 0 4.6 100 01:31 28.08.2019
2920 Clouds 21 1015 88 0 5.7 120 00:55 28.08.2019
2921 Clouds 21 1015 88 0 5.7 120 00:35 28.08.2019
2922 Clouds 21 1016 88 0 4.1 110 23:58 27.08.2019
2923 Clouds 22 1016 83 0 4.6 100 23:38 27.08.2019
2924 Clear 22 1016 83 10000 3.1 70 23:20 27.08.2019
2925 Clouds 22 1015 78 10000 1.5 120 22:42 27.08.2019
2926 Clear 22 1016 88 10000 3.6 80 22:23 27.08.2019
2927 Clear 23 1016 83 10000 4.6 100 21:57 27.08.2019
2928 Clouds 24 1016 78 10000 4.6 100 21:39 27.08.2019
2929 Clouds 24 1016 78 10000 4.6 100 21:20 27.08.2019
2930 Clouds 24 1016 78 10000 4.6 100 20:59 27.08.2019
2931 Thunderstorm 25 1016 73 10000 4.1 80 20:40 27.08.2019
2932 Thunderstorm 25 1016 78 10000 3.6 80 20:19 27.08.2019
2933 Thunderstorm 25 1016 78 10000 3.6 80 19:55 27.08.2019
2934 Clouds 26 1016 69 0 3.1 110 19:37 27.08.2019
2935 Clear 26 1017 65 10000 3.1 50 19:18 27.08.2019
2936 Clouds 27 1016 65 0 3.1 110 18:41 27.08.2019
2937 Clear 26 1016 73 10000 5.1 80 18:19 27.08.2019
2938 Clear 27 1016 73 10000 5.1 80 17:56 27.08.2019
2939 Clear 27 1017 61 10000 4.1 60 17:38 27.08.2019
2940 Clear 27 1017 61 10000 4.1 60 17:18 27.08.2019
2941 Clear 27 1017 69 10000 5.1 90 16:46 27.08.2019
2942 Clear 28 1017 69 10000 5.1 90 16:26 27.08.2019
2943 Clear 28 1017 69 10000 4.1 80 15:57 27.08.2019
2944 Clear 28 1018 57 10000 5.1 100 15:39 27.08.2019
2945 Clear 28 1018 57 10000 4.6 100 15:20 27.08.2019
2946 Clear 28 1018 73 10000 4.1 80 14:43 27.08.2019
2947 Clear 27 1018 73 10000 4.1 80 14:24 27.08.2019
2948 Clear 28 1018 65 10000 4.1 90 13:59 27.08.2019
2949 Clear 28 1018 69 10000 3.6 80 13:41 27.08.2019
2950 Clear 27 1019 69 10000 1.5 70 13:20 27.08.2019
2951 Clear 26 1019 69 10000 3.1 90 12:42 27.08.2019
2952 Clear 26 1019 69 10000 3.1 80 12:21 27.08.2019
2953 Clear 26 1019 69 10000 3.1 80 11:57 27.08.2019
2954 Clear 26 1019 69 10000 4.6 110 11:37 27.08.2019
2955 Clear 25 1019 69 10000 4.6 110 11:19 27.08.2019
2956 Clear 23 1019 78 10000 2.1 90 10:41 27.08.2019
2957 Clouds 23 1019 94 10000 1.5 110 10:20 27.08.2019
2958 Clouds 23 1019 94 10000 1.5 110 09:55 27.08.2019
2959 Clear 20 1019 82 10000 2.6 80 09:37 27.08.2019
2960 Clear 20 1019 88 10000 2.6 70 09:19 27.08.2019
2961 Clouds 20 1019 88 9000 2.6 80 08:45 27.08.2019
2962 Clear 19 1019 88 10000 3.1 80 08:24 27.08.2019
2963 Clear 18 1019 94 10000 3.6 100 07:55 27.08.2019
2964 Fog 17 1019 93 10000 1.5 60 07:36 27.08.2019
2965 Fog 17 1019 88 10000 3.1 60 07:18 27.08.2019
2966 Fog 17 1018 100 10000 3.1 110 06:45 27.08.2019
2967 Clear 17 1019 88 10000 2.6 70 06:19 27.08.2019
2968 Clear 18 1019 88 10000 3.1 70 05:28 27.08.2019
2969 Clear 18 1019 93 6000 2.6 70 03:44 27.08.2019
2970 Clear 18 1020 82 10000 2.1 60 02:55 27.08.2019
2971 Rain 19 1019 88 10000 3.6 120 01:46 27.08.2019
2972 Clear 19 1019 88 10000 3.6 120 01:26 27.08.2019
2973 Clear 19 1020 82 0 3.6 100 00:49 27.08.2019
2974 Clear 19 1020 88 10000 4.6 120 00:28 27.08.2019
2975 Clear 19 1020 88 0 3.1 100 23:44 26.08.2019
2976 Clear 20 1020 88 0 3.1 100 23:26 26.08.2019
2977 Clear 20 1020 88 0 2.6 100 22:59 26.08.2019
2978 Clear 21 1020 82 10000 3.1 100 22:37 26.08.2019
2979 Clear 21 1020 82 10000 2.6 110 22:19 26.08.2019
2980 Rain 22 1020 88 10000 3.6 120 21:40 26.08.2019
2981 Clear 22 1019 73 10000 3.6 120 21:22 26.08.2019
2982 Clouds 22 1019 77 10000 3.6 120 20:59 26.08.2019
2983 Clouds 23 1019 77 10000 3.6 120 20:41 26.08.2019
2984 Clear 24 1019 68 10000 4.6 110 20:21 26.08.2019
2985 Rain 24 1019 53 10000 4.1 130 19:59 26.08.2019
2986 Rain 25 1019 53 10000 4.1 130 19:41 26.08.2019
2987 Rain 25 1019 53 10000 4.1 130 19:41 26.08.2019
2988 Clear 26 1019 53 10000 4.6 110 19:19 26.08.2019
2989 -273 0 0 0 0 0 18:55 26.08.2019
2990 Clear 27 1019 53 10000 5.7 120 18:37 26.08.2019
2991 Clear 27 1019 53 10000 5.7 120 18:37 26.08.2019
2992 Clear 27 1019 50 10000 5.7 120 18:18 26.08.2019
2993 Clear 28 1019 44 0 4.1 130 17:43 26.08.2019
2994 Clear 28 1020 47 10000 6.2 120 17:19 26.08.2019
2995 Clear 28 1020 47 10000 6.2 120 17:19 26.08.2019
2996 Clear 29 1020 45 0 4.1 130 16:57 26.08.2019
2997 Clear 29 1020 45 10000 4.6 80 16:39 26.08.2019
2998 Clear 29 1020 47 10000 6.2 120 16:18 26.08.2019
2999 Clear 29 1020 47 10000 6.2 120 16:18 26.08.2019
3000 Clear 29 1020 48 0 5.7 140 15:54 26.08.2019
3001 Clear 29 1020 39 10000 4.1 120 15:36 26.08.2019
3002 Clear 29 1020 47 10000 7.2 120 15:18 26.08.2019
3003 Clear 28 1020 61 0 2.6 110 14:42 26.08.2019
3004 Clear 28 1021 57 10000 7.2 130 14:22 26.08.2019
3005 Clear 27 1020 61 0 2.6 90 13:43 26.08.2019
3006 Clear 27 1021 61 10000 6.2 130 13:23 26.08.2019
3007 Clear 26 1020 65 0 2.6 130 12:57 26.08.2019
3008 Clear 25 1021 64 10000 6.2 130 12:39 26.08.2019
3009 Clear 25 1021 69 10000 6.2 130 12:20 26.08.2019
3010 Clear 24 1021 57 10000 1.5 0 11:39 26.08.2019
3011 Clear 23 1021 69 10000 5.1 130 11:21 26.08.2019
3012 Clear 23 1021 83 0 2.1 120 10:58 26.08.2019
3013 Clear 22 1021 83 0 2.1 120 10:39 26.08.2019
3014 Clear 22 1021 69 10000 4.1 130 10:19 26.08.2019
3015 Clear 21 1021 78 0 3.1 120 09:43 26.08.2019
3016 Clear 20 1021 82 10000 2.6 90 09:24 26.08.2019
3017 Clear 20 1020 94 0 3.6 120 08:59 26.08.2019
3018 Clear 19 1021 88 10000 3.6 100 08:40 26.08.2019
3019 Clear 18 1020 93 10000 2.6 110 08:21 26.08.2019
3020 Clear 18 1020 100 0 2.6 110 07:45 26.08.2019
3021 Clear 17 1021 93 10000 2.1 60 07:25 26.08.2019
3022 Clouds 17 1020 93 10000 2.6 110 06:59 26.08.2019
3023 Clear 17 1020 88 10000 1.5 90 06:39 26.08.2019
3024 Fog 16 1020 93 0 1.5 80 06:20 26.08.2019
3025 Clear 17 1020 100 10000 2.6 100 05:48 26.08.2019
3026 Clear 17 1020 88 0 3.6 100 04:22 26.08.2019
3027 Clouds 18 1021 88 10000 3.1 110 02:48 26.08.2019
3028 Clear 19 1021 82 0 1.5 70 01:27 26.08.2019
3029 Clouds 19 1021 93 10000 3.1 100 00:46 26.08.2019
3030 Clear 19 1022 82 0 3.6 90 00:27 26.08.2019
3031 Clouds 19 1022 93 10000 2.6 90 23:58 25.08.2019
3032 Clear 19 1022 82 10000 2.6 70 23:39 25.08.2019
3033 Clear 20 1022 82 10000 3.1 80 23:18 25.08.2019
3034 Clouds 20 1022 93 10000 2.6 90 22:54 25.08.2019
3035 Clouds 20 1022 77 0 3.6 90 22:36 25.08.2019
3036 Clouds 20 1022 77 0 3.6 90 22:36 25.08.2019
3037 Clouds 21 1022 73 0 3.6 70 22:18 25.08.2019
3038 Clouds 21 1022 93 10000 2.6 90 21:54 25.08.2019
3039 Clear 22 1022 73 0 4.1 80 21:36 25.08.2019
3040 Clear 22 1022 73 0 4.1 80 21:18 25.08.2019
3041 Clouds 23 1021 83 10000 2.6 110 20:39 25.08.2019
3042 Clear 23 1021 69 10000 4.6 70 20:19 25.08.2019
3043 Clouds 24 1021 64 10000 2.1 110 19:56 25.08.2019
3044 Clear 24 1021 60 10000 5.1 70 19:37 25.08.2019
3045 Clear 25 1021 60 10000 5.1 80 19:18 25.08.2019
3046 Clear 25 1021 60 10000 5.1 80 18:57 25.08.2019
3047 Clear 26 1021 57 10000 4.1 80 18:39 25.08.2019
3048 Clear 26 1021 57 10000 4.1 80 18:18 25.08.2019
3049 Clouds 26 1021 53 10000 1.5 110 17:42 25.08.2019
3050 Clear 27 1021 57 10000 3.6 80 17:23 25.08.2019
3051 Clouds 26 1021 47 10000 4.1 110 16:45 25.08.2019
3052 Clear 27 1021 50 10000 4.6 80 16:24 25.08.2019
3053 Clouds 27 1021 47 10000 4.1 110 15:59 25.08.2019
3054 Clouds 27 1021 47 10000 4.1 110 15:41 25.08.2019
3055 Clear 27 1021 50 10000 5.1 90 15:23 25.08.2019
3056 Clear 27 1021 47 10000 4.6 100 14:42 25.08.2019
3057 Clear 27 1022 57 0 5.1 100 14:23 25.08.2019
3058 Clouds 27 1022 61 10000 3.6 100 13:55 25.08.2019
3059 -273 0 0 0 0 0 13:37 25.08.2019
3060 Clear 26 1022 50 0 5.1 100 13:18 25.08.2019
3061 Clouds 25 1022 73 10000 3.6 90 12:41 25.08.2019
3062 Clear 25 1022 53 0 4.1 100 12:23 25.08.2019
3063 Clouds 25 1022 78 10000 2.1 100 11:57 25.08.2019
3064 Clear 24 1022 60 0 4.1 120 11:38 25.08.2019
3065 Clear 24 1023 57 0 4.6 120 11:20 25.08.2019
3066 Clouds 23 1022 78 10000 2.1 100 10:56 25.08.2019
3067 Clear 22 1023 64 0 4.1 110 10:37 25.08.2019
3068 Clear 22 1022 73 0 5.1 100 10:19 25.08.2019
3069 Clouds 21 1022 88 10000 2.1 110 09:43 25.08.2019
3070 Clear 20 1022 77 0 4.1 120 09:24 25.08.2019
3071 Clouds 18 1022 100 10000 2.6 120 08:47 25.08.2019
3072 Fog 17 1022 88 10000 3.1 110 08:29 25.08.2019
3073 Fog 17 1022 100 8000 2.6 110 07:54 25.08.2019
3074 Fog 16 1022 100 10000 2.1 80 07:32 25.08.2019
3075 Fog 16 1022 100 10000 2.1 70 06:39 25.08.2019
3076 Clear 15 1022 100 10000 2.6 90 05:35 25.08.2019
3077 Clear 16 1022 100 10000 4.1 110 03:51 25.08.2019
3078 Clear 16 1023 100 10000 4.1 110 02:55 25.08.2019
3079 Clear 16 1023 93 10000 3.1 80 02:36 25.08.2019
3080 Clear 17 1023 100 10000 3.1 110 00:58 25.08.2019
3081 Clear 17 1024 93 10000 3.1 80 00:37 25.08.2019
3082 Clear 17 1024 88 10000 2.6 70 00:18 25.08.2019
3083 Clear 18 1023 93 10000 3.6 110 23:45 24.08.2019
3084 Clear 18 1024 88 10000 2.1 70 23:22 24.08.2019
3085 Clear 18 1023 93 10000 3.1 110 22:55 24.08.2019
3086 Clear 18 1024 82 10000 2.1 70 22:36 24.08.2019
3087 Clear 18 1024 82 10000 2.6 60 22:18 24.08.2019
3088 Clear 18 1023 88 10000 3.1 110 21:55 24.08.2019
3089 Clear 19 1024 77 10000 2.1 60 21:36 24.08.2019
3090 Clear 20 1024 72 10000 2.1 60 21:18 24.08.2019
3091 Clear 21 1023 72 10000 2.6 100 20:41 24.08.2019
3092 Clear 22 1023 68 10000 2.6 100 20:20 24.08.2019
3093 Clear 22 1023 68 10000 3.1 120 19:59 24.08.2019
3094 Clear 23 1023 60 10000 4.6 70 19:40 24.08.2019
3095 Clear 23 1024 60 10000 4.1 110 19:22 24.08.2019
3096 Clouds 23 1023 69 10000 3.6 110 18:59 24.08.2019
3097 Clear 24 1024 57 10000 4.1 100 18:38 24.08.2019
3098 Clear 24 1024 53 10000 4.6 110 18:19 24.08.2019
3099 Clouds 24 1024 64 10000 4.6 110 17:43 24.08.2019
3100 Clear 25 1025 57 10000 4.1 110 17:24 24.08.2019
3101 Clear 25 1024 57 10000 5.7 70 16:48 24.08.2019
3102 Clear 25 1025 53 10000 5.1 120 16:20 24.08.2019
3103 Clear 25 1024 57 10000 6.2 80 15:58 24.08.2019
3104 Clouds 25 1024 69 10000 3.1 90 15:40 24.08.2019
3105 Clear 25 1025 53 10000 5.1 110 15:21 24.08.2019
3106 Clouds 24 1025 69 10000 4.6 90 14:42 24.08.2019
3107 Clear 24 1025 50 10000 6.2 110 14:22 24.08.2019
3108 Clouds 24 1025 73 10000 4.1 90 13:57 24.08.2019
3109 Clear 24 1026 56 10000 5.1 110 13:37 24.08.2019
3110 Clear 24 1026 56 10000 4.6 110 13:19 24.08.2019
3111 Clouds 24 1025 69 10000 3.6 90 12:55 24.08.2019
3112 Clear 23 1025 73 10000 3.1 70 12:37 24.08.2019
3113 Clear 23 1026 68 10000 4.6 120 12:19 24.08.2019
3114 Clouds 23 1026 73 10000 2.6 90 11:43 24.08.2019
3115 Clear 22 1026 68 10000 4.1 110 11:22 24.08.2019
3116 Clouds 21 1026 77 10000 2.1 100 10:50 24.08.2019
3117 Clear 20 1026 73 10000 3.6 110 10:24 24.08.2019
3118 Clouds 19 1025 93 7000 3.1 120 09:45 24.08.2019
3119 Mist 18 1026 100 2200 2.1 90 09:23 24.08.2019
3120 Mist 17 1026 100 1100 1.5 90 08:59 24.08.2019
3121 Mist 16 1026 100 1100 1.5 90 08:40 24.08.2019
3122 Fog 16 1026 93 600 2.1 110 08:22 24.08.2019
3123 Fog 15 1026 100 300 3.1 120 07:49 24.08.2019
3124 Fog 14 1026 100 100 2.1 110 07:27 24.08.2019
3125 Fog 13 1025 100 0 1 100 06:30 24.08.2019
3126 Fog 13 1026 100 0 2.6 80 05:43 24.08.2019
3127 Fog 13 1026 93 0 1 120 05:22 24.08.2019
3128 Fog 13 1026 100 0 0.5 60 03:38 24.08.2019
3129 Mist 14 1026 93 0 0.5 240 02:27 24.08.2019
3130 Fog 14 1026 100 0 0.5 270 01:47 24.08.2019
3131 Fog 14 1025 93 0 1 320 01:22 24.08.2019
3132 Fog 15 1025 100 0 0.5 290 00:43 24.08.2019
3133 Fog 15 1025 93 0 1.5 220 00:18 24.08.2019
3134 Fog 15 1025 93 0 0.5 0 23:43 23.08.2019
3135 Fog 16 1025 93 0 1.5 280 23:19 23.08.2019
3136 Fog 17 1025 100 0 2.1 310 22:43 23.08.2019
3137 Fog 17 1026 93 10000 0.5 220 22:24 23.08.2019
3138 Clear 18 1026 93 0 2.6 300 21:54 23.08.2019
3139 Clear 18 1026 93 0 2.6 300 21:54 23.08.2019
3140 Clear 19 1025 82 10000 2.6 320 21:36 23.08.2019
3141 Clear 19 1025 77 10000 2.6 320 21:18 23.08.2019
3142 Clear 19 1025 88 0 4.1 290 20:45 23.08.2019
3143 Clear 20 1025 73 10000 2.6 310 20:27 23.08.2019
3144 Clear 21 1025 73 0 6.2 300 19:45 23.08.2019
3145 Clear 21 1025 73 0 6.2 300 19:45 23.08.2019
3146 Clouds 22 1025 60 10000 3.1 270 19:19 23.08.2019
3147 Clouds 22 1025 60 10000 3.1 270 19:19 23.08.2019
3148 Clouds 22 1025 73 10000 6.2 280 18:55 23.08.2019
3149 Clouds 22 1025 64 10000 3.6 240 18:36 23.08.2019
3150 Clouds 23 1025 64 10000 3.6 240 18:18 23.08.2019
3151 Clouds 23 1025 68 10000 4.1 250 17:41 23.08.2019
3152 Clouds 23 1025 69 10000 3.6 260 17:23 23.08.2019
3153 Clouds 23 1025 73 10000 8.2 280 16:49 23.08.2019
3154 Clouds 23 1025 73 10000 6.2 250 16:30 23.08.2019
3155 Clouds 23 1025 69 10000 8.2 270 15:59 23.08.2019
3156 Clouds 23 1025 69 10000 8.2 270 15:39 23.08.2019
3157 Clouds 23 1025 60 10000 4.6 230 15:21 23.08.2019
3158 Clouds 23 1025 68 10000 7.7 260 14:56 23.08.2019
3159 Clouds 23 1025 64 10000 4.1 240 14:37 23.08.2019
3160 Clouds 23 1025 57 10000 4.6 220 14:19 23.08.2019
3161 Clouds 23 1025 57 10000 4.1 240 13:42 23.08.2019
3162 Clouds 23 1025 60 10000 4.6 220 13:23 23.08.2019
3163 Clouds 22 1025 64 10000 5.7 240 12:59 23.08.2019
3164 Clear 22 1025 60 10000 4.1 210 12:41 23.08.2019
3165 Clear 22 1025 60 10000 3.6 200 12:21 23.08.2019
3166 Clouds 21 1025 64 10000 4.1 240 11:57 23.08.2019
3167 Clear 21 1025 64 10000 4.1 210 11:39 23.08.2019
3168 Clear 20 1025 64 10000 4.1 220 11:19 23.08.2019
3169 Clouds 20 1025 72 10000 4.1 230 10:56 23.08.2019
3170 Clear 19 1026 63 10000 3.6 240 10:37 23.08.2019
3171 Clear 18 1024 68 10000 3.6 210 10:18 23.08.2019
3172 Clouds 18 1025 77 8000 4.6 230 09:43 23.08.2019
3173 Clear 17 1024 82 10000 3.6 210 09:20 23.08.2019
3174 Clouds 16 1024 87 6000 4.6 220 08:45 23.08.2019
3175 Clear 15 1024 87 10000 3.1 210 08:22 23.08.2019
3176 Clouds 15 1024 87 7000 5.1 210 07:59 23.08.2019
3177 Fog 14 1024 87 10000 3.1 200 07:40 23.08.2019
3178 Fog 13 1024 87 10000 3.1 200 07:22 23.08.2019
3179 Fog 13 1024 87 0 5.7 210 06:41 23.08.2019
3180 Fog 13 1024 87 0 3.1 180 06:22 23.08.2019
3181 Fog 13 1024 87 0 5.1 210 05:44 23.08.2019
3182 Fog 13 1024 87 0 2.6 180 05:25 23.08.2019
3183 Fog 13 1024 82 0 4.6 210 03:57 23.08.2019
3184 Clouds 13 1024 82 0 2.1 170 02:39 23.08.2019
3185 Clouds 13 1024 82 0 2.1 170 02:20 23.08.2019
3186 Clouds 14 1024 82 0 1.5 180 01:30 23.08.2019
3187 Clouds 14 1024 82 0 1.5 160 00:42 23.08.2019
3188 Clouds 14 1024 82 0 1 200 00:18 23.08.2019
3189 Clouds 15 1024 77 0 5.7 230 23:43 22.08.2019
3190 Clouds 15 1024 77 0 1.5 170 23:22 22.08.2019
3191 Clouds 16 1024 77 0 4.6 230 22:43 22.08.2019
3192 Clouds 16 1024 77 0 4.6 230 22:43 22.08.2019
3193 Clear 16 1024 72 10000 2.1 200 22:24 22.08.2019
3194 Clouds 16 1024 77 0 4.6 250 21:59 22.08.2019
3195 Clouds 17 1024 77 0 4.6 250 21:41 22.08.2019
3196 Clear 18 1023 63 10000 2.1 240 21:23 22.08.2019
3197 Clouds 18 1023 63 0 4.6 260 20:58 22.08.2019
3198 Clouds 19 1023 63 0 4.6 260 20:40 22.08.2019
3199 Clear 19 1023 56 10000 2.6 270 20:20 22.08.2019
3200 Clouds 20 1023 56 0 5.1 260 19:57 22.08.2019
3201 Clear 21 1023 52 10000 3.6 240 19:39 22.08.2019
3202 Clear 21 1023 49 10000 3.6 260 19:20 22.08.2019
3203 Clouds 22 1023 56 10000 9.3 280 18:58 22.08.2019
3204 Clear 22 1023 49 10000 4.1 260 18:39 22.08.2019
3205 Clear 23 1023 46 10000 4.6 250 18:19 22.08.2019
3206 Clouds 23 1023 53 10000 9.3 270 17:56 22.08.2019
3207 Clouds 23 1023 53 10000 9.3 270 17:38 22.08.2019
3208 Clouds 24 1023 43 10000 9.8 240 17:19 22.08.2019
3209 Clouds 24 1023 43 10000 9.8 240 16:56 22.08.2019
3210 Clear 24 1024 41 10000 6.2 230 16:37 22.08.2019
3211 Clouds 24 1024 43 10000 7.2 240 16:19 22.08.2019
3212 Clouds 24 1024 43 10000 7.2 240 16:18 22.08.2019
3213 Clouds 24 1024 43 10000 7.2 240 15:42 22.08.2019
3214 Clear 23 1023 43 10000 5.1 200 15:42 22.08.2019
3215 Clear 23 1023 43 10000 5.1 200 15:42 22.08.2019
3216 Clear 23 1023 41 10000 4.6 220 15:23 22.08.2019
3217 Clouds 23 1024 49 10000 5.1 230 14:58 22.08.2019
3218 Clouds 23 1024 49 10000 5.1 230 14:58 22.08.2019
3219 Clear 23 1024 43 10000 5.7 210 14:40 22.08.2019
3220 Clear 23 1024 46 10000 3.6 190 14:21 22.08.2019
3221 Clouds 23 1024 49 10000 6.2 210 13:57 22.08.2019
3222 Clear 23 1024 43 10000 4.1 180 13:39 22.08.2019
3223 Clear 22 1024 46 10000 5.1 160 13:19 22.08.2019
3224 Clouds 22 1024 49 10000 5.1 200 12:56 22.08.2019
3225 Clear 22 1025 46 10000 5.7 210 12:37 22.08.2019
3226 Clear 21 1025 46 10000 5.1 160 12:19 22.08.2019
3227 Clear 21 1025 49 10000 4.1 170 11:42 22.08.2019
3228 Clear 20 1025 52 10000 4.1 160 11:20 22.08.2019
3229 Clouds 20 1025 55 10000 5.7 190 10:58 22.08.2019
3230 Clouds 19 1025 55 10000 5.7 190 10:40 22.08.2019
3231 Clear 18 1025 55 10000 4.1 170 10:21 22.08.2019
3232 Clouds 17 1025 63 10000 6.2 180 09:56 22.08.2019
3233 Clear 16 1026 67 10000 2.6 160 09:38 22.08.2019
3234 Clear 16 1025 67 10000 3.1 160 09:20 22.08.2019
3235 Clouds 15 1025 72 10000 7.2 180 08:54 22.08.2019
3236 Clouds 14 1025 72 10000 7.2 180 08:36 22.08.2019
3237 Clear 13 1026 72 10000 2.6 180 08:18 22.08.2019
3238 Clear 13 1026 77 10000 3.1 180 07:39 22.08.2019
3239 Clear 12 1026 77 10000 3.1 180 07:19 22.08.2019
3240 Clouds 12 1026 82 10000 7.2 180 06:47 22.08.2019
3241 Clouds 12 1026 77 0 3.1 170 06:22 22.08.2019
3242 Clouds 12 1026 82 0 2.6 160 05:30 22.08.2019
3243 Clouds 12 1026 82 0 1.5 170 04:19 22.08.2019
3244 Clouds 12 1027 87 0 2.1 170 02:38 22.08.2019
3245 Clouds 12 1027 87 0 2.1 180 01:40 22.08.2019
3246 Clouds 12 1027 87 0 2.1 180 01:21 22.08.2019
3247 Clouds 12 1027 93 0 2.1 190 00:41 22.08.2019
3248 Clouds 12 1027 87 0 2.1 190 00:22 22.08.2019
3249 Clouds 12 1027 93 10000 3.6 200 23:48 21.08.2019
3250 Clouds 13 1027 87 0 2.1 210 23:29 21.08.2019
3251 Clouds 13 1027 93 10000 2.6 230 22:59 21.08.2019
3252 Clouds 13 1027 93 10000 2.6 230 22:41 21.08.2019
3253 Clouds 13 1027 93 10000 2.6 230 22:41 21.08.2019
3254 Clear 14 1027 77 10000 1.5 220 22:21 21.08.2019
3255 Clouds 14 1027 87 10000 3.1 260 21:58 21.08.2019
3256 Clear 15 1027 77 10000 1.5 220 21:38 21.08.2019
3257 Clear 15 1026 77 10000 1.5 210 21:20 21.08.2019
3258 Clouds 16 1027 82 10000 2.6 250 20:58 21.08.2019
3259 Clear 17 1026 67 10000 1.5 230 20:40 21.08.2019
3260 Clouds 18 1026 72 10000 2.6 240 20:22 21.08.2019
3261 Clouds 18 1027 55 10000 4.1 270 19:55 21.08.2019
3262 Clouds 18 1026 59 10000 3.1 240 19:36 21.08.2019
3263 Clouds 19 1026 59 10000 3.1 240 19:18 21.08.2019
3264 Clouds 19 1027 63 10000 4.6 260 18:41 21.08.2019
3265 Clouds 19 1027 59 10000 4.1 280 18:22 21.08.2019
3266 Clouds 20 1027 59 10000 7.2 270 17:54 21.08.2019
3267 Clouds 19 1026 52 10000 4.1 270 17:36 21.08.2019
3268 Clouds 19 1026 52 10000 4.1 270 17:18 21.08.2019
3269 Clouds 19 1026 64 10000 6.2 280 16:42 21.08.2019
3270 Clouds 19 1026 59 10000 5.1 280 16:23 21.08.2019
3271 Clouds 19 1026 63 10000 5.7 280 15:59 21.08.2019
3272 Clouds 19 1026 63 10000 5.7 280 15:41 21.08.2019
3273 Clouds 19 1026 52 10000 3.6 260 15:21 21.08.2019
3274 Clouds 19 1026 60 10000 6.2 280 14:57 21.08.2019
3275 Clouds 19 1026 52 10000 4.1 240 14:39 21.08.2019
3276 Rain 19 1026 52 10000 4.1 250 14:20 21.08.2019
3277 Rain 19 1026 60 10000 5.7 270 13:55 21.08.2019
3278 Rain 18 1026 59 10000 2.6 260 13:37 21.08.2019
3279 Rain 18 1026 59 10000 2.6 260 13:18 21.08.2019
3280 Rain 18 1026 59 10000 2.6 260 13:18 21.08.2019
3281 Rain 18 1026 59 10000 2.6 240 12:41 21.08.2019
3282 Rain 17 1026 63 10000 3.1 330 12:23 21.08.2019
3283 Rain 18 1026 68 10000 4.1 270 11:59 21.08.2019
3284 Rain 18 1026 68 10000 4.1 270 11:41 21.08.2019
3285 Rain 17 1026 68 10000 1.5 0 11:22 21.08.2019
3286 Rain 17 1026 67 10000 3.1 300 10:57 21.08.2019
3287 Clouds 17 1026 67 10000 3.6 340 10:38 21.08.2019
3288 Clouds 16 1026 72 10000 2.6 320 10:19 21.08.2019
3289 Clouds 16 1026 77 10000 4.1 320 09:57 21.08.2019
3290 Clouds 16 1026 77 10000 3.6 250 09:37 21.08.2019
3291 Clouds 15 1025 77 10000 3.1 320 09:18 21.08.2019
3292 Rain 14 1025 87 10000 4.1 300 08:44 21.08.2019
3293 Rain 14 1025 87 10000 4.1 300 08:44 21.08.2019
3294 Rain 14 1025 87 10000 2.6 250 08:24 21.08.2019
3295 Rain 13 1024 93 10000 3.1 270 07:43 21.08.2019
3296 Fog 12 1024 93 10000 2.6 190 07:24 21.08.2019
3297 Fog 12 1024 93 10000 4.1 230 06:50 21.08.2019
3298 Rain 12 1023 87 0 2.1 230 06:28 21.08.2019
3299 Clouds 12 1023 87 10000 4.6 250 05:47 21.08.2019
3300 Clear 12 1023 87 0 2.6 200 05:25 21.08.2019
3301 Clouds 12 1023 87 10000 5.7 220 03:57 21.08.2019
3302 Rain 12 1023 93 10000 5.1 230 01:55 21.08.2019
3303 Thunderstorm 12 1024 93 8000 1.5 190 01:23 21.08.2019
3304 Clear 13 1023 87 0 2.6 200 00:38 21.08.2019
3305 Clear 13 1022 87 0 2.6 200 00:18 21.08.2019
3306 Clouds 13 1022 100 10000 4.6 240 23:44 20.08.2019
3307 Rain 14 1022 82 0 2.1 210 23:20 20.08.2019
3308 Rain 14 1022 82 8000 5.1 250 22:58 20.08.2019
3309 Rain 14 1022 82 8000 5.1 250 22:40 20.08.2019
3310 Clear 15 1022 82 10000 2.1 200 22:21 20.08.2019
3311 Clouds 15 1022 82 10000 4.6 220 21:58 20.08.2019
3312 Clear 15 1022 77 10000 2.1 220 21:39 20.08.2019
3313 Clouds 16 1022 72 10000 2.1 240 21:19 20.08.2019
3314 Clouds 16 1021 77 10000 4.1 250 20:58 20.08.2019
3315 Clouds 17 1021 77 10000 4.1 250 20:40 20.08.2019
3316 Clouds 17 1021 63 10000 3.6 230 20:21 20.08.2019
3317 Clouds 18 1021 63 10000 3.1 250 19:39 20.08.2019
3318 Clouds 19 1021 52 10000 4.1 240 19:21 20.08.2019
3319 Clouds 19 1021 55 10000 7.7 260 18:57 20.08.2019
3320 Clouds 19 1021 59 10000 5.7 250 18:39 20.08.2019
3321 Clouds 19 1021 59 10000 5.7 250 18:19 20.08.2019
3322 Clouds 20 1021 59 10000 5.7 250 17:57 20.08.2019
3323 Clouds 20 1020 52 10000 5.1 250 17:38 20.08.2019
3324 Clouds 20 1020 52 10000 5.1 250 17:19 20.08.2019
3325 Clouds 20 1021 60 10000 6.2 280 16:44 20.08.2019
3326 Clouds 20 1020 59 10000 6.2 250 16:26 20.08.2019
3327 Clouds 20 1020 59 10000 7.7 250 15:55 20.08.2019
3328 Clouds 20 1019 52 10000 5.1 260 15:37 20.08.2019
3329 Clouds 20 1019 56 10000 6.7 260 15:18 20.08.2019
3330 Clouds 20 1019 56 10000 7.2 260 14:42 20.08.2019
3331 Clouds 20 1019 56 10000 7.2 260 14:22 20.08.2019
3332 Clouds 20 1019 56 10000 4.6 240 13:57 20.08.2019
3333 Rain 20 1019 64 10000 3.6 230 13:38 20.08.2019
3334 Rain 19 1019 77 10000 3.6 200 13:20 20.08.2019
3335 Rain 19 1019 72 10000 3.6 220 12:51 20.08.2019
3336 Clouds 19 1019 72 10000 3.6 220 12:31 20.08.2019
3337 Thunderstorm 18 1018 72 10000 5.7 240 11:59 20.08.2019
3338 Thunderstorm 18 1019 77 10000 4.1 270 11:40 20.08.2019
3339 Thunderstorm 18 1019 77 10000 4.1 270 11:21 20.08.2019
3340 Rain 17 1018 77 10000 6.2 220 10:57 20.08.2019
3341 Rain 17 1018 82 10000 6.7 220 10:38 20.08.2019
3342 Rain 16 1018 82 10000 6.7 220 10:20 20.08.2019
3343 Rain 16 1017 82 10000 5.1 210 09:56 20.08.2019
3344 Rain 15 1017 87 10000 5.1 200 09:38 20.08.2019
3345 Clouds 15 1017 93 8000 4.1 200 09:20 20.08.2019
3346 Rain 14 1018 87 10000 3.1 200 08:41 20.08.2019
3347 Rain 14 1017 87 6000 4.1 200 08:23 20.08.2019
3348 Thunderstorm 14 1016 93 10000 2.6 200 07:57 20.08.2019
3349 Thunderstorm 13 1017 93 7000 2.6 190 07:38 20.08.2019
3350 Clouds 12 1016 87 10000 2.6 190 07:20 20.08.2019
3351 Clouds 12 1016 93 10000 2.1 180 06:43 20.08.2019
3352 Clouds 12 1016 93 10000 2.1 180 06:20 20.08.2019
3353 Clouds 12 1017 93 10000 3.6 190 05:42 20.08.2019
3354 Clouds 12 1016 93 10000 1.5 190 04:26 20.08.2019
3355 Rain 13 1017 93 10000 3.1 180 02:48 20.08.2019
3356 Rain 13 1015 93 10000 3.1 190 01:53 20.08.2019
3357 Rain 13 1015 87 0 3.1 200 01:21 20.08.2019
3358 Rain 13 1015 87 0 3.1 200 00:45 20.08.2019
3359 Clouds 14 1015 87 0 3.1 200 00:24 20.08.2019
3360 Clouds 14 1016 93 9000 3.6 180 23:45 19.08.2019
3361 Clouds 14 1015 87 0 3.1 200 23:19 19.08.2019
3362 Clouds 14 1015 87 0 3.1 200 22:58 19.08.2019
3363 Clouds 14 1015 87 0 2.6 190 22:40 19.08.2019
3364 Clouds 14 1015 87 0 2.6 190 22:20 19.08.2019
3365 Clouds 14 1014 93 10000 2.6 200 21:57 19.08.2019
3366 Rain 15 1014 87 10000 2.6 210 21:38 19.08.2019
3367 Rain 15 1014 87 10000 2.6 210 21:19 19.08.2019
3368 Rain 16 1014 87 10000 3.1 220 20:55 19.08.2019
3369 Rain 16 1014 68 10000 3.1 220 20:37 19.08.2019
3370 Rain 16 1014 68 10000 3.1 220 20:19 19.08.2019
3371 Rain 16 1014 77 10000 5.1 230 19:54 19.08.2019
3372 Clouds 17 1014 68 10000 6.2 250 19:36 19.08.2019
3373 Rain 17 1013 59 10000 5.1 230 19:18 19.08.2019
3374 Rain 18 1013 59 10000 9.3 260 18:41 19.08.2019
3375 Rain 18 1013 59 10000 9.3 260 18:41 19.08.2019
3376 Rain 18 1013 63 10000 4.6 240 18:22 19.08.2019
3377 Clouds 19 1013 63 10000 4.1 240 17:57 19.08.2019
3378 Rain 19 1013 68 10000 7.7 240 17:38 19.08.2019
3379 Rain 19 1014 82 10000 4.6 220 17:19 19.08.2019
3380 Rain 18 1012 68 10000 9.3 250 16:54 19.08.2019
3381 Rain 19 1013 64 10000 7.7 250 16:36 19.08.2019
3382 Rain 19 1012 68 10000 5.7 240 16:18 19.08.2019
3383 Rain 19 1012 82 10000 5.7 240 15:45 19.08.2019
3384 Rain 19 1012 68 10000 6.7 230 15:20 19.08.2019
3385 Rain 19 1012 68 10000 6.7 230 15:20 19.08.2019
3386 Rain 19 1012 72 8000 9.3 250 14:55 19.08.2019
3387 Rain 19 1011 68 10000 7.2 240 14:36 19.08.2019
3388 Rain 19 1011 68 10000 6.2 240 14:18 19.08.2019
3389 Rain 19 1011 68 10000 6.2 240 13:55 19.08.2019
3390 Rain 19 1010 72 5000 6.2 240 13:36 19.08.2019
3391 Rain 18 1010 72 10000 6.2 200 13:18 19.08.2019
3392 Rain 18 1010 72 10000 7.7 220 12:43 19.08.2019
3393 Clouds 18 1010 72 10000 7.2 200 12:22 19.08.2019
3394 Clouds 17 1010 77 10000 6.2 220 11:55 19.08.2019
3395 Clouds 17 1010 82 10000 5.1 200 11:36 19.08.2019
3396 Rain 17 1009 88 10000 4.6 200 11:18 19.08.2019
3397 Clouds 16 1011 87 10000 4.1 230 10:39 19.08.2019
3398 Clouds 16 1009 87 10000 2.6 180 10:19 19.08.2019
3399 Rain 16 1009 87 6000 4.6 190 09:56 19.08.2019
3400 Rain 15 1009 87 6000 4.6 190 09:38 19.08.2019
3401 Rain 15 1009 100 3500 4.1 220 09:20 19.08.2019
3402 Rain 15 1009 93 3400 5.7 220 08:46 19.08.2019
3403 Mist 14 1010 100 7000 2.6 210 08:25 19.08.2019
3404 Mist 15 1008 100 5000 6.7 200 07:59 19.08.2019
3405 Mist 14 1008 100 5000 6.7 200 07:40 19.08.2019
3406 Mist 14 1009 93 5000 4.1 190 07:21 19.08.2019
3407 Mist 14 1008 93 8000 3.6 180 06:42 19.08.2019
3408 Mist 14 1008 93 0 6.7 190 05:54 19.08.2019
3409 Rain 14 1007 93 0 3.1 190 04:35 19.08.2019
3410 Clear 14 1007 93 0 6.2 200 03:59 19.08.2019
3411 Clear 14 1007 93 0 2.6 180 03:19 19.08.2019
3412 Clear 14 1007 93 0 5.1 210 01:46 19.08.2019
3413 Fog 14 1006 93 0 2.6 200 01:21 19.08.2019
3414 Clear 15 1006 93 0 2.6 200 00:42 19.08.2019
3415 Clear 15 1006 93 0 3.1 200 00:18 19.08.2019
3416 Clear 14 1006 93 0 3.1 200 23:41 18.08.2019
3417 Clear 14 1006 93 0 3.1 200 23:20 18.08.2019
3418 Clear 15 1006 93 0 5.1 210 22:40 18.08.2019
3419 Clear 15 1005 87 0 2.6 200 22:22 18.08.2019
3420 Clear 15 1005 87 0 4.1 230 21:58 18.08.2019
3421 Clear 16 1004 93 0 3.6 230 21:40 18.08.2019
3422 Rain 16 1004 93 0 3.6 230 21:21 18.08.2019
3423 Rain 16 1004 93 0 3.6 230 21:21 18.08.2019
3424 Rain 16 1004 87 0 4.6 240 20:59 18.08.2019
3425 Rain 16 1004 88 0 4.6 240 20:41 18.08.2019
3426 Rain 17 1004 88 10000 4.1 240 20:23 18.08.2019
3427 Rain 17 1004 82 0 4.6 240 19:43 18.08.2019
3428 Rain 18 1003 82 10000 3.6 240 19:25 18.08.2019
3429 Clouds 18 1003 82 10000 5.7 240 18:59 18.08.2019
3430 Clouds 17 1003 82 10000 2.6 220 18:40 18.08.2019
3431 Clouds 17 1003 93 10000 3.6 200 18:21 18.08.2019
3432 Clouds 17 1004 88 10000 3.6 230 17:55 18.08.2019
3433 Clouds 17 1004 88 10000 3.6 230 17:37 18.08.2019
3434 Clouds 17 1003 88 10000 3.1 200 17:18 18.08.2019
3435 Clouds 16 1003 87 10000 3.1 210 16:55 18.08.2019
3436 Clouds 16 1003 93 10000 1.5 180 16:37 18.08.2019
3437 Clouds 16 1003 87 10000 1.5 180 16:18 18.08.2019
3438 Mist 16 1003 93 10000 3.6 190 15:40 18.08.2019
3439 Rain 16 1003 87 10000 2.6 200 15:20 18.08.2019
3440 Rain 16 1003 87 8000 3.6 200 14:59 18.08.2019
3441 Rain 16 1003 87 8000 3.6 200 14:59 18.08.2019
3442 Rain 16 1003 87 0 3.1 180 14:40 18.08.2019
3443 Rain 16 1003 88 0 3.6 170 14:20 18.08.2019
3444 Rain 16 1003 88 8000 6.2 200 13:58 18.08.2019
3445 Rain 16 1004 93 0 4.1 200 13:40 18.08.2019
3446 Rain 17 1004 93 0 4.1 200 13:20 18.08.2019
3447 Rain 17 1004 93 5000 4.1 220 12:54 18.08.2019
3448 Rain 17 1004 88 0 3.1 200 12:36 18.08.2019
3449 Rain 17 1003 93 0 3.6 190 12:18 18.08.2019
3450 Rain 17 1003 93 0 3.6 190 12:18 18.08.2019
3451 Mist 17 1003 93 0 2.6 170 11:41 18.08.2019
3452 Mist 17 1003 93 0 3.1 160 11:22 18.08.2019
3453 Mist 17 1004 93 3700 2.6 190 10:56 18.08.2019
3454 Mist 17 1004 93 0 2.6 170 10:38 18.08.2019
3455 Mist 17 1003 100 8000 3.6 170 10:18 18.08.2019
3456 Mist 16 1004 100 2500 2.6 200 09:43 18.08.2019
3457 Mist 16 1004 100 0 2.1 180 09:20 18.08.2019
3458 Mist 16 1004 100 2000 2.6 200 08:44 18.08.2019
3459 Mist 16 1004 100 2000 2.6 200 08:44 18.08.2019
3460 Fog 16 1004 100 0 2.1 160 08:25 18.08.2019
3461 Fog 16 1004 100 500 3.1 190 07:54 18.08.2019
3462 Fog 16 1004 93 0 2.6 200 07:30 18.08.2019
3463 Mist 15 1004 100 0 2.1 180 06:33 18.08.2019
3464 Fog 14 1004 100 0 1.5 190 05:42 18.08.2019
3465 Mist 14 1005 100 0 1 170 04:18 18.08.2019
3466 Fog 15 1005 93 0 0.5 90 02:59 18.08.2019
3467 Fog 15 1005 93 0 0.5 90 02:41 18.08.2019
3468 Clouds 15 1005 100 0 2.6 210 01:57 18.08.2019
3469 Clouds 16 1005 93 0 1.5 170 01:27 18.08.2019
3470 Rain 16 1005 93 0 2.1 180 00:42 18.08.2019
3471 Rain 16 1005 93 0 2.1 170 00:23 18.08.2019
3472 Rain 16 1005 100 0 4.1 210 23:58 17.08.2019
3473 Rain 16 1005 93 0 2.6 220 23:38 17.08.2019
3474 Rain 16 1004 93 0 2.1 160 23:19 17.08.2019
3475 Rain 16 1005 93 0 3.1 160 22:58 17.08.2019
3476 Rain 16 1005 100 10000 0.5 0 22:40 17.08.2019
3477 Rain 16 1005 100 10000 0.5 0 22:21 17.08.2019
3478 Clear 16 1005 88 0 2.6 220 21:55 17.08.2019
3479 Clear 16 1005 88 0 2.6 220 21:55 17.08.2019
3480 Rain 17 1005 100 8000 2.6 270 21:37 17.08.2019
3481 Rain 18 1005 100 8000 2.6 270 21:19 17.08.2019
3482 Rain 18 1005 82 0 3.1 210 20:39 17.08.2019
3483 Rain 19 1005 77 0 2.6 210 20:20 17.08.2019
3484 Rain 19 1005 77 0 5.7 230 19:56 17.08.2019
3485 Rain 19 1005 82 0 4.1 210 19:38 17.08.2019
3486 Rain 20 1005 82 7000 3.1 170 19:19 17.08.2019
3487 Rain 20 1004 82 0 3.6 190 18:39 17.08.2019
3488 Rain 19 1005 88 0 4.1 180 18:19 17.08.2019
3489 Rain 19 1005 88 0 4.1 180 18:19 17.08.2019
3490 Rain 19 1005 88 0 4.1 180 18:19 17.08.2019
3491 Rain 19 1004 88 0 4.6 220 17:56 17.08.2019
3492 Rain 19 1004 88 0 3.6 180 17:37 17.08.2019
3493 Rain 19 1004 82 0 5.7 200 17:19 17.08.2019
3494 Rain 19 1004 88 0 4.6 220 16:43 17.08.2019
3495 Rain 19 1004 88 0 6.7 200 16:25 17.08.2019
3496 Drizzle 18 1004 88 0 4.6 210 15:58 17.08.2019
3497 Drizzle 18 1004 93 0 4.1 190 15:39 17.08.2019
3498 Rain 18 1004 88 0 4.6 200 15:20 17.08.2019
3499 Drizzle 18 1005 93 0 6.2 220 14:41 17.08.2019
3500 Drizzle 18 1005 93 0 6.2 220 14:41 17.08.2019
3501 Drizzle 18 1005 93 0 6.2 220 14:41 17.08.2019
3502 Drizzle 18 1004 88 10000 4.6 190 14:23 17.08.2019
3503 Drizzle 18 1004 93 0 5.1 210 13:49 17.08.2019
3504 Clouds 18 1004 82 10000 4.1 190 13:23 17.08.2019
3505 Clouds 18 1004 82 10000 4.1 190 13:23 17.08.2019
3506 Rain 18 1004 88 0 5.7 200 12:58 17.08.2019
3507 Clouds 18 1004 82 10000 4.6 190 12:40 17.08.2019
3508 Clouds 17 1004 100 7000 6.7 190 12:19 17.08.2019
3509 Drizzle 17 1004 88 0 7.2 200 11:45 17.08.2019
3510 Drizzle 16 1004 93 10000 4.1 170 11:21 17.08.2019
3511 Drizzle 16 1004 93 0 7.7 200 10:57 17.08.2019
3512 Drizzle 16 1006 87 6000 5.1 180 10:39 17.08.2019
3513 Drizzle 16 1005 93 10000 5.1 160 10:19 17.08.2019
3514 Rain 15 1005 93 0 7.7 180 09:49 17.08.2019
3515 Rain 15 1004 93 7000 6.7 170 09:30 17.08.2019
3516 Rain 15 1005 93 0 7.2 180 08:54 17.08.2019
3517 Rain 15 1005 93 6000 5.1 160 08:25 17.08.2019
3518 Rain 15 1005 93 0 6.7 170 07:52 17.08.2019
3519 Rain 15 1005 93 4500 5.1 160 07:22 17.08.2019
3520 Rain 15 1005 93 4500 5.1 160 07:22 17.08.2019
3521 Rain 15 1006 87 9000 6.2 170 06:54 17.08.2019
3522 Rain 15 1006 87 10000 5.1 170 05:35 17.08.2019
3523 Rain 15 1007 82 10000 5.1 160 04:29 17.08.2019
3524 Rain 16 1008 82 10000 4.6 160 03:35 17.08.2019
3525 Clouds 16 1009 82 10000 5.7 170 01:48 17.08.2019
3526 Clear 16 1009 82 10000 4.1 150 01:29 17.08.2019
3527 Clouds 16 1010 82 10000 6.2 160 00:55 17.08.2019
3528 Clear 16 1010 87 10000 3.6 140 00:31 17.08.2019
3529 Clouds 16 1010 82 10000 5.7 160 23:57 16.08.2019
3530 Clear 16 1010 87 10000 3.6 140 23:37 16.08.2019
3531 Clear 16 1011 82 10000 3.6 140 23:18 16.08.2019
3532 Clouds 16 1011 82 10000 5.1 170 22:40 16.08.2019
3533 Clear 17 1011 77 10000 3.1 140 22:19 16.08.2019
3534 Clear 17 1011 77 10000 3.1 140 22:19 16.08.2019
3535 Clear 17 1012 77 10000 2.6 140 21:42 16.08.2019
3536 Clear 17 1012 72 10000 2.1 150 21:21 16.08.2019
3537 Clouds 18 1012 77 10000 2.6 180 20:58 16.08.2019
3538 Clear 18 1012 63 10000 2.1 160 20:39 16.08.2019
3539 Clear 18 1012 63 10000 1.5 200 20:19 16.08.2019
3540 Clouds 18 1012 63 10000 2.6 210 19:45 16.08.2019
3541 Clouds 19 1012 59 10000 2.1 210 19:24 16.08.2019
3542 Clouds 19 1012 59 10000 2.1 210 19:24 16.08.2019
3543 Clouds 19 1012 63 0 3.6 230 18:59 16.08.2019
3544 Clouds 19 1012 55 10000 3.1 210 18:41 16.08.2019
3545 Clouds 19 1012 59 10000 3.1 240 18:22 16.08.2019
3546 Clouds 19 1013 59 0 4.6 260 17:45 16.08.2019
3547 -273 0 0 0 0 0 17:25 16.08.2019
3548 Clouds 19 1013 59 0 6.7 270 16:56 16.08.2019
3549 Clouds 19 1013 59 10000 4.6 260 16:38 16.08.2019
3550 Clouds 19 1013 52 10000 4.1 260 16:18 16.08.2019
3551 Clouds 19 1013 59 0 7.7 270 15:55 16.08.2019
3552 Clouds 19 1013 52 10000 4.1 270 15:37 16.08.2019
3553 Clouds 19 1013 52 10000 4.6 260 15:19 16.08.2019
3554 Clouds 19 1013 55 0 8.7 280 14:42 16.08.2019
3555 Clouds 19 1013 55 10000 4.1 270 14:19 16.08.2019
3556 Clouds 19 1013 59 0 8.7 270 13:59 16.08.2019
3557 Clouds 19 1013 59 10000 4.1 250 13:39 16.08.2019
3558 Clouds 19 1013 63 10000 3.1 290 13:20 16.08.2019
3559 Clouds 19 1013 63 10000 3.6 280 12:40 16.08.2019
3560 Clouds 19 1013 72 10000 4.1 280 12:21 16.08.2019
3561 Clouds 18 1013 68 10000 7.7 280 11:55 16.08.2019
3562 Rain 18 1013 82 10000 4.6 270 11:37 16.08.2019
3563 Rain 18 1013 82 10000 4.6 270 11:37 16.08.2019
3564 Rain 17 1012 82 10000 4.1 260 11:18 16.08.2019
3565 Rain 17 1012 82 10000 2.6 310 10:42 16.08.2019
3566 Rain 17 1012 93 10000 2.6 310 10:20 16.08.2019
3567 Drizzle 16 1012 93 10000 4.6 310 09:39 16.08.2019
3568 Rain 16 1012 87 3500 3.6 280 09:20 16.08.2019
3569 Rain 16 1012 93 8000 5.7 300 08:59 16.08.2019
3570 Drizzle 16 1011 87 10000 3.1 280 08:39 16.08.2019
3571 Rain 16 1011 93 10000 3.1 270 08:19 16.08.2019
3572 Clouds 15 1011 93 10000 7.2 300 07:48 16.08.2019
3573 Rain 15 1010 93 10000 2.6 230 07:28 16.08.2019
3574 Rain 15 1010 93 0 4.1 240 06:55 16.08.2019
3575 Rain 14 1010 93 0 1.5 220 06:19 16.08.2019
3576 Rain 14 1009 93 0 2.6 230 05:34 16.08.2019
3577 Clear 15 1009 93 0 1.5 220 03:20 16.08.2019
3578 Rain 15 1009 93 0 2.6 240 01:52 16.08.2019
3579 Clear 15 1009 93 0 3.1 250 01:25 16.08.2019
3580 Clear 15 1009 93 0 5.1 250 00:50 16.08.2019
3581 Clear 15 1008 87 0 3.6 250 00:24 16.08.2019
3582 Clear 15 1008 87 0 3.6 250 00:24 16.08.2019
3583 Clear 15 1009 93 0 5.1 260 23:59 15.08.2019
3584 Clear 15 1009 93 0 5.1 260 23:41 15.08.2019
3585 Clear 15 1008 93 0 4.6 250 23:19 15.08.2019
3586 Clear 15 1008 93 0 7.2 260 22:55 15.08.2019
3587 Clouds 16 1007 88 10000 4.6 240 22:36 15.08.2019
3588 Rain 16 1007 88 10000 3.6 240 22:18 15.08.2019
3589 Rain 16 1007 88 10000 4.6 240 21:40 15.08.2019
3590 Rain 16 1007 88 10000 4.1 250 21:20 15.08.2019
3591 Rain 17 1006 93 0 10.3 280 20:59 15.08.2019
3592 Rain 17 1006 93 0 10.3 280 20:40 15.08.2019
3593 Clouds 17 1006 93 10000 4.6 250 20:21 15.08.2019
3594 Rain 17 1006 88 0 4.6 250 19:56 15.08.2019
3595 Rain 18 1005 93 10000 5.1 260 19:38 15.08.2019
3596 Rain 18 1005 93 10000 2.1 190 19:19 15.08.2019
3597 Rain 18 1005 88 10000 5.7 230 18:45 15.08.2019
3598 Drizzle 19 1005 93 9000 3.1 160 18:22 15.08.2019
3599 Drizzle 18 1005 100 9000 4.6 190 17:56 15.08.2019
3600 Rain 18 1006 88 10000 3.6 180 17:37 15.08.2019
3601 Rain 18 1006 88 10000 4.1 210 17:19 15.08.2019
3602 Rain 18 1005 93 6000 5.1 190 16:48 15.08.2019
3603 Rain 18 1005 93 5000 3.6 190 16:27 15.08.2019
3604 Drizzle 18 1005 88 4500 4.1 190 15:57 15.08.2019
3605 Drizzle 18 1005 82 10000 4.1 160 15:38 15.08.2019
3606 Drizzle 17 1005 88 10000 3.1 170 15:19 15.08.2019
3607 Drizzle 17 1005 88 9000 4.6 200 14:42 15.08.2019
3608 Drizzle 16 1006 93 10000 3.6 170 14:23 15.08.2019
3609 Drizzle 16 1005 93 8000 5.1 190 13:58 15.08.2019
3610 Drizzle 16 1005 87 10000 4.1 180 13:40 15.08.2019
3611 Clouds 16 1006 87 10000 3.6 170 13:21 15.08.2019
3612 Drizzle 16 1005 93 6000 4.6 190 12:57 15.08.2019
3613 Drizzle 15 1006 87 10000 4.1 160 12:39 15.08.2019
3614 Drizzle 15 1006 93 7000 5.7 180 12:19 15.08.2019
3615 Drizzle 15 1006 93 4000 5.7 180 11:57 15.08.2019
3616 Drizzle 15 1006 93 10000 4.1 160 11:36 15.08.2019
3617 Drizzle 15 1006 93 3800 5.1 170 11:18 15.08.2019
3618 Drizzle 15 1006 93 4800 5.1 170 10:57 15.08.2019
3619 Drizzle 14 1006 100 3000 5.1 170 10:36 15.08.2019
3620 Drizzle 14 1006 100 3000 5.1 170 10:18 15.08.2019
3621 Rain 14 1006 93 8000 6.2 160 09:41 15.08.2019
3622 Drizzle 14 1007 93 2500 4.1 150 09:22 15.08.2019
3623 Rain 13 1008 93 8000 4.1 140 08:38 15.08.2019
3624 Rain 13 1007 100 8000 5.7 160 08:20 15.08.2019
3625 Rain 13 1008 93 5000 4.6 150 07:56 15.08.2019
3626 Rain 13 1008 87 6000 4.1 160 07:37 15.08.2019
3627 Rain 13 1008 87 6000 4.1 160 07:18 15.08.2019
3628 Rain 13 1008 93 6000 4.1 160 06:43 15.08.2019
3629 Rain 13 1009 87 0 2.1 130 06:22 15.08.2019
3630 Rain 14 1010 77 0 3.1 180 05:29 15.08.2019
3631 Rain 14 1010 82 10000 5.1 190 04:57 15.08.2019
3632 Clouds 14 1010 72 10000 5.7 170 03:53 15.08.2019
3633 Clouds 15 1011 87 0 3.1 140 03:18 15.08.2019
3634 Clear 14 1011 93 10000 2.1 130 02:25 15.08.2019
3635 Rain 14 1012 82 0 3.1 140 01:39 15.08.2019
3636 Clouds 14 1012 87 10000 3.6 160 00:56 15.08.2019
3637 Rain 14 1013 77 0 1.5 160 00:36 15.08.2019
3638 Rain 14 1013 77 0 1.5 160 00:18 15.08.2019
3639 Clouds 14 1013 82 10000 2.6 190 23:55 14.08.2019
3640 Clouds 15 1013 77 0 1.5 180 23:36 14.08.2019
3641 Clouds 15 1013 87 10000 2.1 140 23:18 14.08.2019
3642 Rain 15 1013 77 10000 4.6 200 22:41 14.08.2019
3643 Rain 15 1013 87 10000 2.1 190 22:22 14.08.2019
3644 Rain 15 1013 82 10000 3.6 210 21:57 14.08.2019
3645 Rain 15 1013 82 10000 3.6 210 21:39 14.08.2019
3646 Rain 15 1013 82 10000 2.1 190 21:21 14.08.2019
3647 Rain 16 1014 77 10000 3.1 230 20:57 14.08.2019
3648 Clouds 16 1014 67 10000 2.1 220 20:39 14.08.2019
3649 Clouds 17 1014 63 10000 2.1 230 20:19 14.08.2019
3650 Clouds 17 1014 77 10000 3.6 260 19:54 14.08.2019
3651 Clouds 17 1014 59 10000 4.1 250 19:36 14.08.2019
3652 Clouds 18 1014 63 0 7.7 260 19:18 14.08.2019
3653 Clouds 18 1014 59 10000 4.1 250 19:18 14.08.2019
3654 Clouds 18 1014 63 0 7.7 260 18:43 14.08.2019
3655 Clouds 18 1014 45 10000 5.7 240 18:24 14.08.2019
3656 Rain 19 1014 52 0 11.8 280 17:59 14.08.2019
3657 Rain 19 1014 52 0 11.8 280 17:40 14.08.2019
3658 Clouds 19 1015 59 10000 3.1 300 17:22 14.08.2019
3659 Rain 19 1014 59 0 10.3 270 16:58 14.08.2019
3660 Clouds 19 1015 45 10000 6.2 260 16:39 14.08.2019
3661 Clouds 19 1014 48 10000 6.2 260 16:19 14.08.2019
3662 Rain 19 1014 59 0 9.8 290 15:43 14.08.2019
3663 Clouds 18 1014 55 10000 5.7 240 15:20 14.08.2019
3664 Rain 18 1014 59 0 9.8 280 14:58 14.08.2019
3665 Rain 17 1014 48 10000 5.1 240 14:39 14.08.2019
3666 Rain 17 1014 59 10000 4.6 230 14:19 14.08.2019
3667 Rain 17 1014 59 10000 4.6 230 14:19 14.08.2019
3668 Rain 17 1014 67 0 10.3 270 13:55 14.08.2019
3669 Rain 16 1015 67 10000 7.7 280 13:37 14.08.2019
3670 Rain 16 1014 72 10000 3.6 200 13:18 14.08.2019
3671 Rain 16 1014 72 0 2.1 250 12:55 14.08.2019
3672 Rain 17 1015 63 10000 6.7 250 12:36 14.08.2019
3673 Rain 17 1014 67 10000 2.6 320 12:18 14.08.2019
3674 Rain 16 1014 63 0 6.2 270 11:43 14.08.2019
3675 Clouds 16 1013 63 10000 4.1 240 11:22 14.08.2019
3676 Rain 16 1014 72 0 7.2 260 10:46 14.08.2019
3677 Rain 15 1014 72 10000 3.6 230 10:25 14.08.2019
3678 Rain 14 1014 82 0 3.6 230 09:59 14.08.2019
3679 Rain 14 1014 82 0 3.6 230 09:41 14.08.2019
3680 Rain 14 1014 82 10000 3.6 210 09:20 14.08.2019
3681 Rain 13 1014 87 0 4.6 220 08:43 14.08.2019
3682 Clouds 12 1015 93 8000 3.6 220 08:25 14.08.2019
3683 Rain 12 1014 100 0 4.1 210 07:56 14.08.2019
3684 Mist 11 1014 93 6000 3.1 220 07:35 14.08.2019
3685 Mist 11 1013 93 0 3.6 200 06:50 14.08.2019
3686 Mist 11 1013 93 0 2.1 210 06:25 14.08.2019
3687 Rain 11 1014 100 4000 2.6 190 05:32 14.08.2019
3688 Rain 11 1013 87 0 5.7 210 03:52 14.08.2019
3689 Rain 11 1013 87 0 2.6 200 02:37 14.08.2019
3690 Rain 11 1013 87 0 2.6 200 02:18 14.08.2019
3691 Rain 12 1013 82 0 2.6 220 01:30 14.08.2019
3692 Rain 12 1014 87 0 2.1 200 00:38 14.08.2019
3693 Rain 12 1014 87 0 5.7 220 23:43 13.08.2019
3694 Rain 12 1014 82 0 1.5 230 23:20 13.08.2019
3695 Rain 12 1014 82 0 4.6 230 22:56 13.08.2019
3696 Clouds 12 1013 82 10000 2.1 220 22:38 13.08.2019
3697 Clouds 12 1013 82 10000 2.1 220 22:38 13.08.2019
3698 Clouds 12 1013 71 10000 2.6 240 22:19 13.08.2019
3699 Rain 13 1014 76 0 4.6 230 21:55 13.08.2019
3700 Clouds 14 1013 67 10000 2.6 260 21:36 13.08.2019
3701 Clouds 14 1013 67 10000 2.6 260 21:18 13.08.2019
3702 Rain 14 1013 67 0 6.2 260 20:44 13.08.2019
3703 Clouds 15 1013 63 10000 2.6 270 20:20 13.08.2019
3704 Rain 15 1013 59 0 8.2 280 19:57 13.08.2019
3705 Rain 15 1013 59 10000 3.1 280 19:39 13.08.2019
3706 Rain 16 1013 55 10000 4.1 270 19:20 13.08.2019
3707 Rain 16 1013 59 10000 7.2 290 18:42 13.08.2019
3708 Rain 16 1013 55 10000 4.1 290 18:22 13.08.2019
3709 Rain 16 1013 55 10000 4.1 290 18:22 13.08.2019
3710 Rain 16 1013 63 10000 9.3 300 17:58 13.08.2019
3711 Rain 16 1012 59 10000 4.1 280 17:39 13.08.2019
3712 Rain 16 1012 59 10000 4.1 280 17:19 13.08.2019
3713 Rain 16 1013 72 10000 7.7 280 16:56 13.08.2019
3714 Rain 16 1012 59 10000 4.1 270 16:37 13.08.2019
3715 Rain 16 1013 72 7000 3.1 220 16:19 13.08.2019
3716 Rain 16 1012 72 10000 6.2 270 15:39 13.08.2019
3717 Rain 15 1012 87 10000 3.6 230 15:20 13.08.2019
3718 Rain 16 1012 82 10000 5.7 260 14:58 13.08.2019
3719 Rain 15 1012 87 10000 2.1 190 14:38 13.08.2019
3720 Rain 15 1012 87 2000 1 0 14:18 13.08.2019
3721 Rain 15 1012 93 10000 7.2 270 13:42 13.08.2019
3722 Rain 15 1012 93 10000 2.1 280 13:21 13.08.2019
3723 Rain 15 1012 87 10000 4.1 250 12:59 13.08.2019
3724 Rain 14 1012 87 10000 2.6 290 12:41 13.08.2019
3725 Rain 14 1011 93 10000 3.6 240 12:22 13.08.2019
3726 Rain 14 1011 93 9000 3.6 250 11:58 13.08.2019
3727 Rain 14 1011 93 8000 3.1 210 11:38 13.08.2019
3728 Rain 14 1012 87 5000 6.2 290 11:20 13.08.2019
3729 Rain 15 1011 87 10000 2.1 0 10:56 13.08.2019
3730 Rain 15 1011 93 2500 3.6 240 10:37 13.08.2019
3731 Rain 15 1011 93 2500 3.6 240 10:19 13.08.2019
3732 Rain 14 1011 93 10000 3.6 220 09:43 13.08.2019
3733 Rain 14 1011 93 10000 2.6 250 09:23 13.08.2019
3734 -273 0 0 0 0 0 09:23 13.08.2019
3735 Rain 14 1011 93 10000 3.1 240 08:44 13.08.2019
3736 Rain 14 1011 93 8000 3.1 250 08:23 13.08.2019
3737 Rain 14 1011 93 8000 3.1 250 08:23 13.08.2019
3738 Rain 14 1010 100 10000 3.6 270 07:58 13.08.2019
3739 Rain 14 1011 93 6000 5.1 240 07:38 13.08.2019
3740 Rain 14 1010 93 10000 2.6 250 07:19 13.08.2019
3741 Rain 14 1010 93 10000 2.1 290 06:41 13.08.2019
3742 Rain 14 1009 93 0 3.1 200 05:37 13.08.2019
3743 Rain 14 1010 93 0 6.7 180 03:45 13.08.2019
3744 Rain 15 1011 82 0 2.6 170 02:22 13.08.2019
3745 Rain 15 1011 82 0 2.1 180 01:26 13.08.2019
3746 Rain 15 1011 87 0 3.1 200 00:47 13.08.2019
3747 Clouds 14 1011 87 0 1.5 220 00:18 13.08.2019
3748 Clouds 14 1011 87 0 1.5 210 23:41 12.08.2019
3749 Clouds 14 1011 82 0 1 230 23:20 12.08.2019
3750 Clouds 15 1012 82 0 3.6 240 22:40 12.08.2019
3751 Clouds 15 1012 72 0 1.5 230 22:20 12.08.2019
3752 Clouds 16 1012 72 0 4.1 250 21:57 12.08.2019
3753 Clouds 16 1011 67 10000 2.6 250 21:38 12.08.2019
3754 Clouds 16 1011 67 10000 2.6 250 21:19 12.08.2019
3755 Clouds 17 1011 63 0 5.1 260 20:59 12.08.2019
3756 Clouds 17 1011 63 0 5.1 260 20:41 12.08.2019
3757 Clouds 18 1010 59 10000 3.1 240 20:20 12.08.2019
3758 Clouds 18 1011 59 0 9.3 270 19:57 12.08.2019
3759 Clouds 19 1011 59 10000 3.6 240 19:39 12.08.2019
3760 Clouds 19 1011 59 10000 3.6 240 19:20 12.08.2019
3761 Clouds 19 1011 55 0 10.3 260 18:56 12.08.2019
3762 Clouds 20 1011 49 10000 6.2 250 18:38 12.08.2019
3763 Clouds 20 1011 52 10000 6.7 250 18:20 12.08.2019
3764 Clouds 20 1011 56 10000 9.8 260 17:48 12.08.2019
3765 Clouds 21 1011 49 10000 5.1 240 17:29 12.08.2019
3766 Clouds 21 1011 52 10000 8.7 270 16:58 12.08.2019
3767 Clouds 21 1011 52 10000 4.6 240 16:39 12.08.2019
3768 Clouds 21 1011 52 10000 4.6 240 16:20 12.08.2019
3769 Clouds 21 1011 52 10000 4.6 240 16:20 12.08.2019
3770 Clouds 20 1011 52 10000 9.8 270 15:59 12.08.2019
3771 Clouds 20 1011 60 10000 5.7 240 15:41 12.08.2019
3772 Clouds 20 1011 60 10000 5.7 240 15:41 12.08.2019
3773 Clouds 21 1011 68 10000 5.1 240 15:22 12.08.2019
3774 Clouds 20 1011 68 10000 11.8 270 14:58 12.08.2019
3775 Rain 20 1011 82 10000 3.6 240 14:39 12.08.2019
3776 Rain 20 1011 82 10000 3.6 240 14:39 12.08.2019
3777 Rain 20 1011 82 10000 3.6 240 14:39 12.08.2019
3778 Rain 20 1011 82 10000 8.2 270 14:20 12.08.2019
3779 Rain 20 1011 68 10000 8.2 250 13:55 12.08.2019
3780 Rain 20 1011 68 10000 8.2 250 13:55 12.08.2019
3781 Clouds 20 1011 63 10000 4.1 270 13:37 12.08.2019
3782 Clouds 20 1010 72 10000 4.1 220 13:19 12.08.2019
3783 Rain 19 1010 82 10000 5.1 240 12:43 12.08.2019
3784 Rain 19 1010 88 10000 4.6 200 12:19 12.08.2019
3785 Rain 19 1010 88 10000 4.6 200 12:19 12.08.2019
3786 Rain 19 1010 82 10000 7.7 260 11:44 12.08.2019
3787 Clouds 19 1010 68 10000 6.7 210 11:26 12.08.2019
3788 Clouds 19 1010 68 10000 6.7 210 11:26 12.08.2019
3789 Rain 19 1010 77 0 8.2 230 10:58 12.08.2019
3790 Clouds 18 1010 68 10000 5.1 230 10:40 12.08.2019
3791 Clouds 18 1010 77 10000 5.7 210 10:21 12.08.2019
3792 Rain 18 1010 77 0 5.7 220 09:55 12.08.2019
3793 Clouds 18 1011 68 10000 6.2 240 09:36 12.08.2019
3794 Clouds 18 1011 68 10000 6.2 240 09:36 12.08.2019
3795 Clouds 17 1010 77 10000 6.2 200 09:18 12.08.2019
3796 Clouds 17 1010 77 10000 6.2 200 09:18 12.08.2019
3797 Rain 17 1010 82 0 6.7 210 08:40 12.08.2019
3798 Clouds 16 1009 93 10000 4.6 210 08:22 12.08.2019
3799 Rain 16 1010 87 0 5.1 210 07:56 12.08.2019
3800 Rain 16 1009 93 3000 3.6 200 07:35 12.08.2019
3801 Rain 16 1010 87 10000 4.6 200 06:54 12.08.2019
3802 Rain 15 1010 87 5000 4.6 200 06:20 12.08.2019
3803 Rain 16 1010 82 0 3.1 180 04:31 12.08.2019
3804 Clouds 16 1010 82 10000 4.6 210 02:43 12.08.2019
3805 Clouds 16 1010 82 10000 4.6 200 01:48 12.08.2019
3806 Clouds 16 1011 77 0 2.6 180 01:19 12.08.2019
3807 Clouds 16 1011 82 10000 4.6 200 00:56 12.08.2019
3808 Clouds 17 1011 77 0 2.6 180 00:37 12.08.2019
3809 Clouds 17 1011 77 0 2.1 170 00:18 12.08.2019
3810 Clouds 17 1011 77 0 2.1 170 23:41 11.08.2019
3811 Clouds 17 1011 77 0 2.1 180 23:20 11.08.2019
3812 Clouds 17 1011 82 10000 3.6 210 22:58 11.08.2019
3813 Clouds 17 1011 77 0 2.1 180 22:39 11.08.2019
3814 Clouds 17 1011 77 0 2.1 190 22:19 11.08.2019
3815 Clouds 17 1011 82 10000 3.6 240 21:58 11.08.2019
3816 Clouds 18 1011 72 0 1.5 0 21:39 11.08.2019
3817 Rain 19 1011 72 0 1.5 210 21:20 11.08.2019
3818 Clouds 19 1011 68 10000 4.6 240 20:56 11.08.2019
3819 Rain 19 1011 68 0 2.1 220 20:38 11.08.2019
3820 Clouds 20 1011 64 10000 3.1 240 20:19 11.08.2019
3821 Clouds 20 1011 64 10000 8.2 270 19:42 11.08.2019
3822 Clouds 20 1010 68 10000 5.7 230 19:18 11.08.2019
3823 Rain 21 1011 68 0 7.2 260 18:41 11.08.2019
3824 Clouds 21 1011 56 10000 4.6 250 18:21 11.08.2019
3825 Clouds 21 1011 64 0 9.8 260 17:57 11.08.2019
3826 Clouds 21 1012 49 10000 4.6 230 17:39 11.08.2019
3827 Clouds 21 1011 52 10000 7.2 230 17:20 11.08.2019
3828 Clouds 22 1011 52 0 9.3 250 16:56 11.08.2019
3829 Clouds 22 1011 52 10000 8.7 240 16:38 11.08.2019
3830 Clouds 22 1011 49 10000 7.2 240 16:18 11.08.2019
3831 Clouds 21 1011 52 0 12.9 250 15:43 11.08.2019
3832 Clouds 21 1011 56 10000 6.2 220 15:24 11.08.2019
3833 Rain 21 1011 56 0 8.2 240 14:59 11.08.2019
3834 Rain 21 1011 56 0 6.7 230 14:39 11.08.2019
3835 Rain 21 1010 56 0 6.7 210 14:20 11.08.2019
3836 Rain 21 1010 56 0 7.7 230 13:44 11.08.2019
3837 Rain 21 1010 60 0 7.7 230 13:25 11.08.2019
3838 Rain 21 1010 60 0 7.7 230 13:25 11.08.2019
3839 Rain 20 1011 64 0 9.3 230 12:56 11.08.2019
3840 Rain 20 1010 64 0 7.2 220 12:37 11.08.2019
3841 Rain 20 1010 64 0 6.2 220 12:18 11.08.2019
3842 Rain 20 1010 68 0 5.1 230 11:39 11.08.2019
3843 Rain 20 1010 68 0 5.7 230 11:21 11.08.2019
3844 Rain 19 1010 72 0 8.7 240 10:55 11.08.2019
3845 Rain 19 1009 77 0 5.7 220 10:37 11.08.2019
3846 Rain 19 1009 77 0 7.2 210 10:18 11.08.2019
3847 Rain 18 1009 77 0 7.2 230 09:42 11.08.2019
3848 Rain 18 1009 77 0 7.2 210 09:23 11.08.2019
3849 Clouds 18 1009 82 0 8.7 230 08:49 11.08.2019
3850 Clouds 17 1008 77 0 5.1 200 08:30 11.08.2019
3851 Rain 17 1008 82 0 8.2 220 07:59 11.08.2019
3852 Clouds 16 1008 82 0 4.1 200 07:31 11.08.2019
3853 Clouds 16 1008 88 0 7.2 220 06:51 11.08.2019
3854 Clouds 16 1008 82 0 5.7 200 06:31 11.08.2019
3855 Rain 17 1008 77 0 8.2 240 04:44 11.08.2019
3856 Rain 18 1008 72 0 8.7 240 02:50 11.08.2019
3857 Rain 19 1008 68 0 10.3 250 01:58 11.08.2019
3858 Rain 19 1007 64 0 6.7 220 01:32 11.08.2019
3859 Rain 19 1007 64 0 11.3 250 00:56 11.08.2019
3860 Rain 19 1007 56 0 6.7 230 00:36 11.08.2019
3861 Rain 19 1007 60 0 11.3 250 23:56 10.08.2019
3862 Rain 19 1007 56 0 8.2 230 23:37 10.08.2019
3863 Rain 20 1007 56 0 6.7 220 23:18 10.08.2019
3864 Rain 20 1007 60 0 5.7 230 22:38 10.08.2019
3865 Rain 20 1007 60 0 5.7 230 22:20 10.08.2019
3866 Rain 20 1007 60 0 11.8 250 21:41 10.08.2019
3867 Rain 20 1006 60 0 6.2 230 21:22 10.08.2019
3868 Rain 20 1006 60 0 6.2 230 21:22 10.08.2019
3869 Rain 20 1006 60 0 8.7 250 20:59 10.08.2019
3870 Rain 21 1006 60 0 6.2 230 20:41 10.08.2019
3871 Rain 21 1006 60 0 6.7 230 20:20 10.08.2019
3872 Rain 21 1006 60 0 10.3 250 19:56 10.08.2019
3873 Rain 21 1006 60 0 8.7 240 19:37 10.08.2019
3874 Rain 21 1006 56 0 9.8 240 19:18 10.08.2019
3875 Rain 22 1006 60 0 6.2 230 18:39 10.08.2019
3876 Rain 22 1006 60 0 7.7 230 18:20 10.08.2019
3877 Clouds 22 1006 68 10000 12.3 250 17:44 10.08.2019
3878 Rain 21 1005 68 0 8.2 240 17:24 10.08.2019
3879 Clouds 21 1006 64 10000 14.4 250 16:46 10.08.2019
3880 Rain 21 1005 73 0 5.7 220 16:28 10.08.2019
3881 Rain 20 1005 77 10000 8.2 240 15:54 10.08.2019
3882 Rain 20 1005 88 0 6.7 240 15:25 10.08.2019
3883 Rain 20 1005 77 10000 13.4 260 14:45 10.08.2019
3884 Rain 21 1004 78 0 4.1 210 14:22 10.08.2019
3885 Rain 21 1005 73 10000 7.7 230 13:55 10.08.2019
3886 Rain 21 1005 88 10000 8.7 220 13:37 10.08.2019
3887 Rain 21 1004 73 0 4.1 230 13:18 10.08.2019
3888 Rain 22 1005 73 10000 7.2 240 12:41 10.08.2019
3889 Rain 21 1005 82 10000 9.8 250 12:21 10.08.2019
3890 Rain 21 1004 73 8000 9.8 250 11:56 10.08.2019
3891 Rain 21 1004 77 10000 6.7 210 11:37 10.08.2019
3892 Rain 21 1004 77 10000 6.7 210 11:19 10.08.2019
3893 Clouds 21 1003 88 10000 6.2 220 10:38 10.08.2019
3894 Clouds 20 1003 88 10000 5.7 230 10:20 10.08.2019
3895 Rain 21 1004 83 10000 5.1 220 09:44 10.08.2019
3896 Clouds 20 1004 88 7000 4.1 200 09:25 10.08.2019
3897 Clouds 20 1004 94 6000 4.1 210 08:59 10.08.2019
3898 Mist 20 1005 88 10000 3.6 220 08:38 10.08.2019
3899 Mist 20 1003 100 5000 4.1 180 08:19 10.08.2019
3900 Mist 19 1004 93 4500 4.1 210 07:48 10.08.2019
3901 Mist 19 1003 93 6000 3.1 200 07:26 10.08.2019
3902 Mist 18 1003 93 0 4.6 220 06:48 10.08.2019
3903 Fog 18 1003 100 8000 3.6 190 06:21 10.08.2019
3904 Clouds 18 1003 93 10000 3.6 180 05:22 10.08.2019
3905 Rain 19 1003 82 0 4.6 150 04:18 10.08.2019
3906 Rain 18 1003 88 0 6.7 170 02:53 10.08.2019
3907 Rain 18 1004 88 0 7.2 150 01:57 10.08.2019
3908 Rain 19 1004 88 0 7.7 140 01:39 10.08.2019
3909 Thunderstorm 19 1005 93 10000 4.6 140 01:20 10.08.2019
3910 Rain 19 1005 82 0 8.2 150 00:43 10.08.2019
3911 Clouds 18 1005 82 10000 5.7 130 00:21 10.08.2019
3912 Rain 18 1005 88 0 6.7 150 23:42 09.08.2019
3913 Rain 18 1007 88 0 7.7 130 23:22 09.08.2019
3914 Rain 18 1006 88 0 6.2 140 22:57 09.08.2019
3915 Rain 18 1007 93 10000 4.6 130 22:38 09.08.2019
3916 Rain 18 1007 93 10000 4.6 130 22:20 09.08.2019
3917 Rain 18 1006 88 0 6.7 140 21:43 09.08.2019
3918 Clouds 18 1007 88 10000 4.1 120 21:23 09.08.2019
3919 Rain 18 1007 88 0 5.7 150 20:59 09.08.2019
3920 Clouds 18 1007 88 0 5.7 150 20:40 09.08.2019
3921 Rain 18 1008 88 0 5.1 140 20:21 09.08.2019
3922 Rain 18 1008 82 0 3.6 140 19:59 09.08.2019
3923 Rain 19 1008 82 0 3.6 140 19:41 09.08.2019
3924 Rain 19 1008 77 0 6.2 120 19:18 09.08.2019
3925 Rain 20 1008 77 10000 6.7 120 18:41 09.08.2019
3926 Clouds 20 1009 72 10000 5.7 120 18:22 09.08.2019
3927 Clouds 21 1009 72 10000 3.6 140 17:58 09.08.2019
3928 Clouds 21 1009 72 10000 6.2 110 17:39 09.08.2019
3929 Clouds 21 1009 72 10000 5.7 130 17:21 09.08.2019
3930 Clouds 21 1009 68 10000 3.6 150 16:42 09.08.2019
3931 Clouds 21 1009 72 10000 5.1 130 16:23 09.08.2019
3932 Clouds 21 1010 68 10000 3.6 160 15:57 09.08.2019
3933 Clouds 21 1010 72 10000 5.7 130 15:39 09.08.2019
3934 Clouds 21 1010 72 10000 5.1 120 15:20 09.08.2019
3935 Clouds 21 1010 68 10000 3.1 160 14:55 09.08.2019
3936 Clear 21 1011 60 10000 3.1 150 14:37 09.08.2019
3937 Clouds 21 1010 64 10000 2.6 150 14:19 09.08.2019
3938 Clouds 21 1010 68 10000 2.6 170 13:43 09.08.2019
3939 Clouds 20 1010 72 10000 2.6 170 13:20 09.08.2019
3940 Clouds 20 1011 68 10000 2.1 190 12:47 09.08.2019
3941 Clouds 20 1011 68 10000 3.1 160 12:24 09.08.2019
3942 Clouds 20 1011 68 10000 2.6 200 11:59 09.08.2019
3943 Clouds 20 1011 77 10000 3.1 170 11:38 09.08.2019
3944 Clouds 19 1011 68 10000 2.1 0 11:19 09.08.2019
3945 Clouds 19 1010 72 10000 0.5 0 10:41 09.08.2019
3946 Clouds 19 1010 77 10000 1 0 10:22 09.08.2019
3947 Clouds 19 1010 77 10000 1 0 10:22 09.08.2019
3948 Clouds 18 1010 82 10000 1.5 220 09:57 09.08.2019
3949 Clouds 18 1010 77 10000 1.5 350 09:37 09.08.2019
3950 Clouds 18 1010 82 10000 1 0 09:18 09.08.2019
3951 Clouds 17 1010 82 10000 3.1 290 08:44 09.08.2019
3952 Clouds 16 1010 88 10000 2.1 240 08:24 09.08.2019
3953 Clouds 15 1010 93 10000 2.6 260 07:53 09.08.2019
3954 Fog 14 1010 87 10000 2.6 250 07:24 09.08.2019
3955 Fog 14 1010 93 0 3.1 270 06:57 09.08.2019
3956 Fog 14 1010 93 0 2.6 240 06:36 09.08.2019
3957 Fog 14 1010 93 0 2.6 240 06:18 09.08.2019
3958 Fog 14 1010 87 0 6.2 270 04:57 09.08.2019
3959 Clear 15 1009 87 0 3.6 250 02:26 09.08.2019
3960 Clear 15 1009 87 0 3.6 250 01:21 09.08.2019
3961 Clear 15 1009 87 0 3.6 250 00:41 09.08.2019
3962 Drizzle 15 1009 93 10000 4.1 280 00:22 09.08.2019
3963 Clouds 16 1008 87 0 3.6 250 23:56 08.08.2019
3964 Clouds 16 1008 87 0 3.6 250 23:36 08.08.2019
3965 Clouds 16 1008 87 0 4.1 250 23:18 08.08.2019
3966 Clouds 16 1008 82 0 4.6 250 22:38 08.08.2019
3967 Clouds 16 1008 88 0 4.1 250 22:19 08.08.2019
3968 Clouds 17 1008 88 0 7.2 270 21:59 08.08.2019
3969 Clouds 17 1008 88 0 7.2 270 21:41 08.08.2019
3970 Rain 17 1007 88 0 4.6 250 21:22 08.08.2019
3971 Rain 17 1008 88 0 9.8 270 20:57 08.08.2019
3972 Rain 18 1007 88 0 5.7 250 20:39 08.08.2019
3973 Rain 18 1007 82 0 5.1 260 20:19 08.08.2019
3974 Rain 18 1007 82 0 11.8 280 19:48 08.08.2019
3975 Rain 19 1007 88 0 6.7 260 19:28 08.08.2019
3976 Rain 19 1007 82 0 13.4 290 18:57 08.08.2019
3977 Clouds 19 1006 77 10000 9.8 260 18:36 08.08.2019
3978 Rain 20 1006 77 10000 9.8 260 18:18 08.08.2019
3979 Rain 20 1007 77 0 13.9 280 17:42 08.08.2019
3980 Rain 20 1006 72 10000 6.7 240 17:23 08.08.2019
3981 Rain 20 1007 82 0 13.4 270 16:57 08.08.2019
3982 Clouds 20 1005 68 10000 10.3 250 16:39 08.08.2019
3983 Rain 20 1006 77 10000 6.2 260 16:20 08.08.2019
3984 Rain 20 1006 77 0 10.8 260 15:57 08.08.2019
3985 Rain 20 1006 82 10000 5.7 250 15:37 08.08.2019
3986 Clouds 21 1005 68 10000 8.2 240 15:19 08.08.2019
3987 Clouds 20 1005 72 10000 4.6 230 14:38 08.08.2019
3988 Rain 20 1005 72 10000 5.1 230 14:19 08.08.2019
3989 Thunderstorm 20 1005 77 10000 4.1 220 13:42 08.08.2019
3990 Thunderstorm 20 1005 82 10000 4.6 240 13:23 08.08.2019
3991 Thunderstorm 19 1005 88 10000 8.2 270 12:58 08.08.2019
3992 Thunderstorm 19 1005 82 6000 10.8 270 12:38 08.08.2019
3993 Thunderstorm 19 1005 82 6000 10.8 270 12:18 08.08.2019
3994 Thunderstorm 19 1005 64 10000 9.3 230 11:43 08.08.2019
3995 Drizzle 18 1005 77 10000 5.7 200 11:24 08.08.2019
3996 Rain 18 1005 82 10000 5.1 220 10:56 08.08.2019
3997 Rain 18 1005 77 10000 4.1 200 10:37 08.08.2019
3998 Rain 18 1005 82 10000 3.6 190 10:19 08.08.2019
3999 Clouds 17 1005 93 10000 5.7 200 09:40 08.08.2019
4000 Thunderstorm 17 1004 93 10000 3.6 180 09:20 08.08.2019
4001 Thunderstorm 16 1005 87 10000 5.1 180 08:42 08.08.2019
4002 Thunderstorm 16 1005 87 10000 3.6 200 08:22 08.08.2019
4003 Thunderstorm 15 1005 93 10000 5.1 200 07:58 08.08.2019
4004 Thunderstorm 15 1005 87 10000 2.6 180 07:39 08.08.2019
4005 Thunderstorm 15 1004 93 10000 4.1 170 07:18 08.08.2019
4006 Rain 15 1004 93 0 6.7 200 06:44 08.08.2019
4007 Rain 15 1005 93 0 6.7 190 05:58 08.08.2019
4008 Rain 15 1005 93 0 6.7 190 05:40 08.08.2019
4009 Clear 15 1005 87 0 3.1 200 04:21 08.08.2019
4010 Clear 15 1005 87 0 6.2 210 03:47 08.08.2019
4011 Clouds 14 1005 87 0 4.6 220 01:59 08.08.2019
4012 Clouds 15 1005 93 0 2.1 210 01:20 08.08.2019
4013 Rain 15 1005 93 10000 3.6 230 00:25 08.08.2019
4014 Rain 15 1005 82 0 2.6 240 23:42 07.08.2019
4015 Drizzle 16 1005 82 0 2.6 230 23:19 07.08.2019
4016 Drizzle 16 1005 87 0 4.1 240 22:55 07.08.2019
4017 Drizzle 16 1005 82 0 2.1 220 22:36 07.08.2019
4018 Rain 17 1005 77 0 3.1 240 22:18 07.08.2019
4019 Rain 17 1005 77 0 4.6 260 21:54 07.08.2019
4020 Rain 17 1004 77 0 2.6 250 21:36 07.08.2019
4021 Clouds 18 1004 77 0 2.6 260 21:18 07.08.2019
4022 Clouds 19 1004 72 0 7.7 260 20:41 07.08.2019
4023 Clouds 19 1004 72 0 7.7 260 20:41 07.08.2019
4024 Clouds 19 1004 64 0 4.6 260 20:23 07.08.2019
4025 Clouds 20 1004 68 0 7.7 260 19:56 07.08.2019
4026 Clouds 20 1004 64 0 5.1 250 19:38 07.08.2019
4027 Clouds 20 1004 60 0 4.6 270 19:20 07.08.2019
4028 Clouds 21 1004 68 0 9.3 260 18:42 07.08.2019
4029 Clouds 21 1003 60 10000 6.2 250 18:20 07.08.2019
4030 Rain 21 1003 64 0 9.8 260 17:58 07.08.2019
4031 Clouds 22 1003 60 10000 5.7 240 17:39 07.08.2019
4032 Clouds 22 1003 60 10000 6.2 250 17:21 07.08.2019
4033 Rain 22 1003 68 0 8.7 260 16:57 07.08.2019
4034 Rain 22 1003 68 0 8.7 260 16:57 07.08.2019
4035 Clouds 21 1003 64 10000 4.6 250 16:39 07.08.2019
4036 Clouds 22 1003 68 10000 2.6 310 16:20 07.08.2019
4037 Clouds 22 1003 68 10000 2.6 310 16:20 07.08.2019
4038 Rain 21 1003 77 0 5.7 250 15:56 07.08.2019
4039 Rain 21 1003 64 10000 3.1 230 15:37 07.08.2019
4040 Thunderstorm 20 1003 77 10000 4.6 220 15:19 07.08.2019
4041 Thunderstorm 20 1003 77 0 8.7 280 14:45 07.08.2019
4042 Thunderstorm 20 1003 72 10000 5.1 170 14:27 07.08.2019
4043 Thunderstorm 20 1003 73 0 5.1 210 13:54 07.08.2019
4044 Thunderstorm 20 1003 72 10000 5.1 170 13:36 07.08.2019
4045 Clouds 20 1004 77 10000 3.6 180 13:18 07.08.2019
4046 Rain 19 1003 88 0 5.1 190 12:55 07.08.2019
4047 Clouds 19 1004 93 8000 3.6 180 12:36 07.08.2019
4048 Clouds 19 1004 93 8000 3.6 180 12:18 07.08.2019
4049 Clouds 19 1004 68 10000 3.6 170 11:41 07.08.2019
4050 Clouds 20 1004 60 10000 3.6 160 11:20 07.08.2019
4051 Rain 20 1004 68 0 4.6 190 10:56 07.08.2019
4052 Clouds 19 1004 68 10000 3.1 170 10:38 07.08.2019
4053 Clear 19 1004 64 10000 4.6 160 10:18 07.08.2019
4054 Rain 18 1004 72 0 5.1 180 09:44 07.08.2019
4055 Clear 17 1004 63 10000 3.1 150 09:22 07.08.2019
4056 Clouds 17 1004 72 0 5.1 170 08:56 07.08.2019
4057 Clouds 16 1005 77 10000 2.6 150 08:38 07.08.2019
4058 Clear 16 1004 68 10000 3.6 160 08:20 07.08.2019
4059 Clouds 15 1005 87 10000 2.1 150 07:39 07.08.2019
4060 Clouds 14 1004 100 10000 2.6 170 07:20 07.08.2019
4061 Clear 13 1005 93 10000 2.6 170 06:31 07.08.2019
4062 Clouds 13 1005 87 10000 6.2 190 05:54 07.08.2019
4063 Clear 13 1005 87 10000 5.1 180 04:57 07.08.2019
4064 Clouds 14 1006 93 0 2.1 190 03:21 07.08.2019
4065 Clouds 14 1006 87 10000 4.6 210 02:50 07.08.2019
4066 Clouds 14 1006 93 0 2.1 190 02:20 07.08.2019
4067 Clouds 14 1006 93 0 2.1 200 01:39 07.08.2019
4068 Clouds 15 1007 87 10000 3.6 210 00:51 07.08.2019
4069 Clouds 15 1007 87 0 1.5 180 00:22 07.08.2019
4070 Clouds 15 1007 93 10000 3.6 220 23:44 06.08.2019
4071 Clouds 16 1007 82 0 2.6 230 23:22 06.08.2019
4072 Clouds 16 1007 87 10000 4.6 250 22:59 06.08.2019
4073 Clouds 17 1006 82 0 2.1 230 22:38 06.08.2019
4074 Clouds 17 1006 77 0 2.1 230 22:20 06.08.2019
4075 Clouds 18 1007 77 10000 4.6 260 21:44 06.08.2019
4076 Rain 19 1006 72 0 2.6 260 21:26 06.08.2019
4077 Clouds 19 1006 72 10000 7.2 280 20:59 06.08.2019
4078 Clouds 19 1006 72 10000 7.2 280 20:41 06.08.2019
4079 Clouds 20 1006 68 10000 5.7 250 20:23 06.08.2019
4080 Clouds 20 1006 68 10000 6.7 280 19:48 06.08.2019
4081 Clouds 21 1006 49 0 4.6 250 19:29 06.08.2019
4082 Rain 21 1006 60 10000 8.7 280 18:57 06.08.2019
4083 Rain 21 1006 72 10000 2.6 240 18:38 06.08.2019
4084 Rain 21 1006 72 10000 2.6 240 18:19 06.08.2019
4085 Rain 21 1006 73 10000 6.2 250 17:56 06.08.2019
4086 Rain 22 1007 56 10000 4.6 250 17:37 06.08.2019
4087 Clouds 22 1006 53 10000 4.1 210 17:18 06.08.2019
4088 Clouds 23 1006 60 10000 3.6 310 16:42 06.08.2019
4089 Clouds 23 1006 46 10000 5.7 240 16:24 06.08.2019
4090 Clouds 23 1007 53 10000 8.2 260 15:58 06.08.2019
4091 Clouds 23 1006 43 10000 5.7 230 15:39 06.08.2019
4092 Clouds 24 1006 44 10000 4.1 230 15:21 06.08.2019
4093 Clouds 24 1007 49 10000 7.2 260 14:46 06.08.2019
4094 Clouds 24 1007 47 10000 4.6 230 14:27 06.08.2019
4095 Clouds 23 1007 53 10000 6.2 260 13:59 06.08.2019
4096 Clouds 23 1007 53 10000 6.2 260 13:41 06.08.2019
4097 Clouds 23 1007 49 10000 4.1 230 13:23 06.08.2019
4098 Clouds 22 1007 56 10000 5.7 240 12:59 06.08.2019
4099 Clouds 22 1007 49 10000 3.6 250 12:39 06.08.2019
4100 Clouds 22 1007 56 10000 4.6 250 12:21 06.08.2019
4101 Clouds 22 1007 56 10000 4.6 250 12:21 06.08.2019
4102 Clouds 22 1007 56 10000 5.7 270 11:45 06.08.2019
4103 Clouds 22 1007 56 10000 3.6 0 11:20 06.08.2019
4104 Clouds 21 1007 68 10000 5.7 280 10:58 06.08.2019
4105 Clouds 20 1007 68 10000 5.7 280 10:39 06.08.2019
4106 Clouds 21 1007 68 10000 5.7 240 10:39 06.08.2019
4107 Clouds 20 1007 68 10000 4.1 260 10:21 06.08.2019
4108 Clouds 19 1007 77 10000 5.7 270 09:41 06.08.2019
4109 Clouds 19 1006 82 10000 3.6 260 09:21 06.08.2019
4110 Clouds 19 1006 82 10000 3.6 260 09:21 06.08.2019
4111 Clouds 19 1007 88 9000 6.2 270 08:51 06.08.2019
4112 Clouds 18 1006 88 10000 2.6 230 08:28 06.08.2019
4113 Clouds 17 1006 88 8000 5.1 250 07:59 06.08.2019
4114 Clouds 17 1006 88 10000 2.1 220 07:29 06.08.2019
4115 Rain 16 1006 93 0 1 0 06:44 06.08.2019
4116 Rain 17 1006 88 0 1 220 06:22 06.08.2019
4117 Rain 17 1006 93 0 2.6 230 05:23 06.08.2019
4118 Rain 17 1007 88 0 4.1 230 02:48 06.08.2019
4119 Rain 18 1007 88 0 2.6 190 01:25 06.08.2019
4120 Clouds 18 1007 82 0 4.6 220 00:51 06.08.2019
4121 Clouds 18 1007 88 0 4.1 180 00:00 06.08.2019
4122 Clouds 18 1008 88 0 2.6 150 23:20 05.08.2019
4123 Clouds 18 1008 88 0 3.6 160 22:57 05.08.2019
4124 Clouds 18 1008 93 0 3.1 160 22:38 05.08.2019
4125 Rain 19 1008 82 0 2.1 160 22:20 05.08.2019
4126 Clouds 19 1008 88 0 2.1 170 21:42 05.08.2019
4127 Clouds 19 1008 77 0 2.1 160 21:21 05.08.2019
4128 Clouds 20 1008 82 0 2.1 160 20:57 05.08.2019
4129 Clouds 20 1008 72 0 2.1 160 20:39 05.08.2019
4130 Clouds 20 1008 72 0 2.1 160 20:39 05.08.2019
4131 Clouds 20 1008 72 0 2.6 150 20:21 05.08.2019
4132 Clouds 20 1008 72 0 2.1 140 19:57 05.08.2019
4133 Clouds 20 1008 72 0 2.1 160 19:38 05.08.2019
4134 Clouds 20 1008 72 0 1.5 140 19:19 05.08.2019
4135 Clouds 20 1008 77 10000 2.6 150 18:41 05.08.2019
4136 Rain 20 1008 82 10000 2.6 130 18:20 05.08.2019
4137 Rain 20 1008 82 10000 2.6 130 18:20 05.08.2019
4138 Rain 19 1008 82 10000 3.1 140 17:50 05.08.2019
4139 Rain 20 1009 77 10000 2.6 150 17:30 05.08.2019
4140 Rain 20 1009 77 10000 3.6 160 16:59 05.08.2019
4141 Rain 20 1009 77 10000 3.6 160 16:41 05.08.2019
4142 Rain 20 1009 77 10000 3.1 150 16:23 05.08.2019
4143 Rain 20 1009 72 10000 3.6 140 15:43 05.08.2019
4144 Rain 21 1010 68 10000 4.1 150 15:20 05.08.2019
4145 Rain 21 1010 72 10000 3.6 110 14:42 05.08.2019
4146 Rain 21 1010 72 10000 3.6 110 14:42 05.08.2019
4147 Rain 21 1010 72 10000 3.6 110 14:42 05.08.2019
4148 Rain 21 1010 56 10000 3.1 160 14:23 05.08.2019
4149 Rain 22 1010 64 10000 4.1 90 13:57 05.08.2019
4150 Clouds 22 1010 53 10000 2.6 180 13:38 05.08.2019
4151 Clouds 22 1010 56 10000 2.6 150 13:18 05.08.2019
4152 Clouds 22 1010 60 10000 3.6 120 12:42 05.08.2019
4153 Clouds 22 1010 60 10000 5.1 100 12:19 05.08.2019
4154 Clouds 21 1010 56 10000 2.1 150 11:43 05.08.2019
4155 Clouds 21 1010 56 10000 2.1 150 11:43 05.08.2019
4156 Clouds 21 1010 60 10000 3.6 150 11:25 05.08.2019
4157 Clouds 20 1010 68 10000 2.6 140 10:48 05.08.2019
4158 Clouds 19 1011 64 10000 3.1 150 10:30 05.08.2019
4159 Clouds 19 1011 68 10000 1.5 150 09:57 05.08.2019
4160 Clouds 18 1011 68 10000 3.1 150 09:37 05.08.2019
4161 Clouds 17 1011 72 10000 2.1 160 09:19 05.08.2019
4162 Clouds 16 1011 87 10000 2.1 150 08:44 05.08.2019
4163 Clouds 15 1011 82 10000 1 210 08:24 05.08.2019
4164 Clouds 15 1012 93 10000 2.6 180 07:48 05.08.2019
4165 Mist 14 1012 87 0 1.5 150 07:28 05.08.2019
4166 Mist 13 1012 93 10000 3.6 190 06:57 05.08.2019
4167 Fog 13 1012 93 10000 3.1 190 06:24 05.08.2019
4168 Clouds 12 1012 93 0 2.1 210 05:31 05.08.2019
4169 Clouds 12 1012 93 9000 1.5 210 04:51 05.08.2019
4170 Clouds 12 1013 100 10000 2.6 210 03:50 05.08.2019
4171 Clouds 13 1013 93 10000 2.1 220 02:47 05.08.2019
4172 Clouds 13 1013 100 10000 1.5 260 01:58 05.08.2019
4173 Clouds 13 1013 82 0 2.1 230 01:25 05.08.2019
4174 Clear 14 1013 87 10000 0.5 200 00:40 05.08.2019
4175 Clear 14 1013 87 10000 0.5 200 00:20 05.08.2019
4176 Clear 14 1013 87 10000 0.5 200 00:20 05.08.2019
4177 Clouds 14 1013 93 10000 2.6 260 23:43 04.08.2019
4178 Clouds 15 1013 67 0 1.5 250 23:23 04.08.2019
4179 Clouds 16 1014 72 10000 3.1 310 22:57 04.08.2019
4180 Clouds 16 1014 63 0 2.1 300 22:38 04.08.2019
4181 Clouds 17 1014 63 0 3.1 310 22:20 04.08.2019
4182 Clouds 17 1014 72 10000 3.6 310 21:58 04.08.2019
4183 Clouds 18 1014 72 10000 3.6 310 21:40 04.08.2019
4184 Clouds 18 1014 63 0 2.1 290 21:19 04.08.2019
4185 Clouds 18 1014 72 10000 5.1 320 20:42 04.08.2019
4186 Clouds 19 1013 63 10000 4.1 310 20:19 04.08.2019
4187 Clouds 19 1014 68 10000 6.7 310 19:55 04.08.2019
4188 Clouds 19 1014 72 10000 2.6 270 19:36 04.08.2019
4189 Clouds 19 1013 60 10000 4.6 280 19:18 04.08.2019
4190 Clouds 20 1014 72 0 8.2 300 18:41 04.08.2019
4191 Clouds 20 1013 56 10000 4.6 260 18:20 04.08.2019
4192 Clouds 21 1014 60 0 8.7 280 17:44 04.08.2019
4193 Clouds 20 1014 64 0 6.7 290 17:24 04.08.2019
4194 Clouds 20 1014 64 0 6.7 290 16:55 04.08.2019
4195 Clouds 20 1015 64 10000 5.1 250 16:36 04.08.2019
4196 Clouds 21 1014 52 10000 4.1 280 16:18 04.08.2019
4197 Clouds 20 1014 68 0 6.7 290 15:39 04.08.2019
4198 Clouds 20 1014 52 10000 4.1 300 15:20 04.08.2019
4199 Clouds 20 1015 64 0 6.2 300 14:44 04.08.2019
4200 Clouds 21 1015 52 0 4.1 270 14:26 04.08.2019
4201 Clouds 20 1015 64 0 6.2 310 13:47 04.08.2019
4202 Clouds 20 1015 56 0 3.6 250 13:27 04.08.2019
4203 Clouds 20 1015 56 0 3.6 250 13:27 04.08.2019
4204 Clouds 20 1015 59 0 4.6 260 12:58 04.08.2019
4205 Clouds 20 1015 59 0 4.6 260 12:40 04.08.2019
4206 Clouds 20 1015 60 0 3.6 280 12:22 04.08.2019
4207 Clouds 19 1015 68 0 6.2 290 11:49 04.08.2019
4208 Clouds 19 1015 63 0 3.1 260 11:23 04.08.2019
4209 Clouds 19 1015 77 0 5.1 280 10:52 04.08.2019
4210 Clouds 19 1015 72 0 2.6 250 10:24 04.08.2019
4211 Clouds 18 1015 77 0 4.1 260 09:55 04.08.2019
4212 Clouds 17 1015 77 0 2.6 250 09:37 04.08.2019
4213 Clouds 17 1015 82 0 2.6 250 09:18 04.08.2019
4214 Clouds 16 1016 87 10000 1.5 0 08:38 04.08.2019
4215 Clouds 15 1015 82 0 3.1 240 08:20 04.08.2019
4216 Clouds 15 1015 87 0 4.1 230 07:45 04.08.2019
4217 Clouds 14 1015 100 0 3.6 240 06:47 04.08.2019
4218 Clouds 13 1015 93 0 2.6 220 06:24 04.08.2019
4219 Clouds 13 1015 93 0 2.6 220 06:24 04.08.2019
4220 Clouds 13 1015 93 0 1.5 280 03:44 04.08.2019
4221 Clear 13 1015 82 0 2.1 280 02:22 04.08.2019
4222 Clouds 14 1015 77 0 2.6 280 01:33 04.08.2019
4223 Clouds 14 1015 77 0 2.1 280 00:44 04.08.2019
4224 Clouds 14 1015 82 0 3.1 310 00:26 04.08.2019
4225 Clouds 15 1016 82 0 5.7 300 23:57 03.08.2019
4226 Clouds 15 1015 82 0 3.1 290 23:39 03.08.2019
4227 Clouds 15 1015 82 0 3.1 280 23:18 03.08.2019
4228 Clouds 16 1016 82 0 6.2 290 22:43 03.08.2019
4229 Clouds 17 1015 77 0 3.6 270 22:20 03.08.2019
4230 Clouds 17 1015 77 0 6.7 310 21:40 03.08.2019
4231 Rain 18 1014 68 0 3.1 280 21:22 03.08.2019
4232 Rain 19 1015 77 0 7.2 300 20:47 03.08.2019
4233 Rain 20 1014 60 0 3.1 290 20:27 03.08.2019
4234 Rain 20 1014 68 0 7.2 310 19:59 03.08.2019
4235 Rain 21 1014 68 0 7.2 310 19:41 03.08.2019
4236 Rain 21 1014 73 0 2.6 310 19:22 03.08.2019
4237 Rain 22 1014 73 10000 8.2 320 18:46 03.08.2019
4238 Clear 22 1014 64 0 3.6 310 18:26 03.08.2019
4239 Rain 23 1014 60 0 2.6 350 17:48 03.08.2019
4240 Clouds 23 1014 50 10000 2.6 180 17:21 03.08.2019
4241 Clouds 23 1014 68 10000 7.2 280 16:55 03.08.2019
4242 Clouds 24 1014 53 10000 3.1 60 16:37 03.08.2019
4243 Clouds 24 1014 50 10000 3.1 180 16:18 03.08.2019
4244 Clouds 24 1015 57 10000 2.6 290 15:43 03.08.2019
4245 Clouds 24 1014 44 10000 1 0 15:21 03.08.2019
4246 Clear 23 1015 60 10000 3.6 50 14:39 03.08.2019
4247 Clouds 23 1015 53 10000 1.5 70 14:21 03.08.2019
4248 Clouds 23 1015 60 10000 1 350 13:51 03.08.2019
4249 Clouds 23 1015 53 10000 3.6 110 13:25 03.08.2019
4250 Clouds 23 1015 60 10000 1 20 12:57 03.08.2019
4251 Clouds 22 1015 60 10000 1 0 12:39 03.08.2019
4252 Clouds 22 1015 53 10000 2.1 140 12:21 03.08.2019
4253 Clouds 22 1015 73 10000 1.5 20 11:48 03.08.2019
4254 Clouds 21 1015 68 10000 2.1 70 11:26 03.08.2019
4255 Clouds 21 1015 73 10000 1.5 10 10:42 03.08.2019
4256 Clouds 20 1015 77 10000 1.5 60 10:22 03.08.2019
4257 Mist 19 1015 77 10000 1 40 09:42 03.08.2019
4258 Mist 18 1015 100 5000 0.5 300 09:21 03.08.2019
4259 Fog 17 1015 100 7000 1.21 310.055 08:52 03.08.2019
4260 Mist 14 1014 100 5000 1 270 07:55 03.08.2019
4261 Mist 13 1014 100 2000 0.5 250 07:32 03.08.2019
4262 Fog 13 1014 93 0 0.5 120 06:36 03.08.2019
4263 Fog 13 1014 93 0 0.68 285.551 04:41 03.08.2019
4264 Mist 14 1014 100 0 1.5 140 02:39 03.08.2019
4265 Clear 15 1014 93 0 1 260 01:50 03.08.2019
4266 Clear 15 1014 100 0 1.5 290 00:49 03.08.2019
4267 Rain 16 1015 100 0 1 200 23:59 02.08.2019
4268 Fog 16 1014 93 0 1.5 210 23:40 02.08.2019
4269 Fog 16 1014 93 0 1.5 220 23:19 02.08.2019
4270 Fog 16 1015 93 0 1.5 0 22:57 02.08.2019
4271 Fog 17 1014 88 0 1.5 200 22:38 02.08.2019
4272 Rain 17 1014 88 0 1 210 22:19 02.08.2019
4273 Rain 18 1014 93 0 1.47 137.49 21:43 02.08.2019
4274 Rain 19 1014 77 0 0.5 140 21:25 02.08.2019
4275 Rain 19 1014 77 0 0.5 140 21:25 02.08.2019
4276 Rain 19 1014 77 0 0.5 0 20:59 02.08.2019
4277 Rain 20 1014 72 0 1 0 20:41 02.08.2019
4278 Clouds 20 1014 72 10000 1.5 230 20:20 02.08.2019
4279 Rain 20 1014 72 0 1.5 290 19:48 02.08.2019
4280 Rain 20 1014 64 0 2.1 170 19:28 02.08.2019
4281 Rain 20 1014 68 0 1.5 220 18:45 02.08.2019
4282 Thunderstorm 19 1014 73 10000 3.1 160 18:26 02.08.2019
4283 Thunderstorm 20 1015 77 0 1.5 110 17:48 02.08.2019
4284 Thunderstorm 21 1015 73 10000 1.5 210 17:25 02.08.2019
4285 Thunderstorm 21 1015 77 0 2.1 100 16:59 02.08.2019
4286 Thunderstorm 20 1015 77 10000 3.1 40 16:38 02.08.2019
4287 Thunderstorm 21 1015 68 10000 2.46 95.766 16:19 02.08.2019
4288 Rain 21 1015 73 0 2.1 80 15:40 02.08.2019
4289 Rain 20 1015 73 10000 3.6 120 15:20 02.08.2019
4290 Rain 20 1015 77 0 3.6 110 14:47 02.08.2019
4291 Rain 21 1015 73 10000 2.6 80 14:19 02.08.2019
4292 Rain 21 1015 82 0 3.1 120 13:50 02.08.2019
4293 Clouds 20 1015 68 10000 2.6 110 13:29 02.08.2019
4294 Rain 20 1015 88 0 3.1 100 12:47 02.08.2019
4295 Rain 20 1015 82 10000 4.1 70 12:24 02.08.2019
4296 Rain 20 1015 93 7000 1.5 110 11:59 02.08.2019
4297 Rain 19 1015 82 10000 3.6 80 11:40 02.08.2019
4298 Rain 19 1015 77 10000 4.6 90 11:22 02.08.2019
4299 Rain 19 1015 100 6000 2.6 120 10:44 02.08.2019
4300 Rain 19 1015 82 10000 3.1 100 10:24 02.08.2019
4301 Rain 19 1015 93 6000 2.6 130 09:53 02.08.2019
4302 Rain 18 1015 88 10000 3.6 110 09:29 02.08.2019
4303 Rain 18 1015 100 6000 1.5 110 08:54 02.08.2019
4304 Rain 17 1015 88 10000 3.1 110 08:25 02.08.2019
4305 Rain 17 1015 93 6000 1.5 80 07:59 02.08.2019
4306 Clouds 17 1015 88 10000 4.1 90 07:39 02.08.2019
4307 Clouds 17 1015 88 10000 3.6 90 07:21 02.08.2019
4308 Fog 16 1015 93 0 3.6 70 06:27 02.08.2019
4309 Rain 16 1015 93 0 2.6 80 05:42 02.08.2019
4310 Clouds 16 1016 93 10000 1 70 03:33 02.08.2019
4311 Clouds 17 1015 93 0 2.6 70 02:37 02.08.2019
4312 Clouds 17 1016 93 0 2.1 60 01:34 02.08.2019
4313 Clouds 17 1016 88 0 1.5 150 00:31 02.08.2019
4314 Rain 18 1016 100 0 3.6 140 23:44 01.08.2019
4315 Rain 18 1016 88 0 2.6 110 23:25 01.08.2019
4316 Rain 18 1016 88 0 1 340 22:44 01.08.2019
4317 Rain 18 1016 88 0 4.1 90 22:25 01.08.2019
4318 Rain 19 1016 88 0 1.5 120 21:57 01.08.2019
4319 Rain 19 1016 88 0 4.6 90 21:38 01.08.2019
4320 Rain 20 1016 82 0 4.6 80 21:20 01.08.2019
4321 Rain 21 1015 72 0 2.6 100 20:46 01.08.2019
4322 Rain 21 1015 72 0 2.6 100 20:46 01.08.2019
4323 Rain 21 1015 77 0 3.6 20 20:23 01.08.2019
4324 Rain 21 1015 64 0 2.1 50 19:54 01.08.2019
4325 Rain 21 1015 68 0 4.1 20 19:36 01.08.2019
4326 Rain 22 1015 68 0 3.6 20 19:18 01.08.2019
4327 Clouds 22 1015 68 10000 2.6 40 18:42 01.08.2019
4328 Clouds 22 1015 68 10000 3.1 40 18:23 01.08.2019
4329 Rain 23 1015 60 10000 1.5 70 17:47 01.08.2019
4330 Rain 22 1015 64 10000 1.5 50 17:27 01.08.2019
4331 Clouds 23 1015 60 10000 2.6 40 16:45 01.08.2019
4332 Clouds 23 1015 60 10000 2.6 40 16:45 01.08.2019
4333 Clouds 23 1016 64 10000 1.5 30 16:23 01.08.2019
4334 Clouds 22 1016 68 10000 1.5 40 15:46 01.08.2019
4335 Clouds 22 1016 68 10000 1.5 330 15:22 01.08.2019
4336 Rain 22 1016 72 10000 1 350 14:59 01.08.2019
4337 Rain 22 1016 72 10000 1 350 14:41 01.08.2019
4338 Rain 22 1016 77 10000 3.1 280 14:19 01.08.2019
4339 Rain 21 1016 77 10000 2.6 280 13:56 01.08.2019
4340 Rain 21 1016 72 10000 1.5 290 13:38 01.08.2019
4341 Clouds 21 1016 73 10000 2.1 60 13:20 01.08.2019
4342 Rain 21 1016 72 7000 2.6 300 12:42 01.08.2019
4343 Rain 21 1016 72 7000 2.6 300 12:23 01.08.2019
4344 Clouds 21 1016 72 10000 0.5 310 11:43 01.08.2019
4345 Clouds 20 1016 82 10000 1 260 11:24 01.08.2019
4346 Rain 20 1016 82 8000 0.5 20 10:46 01.08.2019
4347 Clouds 19 1016 88 8000 1 190 10:28 01.08.2019
4348 Clouds 19 1016 88 6000 0.5 290 09:59 01.08.2019
4349 Clouds 18 1016 88 6000 0.5 290 09:41 01.08.2019
4350 Clouds 18 1016 88 8000 0.5 0 09:23 01.08.2019
4351 Clouds 18 1016 88 8000 0.5 0 09:23 01.08.2019
4352 Clouds 17 1016 100 6000 1 0 08:46 01.08.2019
4353 Mist 16 1016 100 6000 2.1 160 08:20 01.08.2019
4354 Mist 15 1016 100 6000 1 0 07:50 01.08.2019
4355 Fog 15 1016 100 0 1.5 130 07:26 01.08.2019
4356 Mist 14 1015 93 0 0.5 280 06:49 01.08.2019
4357 Mist 14 1015 100 0 0.5 110 06:27 01.08.2019
4358 Fog 15 1015 100 0 3.1 210 04:53 01.08.2019
4359 Mist 15 1015 93 0 1 230 02:35 01.08.2019
4360 Mist 15 1015 100 0 1.5 200 00:49 01.08.2019
4361 Clouds 15 1015 93 0 2.1 240 00:25 01.08.2019
4362 Clouds 16 1015 100 0 1 270 23:44 31.07.2019
4363 Clouds 16 1015 88 0 1.5 120 23:21 31.07.2019
4364 Clouds 16 1015 100 0 1 330 22:59 31.07.2019
4365 Clouds 16 1015 100 0 1 330 22:41 31.07.2019
4366 Clouds 16 1016 93 10000 3.6 250 22:23 31.07.2019
4367 Clouds 17 1015 88 0 2.6 90 21:39 31.07.2019
4368 Rain 16 1015 93 0 3.1 120 21:20 31.07.2019
4369 Rain 17 1014 93 0 4.1 140 20:48 31.07.2019
4370 Rain 17 1015 82 0 3.1 100 20:22 31.07.2019
4371 Rain 17 1014 93 0 2.1 130 19:48 31.07.2019
4372 Rain 17 1014 82 0 4.6 80 19:28 31.07.2019
4373 Rain 18 1013 100 8000 2.1 190 18:55 31.07.2019
4374 Rain 18 1014 82 10000 2.1 140 18:37 31.07.2019
4375 Rain 18 1014 82 10000 2.1 140 18:18 31.07.2019
4376 Rain 18 1014 100 6000 5.1 180 17:43 31.07.2019
4377 Thunderstorm 19 1014 82 7000 3.1 160 17:20 31.07.2019
4378 Thunderstorm 19 1014 82 7000 3.1 160 17:20 31.07.2019
4379 Thunderstorm 20 1014 100 5000 4.6 100 16:47 31.07.2019
4380 Thunderstorm 20 1014 93 2500 6.2 130 16:20 31.07.2019
4381 Thunderstorm 21 1014 93 500 3.1 220 15:54 31.07.2019
4382 Thunderstorm 22 1014 83 10000 6.7 130 15:36 31.07.2019
4383 Thunderstorm 22 1014 72 2000 7.7 300 15:18 31.07.2019
4384 Thunderstorm 22 1013 73 10000 5.7 140 14:42 31.07.2019
4385 Thunderstorm 23 1013 77 10000 3.1 100 14:19 31.07.2019
4386 Clouds 23 1014 73 10000 3.1 160 13:45 31.07.2019
4387 Clouds 22 1014 78 10000 4.6 120 13:27 31.07.2019
4388 Clouds 22 1013 83 10000 2.6 140 12:58 31.07.2019
4389 Clouds 22 1014 82 10000 2.6 110 12:40 31.07.2019
4390 Clouds 22 1013 73 10000 4.6 120 12:21 31.07.2019
4391 Clouds 21 1013 83 10000 3.6 140 11:39 31.07.2019
4392 Clouds 21 1013 82 10000 2.6 110 11:20 31.07.2019
4393 Rain 20 1013 82 8000 3.1 150 10:45 31.07.2019
4394 Rain 19 1013 93 6000 2.1 130 10:21 31.07.2019
4395 Rain 19 1013 100 7000 4.6 160 09:59 31.07.2019
4396 Rain 18 1013 100 7000 4.6 160 09:41 31.07.2019
4397 Rain 18 1013 93 8000 4.1 150 09:23 31.07.2019
4398 Rain 17 1013 93 5000 5.7 150 08:43 31.07.2019
4399 Rain 17 1013 93 8000 3.1 170 08:23 31.07.2019
4400 Rain 16 1013 100 5000 3.6 150 07:42 31.07.2019
4401 Rain 16 1012 100 6000 1 110 07:22 31.07.2019
4402 Mist 16 1013 93 0 2.6 180 05:20 31.07.2019
4403 Fog 15 1012 93 0 3.6 130 03:55 31.07.2019
4404 Fog 15 1012 93 0 0.5 170 00:37 31.07.2019
4405 Fog 16 1012 93 0 2.1 80 23:47 30.07.2019
4406 Fog 16 1012 93 0 2.1 80 23:47 30.07.2019
4407 Fog 16 1012 93 0 2.1 140 23:25 30.07.2019
4408 Fog 16 1012 100 0 1 340 22:49 30.07.2019
4409 Clear 17 1011 88 0 1 320 22:26 30.07.2019
4410 Clear 17 1011 88 0 1 320 22:26 30.07.2019
4411 Clear 17 1011 93 0 0.5 40 21:59 30.07.2019
4412 Clear 19 1011 93 0 1.5 250 21:37 30.07.2019
4413 Clouds 20 1011 93 0 1.5 250 21:19 30.07.2019
4414 Clouds 20 1011 77 0 1 30 20:55 30.07.2019
4415 Clouds 21 1011 93 0 2.1 310 20:36 30.07.2019
4416 Clouds 21 1011 93 0 2.1 310 20:18 30.07.2019
4417 Rain 21 1011 77 0 1 40 19:42 30.07.2019
4418 Rain 21 1011 88 0 2.6 260 19:24 30.07.2019
4419 Rain 21 1011 82 0 3.1 360 18:45 30.07.2019
4420 Rain 22 1011 77 10000 4.6 250 18:21 30.07.2019
4421 Rain 22 1012 82 4500 5.1 250 17:43 30.07.2019
4422 Rain 22 1011 60 10000 6.2 250 17:20 30.07.2019
4423 Clouds 23 1011 88 0 5.1 310 16:55 30.07.2019
4424 Clouds 22 1011 53 10000 2.6 310 16:37 30.07.2019
4425 Clouds 22 1011 53 10000 3.1 330 16:18 30.07.2019
4426 Clouds 22 1011 60 10000 3.1 280 15:39 30.07.2019
4427 Clouds 22 1011 60 10000 3.1 280 15:39 30.07.2019
4428 Clouds 22 1011 53 10000 4.1 330 15:19 30.07.2019
4429 Clouds 22 1011 57 0 4.6 310 14:43 30.07.2019
4430 Clouds 22 1011 57 0 4.6 310 14:43 30.07.2019
4431 Clouds 21 1011 53 10000 4.6 320 14:22 30.07.2019
4432 Clouds 21 1012 64 0 3.6 300 13:55 30.07.2019
4433 Rain 21 1011 56 10000 5.1 330 13:36 30.07.2019
4434 Rain 20 1011 60 10000 5.1 330 13:18 30.07.2019
4435 Rain 20 1011 56 10000 4.1 310 12:43 30.07.2019
4436 Rain 20 1011 64 10000 4.6 310 12:24 30.07.2019
4437 Rain 20 1011 64 10000 4.6 310 12:24 30.07.2019
4438 Rain 20 1011 64 0 6.2 310 11:46 30.07.2019
4439 Rain 19 1011 64 10000 4.6 320 11:23 30.07.2019
4440 Rain 19 1011 82 0 4.6 310 10:56 30.07.2019
4441 Clear 19 1011 82 10000 3.1 290 10:38 30.07.2019
4442 Clouds 19 1011 77 10000 4.1 320 10:20 30.07.2019
4443 Rain 18 1011 82 0 3.1 320 09:46 30.07.2019
4444 Clouds 18 1011 72 10000 3.6 310 09:28 30.07.2019
4445 Rain 17 1011 77 0 3.1 320 08:41 30.07.2019
4446 Clouds 17 1011 82 10000 3.1 280 08:19 30.07.2019
4447 Rain 17 1011 77 0 2.6 310 07:43 30.07.2019
4448 Rain 17 1011 77 0 2.6 310 07:43 30.07.2019
4449 Rain 17 1011 82 10000 3.6 320 07:23 30.07.2019
4450 Rain 17 1011 77 10000 4.6 300 06:44 30.07.2019
4451 Rain 17 1010 88 0 5.1 330 05:36 30.07.2019
4452 Rain 17 1010 82 0 5.1 310 04:42 30.07.2019
4453 Rain 18 1010 93 0 5.1 320 01:23 30.07.2019
4454 Rain 18 1011 93 0 3.1 300 00:28 30.07.2019
4455 Rain 19 1011 82 10000 5.7 300 23:59 29.07.2019
4456 Rain 19 1011 93 0 3.1 290 23:41 29.07.2019
4457 Rain 19 1010 93 0 3.1 270 23:22 29.07.2019
4458 Clouds 19 1011 88 9000 5.7 300 22:56 29.07.2019
4459 Rain 19 1010 88 0 3.1 280 22:38 29.07.2019
4460 Rain 19 1010 88 0 3.6 260 22:18 29.07.2019
4461 Clouds 20 1011 88 8000 5.7 290 21:43 29.07.2019
4462 Rain 20 1010 83 0 2.6 300 21:24 29.07.2019
4463 Clouds 21 1010 83 8000 7.7 300 20:58 29.07.2019
4464 Clouds 21 1010 83 8000 7.7 300 20:40 29.07.2019
4465 Clouds 21 1010 83 10000 5.1 280 20:21 29.07.2019
4466 Clouds 21 1010 83 8000 7.7 290 19:54 29.07.2019
4467 Clouds 22 1010 78 10000 5.7 290 19:36 29.07.2019
4468 Rain 22 1010 78 10000 5.7 290 19:18 29.07.2019
4469 Rain 22 1010 83 9000 8.2 300 18:41 29.07.2019
4470 Rain 23 1010 78 10000 5.7 280 18:21 29.07.2019
4471 Clouds 23 1010 73 10000 8.7 300 17:49 29.07.2019
4472 Clouds 24 1010 69 10000 3.6 150 17:31 29.07.2019
4473 Clouds 26 1009 61 10000 3.1 320 16:57 29.07.2019
4474 Clouds 26 1009 48 10000 1 180 16:38 29.07.2019
4475 Clouds 27 1009 48 10000 1 0 16:20 29.07.2019
4476 Clouds 27 1009 58 10000 3.6 40 15:49 29.07.2019
4477 Clouds 27 1009 61 10000 3.1 80 15:30 29.07.2019
4478 Clouds 27 1009 51 10000 2.6 80 14:44 29.07.2019
4479 Clouds 28 1009 58 10000 1.5 70 14:21 29.07.2019
4480 Clouds 28 1009 61 10000 2.1 90 13:57 29.07.2019
4481 Clouds 27 1009 61 10000 1.5 0 13:36 29.07.2019
4482 Clouds 27 1009 61 10000 1.5 0 13:18 29.07.2019
4483 Clouds 27 1009 69 10000 2.6 100 12:41 29.07.2019
4484 Clear 26 1009 65 10000 1.5 100 12:21 29.07.2019
4485 Clear 25 1009 73 10000 2.6 110 11:42 29.07.2019
4486 Clear 25 1009 73 10000 2.1 100 11:21 29.07.2019
4487 Clouds 24 1009 78 9000 3.1 100 10:45 29.07.2019
4488 Clear 24 1009 78 10000 1 90 10:24 29.07.2019
4489 Mist 22 1009 83 8000 2.1 100 09:45 29.07.2019
4490 Mist 22 1008 83 10000 2.1 60 09:25 29.07.2019
4491 Mist 21 1008 94 7000 3.1 110 08:57 29.07.2019
4492 Mist 21 1008 88 8000 2.1 20 08:28 29.07.2019
4493 Mist 20 1008 94 5000 2.6 100 07:56 29.07.2019
4494 Mist 20 1008 94 6000 1 60 07:32 29.07.2019
4495 Mist 19 1008 100 0 1.5 30 06:45 29.07.2019
4496 Mist 19 1007 94 0 2.1 90 05:43 29.07.2019
4497 Clouds 19 1007 94 0 2.6 100 04:50 29.07.2019
4498 Clear 20 1007 94 0 4.1 120 01:59 29.07.2019
4499 Clear 20 1007 94 0 4.1 120 01:41 29.07.2019
4500 Clouds 20 1007 94 0 3.1 90 01:21 29.07.2019
4501 Clouds 20 1007 94 0 3.1 90 01:21 29.07.2019
4502 Clouds 20 1007 94 0 5.1 120 00:41 29.07.2019
4503 Clear 20 1007 94 0 3.6 100 00:18 29.07.2019
4504 Clear 20 1006 94 0 4.1 110 23:40 28.07.2019
4505 Clear 20 1006 94 0 4.6 90 23:18 28.07.2019
4506 Clear 21 1006 88 0 5.1 90 22:38 28.07.2019
4507 Clear 21 1006 88 0 5.1 90 22:38 28.07.2019
4508 Clear 21 1006 88 0 4.6 80 22:19 28.07.2019
4509 Clear 21 1006 78 0 1.5 100 21:46 28.07.2019
4510 Clouds 22 1006 78 0 5.7 80 21:18 28.07.2019
4511 Clouds 22 1005 78 0 3.1 80 20:45 28.07.2019
4512 Clear 23 1005 78 10000 6.2 70 20:27 28.07.2019
4513 Clouds 23 1005 73 0 4.1 100 19:42 28.07.2019
4514 Clear 23 1005 73 10000 6.7 80 19:22 28.07.2019
4515 Clouds 24 1004 64 10000 4.6 110 18:58 28.07.2019
4516 Clear 24 1005 69 10000 7.7 80 18:38 28.07.2019
4517 Clear 24 1004 69 10000 5.7 80 18:38 28.07.2019
4518 Clear 24 1005 73 10000 8.2 80 18:18 28.07.2019
4519 Clouds 25 1005 69 10000 7.2 80 17:41 28.07.2019
4520 Clouds 25 1005 64 10000 7.7 80 17:22 28.07.2019
4521 Clouds 25 1004 64 10000 5.7 110 16:57 28.07.2019
4522 Clouds 25 1004 64 10000 7.2 80 16:38 28.07.2019
4523 Clouds 25 1004 64 10000 7.7 80 16:19 28.07.2019
4524 Clouds 25 1004 64 10000 5.7 110 15:42 28.07.2019
4525 Clouds 25 1005 64 10000 6.7 80 15:21 28.07.2019
4526 Clear 24 1004 69 10000 6.7 70 14:37 28.07.2019
4527 Clear 24 1004 69 10000 6.7 70 14:37 28.07.2019
4528 Clouds 24 1005 60 10000 6.2 70 14:37 28.07.2019
4529 Clouds 24 1005 60 10000 6.2 70 14:37 28.07.2019
4530 Rain 25 1005 69 0 8.2 70 14:19 28.07.2019
4531 Clouds 24 1005 69 10000 5.7 90 13:45 28.07.2019
4532 Clouds 23 1005 69 0 8.2 80 13:25 28.07.2019
4533 Clouds 23 1005 73 10000 4.6 100 12:59 28.07.2019
4534 Clouds 23 1005 73 10000 4.6 100 12:40 28.07.2019
4535 Clouds 23 1005 73 0 8.2 80 12:22 28.07.2019
4536 Clouds 22 1005 83 10000 3.6 90 11:47 28.07.2019
4537 Rain 22 1005 83 0 7.7 70 11:27 28.07.2019
4538 Clouds 21 1005 83 0 7.2 70 10:41 28.07.2019
4539 Clouds 21 1006 88 0 7.7 70 10:22 28.07.2019
4540 Clouds 20 1005 82 10000 5.1 90 09:54 28.07.2019
4541 Clouds 20 1005 88 10000 6.2 60 09:36 28.07.2019
4542 Clouds 20 1006 88 0 7.7 70 09:18 28.07.2019
4543 Clouds 20 1005 82 10000 4.1 80 08:41 28.07.2019
4544 Clouds 19 1006 82 0 6.2 60 08:18 28.07.2019
4545 Clouds 19 1005 88 10000 3.6 80 07:39 28.07.2019
4546 Clouds 19 1006 88 10000 3.6 90 06:47 28.07.2019
4547 Clouds 19 1006 82 10000 4.1 80 05:59 28.07.2019
4548 Clouds 19 1006 88 0 6.2 60 04:37 28.07.2019
4549 Clouds 19 1007 88 0 6.7 70 02:24 28.07.2019
4550 Clouds 19 1007 82 0 5.1 90 01:25 28.07.2019
4551 Clouds 19 1007 82 10000 4.6 100 00:49 28.07.2019
4552 Clouds 19 1008 77 0 6.7 80 00:24 28.07.2019
4553 Clouds 19 1008 82 10000 4.1 90 23:48 27.07.2019
4554 Clouds 20 1008 82 0 7.7 80 23:26 27.07.2019
4555 Clouds 20 1008 77 10000 5.1 80 22:42 27.07.2019
4556 Clouds 20 1008 77 0 7.2 80 22:23 27.07.2019
4557 Clouds 21 1008 73 10000 5.7 100 21:44 27.07.2019
4558 Clouds 21 1008 68 0 8.7 80 21:23 27.07.2019
4559 Clouds 22 1008 64 10000 7.2 100 20:55 27.07.2019
4560 Clouds 22 1008 69 0 8.2 90 20:32 27.07.2019
4561 Clouds 23 1008 64 10000 5.7 100 19:59 27.07.2019
4562 Clouds 23 1008 69 0 10.8 90 19:39 27.07.2019
4563 Clear 23 1008 64 10000 10.8 100 19:19 27.07.2019
4564 Clouds 24 1008 60 10000 5.7 100 18:46 27.07.2019
4565 Clear 24 1009 60 10000 11.8 80 18:28 27.07.2019
4566 Clouds 25 1008 60 10000 7.2 110 17:50 27.07.2019
4567 Clouds 25 1009 57 10000 11.8 80 17:31 27.07.2019
4568 Clouds 25 1009 57 10000 7.7 110 16:55 27.07.2019
4569 Clouds 25 1010 57 10000 11.8 80 16:37 27.07.2019
4570 Clouds 25 1010 57 10000 7.7 110 15:56 27.07.2019
4571 Clouds 25 1010 57 10000 11.8 80 15:36 27.07.2019
4572 Clouds 25 1010 57 10000 12.3 80 15:18 27.07.2019
4573 Clouds 25 1010 57 10000 6.2 110 14:41 27.07.2019
4574 Clouds 25 1011 57 10000 11.3 80 14:23 27.07.2019
4575 Clouds 25 1010 64 10000 7.2 110 13:47 27.07.2019
4576 Clouds 25 1011 60 10000 9.8 80 13:22 27.07.2019
4577 Clouds 24 1011 69 10000 7.2 110 12:50 27.07.2019
4578 Clouds 24 1011 69 10000 9.3 80 12:27 27.07.2019
4579 Clouds 24 1011 73 10000 5.7 100 11:56 27.07.2019
4580 Clouds 24 1011 73 10000 9.3 80 11:37 27.07.2019
4581 Clouds 23 1012 73 10000 10.3 80 11:19 27.07.2019
4582 Clouds 22 1012 83 10000 9.8 80 10:40 27.07.2019
4583 Clouds 22 1012 64 10000 6.7 100 10:21 27.07.2019
4584 Clouds 21 1011 77 10000 7.2 110 09:41 27.07.2019
4585 Clouds 21 1012 77 10000 8.2 80 09:23 27.07.2019
4586 Clouds 21 1012 82 10000 5.7 110 08:49 27.07.2019
4587 Clouds 20 1012 82 10000 8.2 90 08:29 27.07.2019
4588 Clouds 20 1011 88 10000 4.6 100 07:55 27.07.2019
4589 Clear 19 1012 88 0 4.6 80 07:29 27.07.2019
4590 Clouds 18 1011 82 10000 5.7 100 06:56 27.07.2019
4591 Clear 18 1011 88 0 7.2 80 06:31 27.07.2019
4592 Clouds 18 1011 82 10000 4.6 100 05:52 27.07.2019
4593 Clear 18 1012 82 0 5.7 80 05:28 27.07.2019
4594 Clear 18 1012 82 0 5.7 80 04:33 27.07.2019
4595 Clear 18 1013 82 0 5.7 80 03:28 27.07.2019
4596 Clouds 18 1012 77 10000 6.2 110 02:40 27.07.2019
4597 Clouds 19 1013 72 10000 5.1 110 01:48 27.07.2019
4598 Clear 19 1013 72 0 4.6 80 01:21 27.07.2019
4599 Clear 20 1014 73 0 7.2 80 00:33 27.07.2019
4600 Clouds 20 1014 72 10000 4.6 110 23:55 26.07.2019
4601 Clear 21 1014 77 0 6.7 80 23:37 26.07.2019
4602 Clear 21 1014 68 0 8.2 90 23:18 26.07.2019
4603 Clouds 22 1014 68 10000 4.6 110 22:41 26.07.2019
4604 Clear 22 1014 73 0 3.6 100 22:23 26.07.2019
4605 Clouds 23 1014 60 10000 5.7 120 21:49 26.07.2019
4606 Clear 23 1014 64 0 5.7 110 21:20 26.07.2019
4607 Clouds 25 1014 64 0 5.1 100 20:43 26.07.2019
4608 Clouds 25 1014 57 0 6.7 120 20:25 26.07.2019
4609 Clouds 26 1013 47 10000 8.2 120 19:44 26.07.2019
4610 Clouds 26 1014 50 0 6.7 120 19:25 26.07.2019
4611 Clouds 27 1014 42 10000 6.2 120 18:58 26.07.2019
4612 Clear 28 1015 44 10000 6.7 130 18:38 26.07.2019
4613 Clear 28 1015 44 10000 6.7 130 18:20 26.07.2019
4614 Clouds 28 1014 39 10000 6.7 120 17:47 26.07.2019
4615 Clear 28 1015 47 10000 6.2 140 17:19 26.07.2019
4616 Clear 28 1015 47 10000 6.2 140 17:19 26.07.2019
4617 Clouds 28 1015 51 10000 6.7 120 16:58 26.07.2019
4618 Clouds 28 1015 51 10000 6.7 120 16:40 26.07.2019
4619 Clear 28 1015 54 10000 4.1 140 16:20 26.07.2019
4620 Clouds 28 1016 51 10000 5.7 110 15:56 26.07.2019
4621 Clear 28 1016 51 10000 4.6 120 15:38 26.07.2019
4622 Clear 28 1016 51 10000 5.1 110 15:19 26.07.2019
4623 Clouds 27 1016 51 10000 6.2 120 14:43 26.07.2019
4624 Clear 27 1016 54 10000 7.2 100 14:23 26.07.2019
4625 Clouds 27 1016 51 10000 7.7 120 13:47 26.07.2019
4626 Clear 27 1017 57 10000 5.1 100 13:27 26.07.2019
4627 Clear 27 1017 54 10000 6.2 100 12:49 26.07.2019
4628 Clouds 26 1016 57 10000 6.7 90 12:23 26.07.2019
4629 Clear 26 1017 54 10000 6.7 110 11:56 26.07.2019
4630 Clear 26 1017 54 10000 6.7 110 11:37 26.07.2019
4631 Clear 26 1017 57 10000 6.2 110 11:18 26.07.2019
4632 Clear 25 1017 60 10000 6.2 100 10:39 26.07.2019
4633 Clear 24 1017 60 10000 6.2 100 10:20 26.07.2019
4634 Clouds 24 1017 73 10000 3.1 110 09:50 26.07.2019
4635 Clear 22 1018 64 10000 5.7 110 09:28 26.07.2019
4636 Clouds 21 1017 77 10000 3.6 130 08:41 26.07.2019
4637 Clear 20 1017 73 10000 5.7 110 08:21 26.07.2019
4638 Clouds 19 1017 88 10000 4.1 120 07:43 26.07.2019
4639 Clouds 18 1017 88 0 3.1 110 07:24 26.07.2019
4640 Clouds 17 1017 88 0 4.6 110 06:31 26.07.2019
4641 Clouds 17 1017 88 0 4.1 110 04:31 26.07.2019
4642 Clouds 18 1017 88 10000 5.7 120 03:55 26.07.2019
4643 Clouds 19 1017 82 10000 4.6 120 01:50 26.07.2019
4644 Clouds 19 1018 82 0 4.1 120 01:31 26.07.2019
4645 Clouds 20 1018 77 0 3.6 110 00:33 26.07.2019
4646 Clouds 20 1017 68 10000 5.1 120 23:55 25.07.2019
4647 Clouds 21 1018 82 0 3.1 110 23:23 25.07.2019
4648 Clouds 21 1017 64 10000 6.2 120 22:55 25.07.2019
4649 Clouds 22 1018 82 0 3.1 120 22:36 25.07.2019
4650 Clouds 22 1018 82 0 4.1 110 22:18 25.07.2019
4651 Clouds 23 1017 64 10000 6.7 130 21:41 25.07.2019
4652 Clouds 24 1018 73 0 4.6 120 21:20 25.07.2019
4653 Clouds 24 1017 60 10000 5.7 130 20:45 25.07.2019
4654 Clouds 25 1018 60 0 5.1 120 20:22 25.07.2019
4655 Clouds 26 1017 51 10000 5.1 120 19:42 25.07.2019
4656 Clear 27 1018 54 10000 4.1 110 19:24 25.07.2019
4657 Clouds 28 1017 51 10000 6.2 120 18:46 25.07.2019
4658 Clear 28 1017 54 10000 5.7 130 18:27 25.07.2019
4659 Clouds 29 1017 61 10000 5.7 120 17:57 25.07.2019
4660 Clear 29 1017 51 10000 5.7 120 17:38 25.07.2019
4661 Clouds 29 1017 48 10000 6.2 80 17:20 25.07.2019
4662 Clouds 29 1017 61 10000 4.1 110 16:43 25.07.2019
4663 Clear 30 1018 51 10000 7.2 110 16:24 25.07.2019
4664 Clouds 29 1018 61 10000 3.6 100 15:51 25.07.2019
4665 Clear 30 1018 54 10000 5.7 120 15:21 25.07.2019
4666 Clouds 30 1018 61 10000 3.1 110 14:56 25.07.2019
4667 Clear 30 1018 54 10000 6.2 120 14:38 25.07.2019
4668 Clear 30 1018 57 10000 6.7 130 14:18 25.07.2019
4669 Clouds 30 1018 69 10000 5.1 110 13:40 25.07.2019
4670 Clear 30 1018 61 10000 6.2 130 13:22 25.07.2019
4671 Clear 28 1018 51 10000 4.1 120 12:38 25.07.2019
4672 Clear 28 1018 65 10000 6.2 130 12:20 25.07.2019
4673 Clouds 27 1018 73 10000 3.6 110 11:41 25.07.2019
4674 Clear 27 1018 65 10000 4.6 110 11:22 25.07.2019
4675 Clouds 25 1018 73 10000 4.1 90 10:45 25.07.2019
4676 Clear 25 1018 73 10000 7.2 130 10:25 25.07.2019
4677 Clouds 24 1018 73 10000 2.1 110 09:47 25.07.2019
4678 Clear 23 1018 69 10000 5.7 130 09:28 25.07.2019
4679 Clouds 23 1018 78 10000 2.1 110 08:53 25.07.2019
4680 Clear 22 1018 69 10000 2.1 130 08:33 25.07.2019
4681 Clear 21 1018 77 10000 5.7 120 07:42 25.07.2019
4682 Clouds 20 1017 77 0 5.1 130 07:24 25.07.2019
4683 Clouds 20 1017 82 0 4.6 120 06:40 25.07.2019
4684 Clouds 19 1017 77 0 5.1 130 05:37 25.07.2019
4685 Clouds 19 1017 93 0 3.1 120 04:53 25.07.2019
4686 Clouds 20 1017 77 0 6.2 130 03:24 25.07.2019
4687 Clear 20 1017 77 0 5.1 120 01:21 25.07.2019
4688 Clear 20 1017 77 0 4.1 120 00:37 25.07.2019
4689 Clear 20 1017 77 0 4.1 120 00:18 25.07.2019
4690 Clear 21 1017 77 0 5.7 120 23:43 24.07.2019
4691 Clear 21 1017 77 0 4.6 120 23:24 24.07.2019
4692 Clear 22 1017 77 0 4.6 130 22:45 24.07.2019
4693 Clear 23 1017 73 0 4.1 130 22:23 24.07.2019
4694 Clear 23 1017 64 0 4.1 130 21:56 24.07.2019
4695 Clear 24 1017 68 0 3.6 120 21:38 24.07.2019
4696 Clear 24 1017 68 0 4.6 120 21:19 24.07.2019
4697 Clear 24 1017 68 0 4.6 120 21:19 24.07.2019
4698 Clear 25 1016 57 0 3.6 120 20:48 24.07.2019
4699 Clear 26 1017 50 0 5.1 120 20:29 24.07.2019
4700 Clear 27 1016 51 0 4.6 120 19:59 24.07.2019
4701 Clear 27 1016 51 0 4.6 120 19:59 24.07.2019
4702 Clear 27 1016 51 0 4.6 120 19:40 24.07.2019
4703 Clear 27 1016 54 10000 5.7 130 19:20 24.07.2019
4704 Clouds 28 1016 51 10000 3.1 110 18:44 24.07.2019
4705 Clear 28 1016 54 10000 4.6 110 18:24 24.07.2019
4706 Clouds 28 1016 54 10000 3.1 110 17:48 24.07.2019
4707 Clouds 28 1016 54 10000 6.2 80 17:24 24.07.2019
4708 Clouds 28 1017 54 10000 4.6 110 16:59 24.07.2019
4709 Clear 29 1017 51 10000 5.7 130 16:39 24.07.2019
4710 Clear 29 1017 51 10000 6.2 130 16:21 24.07.2019
4711 Clear 29 1017 51 10000 5.1 130 15:38 24.07.2019
4712 Clouds 29 1017 54 10000 4.6 110 15:20 24.07.2019
4713 Clouds 29 1017 57 10000 4.6 100 14:46 24.07.2019
4714 Clear 29 1018 54 10000 4.6 120 14:22 24.07.2019
4715 Clear 29 1018 54 10000 4.6 120 14:22 24.07.2019
4716 Clouds 29 1018 65 10000 3.1 100 13:41 24.07.2019
4717 Clear 29 1018 57 10000 4.1 120 13:23 24.07.2019
4718 Clouds 29 1018 65 10000 3.6 100 12:55 24.07.2019
4719 Clear 28 1018 57 10000 4.6 120 12:37 24.07.2019
4720 Clear 27 1018 65 10000 3.1 90 12:18 24.07.2019
4721 Clear 27 1018 61 10000 4.6 110 11:37 24.07.2019
4722 Clear 26 1018 65 10000 4.6 100 11:19 24.07.2019
4723 Clear 25 1018 69 10000 4.1 100 10:42 24.07.2019
4724 Clear 25 1018 69 10000 4.1 100 10:24 24.07.2019
4725 Clouds 23 1018 83 10000 1.5 130 09:44 24.07.2019
4726 Clouds 24 1018 83 10000 1.5 130 09:44 24.07.2019
4727 Clear 23 1018 78 10000 2.1 90 09:24 24.07.2019
4728 Clouds 22 1018 94 10000 1 0 08:54 24.07.2019
4729 Clear 21 1018 88 10000 1 90 08:27 24.07.2019
4730 Clear 19 1018 93 10000 1 100 07:51 24.07.2019
4731 Clear 17 1018 93 0 1 110 07:23 24.07.2019
4732 Fog 16 1018 93 0 1.5 110 06:28 24.07.2019
4733 Fog 16 1018 93 0 1.5 110 06:28 24.07.2019
4734 Fog 16 1018 100 0 0.5 90 05:26 24.07.2019
4735 Clear 17 1019 100 0 0.5 40 01:58 24.07.2019
4736 Clear 17 1019 93 0 1.54 101.222 01:29 24.07.2019
4737 Clear 17 1019 100 0 1 360 00:57 24.07.2019
4738 Clear 18 1019 88 0 1 80 00:22 24.07.2019
4739 Clear 19 1019 82 0 1 300 23:42 23.07.2019
4740 Clear 19 1019 82 0 1 300 23:42 23.07.2019
4741 Clear 19 1019 82 0 1 290 23:23 23.07.2019
4742 Clear 20 1020 93 0 2.1 340 22:39 23.07.2019
4743 Clear 22 1019 73 0 1.5 280 22:19 23.07.2019
4744 Clear 23 1020 83 0 2.1 360 21:58 23.07.2019
4745 Clear 23 1020 83 0 2.1 360 21:58 23.07.2019
4746 Clear 24 1020 69 0 2.1 300 21:40 23.07.2019
4747 Clear 23 1020 83 0 2.1 360 21:40 23.07.2019
4748 Clear 24 1020 69 0 3.1 320 21:21 23.07.2019
4749 Clear 24 1020 64 0 3.1 310 20:47 23.07.2019
4750 Clear 25 1019 65 0 3.6 320 20:21 23.07.2019
4751 Clear 25 1020 69 0 5.1 310 19:42 23.07.2019
4752 Clear 26 1020 57 0 5.1 320 19:19 23.07.2019
4753 Clear 26 1020 65 0 3.1 290 18:48 23.07.2019
4754 Clouds 26 1020 57 10000 5.7 320 18:24 23.07.2019
4755 Clouds 27 1020 57 10000 6.2 320 17:45 23.07.2019
4756 Clouds 27 1021 54 10000 5.1 300 17:26 23.07.2019
4757 Clouds 27 1020 61 10000 5.7 320 16:58 23.07.2019
4758 Clouds 27 1020 61 10000 5.7 320 16:40 23.07.2019
4759 Clouds 27 1020 61 10000 5.7 330 16:19 23.07.2019
4760 Clouds 27 1020 57 10000 6.2 320 15:46 23.07.2019
4761 Clouds 26 1020 61 10000 5.7 320 15:24 23.07.2019
4762 Clouds 27 1020 57 10000 6.2 320 14:40 23.07.2019
4763 Clouds 26 1020 57 10000 6.2 320 14:22 23.07.2019
4764 Clouds 27 1020 61 10000 5.7 310 13:59 23.07.2019
4765 Clouds 26 1020 61 10000 5.7 310 13:40 23.07.2019
4766 Clouds 26 1020 57 10000 3.6 300 13:21 23.07.2019
4767 Clouds 26 1021 69 10000 7.2 280 12:48 23.07.2019
4768 Clouds 25 1020 61 10000 4.6 290 12:26 23.07.2019
4769 Clouds 24 1021 73 10000 6.2 270 11:51 23.07.2019
4770 Clear 24 1021 69 10000 4.1 250 11:32 23.07.2019
4771 Clouds 23 1021 83 10000 5.1 270 10:59 23.07.2019
4772 Clouds 23 1021 83 10000 5.1 270 10:41 23.07.2019
4773 Clouds 22 1020 83 10000 2.6 270 10:21 23.07.2019
4774 Mist 20 1021 82 8000 3.1 270 09:41 23.07.2019
4775 Mist 19 1021 93 5000 3.1 260 09:20 23.07.2019
4776 Mist 17 1021 100 2000 3.1 280 08:43 23.07.2019
4777 Fog 17 1021 100 1700 2.1 250 08:20 23.07.2019
4778 Fog 17 1021 100 1700 2.1 250 08:20 23.07.2019
4779 Fog 17 1021 100 1700 2.1 250 08:20 23.07.2019
4780 Fog 17 1020 100 300 2.6 270 07:55 23.07.2019
4781 Fog 16 1020 100 600 3.1 250 07:36 23.07.2019
4782 Fog 16 1020 100 600 3.1 250 07:36 23.07.2019
4783 Fog 16 1020 100 800 2.6 250 06:50 23.07.2019
4784 Mist 16 1020 100 0 2.1 250 06:30 23.07.2019
4785 Mist 16 1020 100 5000 4.1 270 03:55 23.07.2019
4786 Mist 16 1020 93 0 3.1 240 01:35 23.07.2019
4787 Clouds 17 1020 93 0 3.6 250 00:37 23.07.2019
4788 Clouds 17 1020 93 0 3.6 250 00:18 23.07.2019
4789 Clouds 17 1019 93 0 3.6 250 23:39 22.07.2019
4790 Clouds 17 1019 93 0 3.6 250 23:19 22.07.2019
4791 Clouds 18 1020 93 10000 6.2 270 22:45 22.07.2019
4792 Clouds 18 1019 93 0 3.6 250 22:23 22.07.2019
4793 Clouds 18 1019 93 9000 6.7 270 21:44 22.07.2019
4794 Clouds 18 1019 93 0 3.1 250 21:23 22.07.2019
4795 Clouds 18 1019 93 8000 8.2 270 20:59 22.07.2019
4796 Clouds 18 1019 93 0 3.1 260 20:41 22.07.2019
4797 Clouds 19 1018 93 0 4.1 250 20:21 22.07.2019
4798 Clouds 18 1018 93 0 4.1 250 19:42 22.07.2019
4799 Clouds 18 1018 93 0 3.6 240 19:22 22.07.2019
4800 Mist 18 1019 93 6000 8.7 260 18:48 22.07.2019
4801 Drizzle 18 1019 93 3000 2.6 0 18:28 22.07.2019
4802 Drizzle 17 1019 93 6000 6.2 240 17:59 22.07.2019
4803 Drizzle 17 1019 93 3000 3.1 190 17:38 22.07.2019
4804 Drizzle 17 1019 93 3000 3.1 190 17:38 22.07.2019
4805 Drizzle 17 1019 93 4000 6.2 220 17:20 22.07.2019
4806 Drizzle 17 1019 100 2900 5.7 210 16:41 22.07.2019
4807 Drizzle 17 1019 100 2900 5.7 210 16:41 22.07.2019
4808 Rain 17 1018 93 2500 5.1 200 16:21 22.07.2019
4809 Rain 17 1019 93 3500 4.1 200 15:46 22.07.2019
4810 Rain 16 1020 93 3000 2.6 170 15:21 22.07.2019
4811 Rain 16 1020 87 4000 3.6 160 14:59 22.07.2019
4812 Rain 16 1020 87 4000 3.6 160 14:41 22.07.2019
4813 Rain 16 1020 87 4000 5.7 190 14:19 22.07.2019
4814 Rain 17 1020 93 6000 5.1 180 13:44 22.07.2019
4815 Rain 16 1021 87 7000 4.6 170 13:22 22.07.2019
4816 Rain 16 1021 93 6000 4.6 190 12:43 22.07.2019
4817 Rain 17 1021 93 7000 4.1 200 12:23 22.07.2019
4818 Rain 16 1022 77 10000 3.1 230 11:44 22.07.2019
4819 Rain 16 1021 82 10000 3.6 200 11:20 22.07.2019
4820 Rain 16 1021 87 8000 4.1 220 10:43 22.07.2019
4821 Rain 16 1021 87 10000 3.6 210 10:24 22.07.2019
4822 Rain 16 1021 87 8000 3.6 210 09:42 22.07.2019
4823 Rain 15 1020 93 10000 3.1 200 09:23 22.07.2019
4824 Clouds 15 1020 93 9000 3.6 210 08:44 22.07.2019
4825 Mist 14 1020 93 10000 2.6 210 08:25 22.07.2019
4826 Mist 14 1020 93 8000 3.6 220 07:55 22.07.2019
4827 Mist 14 1020 100 0 1.5 200 07:32 22.07.2019
4828 Fog 13 1020 93 7000 3.6 220 06:44 22.07.2019
4829 Mist 13 1021 93 10000 4.1 250 03:55 22.07.2019
4830 Fog 13 1021 93 10000 4.6 240 01:53 22.07.2019
4831 Clouds 13 1021 93 10000 3.6 250 00:54 22.07.2019
4832 Clear 14 1021 87 0 1.5 260 00:25 22.07.2019
4833 Clouds 14 1021 100 10000 3.1 260 23:55 21.07.2019
4834 Clouds 14 1021 100 10000 3.1 260 23:55 21.07.2019
4835 Clear 15 1021 87 0 2.1 240 23:28 21.07.2019
4836 Clouds 15 1021 87 10000 3.6 280 22:42 21.07.2019
4837 Clear 15 1020 82 0 2.6 260 22:22 21.07.2019
4838 Clouds 16 1020 82 10000 4.1 280 21:57 21.07.2019
4839 Clear 16 1020 77 0 3.1 260 21:38 21.07.2019
4840 Clouds 16 1020 77 0 2.6 260 21:20 21.07.2019
4841 Clouds 17 1020 82 10000 6.2 290 20:54 21.07.2019
4842 Clouds 17 1019 68 10000 4.1 260 20:36 21.07.2019
4843 Clouds 17 1019 68 10000 4.1 260 20:18 21.07.2019
4844 Clouds 17 1020 77 10000 8.7 280 19:41 21.07.2019
4845 Clouds 17 1019 68 10000 5.1 260 19:21 21.07.2019
4846 Clouds 18 1019 77 10000 9.3 300 18:46 21.07.2019
4847 Clouds 18 1019 68 10000 4.1 270 18:25 21.07.2019
4848 Clouds 18 1019 72 10000 11.3 290 17:42 21.07.2019
4849 Clouds 18 1018 72 10000 5.7 260 17:20 21.07.2019
4850 Clouds 18 1019 77 10000 10.3 290 16:57 21.07.2019
4851 Clouds 18 1019 72 10000 7.2 260 16:38 21.07.2019
4852 Clouds 18 1017 68 10000 7.2 260 16:20 21.07.2019
4853 Clouds 18 1017 77 10000 6.7 260 15:37 21.07.2019
4854 Clouds 19 1017 82 10000 5.7 250 15:18 21.07.2019
4855 Rain 18 1017 82 10000 12.3 270 14:41 21.07.2019
4856 Rain 19 1016 82 0 7.2 250 14:22 21.07.2019
4857 Rain 19 1016 82 10000 10.8 270 13:51 21.07.2019
4858 Clouds 18 1015 82 0 7.2 250 13:30 21.07.2019
4859 Rain 18 1015 88 10000 10.3 270 12:44 21.07.2019
4860 Clouds 19 1014 82 0 5.1 250 12:25 21.07.2019
4861 Drizzle 18 1014 93 9000 10.3 270 11:51 21.07.2019
4862 Drizzle 18 1014 88 9000 11.3 280 11:31 21.07.2019
4863 Clouds 18 1013 82 10000 11.3 270 10:58 21.07.2019
4864 Clouds 18 1013 88 0 6.2 250 10:40 21.07.2019
4865 Clouds 18 1012 77 0 5.1 240 10:22 21.07.2019
4866 Clouds 18 1012 88 0 4.6 240 09:42 21.07.2019
4867 Rain 18 1012 88 0 5.1 250 09:24 21.07.2019
4868 Rain 18 1012 88 10000 8.2 260 08:45 21.07.2019
4869 Rain 18 1012 88 10000 8.2 260 08:45 21.07.2019
4870 Clouds 17 1011 88 0 4.1 240 08:26 21.07.2019
4871 Clouds 17 1011 88 0 3.6 240 07:39 21.07.2019
4872 Clouds 17 1011 93 7000 5.7 240 06:52 21.07.2019
4873 Clouds 16 1010 93 7000 4.6 220 05:43 21.07.2019
4874 Clouds 16 1010 87 10000 6.2 200 02:53 21.07.2019
4875 Thunderstorm 16 1010 93 0 3.6 180 01:24 21.07.2019
4876 Thunderstorm 16 1010 82 9000 8.2 200 00:42 21.07.2019
4877 Thunderstorm 17 1010 93 0 2.1 180 00:19 21.07.2019
4878 Rain 17 1010 100 0 2.1 170 23:42 20.07.2019
4879 Clouds 17 1010 100 6000 2.6 170 23:21 20.07.2019
4880 Rain 17 1010 100 10000 4.6 190 22:46 20.07.2019
4881 Rain 17 1010 93 0 2.1 180 22:22 20.07.2019
4882 Clouds 18 1010 100 10000 3.6 200 21:57 20.07.2019
4883 Rain 18 1010 93 0 2.1 170 21:39 20.07.2019
4884 Rain 18 1009 93 0 1.5 160 21:20 20.07.2019
4885 Rain 18 1009 93 0 1 150 20:41 20.07.2019
4886 Rain 18 1009 93 0 0.5 150 20:21 20.07.2019
4887 Rain 18 1010 93 10000 1.5 180 19:46 20.07.2019
4888 Rain 18 1010 93 0 2.1 310 19:23 20.07.2019
4889 Thunderstorm 18 1009 93 0 2.6 20 18:44 20.07.2019
4890 Thunderstorm 18 1010 93 10000 2.1 230 18:22 20.07.2019
4891 Thunderstorm 18 1010 93 9000 6.2 270 17:55 20.07.2019
4892 Thunderstorm 19 1010 88 6000 13.9 270 17:26 20.07.2019
4893 Clouds 25 1009 50 10000 4.1 190 16:45 20.07.2019
4894 Clear 25 1009 60 10000 6.7 130 16:27 20.07.2019
4895 Clouds 25 1009 50 10000 5.7 180 15:58 20.07.2019
4896 Clouds 26 1009 50 10000 5.7 180 15:40 20.07.2019
4897 Clear 26 1010 60 10000 7.7 130 15:20 20.07.2019
4898 Clouds 26 1010 47 10000 6.7 170 14:49 20.07.2019
4899 Clear 26 1010 60 10000 7.7 130 14:29 20.07.2019
4900 Clouds 25 1010 50 10000 7.2 170 13:56 20.07.2019
4901 Clear 25 1011 47 10000 5.7 170 13:37 20.07.2019
4902 Clear 25 1010 60 10000 5.7 140 13:18 20.07.2019
4903 Clear 24 1011 68 10000 6.7 130 12:40 20.07.2019
4904 Clear 23 1011 68 10000 6.7 120 12:18 20.07.2019
4905 Clouds 23 1011 64 10000 5.1 170 11:41 20.07.2019
4906 Clear 23 1011 68 10000 7.2 130 11:20 20.07.2019
4907 Clouds 22 1011 64 10000 5.7 170 10:41 20.07.2019
4908 Clear 21 1011 68 10000 5.7 130 10:22 20.07.2019
4909 Clouds 20 1011 68 10000 6.2 170 09:48 20.07.2019
4910 Clear 19 1012 68 10000 5.7 130 09:25 20.07.2019
4911 Clouds 19 1012 72 10000 5.7 160 08:49 20.07.2019
4912 Clear 17 1012 82 10000 5.1 140 08:23 20.07.2019
4913 Clear 16 1012 88 10000 4.6 140 07:39 20.07.2019
4914 Clouds 15 1012 77 10000 4.6 150 06:46 20.07.2019
4915 Clouds 14 1013 87 0 2.6 130 05:25 20.07.2019
4916 Clouds 14 1013 82 0 2.6 140 04:31 20.07.2019
4917 Clouds 13 1014 93 10000 2.1 140 01:59 20.07.2019
4918 Clouds 14 1014 87 10000 0.5 140 00:59 20.07.2019
4919 Clouds 14 1014 82 0 1.5 260 00:37 20.07.2019
4920 Clouds 14 1014 82 0 1.5 260 00:18 20.07.2019
4921 Clouds 15 1014 77 0 1.5 240 23:39 19.07.2019
4922 Clouds 15 1014 77 0 1 250 23:21 19.07.2019
4923 Clouds 16 1014 82 10000 1.5 290 22:43 19.07.2019
4924 Clouds 16 1013 67 0 1.5 250 22:22 19.07.2019
4925 Clouds 17 1013 82 10000 3.1 310 21:45 19.07.2019
4926 Clouds 18 1013 55 0 2.1 280 21:26 19.07.2019
4927 Clouds 19 1013 63 10000 4.1 300 20:49 19.07.2019
4928 Clouds 19 1013 52 0 3.1 300 20:31 19.07.2019
4929 Clouds 20 1013 60 10000 5.1 290 19:48 19.07.2019
4930 Clouds 20 1013 49 0 2.6 290 19:27 19.07.2019
4931 Clouds 21 1013 56 10000 6.2 310 18:42 19.07.2019
4932 Clouds 22 1013 43 10000 4.1 320 18:22 19.07.2019
4933 Clouds 21 1013 56 10000 6.7 290 17:54 19.07.2019
4934 Clouds 21 1012 52 10000 4.6 310 17:28 19.07.2019
4935 Clouds 21 1013 56 10000 6.7 290 16:49 19.07.2019
4936 Clouds 21 1012 64 10000 2.6 290 16:27 19.07.2019
4937 Clouds 21 1012 64 10000 5.7 290 15:55 19.07.2019
4938 Clouds 21 1012 64 10000 6.2 270 15:36 19.07.2019
4939 Clouds 21 1012 72 10000 3.6 320 15:18 19.07.2019
4940 Clouds 20 1012 68 10000 6.7 280 14:43 19.07.2019
4941 Clouds 20 1012 72 10000 4.1 340 14:23 19.07.2019
4942 Clouds 20 1012 77 10000 5.1 300 13:46 19.07.2019
4943 Clouds 20 1012 77 10000 3.1 320 13:26 19.07.2019
4944 Clouds 19 1012 82 10000 3.6 270 12:56 19.07.2019
4945 Clouds 19 1012 77 10000 2.6 260 12:37 19.07.2019
4946 Clouds 18 1011 77 10000 2.6 260 12:19 19.07.2019
4947 Mist 18 1012 82 10000 3.1 280 11:44 19.07.2019
4948 Mist 18 1012 93 5000 2.1 270 11:18 19.07.2019
4949 Rain 18 1012 93 3000 4.1 300 10:48 19.07.2019
4950 Rain 18 1011 77 10000 2.6 260 10:23 19.07.2019
4951 Drizzle 17 1011 88 7000 4.6 270 09:59 19.07.2019
4952 Clouds 17 1011 88 7000 4.6 270 09:41 19.07.2019
4953 Mist 17 1010 82 10000 3.1 250 09:22 19.07.2019
4954 Mist 17 1011 88 8000 4.1 280 08:49 19.07.2019
4955 Mist 17 1010 88 8000 1.5 200 08:22 19.07.2019
4956 Mist 16 1010 93 0 0.5 270 07:29 19.07.2019
4957 Mist 16 1010 100 1500 1 160 06:19 19.07.2019
4958 Rain 17 1010 88 0 1.5 350 02:56 19.07.2019
4959 Rain 17 1010 93 0 2.6 120 01:21 19.07.2019
4960 Rain 17 1009 93 0 3.1 140 00:46 19.07.2019
4961 Rain 18 1010 82 0 3.6 140 23:59 18.07.2019
4962 Rain 18 1010 88 0 3.1 130 23:40 18.07.2019
4963 Rain 18 1010 82 0 3.6 130 23:22 18.07.2019
4964 Rain 18 1010 82 0 3.6 140 22:42 18.07.2019
4965 Rain 19 1010 72 0 5.1 130 22:20 18.07.2019
4966 Rain 19 1010 72 0 3.1 130 21:56 18.07.2019
4967 Rain 19 1010 72 0 4.1 130 21:37 18.07.2019
4968 Rain 20 1010 77 0 3.6 120 21:18 18.07.2019
4969 Rain 21 1010 68 0 4.1 130 20:42 18.07.2019
4970 Rain 21 1010 68 0 3.6 120 20:23 18.07.2019
4971 Rain 21 1010 60 0 3.1 140 19:47 18.07.2019
4972 Rain 21 1010 60 0 3.1 130 19:27 18.07.2019
4973 Clouds 21 1010 68 10000 3.1 110 18:50 18.07.2019
4974 Clear 22 1010 53 10000 4.1 140 18:22 18.07.2019
4975 Clouds 23 1010 60 10000 3.6 100 17:56 18.07.2019
4976 Clear 23 1011 68 10000 4.1 50 17:37 18.07.2019
4977 Clouds 23 1011 56 10000 4.6 120 17:19 18.07.2019
4978 Clouds 23 1011 56 10000 2.6 60 16:49 18.07.2019
4979 Clouds 23 1011 56 10000 5.7 120 16:25 18.07.2019
4980 Clouds 23 1011 60 10000 2.1 70 15:57 18.07.2019
4981 Clear 23 1011 56 10000 4.6 50 15:36 18.07.2019
4982 Clouds 23 1011 64 10000 3.6 90 14:56 18.07.2019
4983 Clouds 23 1011 56 10000 3.6 60 14:38 18.07.2019
4984 Clouds 23 1011 60 10000 6.2 120 14:19 18.07.2019
4985 Clouds 22 1011 64 10000 2.1 130 13:38 18.07.2019
4986 Clouds 22 1011 64 10000 2.1 130 13:19 18.07.2019
4987 Clouds 22 1012 60 10000 3.1 160 12:45 18.07.2019
4988 Clouds 22 1012 60 10000 3.1 160 12:21 18.07.2019
4989 Clouds 21 1012 56 10000 1 240 11:51 18.07.2019
4990 Clouds 21 1012 68 10000 3.1 140 11:33 18.07.2019
4991 Clouds 20 1012 64 10000 2.1 160 10:52 18.07.2019
4992 Clouds 19 1012 72 10000 3.1 150 10:30 18.07.2019
4993 Clouds 18 1012 82 10000 2.1 190 09:45 18.07.2019
4994 Clouds 17 1012 77 10000 3.1 160 09:23 18.07.2019
4995 Clouds 16 1012 87 10000 2.1 150 08:49 18.07.2019
4996 Clear 15 1012 93 10000 2.6 110 08:20 18.07.2019
4997 Mist 13 1012 100 9000 1 0 07:43 18.07.2019
4998 Mist 13 1013 93 2000 2.18 174.822 07:24 18.07.2019
4999 Fog 11 1012 93 0 2.18 174.822 06:37 18.07.2019
5000 Rain 10 1013 100 10000 0.5 130 05:33 18.07.2019
5001 Fog 11 1013 93 0 2.1 320 03:23 18.07.2019
5002 Fog 12 1013 93 10000 1.5 340 01:52 18.07.2019
5003 Clear 13 1013 87 0 2.1 280 00:36 18.07.2019
5004 Clear 14 1014 87 10000 2.6 310 23:54 17.07.2019
5005 Clear 14 1013 82 0 2.1 270 23:20 17.07.2019
5006 Clear 15 1014 87 10000 3.1 310 22:56 17.07.2019
5007 Clear 15 1013 72 0 2.1 300 22:38 17.07.2019
5008 Clear 15 1013 72 0 2.1 300 22:19 17.07.2019
5009 Clouds 16 1013 77 10000 4.1 300 21:45 17.07.2019
5010 Clear 17 1013 68 0 1.5 230 21:26 17.07.2019
5011 Clouds 18 1013 72 10000 6.7 280 20:58 17.07.2019
5012 Clear 19 1013 64 0 2.1 190 20:39 17.07.2019
5013 Clear 20 1013 64 0 2.1 190 20:21 17.07.2019
5014 Clouds 20 1013 64 10000 5.1 280 19:56 17.07.2019
5015 Clouds 20 1013 64 10000 5.1 280 19:37 17.07.2019
5016 Clouds 20 1013 60 10000 3.6 280 19:18 17.07.2019
5017 Clouds 20 1013 53 10000 2.1 210 18:40 17.07.2019
5018 Clouds 21 1013 53 10000 2.1 210 18:20 17.07.2019
5019 Clear 21 1014 68 5000 2.6 260 17:50 17.07.2019
5020 Clouds 20 1014 68 10000 2.6 290 17:27 17.07.2019
5021 Clouds 20 1014 68 10000 2.6 290 17:27 17.07.2019
5022 Clouds 20 1014 60 10000 3.1 280 16:56 17.07.2019
5023 Clouds 20 1015 72 10000 2.6 280 16:38 17.07.2019
5024 Clouds 20 1015 72 10000 2.6 280 16:18 17.07.2019
5025 Clouds 19 1014 64 10000 1.5 330 15:50 17.07.2019
5026 -273 0 0 0 0 0 15:25 17.07.2019
5027 Clouds 18 1015 63 10000 1.5 320 14:54 17.07.2019
5028 Clouds 18 1014 56 10000 2.1 180 14:36 17.07.2019
5029 Clouds 18 1014 56 10000 2.1 180 14:18 17.07.2019
5030 Clouds 18 1015 68 10000 1.5 190 13:41 17.07.2019
5031 Clouds 17 1015 68 10000 1.5 190 13:21 17.07.2019
5032 Clouds 16 1015 72 10000 2.1 210 12:40 17.07.2019
5033 Clouds 16 1015 72 10000 2.1 210 12:21 17.07.2019
5034 Clouds 15 1015 82 10000 1.5 300 11:45 17.07.2019
5035 Clouds 15 1015 82 10000 2.1 330 11:21 17.07.2019
5036 Clouds 15 1015 82 9000 1.5 260 10:55 17.07.2019
5037 Clouds 14 1015 93 9000 2.1 280 10:37 17.07.2019
5038 Clouds 14 1015 87 9000 1.5 330 10:18 17.07.2019
5039 Clouds 14 1015 87 10000 1.5 0 09:44 17.07.2019
5040 Clouds 14 1015 87 9000 2.1 320 09:24 17.07.2019
5041 Drizzle 13 1015 87 10000 2.6 320 08:43 17.07.2019
5042 Drizzle 13 1014 87 9000 2.1 340 08:22 17.07.2019
5043 Mist 13 1015 93 10000 3.6 340 07:51 17.07.2019
5044 Drizzle 13 1015 93 10000 2.1 290 07:25 17.07.2019
5045 Drizzle 13 1014 87 0 2.1 330 06:57 17.07.2019
5046 Drizzle 13 1015 93 10000 1.5 300 06:30 17.07.2019
5047 Drizzle 13 1015 93 10000 2.1 340 05:57 17.07.2019
5048 Clear 13 1014 87 0 4.1 330 05:30 17.07.2019
5049 Clear 13 1015 87 6000 3.1 320 04:46 17.07.2019
5050 Clear 13 1015 87 0 3.1 300 03:32 17.07.2019
5051 Clouds 13 1015 93 6000 3.1 300 02:25 17.07.2019
5052 Clouds 13 1015 93 8000 3.1 310 01:28 17.07.2019
5053 Clouds 13 1015 93 8000 3.6 310 00:59 17.07.2019
5054 Clouds 13 1015 93 8000 4.1 300 00:37 17.07.2019
5055 Clouds 13 1015 93 8000 4.1 300 00:19 17.07.2019
5056 Clouds 14 1015 93 8000 3.1 280 23:41 16.07.2019
5057 Clouds 14 1015 93 8000 3.1 280 23:21 16.07.2019
5058 Clouds 14 1014 82 0 4.1 270 22:43 16.07.2019
5059 Clouds 14 1014 82 0 4.1 270 22:24 16.07.2019
5060 Clouds 15 1014 82 10000 9.3 290 21:56 16.07.2019
5061 Clear 15 1014 82 10000 3.6 270 21:36 16.07.2019
5062 Clouds 15 1013 77 0 4.6 260 21:18 16.07.2019
5063 Clouds 16 1013 72 0 4.6 260 20:41 16.07.2019
5064 Clouds 16 1013 72 0 4.6 260 20:22 16.07.2019
5065 Clouds 17 1014 77 10000 4.6 280 19:54 16.07.2019
5066 Clouds 17 1014 77 10000 6.2 280 19:30 16.07.2019
5067 Clouds 18 1014 68 10000 6.7 290 18:59 16.07.2019
5068 Clouds 19 1013 72 10000 6.7 270 18:40 16.07.2019
5069 Clouds 19 1013 72 10000 6.7 270 18:20 16.07.2019
5070 Clouds 20 1013 64 10000 5.7 270 17:49 16.07.2019
5071 Clouds 20 1013 64 10000 5.7 270 17:49 16.07.2019
5072 Clouds 20 1013 60 10000 4.1 290 17:28 16.07.2019
5073 Clouds 20 1013 64 10000 7.2 300 16:50 16.07.2019
5074 Clouds 20 1013 56 10000 3.6 290 16:27 16.07.2019
5075 Clouds 20 1013 64 10000 7.2 300 15:57 16.07.2019
5076 Clouds 20 1013 64 10000 5.1 300 15:39 16.07.2019
5077 Clouds 20 1013 68 10000 9.3 300 15:19 16.07.2019
5078 Clouds 20 1013 68 10000 9.3 300 14:55 16.07.2019
5079 Clouds 19 1012 64 10000 5.7 310 14:37 16.07.2019
5080 Clouds 19 1012 64 10000 5.7 310 14:18 16.07.2019
5081 Clouds 19 1014 68 10000 8.2 290 13:43 16.07.2019
5082 Clouds 19 1013 68 10000 5.7 290 13:18 16.07.2019
5083 Clouds 18 1013 68 10000 6.7 290 12:44 16.07.2019
5084 Clouds 17 1013 68 10000 6.7 290 12:20 16.07.2019
5085 Clouds 17 1013 72 10000 6.7 280 11:55 16.07.2019
5086 Clouds 16 1012 72 10000 5.1 300 11:36 16.07.2019
5087 Clouds 16 1013 72 10000 10.8 310 11:18 16.07.2019
5088 Clouds 16 1014 87 9000 7.7 310 10:44 16.07.2019
5089 Drizzle 15 1013 82 10000 10.3 320 10:20 16.07.2019
5090 Drizzle 15 1014 87 5000 7.2 310 09:44 16.07.2019
5091 Drizzle 15 1014 87 5000 7.2 310 09:22 16.07.2019
5092 Drizzle 15 1013 93 10000 7.7 310 08:58 16.07.2019
5093 Drizzle 14 1012 82 10000 3.6 290 08:40 16.07.2019
5094 Drizzle 14 1013 93 7000 5.7 290 08:18 16.07.2019
5095 Drizzle 14 1012 87 10000 6.7 290 07:41 16.07.2019
5096 Drizzle 14 1012 87 10000 6.7 290 07:22 16.07.2019
5097 Clouds 13 1012 87 0 4.1 290 06:45 16.07.2019
5098 Clouds 13 1012 87 0 4.1 290 06:22 16.07.2019
5099 Mist 13 1014 93 4500 5.7 280 05:32 16.07.2019
5100 Drizzle 14 1013 93 10000 4.6 300 04:57 16.07.2019
5101 Clouds 14 1013 87 10000 6.7 310 03:54 16.07.2019
5102 Clouds 14 1013 87 0 4.6 310 03:18 16.07.2019
5103 Clouds 14 1013 87 0 4.1 300 02:30 16.07.2019
5104 Clouds 14 1014 82 6000 6.2 310 01:43 16.07.2019
5105 Clouds 14 1014 82 6000 5.1 290 00:47 16.07.2019
5106 Clouds 14 1014 82 10000 7.7 300 00:20 16.07.2019
5107 Clouds 14 1014 82 6000 6.7 290 23:47 15.07.2019
5108 Clouds 14 1013 82 0 4.1 300 23:29 15.07.2019
5109 Clouds 15 1014 77 6000 6.2 300 22:48 15.07.2019
5110 Clouds 15 1013 77 10000 10.8 310 22:22 15.07.2019
5111 Clouds 15 1013 77 10000 10.8 310 21:59 15.07.2019
5112 Clouds 15 1013 82 10000 6.7 300 21:41 15.07.2019
5113 Clouds 15 1013 82 10000 11.3 300 21:20 15.07.2019
5114 Clouds 15 1013 82 10000 11.3 300 20:57 15.07.2019
5115 Clouds 15 1013 77 0 4.6 280 20:38 15.07.2019
5116 Clouds 15 1013 77 0 4.6 280 20:20 15.07.2019
5117 Clouds 15 1013 77 10000 11.8 290 19:43 15.07.2019
5118 Clouds 15 1013 77 10000 11.8 290 19:21 15.07.2019
5119 Clouds 15 1013 77 10000 11.8 290 18:57 15.07.2019
5120 Clouds 16 1013 72 10000 6.7 280 18:37 15.07.2019
5121 Clouds 16 1013 72 10000 7.2 280 18:18 15.07.2019
5122 Clouds 16 1013 72 10000 7.2 280 18:18 15.07.2019
5123 Clouds 16 1013 72 10000 7.2 280 18:18 15.07.2019
5124 Clouds 16 1015 72 10000 8.2 280 17:44 15.07.2019
5125 Clouds 16 1013 77 10000 7.2 280 17:26 15.07.2019
5126 Clouds 16 1013 77 10000 11.3 290 16:59 15.07.2019
5127 Clouds 16 1013 77 10000 11.3 290 16:59 15.07.2019
5128 Clouds 16 1013 67 10000 5.7 280 16:38 15.07.2019
5129 Clouds 16 1013 67 10000 5.7 280 16:20 15.07.2019
5130 Clouds 16 1013 67 10000 5.7 280 16:20 15.07.2019
5131 Clouds 16 1014 72 10000 10.8 290 15:55 15.07.2019
5132 Clouds 16 1013 63 10000 5.1 270 15:37 15.07.2019
5133 Clouds 16 1015 72 10000 8.7 260 15:19 15.07.2019
5134 Clouds 15 1015 67 10000 8.7 270 14:43 15.07.2019
5135 Clouds 16 1014 67 10000 6.2 260 14:23 15.07.2019
5136 Clouds 16 1014 67 10000 5.1 260 13:51 15.07.2019
5137 Clouds 15 1014 72 10000 5.7 250 13:22 15.07.2019
5138 Clouds 15 1014 72 10000 7.2 270 12:59 15.07.2019
5139 Clouds 15 1014 77 10000 6.7 280 12:41 15.07.2019
5140 Clouds 15 1014 77 10000 6.7 280 12:20 15.07.2019
5141 Clouds 15 1015 67 10000 8.2 280 11:42 15.07.2019
5142 Clouds 14 1014 67 10000 4.6 270 11:24 15.07.2019
5143 Clouds 14 1016 71 10000 6.7 280 10:47 15.07.2019
5144 Clouds 14 1014 71 10000 4.1 280 10:28 15.07.2019
5145 Clouds 14 1016 67 10000 7.2 290 09:48 15.07.2019
5146 Clouds 14 1014 71 10000 3.6 280 09:28 15.07.2019
5147 Clouds 13 1015 76 10000 9.8 290 08:59 15.07.2019
5148 Clouds 13 1015 76 10000 5.1 280 08:41 15.07.2019
5149 Clouds 13 1015 76 10000 5.1 280 08:23 15.07.2019
5150 Clouds 13 1015 76 10000 3.6 280 07:39 15.07.2019
5151 Clouds 13 1015 76 10000 4.1 290 07:19 15.07.2019
5152 Clouds 13 1015 81 10000 3.6 280 06:39 15.07.2019
5153 Clouds 13 1016 76 10000 4.6 290 05:47 15.07.2019
5154 Clouds 13 1015 76 0 3.1 300 05:27 15.07.2019
5155 Clouds 13 1015 76 0 3.6 300 04:42 15.07.2019
5156 Clouds 13 1017 76 8000 5.1 300 03:48 15.07.2019
5157 Clouds 13 1017 76 8000 4.1 290 02:44 15.07.2019
5158 Clouds 13 1017 76 7000 4.1 300 01:44 15.07.2019
5159 Clouds 13 1016 82 0 3.1 290 01:26 15.07.2019
5160 Clouds 13 1016 82 0 3.1 290 00:51 15.07.2019
5161 Clouds 13 1016 76 0 3.6 300 00:20 15.07.2019
5162 Clouds 13 1017 82 10000 4.1 300 23:55 14.07.2019
5163 Clouds 14 1016 76 0 3.1 280 23:36 14.07.2019
5164 Clouds 14 1016 76 0 3.1 280 23:18 14.07.2019
5165 Clouds 14 1016 87 10000 4.1 290 22:41 14.07.2019
5166 Clouds 14 1016 87 10000 4.1 290 22:22 14.07.2019
5167 Clouds 14 1016 87 10000 4.1 290 22:22 14.07.2019
5168 Clouds 14 1016 82 10000 8.2 320 21:59 14.07.2019
5169 Clouds 14 1016 82 0 3.1 260 21:41 14.07.2019
5170 Clouds 14 1016 82 0 3.1 260 21:18 14.07.2019
5171 Clouds 15 1016 82 10000 5.1 290 20:57 14.07.2019
5172 Clouds 15 1016 77 10000 5.7 300 20:37 14.07.2019
5173 Clouds 15 1016 77 10000 5.7 300 20:18 14.07.2019
5174 Clouds 15 1017 77 7000 5.1 290 19:43 14.07.2019
5175 Clouds 15 1016 77 10000 5.7 280 19:24 14.07.2019
5176 Clouds 15 1016 77 10000 3.1 270 18:57 14.07.2019
5177 Clouds 15 1016 77 10000 4.6 280 18:38 14.07.2019
5178 Clouds 15 1016 82 10000 4.6 280 18:19 14.07.2019
5179 Clouds 16 1017 82 7000 5.7 280 17:47 14.07.2019
5180 Clouds 16 1016 82 10000 4.6 260 17:21 14.07.2019
5181 Clouds 16 1017 77 7000 4.6 270 16:46 14.07.2019
5182 Clouds 16 1016 82 10000 3.1 250 16:24 14.07.2019
5183 Clouds 16 1017 82 10000 6.7 280 15:54 14.07.2019
5184 Clouds 16 1016 77 10000 2.6 270 15:29 14.07.2019
5185 Clouds 16 1017 82 10000 6.7 270 14:50 14.07.2019
5186 Drizzle 16 1016 77 0 2.6 270 14:22 14.07.2019
5187 Drizzle 15 1017 82 10000 5.1 290 13:57 14.07.2019
5188 Drizzle 15 1016 82 10000 3.1 270 13:37 14.07.2019
5189 Drizzle 15 1017 87 7000 5.7 280 13:19 14.07.2019
5190 Rain 15 1017 87 9000 4.1 290 12:42 14.07.2019
5191 Rain 15 1017 87 9000 4.1 290 12:22 14.07.2019
5192 Drizzle 15 1016 87 0 3.1 290 11:53 14.07.2019
5193 Clouds 15 1016 82 0 3.1 330 11:28 14.07.2019
5194 Drizzle 14 1016 82 10000 4.1 280 10:59 14.07.2019
5195 Clouds 14 1016 82 0 2.6 290 10:40 14.07.2019
5196 Clouds 14 1016 82 0 2.6 290 10:19 14.07.2019
5197 Drizzle 14 1016 82 0 2.6 300 09:42 14.07.2019
5198 Drizzle 14 1016 82 0 2.6 300 09:23 14.07.2019
5199 Drizzle 14 1016 82 7000 3.6 290 08:43 14.07.2019
5200 Drizzle 13 1016 87 7000 5.1 290 07:58 14.07.2019
5201 Clouds 13 1015 87 7000 2.6 270 07:38 14.07.2019
5202 Clouds 13 1015 87 8000 2.6 280 06:57 14.07.2019
5203 Mist 13 1015 87 10000 2.1 280 05:45 14.07.2019
5204 Clouds 13 1016 93 6000 3.1 290 03:48 14.07.2019
5205 Clouds 14 1015 87 0 2.6 270 03:29 14.07.2019
5206 Clouds 14 1016 82 6000 3.1 290 02:41 14.07.2019
5207 Clouds 14 1016 87 10000 2.6 300 02:21 14.07.2019
5208 Clouds 14 1016 82 0 3.1 310 01:33 14.07.2019
5209 Clouds 14 1016 87 0 4.1 290 00:57 14.07.2019
5210 Clouds 14 1016 77 0 4.1 300 00:39 14.07.2019
5211 Clouds 14 1016 77 0 4.1 300 00:19 14.07.2019
5212 Clouds 15 1015 77 0 3.6 300 23:45 13.07.2019
5213 Clouds 15 1015 77 0 3.6 300 23:25 13.07.2019
5214 Clouds 15 1016 82 10000 4.6 300 22:55 13.07.2019
5215 Clouds 15 1015 77 0 2.6 270 22:37 13.07.2019
5216 Clouds 15 1015 77 0 6.7 310 22:18 13.07.2019
5217 Clouds 16 1015 77 0 3.6 290 21:42 13.07.2019
5218 Clouds 16 1015 77 10000 9.3 300 21:19 13.07.2019
5219 Clouds 16 1015 77 10000 9.3 300 20:42 13.07.2019
5220 Clouds 17 1015 77 10000 9.3 300 20:24 13.07.2019
5221 Clouds 17 1015 72 7000 6.2 310 19:45 13.07.2019
5222 Clouds 18 1015 77 10000 5.7 290 19:26 13.07.2019
5223 Clouds 18 1015 68 7000 7.2 280 18:44 13.07.2019
5224 Clouds 19 1014 72 10000 6.2 270 18:21 13.07.2019
5225 Clouds 19 1014 64 10000 6.2 320 17:39 13.07.2019
5226 Clouds 19 1014 64 10000 6.2 320 17:20 13.07.2019
5227 Clouds 19 1014 68 10000 6.7 310 16:57 13.07.2019
5228 Clouds 19 1014 72 10000 5.1 330 16:37 13.07.2019
5229 Clouds 19 1014 72 10000 5.7 300 16:19 13.07.2019
5230 Clear 19 1015 77 6000 4.6 310 15:43 13.07.2019
5231 Clouds 19 1014 68 10000 4.1 320 15:21 13.07.2019
5232 Clouds 19 1015 77 6000 5.1 310 14:44 13.07.2019
5233 Clouds 19 1014 77 10000 6.2 330 14:22 13.07.2019
5234 Clouds 18 1015 82 6000 4.6 300 13:46 13.07.2019
5235 Clouds 18 1015 82 10000 3.6 270 13:24 13.07.2019
5236 Clouds 18 1014 77 8000 3.1 300 12:59 13.07.2019
5237 Clouds 18 1014 82 7000 4.1 320 12:39 13.07.2019
5238 Clouds 18 1015 87 10000 3.6 300 12:20 13.07.2019
5239 Clouds 18 1014 88 5000 3.1 340 11:41 13.07.2019
5240 Mist 18 1014 93 6000 2.6 360 11:19 13.07.2019
5241 Mist 17 1014 88 6000 4.1 320 10:44 13.07.2019
5242 Mist 17 1014 87 10000 3.6 300 10:23 13.07.2019
5243 Mist 17 1014 100 4500 3.6 360 09:57 13.07.2019
5244 Mist 16 1013 93 700 4.1 340 09:38 13.07.2019
5245 Mist 16 1013 100 1800 3.6 330 09:18 13.07.2019
5246 Fog 16 1013 100 400 4.6 330 08:33 13.07.2019
5247 Fog 15 1013 100 500 3.1 310 07:59 13.07.2019
5248 Fog 15 1012 100 500 4.6 330 07:30 13.07.2019
5249 Mist 14 1013 100 200 3.1 330 06:40 13.07.2019
5250 Mist 14 1013 100 100 2.1 340 05:58 13.07.2019
5251 Mist 14 1012 93 0 1.5 340 05:28 13.07.2019
5252 Mist 14 1011 100 0 3.1 330 04:23 13.07.2019
5253 Mist 14 1011 100 8000 1.5 320 03:56 13.07.2019
5254 Mist 14 1011 100 0 2.6 340 03:37 13.07.2019
5255 Mist 15 1011 100 6000 1 340 01:57 13.07.2019
5256 Mist 15 1012 93 10000 2.1 360 01:39 13.07.2019
5257 Mist 15 1012 93 10000 2.6 360 01:18 13.07.2019
5258 Mist 15 1012 93 10000 2.6 360 00:51 13.07.2019
5259 Mist 16 1012 93 10000 1 340 00:19 13.07.2019
5260 Rain 16 1011 100 4500 2.1 360 23:46 12.07.2019
5261 Rain 16 1011 93 0 0.5 0 23:28 12.07.2019
5262 Mist 16 1010 93 4100 2.6 340 22:46 12.07.2019
5263 Rain 17 1010 93 0 2.6 50 22:24 12.07.2019
5264 Clouds 17 1010 93 6000 1.5 320 21:43 12.07.2019
5265 Clouds 17 1010 93 10000 1.5 90 21:22 12.07.2019
5266 Clouds 17 1010 88 10000 1.5 10 20:57 12.07.2019
5267 Clouds 18 1010 88 10000 2.6 360 20:38 12.07.2019
5268 Clouds 18 1010 88 10000 2.6 360 20:20 12.07.2019
5269 Rain 18 1009 82 7000 1.5 300 19:42 12.07.2019
5270 Clouds 18 1010 93 10000 3.1 340 19:23 12.07.2019
5271 Rain 18 1009 88 6000 1 320 18:46 12.07.2019
5272 Clouds 19 1010 93 10000 2.6 330 18:22 12.07.2019
5273 Clouds 19 1010 93 10000 2.6 330 17:55 12.07.2019
5274 Rain 19 1010 88 10000 2.6 330 17:29 12.07.2019
5275 Clouds 20 1009 88 8000 3.1 120 16:52 12.07.2019
5276 Thunderstorm 19 1009 68 10000 4.1 120 16:25 12.07.2019
5277 Thunderstorm 19 1009 88 8000 3.6 140 15:57 12.07.2019
5278 Clouds 19 1009 64 10000 4.1 120 15:37 12.07.2019
5279 Clouds 19 1009 64 10000 4.1 120 15:18 12.07.2019
5280 Rain 19 1009 82 0 3.1 230 14:44 12.07.2019
5281 Rain 19 1009 68 10000 3.6 100 14:21 12.07.2019
5282 Rain 18 1009 77 7000 4.1 240 13:46 12.07.2019
5283 Rain 18 1009 72 10000 3.6 80 13:23 12.07.2019
5284 Rain 19 1009 93 6000 1 0 12:42 12.07.2019
5285 Rain 19 1009 93 6000 1 0 12:23 12.07.2019
5286 Clouds 18 1009 77 10000 1.5 250 11:47 12.07.2019
5287 Clouds 17 1009 88 6000 2.6 110 11:24 12.07.2019
5288 Clouds 17 1009 88 8000 1 10 10:59 12.07.2019
5289 Mist 17 1009 93 8000 1.5 180 10:41 12.07.2019
5290 Mist 17 1009 93 8000 1.5 180 10:23 12.07.2019
5291 Mist 17 1009 93 4000 1 40 09:53 12.07.2019
5292 Mist 16 1009 88 4000 2.1 100 09:27 12.07.2019
5293 Mist 16 1009 88 5000 0.5 40 08:50 12.07.2019
5294 Mist 16 1009 100 4500 2.1 110 08:24 12.07.2019
5295 Mist 16 1009 100 4000 2.1 110 07:51 12.07.2019
5296 Mist 16 1009 100 2500 1.5 100 07:29 12.07.2019
5297 Mist 16 1009 93 1500 1.5 110 06:32 12.07.2019
5298 Mist 15 1009 100 200 1.5 150 05:52 12.07.2019
5299 Mist 16 1009 100 0 1.5 180 04:53 12.07.2019
5300 Mist 16 1009 100 0 1.5 180 04:53 12.07.2019
5301 Rain 16 1010 100 0 1.5 160 02:36 12.07.2019
5302 Drizzle 16 1010 93 3000 1.5 160 01:37 12.07.2019
5303 Drizzle 16 1010 93 3000 1.5 160 01:37 12.07.2019
5304 Rain 16 1010 100 0 2.6 150 00:44 12.07.2019
5305 Rain 16 1011 100 2500 1 180 00:19 12.07.2019
5306 Rain 16 1011 93 2500 1 170 23:43 11.07.2019
5307 Rain 16 1010 93 0 2.1 140 23:23 11.07.2019
5308 Rain 16 1010 88 0 2.1 140 22:48 11.07.2019
5309 Rain 17 1010 88 0 2.6 140 22:26 11.07.2019
5310 Rain 17 1010 88 0 2.6 160 21:56 11.07.2019
5311 Rain 17 1010 100 8000 2.6 120 21:38 11.07.2019
5312 Rain 17 1010 82 0 2.6 180 21:18 11.07.2019
5313 Drizzle 18 1010 93 9000 2.1 140 20:42 11.07.2019
5314 Rain 18 1011 82 10000 2.6 140 20:23 11.07.2019
5315 Rain 18 1011 82 0 1.5 0 19:58 11.07.2019
5316 Clouds 18 1011 82 10000 3.1 120 19:39 11.07.2019
5317 Clouds 18 1011 82 10000 3.1 100 19:21 11.07.2019
5318 Clouds 19 1011 82 10000 1.5 120 18:43 11.07.2019
5319 Clouds 19 1011 82 10000 1.5 120 18:43 11.07.2019
5320 Clouds 18 1011 82 10000 1.5 120 18:24 11.07.2019
5321 Clouds 18 1011 82 10000 1.5 170 17:50 11.07.2019
5322 Clouds 18 1011 88 10000 2.6 150 17:31 11.07.2019
5323 Drizzle 18 1011 88 10000 2.6 210 16:58 11.07.2019
5324 Drizzle 18 1012 88 8000 1.5 170 16:40 11.07.2019
5325 Drizzle 17 1012 88 8000 1.5 170 16:19 11.07.2019
5326 Drizzle 17 1012 88 8000 1.5 150 15:43 11.07.2019
5327 Drizzle 16 1012 93 4000 2.6 190 15:24 11.07.2019
5328 Drizzle 16 1012 82 4000 2.6 190 14:46 11.07.2019
5329 Drizzle 16 1012 82 4000 2.6 190 14:25 11.07.2019
5330 Drizzle 16 1012 87 4500 3.1 200 13:59 11.07.2019
5331 Drizzle 16 1012 82 4500 3.6 200 13:41 11.07.2019
5332 Rain 16 1012 82 6000 3.6 190 13:23 11.07.2019
5333 Drizzle 16 1012 100 2000 2.6 160 12:38 11.07.2019
5334 Clouds 16 1012 72 10000 4.1 150 12:19 11.07.2019
5335 Rain 16 1012 82 10000 3.6 180 11:45 11.07.2019
5336 Rain 16 1012 82 10000 3.6 180 11:27 11.07.2019
5337 Rain 15 1012 93 3500 4.1 160 10:54 11.07.2019
5338 Rain 15 1012 82 10000 3.1 190 10:20 11.07.2019
5339 Rain 15 1012 82 10000 3.1 190 10:20 11.07.2019
5340 Rain 15 1012 82 10000 3.1 190 09:57 11.07.2019
5341 Rain 14 1013 82 10000 3.1 170 09:39 11.07.2019
5342 Rain 14 1013 82 10000 3.1 170 09:20 11.07.2019
5343 Drizzle 14 1013 100 4500 4.1 170 08:42 11.07.2019
5344 Drizzle 14 1013 100 4500 4.1 170 08:20 11.07.2019
5345 Drizzle 13 1013 87 8000 2.1 160 07:45 11.07.2019
5346 Drizzle 13 1013 100 2500 4.1 160 07:25 11.07.2019
5347 Drizzle 13 1013 93 1800 3.6 150 06:21 11.07.2019
5348 Drizzle 13 1014 87 8000 1.5 190 05:43 11.07.2019
5349 Drizzle 13 1014 87 6000 1 0 05:24 11.07.2019
5350 Drizzle 14 1014 93 10000 2.1 180 03:59 11.07.2019
5351 Clouds 14 1015 82 0 1 120 02:37 11.07.2019
5352 Clouds 14 1015 87 0 1 220 00:49 11.07.2019
5353 Clouds 14 1015 87 10000 1 200 23:53 10.07.2019
5354 Clouds 14 1016 82 0 1 280 23:31 10.07.2019
5355 Clouds 14 1016 72 10000 4.1 280 22:59 10.07.2019
5356 Clouds 15 1016 76 0 2.1 270 22:41 10.07.2019
5357 Clouds 14 1016 72 10000 4.1 280 22:19 10.07.2019
5358 Clouds 15 1016 67 8000 2.1 280 21:44 10.07.2019
5359 Clouds 16 1016 77 10000 5.1 290 21:26 10.07.2019
5360 Clouds 16 1016 77 10000 5.1 290 20:56 10.07.2019
5361 Clouds 16 1017 67 10000 7.7 280 20:37 10.07.2019
5362 Clouds 16 1017 67 10000 7.7 280 20:37 10.07.2019
5363 Clouds 16 1017 72 10000 4.1 260 20:18 10.07.2019
5364 Clouds 17 1017 55 9000 5.1 280 19:42 10.07.2019
5365 Clouds 17 1017 67 10000 5.1 270 19:22 10.07.2019
5366 Clouds 18 1017 63 10000 5.1 270 18:55 10.07.2019
5367 Clouds 18 1016 45 10000 4.1 290 18:37 10.07.2019
5368 Clouds 19 1016 40 10000 4.1 290 18:19 10.07.2019
5369 Clouds 19 1017 45 10000 6.7 290 17:41 10.07.2019
5370 Clouds 19 1017 48 10000 8.7 290 17:20 10.07.2019
5371 Clouds 20 1016 37 10000 5.1 310 16:37 10.07.2019
5372 Clouds 20 1017 48 10000 8.2 290 16:18 10.07.2019
5373 Clouds 20 1017 43 10000 6.2 280 15:45 10.07.2019
5374 Clouds 20 1017 40 10000 4.1 300 15:21 10.07.2019
5375 Clouds 20 1017 45 10000 6.7 320 14:41 10.07.2019
5376 Clouds 20 1017 45 10000 6.7 320 14:22 10.07.2019
5377 Clouds 20 1018 49 10000 7.2 310 13:52 10.07.2019
5378 Clouds 19 1018 52 10000 4.6 280 13:19 10.07.2019
5379 Clouds 19 1018 52 10000 4.6 280 13:19 10.07.2019
5380 Clouds 19 1018 52 10000 4.6 280 12:58 10.07.2019
5381 Clouds 19 1018 52 10000 4.6 280 12:58 10.07.2019
5382 Clouds 19 1018 52 10000 5.1 290 12:38 10.07.2019
5383 Clear 19 1017 52 10000 5.7 330 12:19 10.07.2019
5384 Clouds 18 1018 52 10000 4.6 300 11:46 10.07.2019
5385 Clear 17 1018 59 10000 4.6 320 11:21 10.07.2019
5386 Clouds 17 1018 59 10000 4.1 300 10:46 10.07.2019
5387 Clouds 16 1018 67 10000 4.6 330 10:23 10.07.2019
5388 Clouds 16 1018 63 10000 4.6 310 09:44 10.07.2019
5389 Clouds 15 1018 72 10000 4.6 320 09:21 10.07.2019
5390 Clouds 14 1018 82 10000 5.7 330 08:55 10.07.2019
5391 Clouds 14 1018 87 10000 3.6 310 08:36 10.07.2019
5392 Clear 14 1018 87 10000 3.6 300 08:18 10.07.2019
5393 Clear 12 1018 93 10000 2.1 290 07:42 10.07.2019
5394 Clear 12 1018 93 10000 2.1 290 07:20 10.07.2019
5395 Clouds 11 1018 93 0 4.1 310 06:21 10.07.2019
5396 Clouds 11 1018 87 0 3.6 300 05:39 10.07.2019
5397 Clouds 11 1018 87 0 4.1 300 04:29 10.07.2019
5398 Clouds 12 1018 93 10000 3.1 300 01:25 10.07.2019
5399 Clouds 12 1018 93 4800 3.6 270 00:42 10.07.2019
5400 Clouds 13 1017 87 0 2.6 260 23:42 09.07.2019
5401 Clouds 13 1017 87 0 2.6 260 23:22 09.07.2019
5402 Clouds 13 1018 82 10000 6.7 290 22:54 09.07.2019
5403 Clouds 14 1017 82 0 3.1 280 22:36 09.07.2019
5404 Clouds 14 1017 82 10000 8.7 290 22:18 09.07.2019
5405 Clouds 14 1018 76 5000 5.1 290 21:43 09.07.2019
5406 Clouds 14 1017 82 10000 4.1 280 21:24 09.07.2019
5407 Clouds 15 1018 67 5000 6.2 300 20:43 09.07.2019
5408 Clouds 15 1017 77 10000 4.6 280 20:25 09.07.2019
5409 Clouds 16 1016 72 10000 6.2 280 19:43 09.07.2019
5410 Clouds 16 1016 72 10000 6.2 280 19:24 09.07.2019
5411 Clouds 17 1016 63 10000 3.6 280 18:49 09.07.2019
5412 Clouds 17 1016 63 10000 3.6 280 18:49 09.07.2019
5413 Clouds 17 1016 63 10000 3.6 280 18:27 09.07.2019
5414 Clouds 17 1016 59 10000 5.7 280 17:57 09.07.2019
5415 Clouds 17 1016 59 10000 5.1 310 17:39 09.07.2019
5416 Clouds 17 1016 59 10000 5.1 310 17:20 09.07.2019
5417 Clouds 17 1017 59 10000 8.7 300 16:50 09.07.2019
5418 Clouds 17 1016 55 10000 4.6 300 16:25 09.07.2019
5419 Clouds 17 1016 59 10000 6.7 280 15:56 09.07.2019
5420 Clouds 17 1016 59 10000 7.7 320 15:36 09.07.2019
5421 Clouds 17 1016 63 10000 8.2 310 14:59 09.07.2019
5422 Clouds 17 1016 52 10000 4.6 310 14:40 09.07.2019
5423 Clouds 17 1016 63 10000 6.7 300 14:20 09.07.2019
5424 Clouds 17 1016 63 10000 6.7 290 13:45 09.07.2019
5425 Clouds 16 1016 63 10000 6.7 290 13:27 09.07.2019
5426 -273 0 0 0 0 0 12:56 09.07.2019
5427 Clouds 16 1016 67 10000 5.7 290 12:37 09.07.2019
5428 Clouds 16 1016 67 10000 4.1 300 12:18 09.07.2019
5429 Clouds 16 1016 67 10000 4.1 300 11:41 09.07.2019
5430 Clouds 15 1016 67 10000 4.1 300 11:22 09.07.2019
5431 Clouds 15 1016 72 10000 7.7 300 10:58 09.07.2019
5432 Rain 15 1016 67 10000 3.6 280 10:35 09.07.2019
5433 Clouds 14 1016 71 10000 5.7 300 09:59 09.07.2019
5434 Clouds 14 1016 71 10000 3.1 290 09:38 09.07.2019
5435 Clouds 14 1016 71 10000 4.6 300 09:19 09.07.2019
5436 Clouds 14 1017 71 10000 4.1 300 08:43 09.07.2019
5437 Rain 13 1013 93 8000 9.8 300 04:19 05.07.2019
5438 Rain 13 1013 93 2500 5.1 280 03:39 05.07.2019
5439 Rain 13 1013 93 2500 5.1 280 03:20 05.07.2019
5440 Rain 13 1013 100 8000 8.2 290 02:52 05.07.2019
5441 Rain 13 1013 93 0 2.6 270 02:20 05.07.2019
5442 Rain 13 1013 93 0 3.6 280 01:34 05.07.2019
5443 Rain 14 1014 87 4500 7.7 280 00:52 05.07.2019
5444 Rain 14 1013 93 6000 6.7 280 00:31 05.07.2019
5445 Rain 14 1015 93 4000 6.7 260 23:44 04.07.2019
5446 Rain 14 1014 93 10000 9.8 280 23:19 04.07.2019
5447 Drizzle 15 1014 93 0 4.1 270 22:42 04.07.2019
5448 Drizzle 15 1014 93 0 4.1 270 22:23 04.07.2019
5449 Rain 15 1016 82 4900 9.8 270 21:45 04.07.2019
5450 Rain 15 1014 87 0 5.7 260 21:26 04.07.2019
5451 Rain 16 1015 82 8000 12.9 280 20:59 04.07.2019
5452 Rain 16 1015 82 10000 6.7 260 20:38 04.07.2019
5453 Rain 16 1015 82 10000 6.7 260 20:20 04.07.2019
5454 Rain 16 1015 82 10000 6.2 250 19:42 04.07.2019
5455 Rain 16 1015 82 10000 6.2 250 19:22 04.07.2019
5456 Rain 16 1015 82 10000 6.2 250 19:22 04.07.2019
5457 Rain 16 1015 82 10000 6.2 250 18:57 04.07.2019
5458 Clouds 16 1016 82 10000 6.7 260 18:38 04.07.2019
5459 Clouds 16 1017 82 8000 13.4 280 18:20 04.07.2019
5460 Rain 16 1018 77 10000 10.3 270 17:43 04.07.2019
5461 Rain 16 1017 93 8000 4.6 260 17:19 04.07.2019
5462 Rain 16 1018 93 10000 9.8 280 15:57 04.07.2019
5463 Rain 16 1018 87 4000 5.7 260 15:39 04.07.2019
5464 Rain 16 1018 87 4000 6.7 260 15:19 04.07.2019
5465 Rain 16 1019 87 5000 14.4 280 14:44 04.07.2019
5466 Rain 16 1019 87 5000 14.4 280 14:25 04.07.2019
5467 Rain 16 1019 82 10000 11.3 280 13:59 04.07.2019
5468 Drizzle 16 1019 82 10000 9.3 270 13:41 04.07.2019
5469 Drizzle 16 1019 82 10000 9.3 270 13:41 04.07.2019
5470 Drizzle 16 1019 82 10000 11.3 260 13:22 04.07.2019
5471 Drizzle 16 1019 82 10000 11.3 260 12:55 04.07.2019
5472 Rain 15 1019 87 10000 10.3 260 12:36 04.07.2019
5473 Drizzle 15 1021 82 10000 7.2 260 12:18 04.07.2019
5474 Drizzle 14 1019 93 10000 8.2 260 11:39 04.07.2019
5475 Drizzle 14 1019 93 10000 8.2 260 11:39 04.07.2019
5476 Drizzle 14 1019 93 10000 8.2 260 11:19 04.07.2019
5477 Rain 14 1020 93 4500 9.3 270 10:40 04.07.2019
5478 Rain 14 1020 93 4500 9.3 270 10:21 04.07.2019
5479 Rain 14 1021 93 5000 9.3 260 09:45 04.07.2019
5480 Rain 13 1021 93 5000 9.3 260 09:26 04.07.2019
5481 Rain 13 1021 93 9000 8.7 250 08:56 04.07.2019
5482 Rain 13 1022 76 7000 7.7 270 08:25 04.07.2019
5483 Drizzle 13 1022 76 10000 4.6 240 07:46 04.07.2019
5484 Drizzle 12 1020 100 5000 5.1 240 07:23 04.07.2019
5485 Drizzle 12 1021 76 5000 8.7 270 06:55 04.07.2019
5486 Clouds 11 1021 93 10000 3.6 240 05:55 04.07.2019
5487 Drizzle 10 1021 87 3000 3.1 240 05:36 04.07.2019
5488 Clouds 9 1022 81 10000 6.7 280 02:51 04.07.2019
5489 Clouds 9 1023 87 6000 2.1 250 01:45 04.07.2019
5490 Clouds 10 1022 93 10000 3.1 250 01:23 04.07.2019
5491 Clouds 11 1022 71 0 3.1 280 00:28 04.07.2019
5492 Clouds 11 1023 81 6000 3.6 270 23:47 03.07.2019
5493 Clouds 12 1022 66 0 3.6 290 23:20 03.07.2019
5494 Clouds 12 1022 66 10000 7.2 320 22:55 03.07.2019
5495 Clouds 12 1022 62 0 4.1 290 22:36 03.07.2019
5496 Clouds 13 1022 67 10000 9.8 310 22:18 03.07.2019
5497 Rain 13 1023 71 6000 5.1 290 21:47 03.07.2019
5498 Clear 14 1022 67 0 4.1 300 21:28 03.07.2019
5499 Clear 14 1023 51 6000 6.7 290 20:47 03.07.2019
5500 Clouds 15 1022 58 10000 7.2 300 20:28 03.07.2019
5501 Clouds 15 1022 62 10000 11.3 320 19:57 03.07.2019
5502 Clear 15 1022 54 0 6.2 300 19:39 03.07.2019
5503 Clouds 16 1022 58 10000 11.8 320 18:56 03.07.2019
5504 Clear 16 1022 42 10000 6.2 290 18:37 03.07.2019
5505 Clouds 16 1022 58 10000 8.2 290 18:19 03.07.2019
5506 Clouds 17 1023 48 10000 10.3 300 17:49 03.07.2019
5507 Clouds 17 1023 42 10000 8.2 320 17:19 03.07.2019
5508 Clouds 17 1023 45 10000 8.7 310 16:45 03.07.2019
5509 Clouds 17 1022 48 10000 7.2 300 16:24 03.07.2019
5510 Clouds 17 1022 52 10000 12.3 300 15:55 03.07.2019
5511 Clouds 17 1021 59 10000 4.1 290 15:37 03.07.2019
5512 Clouds 17 1022 59 10000 10.8 310 15:18 03.07.2019
5513 Clouds 17 1022 48 10000 8.2 300 14:43 03.07.2019
5514 Clouds 17 1021 72 10000 5.1 320 14:20 03.07.2019
5515 Rain 16 1022 55 10000 6.2 310 13:45 03.07.2019
5516 Rain 16 1021 63 10000 6.7 280 13:27 03.07.2019
5517 Rain 16 1021 63 10000 6.2 310 12:51 03.07.2019
5518 Clouds 16 1021 59 10000 9.3 300 12:19 03.07.2019
5519 Clouds 16 1021 62 10000 6.7 280 11:54 03.07.2019
5520 Clouds 16 1021 55 10000 6.7 310 11:36 03.07.2019
5521 Clouds 16 1021 58 10000 8.2 330 11:18 03.07.2019
5522 Clouds 15 1021 58 10000 6.2 310 10:38 03.07.2019
5523 Clouds 15 1021 58 10000 6.2 310 10:20 03.07.2019
5524 Clouds 15 1021 67 10000 6.2 320 09:41 03.07.2019
5525 Clouds 14 1021 67 10000 6.2 320 09:20 03.07.2019
5526 Clouds 14 1021 76 10000 4.6 310 08:52 03.07.2019
5527 Clouds 13 1021 71 10000 5.1 320 08:31 03.07.2019
5528 Rain 12 1021 71 10000 5.7 310 07:47 03.07.2019
5529 Rain 12 1021 87 10000 3.6 300 07:28 03.07.2019
5530 Clear 11 1020 93 10000 2.1 270 06:30 03.07.2019
5531 Rain 11 1020 93 0 2.6 260 05:39 03.07.2019
5532 Rain 11 1020 81 10000 4.6 290 04:50 03.07.2019
5533 Rain 10 1020 81 0 3.1 250 03:26 03.07.2019
5534 Rain 10 1020 81 0 3.1 260 02:27 03.07.2019
5535 Clouds 10 1020 87 10000 4.6 250 01:22 03.07.2019
5536 Clear 10 1020 81 10000 3.1 260 00:52 03.07.2019
5537 Rain 10 1020 81 0 2.6 260 00:33 03.07.2019
5538 Clouds 11 1020 76 0 2.6 280 23:39 02.07.2019
5539 Clouds 12 1020 71 0 3.1 280 23:20 02.07.2019
5540 Clouds 12 1020 71 0 3.1 280 23:20 02.07.2019
5541 Clouds 12 1020 71 0 3.1 280 22:59 02.07.2019
5542 Clouds 12 1020 66 10000 7.2 300 22:40 02.07.2019
5543 Clouds 12 1020 66 0 2.6 280 22:22 02.07.2019
5544 Clouds 13 1020 62 10000 8.7 320 21:47 02.07.2019
5545 Clouds 13 1020 58 0 5.1 300 21:26 02.07.2019
5546 Clouds 14 1019 54 0 5.7 290 20:59 02.07.2019
5547 Clouds 14 1020 58 10000 10.3 320 20:41 02.07.2019
5548 Clouds 14 1019 47 0 5.1 290 20:22 02.07.2019
5549 Clouds 15 1019 47 0 5.7 290 19:44 02.07.2019
5550 Clouds 15 1019 51 0 6.2 290 19:25 02.07.2019
5551 Clouds 15 1019 51 10000 13.9 300 18:59 02.07.2019
5552 Clouds 16 1019 51 10000 13.9 300 18:41 02.07.2019
5553 Clouds 16 1019 51 10000 13.9 300 18:41 02.07.2019
5554 Clouds 16 1019 54 10000 7.7 300 18:18 02.07.2019
5555 Clouds 15 1019 51 10000 5.7 290 17:40 02.07.2019
5556 Clouds 16 1020 48 10000 10.8 290 17:20 02.07.2019
5557 Clouds 16 1019 54 10000 4.6 280 16:46 02.07.2019
5558 Clouds 16 1019 54 10000 4.6 280 16:28 02.07.2019
5559 Clouds 16 1018 54 10000 7.2 300 15:44 02.07.2019
5560 Clouds 16 1018 54 10000 7.2 300 15:24 02.07.2019
5561 Clouds 16 1019 51 10000 11.8 290 14:50 02.07.2019
5562 Clouds 16 1018 51 10000 6.7 300 14:32 02.07.2019
5563 Clouds 16 1018 62 10000 14.9 300 13:46 02.07.2019
5564 Clouds 16 1018 55 10000 14.9 310 13:23 02.07.2019
5565 Clouds 16 1018 62 10000 11.8 310 12:59 02.07.2019
5566 Clouds 15 1018 62 10000 11.8 310 12:41 02.07.2019
5567 Rain 15 1017 62 10000 6.2 300 12:18 02.07.2019
5568 Rain 15 1017 62 10000 6.7 300 11:42 02.07.2019
5569 Rain 15 1017 62 10000 6.7 300 11:21 02.07.2019
5570 Rain 14 1018 67 5000 9.8 290 10:46 02.07.2019
5571 Rain 14 1017 76 10000 5.7 290 10:25 02.07.2019
5572 Rain 14 1017 82 10000 9.8 310 09:46 02.07.2019
5573 Rain 13 1016 76 10000 4.6 300 09:22 02.07.2019
5574 Rain 13 1016 76 10000 4.6 300 08:52 02.07.2019
5575 Rain 13 1016 76 10000 10.3 300 08:34 02.07.2019
5576 Rain 13 1015 76 10000 4.1 270 07:55 02.07.2019
5577 Rain 12 1015 87 10000 3.1 290 07:21 02.07.2019
5578 Rain 13 1015 82 10000 9.3 290 06:53 02.07.2019
5579 Rain 13 1015 82 10000 9.3 290 06:35 02.07.2019
5580 Clouds 13 1015 87 10000 7.7 280 04:59 02.07.2019
5581 Rain 14 1014 87 0 3.6 270 02:28 02.07.2019
5582 Rain 15 1013 87 0 5.7 270 00:23 02.07.2019
5583 Rain 15 1013 87 10000 7.7 280 23:24 01.07.2019
5584 Rain 15 1014 87 5000 5.1 270 22:48 01.07.2019
5585 Clouds 15 1012 93 10000 5.7 270 22:28 01.07.2019
5586 Rain 15 1012 87 0 5.1 250 21:55 01.07.2019
5587 Rain 15 1012 82 10000 8.2 260 21:36 01.07.2019
5588 Rain 15 1012 82 10000 8.2 260 21:18 01.07.2019
5589 Rain 16 1014 87 8000 9.3 270 20:42 01.07.2019
5590 Rain 16 1012 93 0 5.1 260 20:20 01.07.2019
5591 Rain 16 1013 82 10000 11.8 280 19:43 01.07.2019
5592 Rain 17 1012 87 10000 8.7 260 19:24 01.07.2019
5593 Rain 17 1013 63 5000 12.3 260 18:56 01.07.2019
5594 Clouds 17 1012 77 10000 9.3 260 18:37 01.07.2019
5595 Rain 18 1012 77 10000 11.3 280 18:19 01.07.2019
5596 Rain 18 1013 63 10000 10.8 260 17:43 01.07.2019
5597 Rain 18 1011 67 10000 11.3 270 17:23 01.07.2019
5598 Clouds 19 1012 68 10000 14.9 280 16:56 01.07.2019
5599 Clouds 19 1012 56 10000 10.3 270 16:38 01.07.2019
5600 Clouds 19 1011 55 10000 7.2 260 16:19 01.07.2019
5601 Clouds 20 1012 56 10000 9.8 270 15:42 01.07.2019
5602 Clouds 20 1011 64 10000 14.9 270 15:22 01.07.2019
5603 Clouds 20 1012 60 10000 10.3 260 14:44 01.07.2019
5604 Clouds 20 1010 60 10000 7.2 270 14:20 01.07.2019
5605 Clouds 21 1011 72 10000 13.9 280 13:47 01.07.2019
5606 Rain 21 1010 60 10000 7.2 250 13:24 01.07.2019
5607 Clouds 21 1010 56 10000 11.3 240 12:56 01.07.2019
5608 Rain 21 1010 56 10000 11.8 250 12:38 01.07.2019
5609 Rain 21 1010 56 10000 11.8 250 12:19 01.07.2019
5610 Clouds 21 1010 56 10000 6.2 240 11:44 01.07.2019
5611 Clouds 21 1010 60 10000 5.1 240 11:22 01.07.2019
5612 Clouds 20 1011 64 10000 8.2 260 10:48 01.07.2019
5613 Clouds 20 1010 64 10000 5.1 240 10:25 01.07.2019
5614 Clouds 19 1011 68 10000 7.2 260 09:59 01.07.2019
5615 Clouds 19 1010 68 10000 8.2 240 09:40 01.07.2019
5616 Clouds 18 1010 77 10000 5.1 240 09:21 01.07.2019
5617 Clear 18 1012 77 10000 5.1 240 08:39 01.07.2019
5618 Clouds 17 1010 82 10000 3.1 230 08:21 01.07.2019
5619 Clear 16 1010 88 0 2.6 220 07:28 01.07.2019
5620 Clear 15 1010 93 0 3.1 210 06:30 01.07.2019
5621 Clouds 14 1012 82 10000 5.1 250 02:48 01.07.2019
5622 Clouds 15 1012 87 10000 6.7 260 00:53 01.07.2019
5623 Clear 15 1012 87 0 3.1 240 00:30 01.07.2019
5624 Clouds 15 1012 87 10000 7.2 260 23:58 30.06.2019
5625 Clear 16 1012 87 0 3.6 250 23:24 30.06.2019
5626 Clouds 16 1012 82 10000 6.7 270 22:54 30.06.2019
5627 Clear 17 1012 77 0 3.1 260 22:23 30.06.2019
5628 Clouds 17 1012 77 10000 8.7 290 21:58 30.06.2019
5629 Clear 18 1012 72 0 4.6 270 21:40 30.06.2019
5630 Clouds 18 1012 72 0 4.6 270 21:18 30.06.2019
5631 Clouds 19 1011 68 0 5.1 260 20:41 30.06.2019
5632 Clouds 19 1011 68 10000 5.1 260 20:23 30.06.2019
5633 Clouds 19 1012 68 10000 11.3 290 19:51 30.06.2019
5634 Clouds 20 1011 64 10000 5.1 260 19:26 30.06.2019
5635 Clouds 20 1011 68 0 11.8 300 18:53 30.06.2019
5636 Clouds 21 1010 56 10000 6.2 290 18:23 30.06.2019
5637 Clouds 22 1011 64 0 12.3 290 17:55 30.06.2019
5638 Clear 22 1011 60 10000 8.7 260 17:36 30.06.2019
5639 Clouds 22 1010 56 10000 5.7 280 17:18 30.06.2019
5640 Clouds 23 1009 57 10000 6.2 270 16:43 30.06.2019
5641 Clouds 23 1009 64 10000 6.2 270 16:25 30.06.2019
5642 Clouds 24 1010 65 10000 9.8 270 15:37 30.06.2019
5643 Clear 25 1008 65 10000 8.2 260 15:18 30.06.2019
5644 Clear 25 1008 73 0 14.4 280 14:49 30.06.2019
5645 Clear 26 1007 57 0 6.2 230 14:29 30.06.2019
5646 Clear 27 1008 57 0 11.8 260 13:46 30.06.2019
5647 Clouds 28 1006 45 0 6.2 240 13:24 30.06.2019
5648 Clouds 30 1007 45 0 10.3 260 12:50 30.06.2019
5649 Clouds 29 1006 42 0 4.6 200 12:27 30.06.2019
5650 Clear 29 1007 42 0 6.2 220 11:56 30.06.2019
5651 Clear 29 1008 42 10000 4.6 220 11:38 30.06.2019
5652 Clear 29 1007 45 0 4.6 190 11:18 30.06.2019
5653 Clear 28 1007 47 0 4.1 220 10:44 30.06.2019
5654 Clear 27 1007 50 0 3.1 180 10:19 30.06.2019
5655 Clear 26 1008 50 0 4.6 210 09:57 30.06.2019
5656 Clear 25 1009 44 10000 5.1 210 09:37 30.06.2019
5657 Clouds 24 1008 57 0 2.6 180 09:18 30.06.2019
5658 Clouds 22 1008 60 0 2.6 170 08:39 30.06.2019
5659 Clouds 22 1009 64 0 3.1 170 08:19 30.06.2019
5660 Clear 19 1009 73 10000 3.6 150 07:41 30.06.2019
5661 Clear 17 1009 77 10000 3.1 150 07:21 30.06.2019
5662 Clouds 15 1010 88 0 4.1 150 06:31 30.06.2019
5663 Clouds 15 1013 93 0 2.1 130 03:32 30.06.2019
5664 Clear 15 1014 93 10000 2.6 110 01:52 30.06.2019
5665 Clear 16 1014 87 10000 2.1 110 00:45 30.06.2019
5666 Clear 16 1015 82 0 1 100 00:23 30.06.2019
5667 Rain 17 1015 82 10000 0.5 0 23:48 29.06.2019
5668 Rain 18 1015 68 0 1.5 360 23:22 29.06.2019
5669 Clear 19 1015 82 10000 0.5 310 22:47 29.06.2019
5670 Clear 20 1016 60 0 1.5 320 22:23 29.06.2019
5671 Clear 22 1016 68 10000 2.6 300 21:55 29.06.2019
5672 Clear 24 1016 50 0 1.5 250 21:25 29.06.2019
5673 Clear 24 1016 53 10000 4.1 270 20:56 29.06.2019
5674 Clear 25 1016 41 0 2.1 240 20:36 29.06.2019
5675 Clear 25 1016 41 0 2.1 240 20:18 29.06.2019
5676 Clear 26 1016 41 0 2.1 240 19:41 29.06.2019
5677 Clear 26 1017 44 0 2.6 230 19:21 29.06.2019
5678 Clear 26 1017 44 10000 5.1 270 18:47 29.06.2019
5679 Clear 26 1017 39 10000 2.6 230 18:24 29.06.2019
5680 Clear 26 1017 39 10000 3.1 230 17:39 29.06.2019
5681 Clear 26 1018 36 10000 3.1 220 17:20 29.06.2019
5682 Clear 26 1018 50 10000 5.1 280 16:44 29.06.2019
5683 Clear 26 1018 44 10000 3.1 270 16:25 29.06.2019
5684 Clear 25 1019 50 10000 3.1 260 15:33 29.06.2019
5685 Clear 24 1019 53 10000 4.6 280 14:59 29.06.2019
5686 Clear 24 1020 47 10000 3.1 260 14:41 29.06.2019
5687 Clear 24 1019 47 10000 3.6 260 14:22 29.06.2019
5688 Clear 24 1020 50 10000 3.1 250 13:44 29.06.2019
5689 Clear 24 1020 56 10000 3.6 330 13:25 29.06.2019
5690 Clear 22 1020 60 10000 4.6 340 12:43 29.06.2019
5691 Clear 22 1021 60 10000 4.1 340 12:24 29.06.2019
5692 Clear 21 1021 60 10000 3.6 270 11:48 29.06.2019
5693 Clear 20 1020 68 10000 2.1 0 11:29 29.06.2019
5694 Clear 20 1021 68 10000 5.7 280 10:52 29.06.2019
5695 Clear 18 1021 72 10000 2.6 250 10:29 29.06.2019
5696 Clear 17 1021 77 10000 4.6 270 09:58 29.06.2019
5697 Clouds 16 1021 72 10000 2.6 260 09:31 29.06.2019
5698 Clouds 14 1021 87 10000 3.6 280 08:41 29.06.2019
5699 Mist 13 1022 93 8000 4.6 300 07:46 29.06.2019
5700 Fog 13 1022 100 900 2.6 300 07:21 29.06.2019
5701 Mist 12 1022 93 9000 4.6 280 06:43 29.06.2019
5702 Mist 12 1022 100 4000 1 0 06:21 29.06.2019
5703 Mist 12 1023 93 0 2.6 250 02:30 29.06.2019
5704 Clear 12 1023 87 0 4.6 310 00:57 29.06.2019
5705 Clear 13 1023 93 0 3.1 260 00:23 29.06.2019
5706 Clear 14 1023 87 0 3.1 260 23:26 28.06.2019
5707 Clear 14 1023 82 0 5.7 310 22:57 28.06.2019
5708 Clear 15 1023 77 10000 3.1 270 22:36 28.06.2019
5709 Clear 16 1023 72 0 6.7 290 21:48 28.06.2019
5710 Clear 17 1023 68 10000 3.1 270 21:24 28.06.2019
5711 Clear 18 1023 68 0 6.2 300 20:48 28.06.2019
5712 Clear 18 1024 68 10000 5.7 280 20:27 28.06.2019
5713 Clear 19 1024 64 0 7.2 290 19:53 28.06.2019
5714 Clear 20 1023 56 10000 3.1 280 19:28 28.06.2019
5715 Clouds 20 1024 60 10000 6.7 280 18:59 28.06.2019
5716 Clear 21 1023 53 10000 2.6 280 18:38 28.06.2019
5717 Clear 21 1023 53 10000 2.6 280 18:20 28.06.2019
5718 Clear 21 1023 53 10000 2.6 290 17:30 28.06.2019
5719 Clouds 21 1024 60 10000 6.7 280 16:51 28.06.2019
5720 Clouds 21 1024 53 10000 5.7 330 16:27 28.06.2019
5721 Clouds 21 1024 60 10000 6.2 290 15:48 28.06.2019
5722 Clouds 21 1024 53 10000 5.7 330 15:26 28.06.2019
5723 Clouds 21 1024 56 10000 5.1 310 14:57 28.06.2019
5724 Clouds 21 1024 64 10000 3.1 300 14:38 28.06.2019
5725 Clouds 21 1024 56 10000 4.1 340 14:20 28.06.2019
5726 Clouds 20 1024 60 10000 3.6 340 13:44 28.06.2019
5727 Clouds 20 1024 63 10000 3.6 20 13:22 28.06.2019
5728 Clouds 20 1025 60 10000 4.1 300 12:49 28.06.2019
5729 Clouds 19 1024 68 10000 4.1 360 12:24 28.06.2019
5730 Clouds 17 1025 72 10000 4.1 340 11:28 28.06.2019
5731 Clouds 17 1025 72 10000 4.6 340 10:47 28.06.2019
5732 Clouds 16 1025 67 10000 4.6 280 10:23 28.06.2019
5733 Clouds 16 1025 77 10000 6.7 330 09:59 28.06.2019
5734 Clouds 15 1025 77 10000 3.1 310 09:41 28.06.2019
5735 Clouds 15 1025 72 10000 3.1 320 09:22 28.06.2019
5736 Clouds 14 1025 82 10000 3.6 310 08:41 28.06.2019
5737 Clouds 14 1025 82 10000 2.6 310 08:23 28.06.2019
5738 Clouds 13 1025 76 10000 3.6 310 07:41 28.06.2019
5739 Clear 12 1024 87 0 3.6 320 06:40 28.06.2019
5740 Clear 12 1025 87 0 4.1 310 03:35 28.06.2019
5741 Clear 13 1025 87 0 6.2 310 00:46 28.06.2019
5742 Clear 13 1025 87 0 6.7 310 23:59 27.06.2019
5743 Clear 13 1025 76 0 3.1 280 23:41 27.06.2019
5744 Clear 13 1025 76 0 3.1 280 23:22 27.06.2019
5745 Clear 14 1025 82 0 6.7 310 22:43 27.06.2019
5746 Clear 14 1024 72 10000 4.1 310 22:24 27.06.2019
5747 Clear 14 1025 77 0 8.2 320 21:57 27.06.2019
5748 Clouds 15 1024 67 10000 4.6 310 21:38 27.06.2019
5749 Clouds 15 1024 67 10000 4.6 310 21:19 27.06.2019
5750 Clouds 15 1024 72 0 9.3 320 20:46 27.06.2019
5751 Clouds 16 1024 67 10000 6.7 300 20:28 27.06.2019
5752 Clouds 16 1024 72 0 9.3 300 19:49 27.06.2019
5753 Clouds 17 1024 63 10000 7.7 300 19:29 27.06.2019
5754 Clouds 17 1024 68 10000 10.3 300 18:52 27.06.2019
5755 Clouds 18 1024 59 10000 5.7 320 18:30 27.06.2019
5756 Clouds 18 1024 63 10000 10.3 310 17:58 27.06.2019
5757 Clouds 18 1024 67 10000 6.7 290 17:37 27.06.2019
5758 Clouds 17 1024 59 10000 5.7 320 17:18 27.06.2019
5759 Clouds 18 1024 60 10000 6.2 320 16:39 27.06.2019
5760 Clouds 18 1024 63 10000 5.7 320 16:19 27.06.2019
5761 Clouds 18 1024 68 10000 5.1 310 15:45 27.06.2019
5762 Clouds 17 1024 68 10000 6.7 320 15:24 27.06.2019
5763 Clouds 17 1025 72 10000 10.3 300 14:52 27.06.2019
5764 Clouds 17 1025 67 10000 6.7 320 14:30 27.06.2019
5765 Clouds 17 1025 72 10000 8.7 320 13:50 27.06.2019
5766 Clouds 17 1025 67 10000 6.7 330 13:32 27.06.2019
5767 Clouds 17 1025 77 10000 10.8 310 12:58 27.06.2019
5768 Clouds 17 1025 67 10000 6.2 290 12:40 27.06.2019
5769 Clouds 17 1024 67 10000 6.2 300 12:21 27.06.2019
5770 Clouds 16 1024 72 10000 7.2 300 11:42 27.06.2019
5771 Clouds 16 1024 67 10000 7.2 310 11:21 27.06.2019
5772 Clouds 15 1025 77 10000 10.8 340 10:56 27.06.2019
5773 Clouds 15 1025 72 10000 8.2 280 10:36 27.06.2019
5774 Clouds 15 1024 77 10000 6.7 310 10:18 27.06.2019
5775 Clouds 15 1024 72 10000 7.7 290 09:37 27.06.2019
5776 Clouds 15 1024 77 10000 5.7 290 09:19 27.06.2019
5777 Clouds 14 1023 76 10000 5.7 300 08:45 27.06.2019
5778 Clouds 14 1023 76 10000 5.7 290 08:23 27.06.2019
5779 Clouds 14 1024 76 10000 6.7 300 07:39 27.06.2019
5780 Clouds 14 1024 76 0 10.8 320 06:56 27.06.2019
5781 Clear 13 1024 82 0 6.7 300 06:29 27.06.2019
5782 Clear 13 1024 82 0 10.8 320 03:50 27.06.2019
5783 Clouds 13 1024 81 0 6.2 290 02:41 27.06.2019
5784 Clouds 13 1024 82 0 6.7 290 01:19 27.06.2019
5785 Clouds 13 1024 82 0 10.3 310 00:48 27.06.2019
5786 Clouds 14 1024 82 0 8.2 300 00:26 27.06.2019
5787 Clouds 14 1024 82 0 9.3 320 23:48 26.06.2019
5788 Clouds 15 1023 82 0 6.7 300 23:23 26.06.2019
5789 Clouds 15 1024 82 0 13.4 320 22:57 26.06.2019
5790 Clouds 15 1023 77 10000 6.7 290 22:39 26.06.2019
5791 Clouds 15 1023 82 10000 7.7 310 22:19 26.06.2019
5792 Clouds 16 1023 77 10000 6.2 300 21:42 26.06.2019
5793 Clouds 16 1023 77 10000 6.2 300 21:42 26.06.2019
5794 Clouds 16 1023 77 10000 5.7 290 21:20 26.06.2019
5795 Clouds 16 1023 87 0 11.3 320 20:57 26.06.2019
5796 Clouds 17 1023 77 10000 8.7 310 20:37 26.06.2019
5797 Clouds 17 1023 77 10000 8.7 310 20:18 26.06.2019
5798 Clouds 18 1022 72 10000 5.7 300 19:42 26.06.2019
5799 Clouds 18 1023 72 10000 9.3 310 19:23 26.06.2019
5800 Clouds 18 1023 77 0 12.9 310 18:46 26.06.2019
5801 Clouds 19 1022 72 10000 4.6 290 18:23 26.06.2019
5802 Clouds 19 1022 77 0 11.8 300 17:57 26.06.2019
5803 Clear 21 1021 57 10000 7.2 300 17:38 26.06.2019
5804 Clouds 21 1021 68 10000 6.2 300 17:19 26.06.2019
5805 Clouds 22 1022 68 0 13.4 300 16:46 26.06.2019
5806 Clouds 24 1020 57 10000 5.7 290 16:22 26.06.2019
5807 Clear 25 1021 54 10000 7.2 290 15:40 26.06.2019
5808 Clouds 25 1020 54 10000 5.1 300 15:22 26.06.2019
5809 Clear 26 1020 61 10000 7.2 280 14:38 26.06.2019
5810 Clouds 26 1020 57 10000 7.2 310 14:19 26.06.2019
5811 Clouds 26 1020 69 0 10.3 300 13:43 26.06.2019
5812 Clear 26 1019 61 10000 6.2 310 13:20 26.06.2019
5813 Clouds 26 1020 65 10000 7.2 290 12:42 26.06.2019
5814 Clear 26 1019 54 10000 5.1 300 12:22 26.06.2019
5815 Clouds 26 1019 65 10000 8.7 320 11:48 26.06.2019
5816 Clear 26 1018 61 10000 5.1 310 11:20 26.06.2019
5817 Clouds 26 1019 73 10000 8.7 300 10:45 26.06.2019
5818 Clear 26 1018 69 10000 4.1 300 10:25 26.06.2019
5819 Clouds 25 1018 73 10000 5.7 290 09:49 26.06.2019
5820 Clear 24 1017 73 10000 3.1 300 09:20 26.06.2019
5821 Clouds 24 1018 83 10000 6.2 280 08:49 26.06.2019
5822 Clear 24 1017 73 10000 2.6 270 08:20 26.06.2019
5823 Clouds 23 1017 88 8000 5.1 270 07:46 26.06.2019
5824 Clouds 23 1017 88 8000 5.1 270 07:46 26.06.2019
5825 Clouds 22 1017 94 8000 0.5 0 07:25 26.06.2019
5826 Fog 20 1017 93 0 1 120 06:32 26.06.2019
5827 Clouds 21 1018 83 0 3.6 140 01:28 26.06.2019
5828 Clouds 22 1018 77 0 3.1 130 00:25 26.06.2019
5829 Clouds 23 1018 94 10000 2.6 120 23:47 25.06.2019
5830 Clouds 23 1018 83 0 2.6 100 23:28 25.06.2019
5831 Clouds 23 1018 88 10000 2.1 120 22:58 25.06.2019
5832 Clear 24 1018 78 10000 2.6 120 22:39 25.06.2019
5833 Clear 25 1019 78 10000 2.1 70 22:20 25.06.2019
5834 Clouds 26 1018 78 10000 1 110 21:44 25.06.2019
5835 Clear 27 1019 69 10000 2.6 70 21:22 25.06.2019
5836 Clouds 28 1018 69 10000 2.1 100 20:47 25.06.2019
5837 Clouds 28 1018 69 10000 2.1 100 20:47 25.06.2019
5838 Clouds 28 1018 69 10000 2.1 100 20:47 25.06.2019
5839 Clouds 28 1018 69 10000 2.1 100 20:47 25.06.2019
5840 Clear 29 1018 65 10000 2.6 150 20:23 25.06.2019
5841 Clouds 29 1018 65 10000 2.1 100 19:54 25.06.2019
5842 Clear 29 1018 65 10000 4.1 140 19:36 25.06.2019
5843 Clear 29 1018 65 10000 4.1 140 19:18 25.06.2019
5844 Clear 29 1018 65 10000 4.1 140 19:18 25.06.2019
5845 Clear 29 1019 65 10000 3.1 120 18:40 25.06.2019
5846 Clear 30 1019 61 10000 3.6 120 18:22 25.06.2019
5847 Clouds 29 1019 69 10000 1.5 100 17:42 25.06.2019
5848 -273 0 0 0 0 0 17:42 25.06.2019
5849 Clear 29 1019 65 10000 3.6 120 17:22 25.06.2019
5850 Clear 29 1019 65 10000 3.6 120 17:22 25.06.2019
5851 Clear 29 1019 65 10000 3.6 120 17:22 25.06.2019
5852 Clear 29 1019 65 10000 3.6 120 17:22 25.06.2019
5853 Clouds 30 1019 69 10000 2.1 110 16:43 25.06.2019
5854 Clear 30 1019 65 10000 3.6 120 16:25 25.06.2019
5855 Clear 29 1020 65 10000 4.6 130 15:43 25.06.2019
5856 Clear 28 1020 69 10000 4.6 120 15:25 25.06.2019
5857 Clouds 28 1020 65 10000 3.6 100 14:57 25.06.2019
5858 Clear 28 1020 48 10000 4.1 160 14:38 25.06.2019
5859 Clear 28 1020 65 10000 4.6 130 14:20 25.06.2019
5860 Clear 27 1020 69 10000 4.6 110 13:41 25.06.2019
5861 Clear 27 1020 61 10000 4.6 110 13:19 25.06.2019
5862 Clear 26 1020 64 10000 3.6 90 12:41 25.06.2019
5863 Clear 26 1021 73 10000 4.6 120 12:23 25.06.2019
5864 Clouds 25 1021 73 10000 4.1 110 11:44 25.06.2019
5865 Clear 24 1021 73 10000 5.7 120 11:23 25.06.2019
5866 Clouds 24 1021 77 10000 3.6 90 10:55 25.06.2019
5867 Clear 23 1021 73 10000 4.1 110 10:36 25.06.2019
5868 Clear 23 1021 73 10000 4.1 110 10:18 25.06.2019
5869 Clear 22 1021 77 10000 5.7 110 09:39 25.06.2019
5870 Clear 22 1021 77 10000 5.7 110 09:21 25.06.2019
5871 Clouds 21 1021 77 10000 3.6 130 08:50 25.06.2019
5872 Clear 20 1021 82 10000 5.1 110 08:30 25.06.2019
5873 Clear 18 1021 82 10000 4.6 120 07:43 25.06.2019
5874 Clear 17 1021 88 10000 4.6 110 07:23 25.06.2019
5875 Clear 16 1022 93 10000 5.1 100 06:44 25.06.2019
5876 Clouds 16 1022 87 10000 3.6 120 05:48 25.06.2019
5877 Clouds 18 1023 82 0 5.7 110 02:37 25.06.2019
5878 Clouds 18 1023 72 0 6.2 110 00:38 25.06.2019
5879 Clouds 18 1023 72 0 6.2 110 00:19 25.06.2019
5880 Clouds 19 1023 82 10000 6.2 120 23:51 24.06.2019
5881 Clouds 19 1023 77 0 4.6 100 23:32 24.06.2019
5882 Clear 19 1023 77 10000 4.6 100 22:46 24.06.2019
5883 Clear 20 1023 77 10000 5.1 100 22:20 24.06.2019
5884 Clouds 20 1023 77 10000 4.6 120 21:56 24.06.2019
5885 Clear 21 1023 72 10000 3.6 100 21:37 24.06.2019
5886 Clear 21 1023 72 10000 3.6 100 21:18 24.06.2019
5887 Clear 21 1023 72 10000 5.7 90 20:42 24.06.2019
5888 Clear 22 1023 73 10000 5.7 90 20:22 24.06.2019
5889 Clouds 22 1023 60 10000 4.6 110 19:49 24.06.2019
5890 Clear 22 1024 64 10000 5.1 90 19:27 24.06.2019
5891 Clouds 22 1023 49 10000 5.1 110 18:58 24.06.2019
5892 Clear 22 1023 73 10000 5.1 70 18:38 24.06.2019
5893 Clear 23 1024 46 10000 6.2 90 18:20 24.06.2019
5894 Clear 23 1024 64 10000 6.2 80 17:37 24.06.2019
5895 Clear 23 1024 64 10000 6.2 80 17:37 24.06.2019
5896 Clear 23 1025 49 10000 5.1 110 17:18 24.06.2019
5897 Clouds 23 1024 56 10000 5.7 110 16:44 24.06.2019
5898 Clear 23 1025 52 10000 6.7 80 16:19 24.06.2019
5899 Clouds 23 1024 56 10000 5.7 110 15:44 24.06.2019
5900 Clear 23 1025 56 10000 5.7 80 15:25 24.06.2019
5901 Clear 23 1025 56 10000 6.2 80 14:37 24.06.2019
5902 Clear 24 1025 53 10000 5.1 100 14:19 24.06.2019
5903 Clear 23 1025 56 10000 5.7 120 13:33 24.06.2019
5904 Clouds 23 1025 64 10000 4.6 110 12:58 24.06.2019
5905 Clear 23 1025 49 10000 6.2 120 12:39 24.06.2019
5906 Clear 22 1025 49 10000 6.7 110 12:20 24.06.2019
5907 Clear 22 1025 49 10000 7.2 120 11:44 24.06.2019
5908 Clear 21 1026 49 10000 6.7 110 11:26 24.06.2019
5909 Clouds 21 1025 68 10000 4.6 120 10:52 24.06.2019
5910 Clear 21 1025 64 10000 4.1 110 10:33 24.06.2019
5911 Clouds 20 1025 77 10000 6.2 130 09:56 24.06.2019
5912 Clear 19 1025 68 10000 4.6 120 09:38 24.06.2019
5913 Clear 18 1026 63 10000 7.7 110 09:18 24.06.2019
5914 Clear 18 1025 77 10000 3.6 110 08:36 24.06.2019
5915 Clouds 17 1025 88 10000 5.7 120 07:58 24.06.2019
5916 Clear 16 1025 82 10000 5.1 90 07:40 24.06.2019
5917 Clear 16 1025 82 10000 5.1 100 07:21 24.06.2019
5918 Clouds 15 1025 82 0 4.1 100 06:23 24.06.2019
5919 Clouds 15 1025 72 0 4.1 90 05:32 24.06.2019
5920 Clouds 15 1025 82 0 3.6 90 04:35 24.06.2019
5921 Clouds 15 1025 87 0 4.6 120 03:48 24.06.2019
5922 Clouds 15 1025 77 0 3.1 80 02:36 24.06.2019
5923 Clouds 15 1025 77 0 3.1 110 01:55 24.06.2019
5924 Clouds 15 1025 77 0 3.1 70 01:31 24.06.2019
5925 Clouds 16 1024 77 0 3.6 100 00:46 24.06.2019
5926 Clouds 16 1025 72 0 3.1 70 00:20 24.06.2019
5927 Clouds 16 1024 77 0 3.6 90 23:48 23.06.2019
5928 Clouds 16 1024 77 0 3.6 90 23:48 23.06.2019
5929 Clouds 16 1024 67 0 3.6 60 23:28 23.06.2019
5930 Clouds 16 1024 67 0 3.6 60 23:28 23.06.2019
5931 Clouds 16 1024 87 0 3.1 100 22:58 23.06.2019
5932 Clouds 17 1024 67 0 4.1 60 22:39 23.06.2019
5933 Clouds 17 1024 72 0 3.1 80 22:19 23.06.2019
5934 Clouds 18 1024 72 0 2.6 90 21:41 23.06.2019
5935 Clouds 18 1024 72 0 2.6 90 21:22 23.06.2019
5936 Clouds 19 1024 63 0 2.6 110 20:51 23.06.2019
5937 Clear 20 1024 68 10000 4.1 90 20:29 23.06.2019
5938 Clouds 19 1024 59 0 3.6 110 19:55 23.06.2019
5939 Clear 20 1023 63 10000 6.2 80 19:37 23.06.2019
5940 Clear 21 1024 64 10000 3.6 90 19:19 23.06.2019
5941 Clear 21 1024 52 10000 4.1 100 18:43 23.06.2019
5942 Clear 21 1024 64 10000 4.1 100 18:19 23.06.2019
5943 Clear 21 1024 64 10000 4.1 100 17:41 23.06.2019
5944 Clouds 21 1024 64 10000 4.6 110 17:22 23.06.2019
5945 Clouds 22 1024 56 10000 5.1 110 16:45 23.06.2019
5946 Clear 22 1024 64 10000 4.6 100 16:25 23.06.2019
5947 Clouds 22 1024 60 10000 5.1 110 15:54 23.06.2019
5948 Clouds 22 1024 68 10000 4.1 100 15:36 23.06.2019
5949 Clouds 21 1024 68 10000 4.1 100 15:18 23.06.2019
5950 Clouds 21 1024 64 10000 6.2 80 14:38 23.06.2019
5951 Clouds 21 1025 64 0 4.1 100 14:20 23.06.2019
5952 Clouds 21 1025 60 0 4.1 110 13:43 23.06.2019
5953 Clouds 21 1025 60 0 4.1 110 13:21 23.06.2019
5954 Clouds 21 1025 68 10000 5.1 90 12:59 23.06.2019
5955 Clear 21 1024 72 10000 5.7 70 12:40 23.06.2019
5956 Clouds 20 1025 59 0 4.6 110 12:19 23.06.2019
5957 Clouds 20 1024 68 10000 5.1 100 11:46 23.06.2019
5958 Clouds 19 1025 63 0 5.7 100 11:27 23.06.2019
5959 Clouds 19 1024 68 10000 3.6 130 10:49 23.06.2019
5960 Clouds 19 1025 68 0 5.7 110 10:21 23.06.2019
5961 Clouds 18 1024 68 10000 5.1 130 09:58 23.06.2019
5962 Clouds 17 1024 68 0 5.1 110 09:22 23.06.2019
5963 Clouds 17 1024 77 10000 4.6 120 08:54 23.06.2019
5964 Clouds 17 1024 77 10000 4.6 120 08:54 23.06.2019
5965 Clouds 16 1025 77 0 4.6 100 08:36 23.06.2019
5966 Clouds 17 1024 77 0 4.1 100 08:18 23.06.2019
5967 Clouds 14 1024 100 10000 1.5 120 07:44 23.06.2019
5968 Clouds 13 1024 82 0 1 70 07:18 23.06.2019
5969 Clouds 12 1024 93 0 3.1 110 06:52 23.06.2019
5970 Fog 11 1024 87 0 1 70 05:53 23.06.2019
5971 Clouds 10 1024 93 0 2.6 100 02:52 23.06.2019
5972 Clouds 10 1024 93 0 0.5 350 01:42 23.06.2019
5973 Clouds 11 1024 93 0 0.5 130 01:24 23.06.2019
5974 Clouds 12 1024 76 0 1 110 00:32 23.06.2019
5975 Clouds 12 1024 93 0 3.6 150 23:49 22.06.2019
5976 Clouds 13 1024 76 0 2.1 140 23:26 22.06.2019
5977 Clouds 13 1024 82 0 3.1 150 22:47 22.06.2019
5978 Clouds 15 1023 76 0 2.1 140 22:29 22.06.2019
5979 Clouds 15 1023 67 0 3.1 130 21:59 22.06.2019
5980 Clouds 17 1023 63 0 4.1 120 21:36 22.06.2019
5981 Clouds 17 1023 63 0 4.1 120 21:36 22.06.2019
5982 Clouds 17 1023 63 0 4.1 120 21:18 22.06.2019
5983 Clouds 17 1023 55 0 3.1 130 20:46 22.06.2019
5984 Clouds 18 1023 52 0 3.6 100 20:24 22.06.2019
5985 Clouds 19 1024 45 0 1 20 19:42 22.06.2019
5986 Clouds 19 1024 45 0 1 20 19:22 22.06.2019
5987 Clouds 19 1024 48 10000 3.6 100 18:44 22.06.2019
5988 Clouds 19 1024 42 0 1.5 30 18:25 22.06.2019
5989 Clouds 20 1024 48 10000 4.1 120 17:46 22.06.2019
5990 Clouds 20 1024 52 0 1 80 17:28 22.06.2019
5991 Clouds 19 1024 52 10000 2.6 70 16:47 22.06.2019
5992 Clouds 19 1024 55 10000 1 40 16:24 22.06.2019
5993 Clouds 19 1024 48 10000 3.6 40 15:54 22.06.2019
5994 Clouds 19 1024 55 10000 1.5 50 15:33 22.06.2019
5995 Clouds 19 1024 52 10000 2.6 40 14:53 22.06.2019
5996 Clouds 19 1025 59 10000 3.6 50 14:34 22.06.2019
5997 Clouds 18 1025 52 10000 3.1 30 13:59 22.06.2019
5998 Clouds 18 1025 52 10000 1.5 20 13:40 22.06.2019
5999 Clouds 18 1025 55 10000 2.1 30 13:19 22.06.2019
6000 Clouds 18 1025 63 10000 1.5 20 12:47 22.06.2019
6001 Clouds 17 1025 59 10000 1.5 50 12:29 22.06.2019
6002 Clouds 17 1025 59 10000 2.1 10 11:57 22.06.2019
6003 Clouds 17 1025 63 10000 2.1 360 11:31 22.06.2019
6004 Clouds 16 1025 63 10000 1 10 10:48 22.06.2019
6005 Clouds 16 1025 62 10000 2.1 340 10:19 22.06.2019
6006 Clouds 16 1024 63 10000 1 50 09:46 22.06.2019
6007 Clouds 15 1024 67 10000 2.6 330 09:22 22.06.2019
6008 Clouds 14 1024 67 10000 3.1 330 08:42 22.06.2019
6009 Clouds 13 1024 76 10000 2.1 330 08:20 22.06.2019
6010 Fog 12 1023 87 10000 0.5 260 07:30 22.06.2019
6011 Fog 11 1023 100 10000 1 260 06:47 22.06.2019
6012 Fog 8 1023 93 0 2.1 260 05:22 22.06.2019
6013 Fog 10 1022 87 0 2.1 230 02:33 22.06.2019
6014 Clear 11 1021 81 0 2.6 240 01:19 22.06.2019
6015 Clear 12 1021 81 0 2.1 240 00:39 22.06.2019
6016 Clear 12 1021 81 0 2.1 240 00:19 22.06.2019
6017 Clouds 12 1020 76 10000 2.1 260 23:42 21.06.2019
6018 Clouds 13 1020 76 10000 2.1 260 23:21 21.06.2019
6019 Clouds 13 1020 72 10000 5.7 300 22:50 21.06.2019
6020 Clouds 14 1020 71 10000 2.1 270 22:24 21.06.2019
6021 Clouds 14 1019 67 10000 6.7 310 21:55 21.06.2019
6022 Clear 16 1020 67 10000 3.1 290 21:36 21.06.2019
6023 Clouds 16 1019 59 10000 3.6 280 21:18 21.06.2019
6024 Clear 17 1019 67 10000 3.1 270 20:42 21.06.2019
6025 Clouds 17 1018 59 10000 4.1 280 20:20 21.06.2019
6026 Clouds 18 1018 52 10000 4.1 270 19:34 21.06.2019
6027 Clouds 18 1018 55 10000 9.3 280 18:49 21.06.2019
6028 Clouds 18 1017 52 10000 4.6 270 18:29 21.06.2019
6029 Clouds 17 1018 59 10000 8.7 290 17:46 21.06.2019
6030 Clouds 18 1017 55 10000 4.6 270 17:28 21.06.2019
6031 Clear 18 1017 59 10000 5.1 270 16:41 21.06.2019
6032 Clouds 19 1017 59 10000 5.1 280 16:22 21.06.2019
6033 Clouds 19 1017 52 10000 4.6 260 15:40 21.06.2019
6034 Clouds 19 1016 55 10000 5.1 250 15:21 21.06.2019
6035 Clouds 19 1017 59 10000 7.7 270 14:50 21.06.2019
6036 Clouds 19 1016 55 10000 5.1 260 14:30 21.06.2019
6037 Clouds 19 1016 59 10000 9.3 280 13:55 21.06.2019
6038 Clear 19 1017 72 10000 2.6 300 13:36 21.06.2019
6039 Clouds 19 1016 59 10000 4.1 250 13:18 21.06.2019
6040 Clouds 18 1016 77 10000 3.6 230 12:39 21.06.2019
6041 Clouds 18 1016 87 10000 2.6 210 12:18 21.06.2019
6042 Rain 17 1016 87 10000 3.6 250 11:47 21.06.2019
6043 Rain 17 1016 93 10000 1 200 11:26 21.06.2019
6044 Rain 17 1016 93 10000 3.1 240 10:51 21.06.2019
6045 Rain 16 1016 93 9000 8.2 290 10:22 21.06.2019
6046 Rain 16 1015 67 10000 4.1 220 09:59 21.06.2019
6047 Clouds 16 1015 77 10000 2.1 230 09:40 21.06.2019
6048 Clouds 17 1015 77 10000 2.1 230 09:19 21.06.2019
6049 Clouds 16 1015 77 10000 3.6 210 08:43 21.06.2019
6050 Clouds 16 1015 87 10000 2.1 220 08:24 21.06.2019
6051 Clouds 15 1014 82 10000 3.1 250 07:52 21.06.2019
6052 Fog 14 1014 93 10000 1.5 210 07:30 21.06.2019
6053 Fog 13 1014 87 10000 3.6 270 06:54 21.06.2019
6054 Clouds 12 1015 100 9000 1.5 180 06:21 21.06.2019
6055 Fog 11 1014 93 0 2.6 250 05:26 21.06.2019
6056 Clear 12 1014 93 0 2.1 240 04:30 21.06.2019
6057 Clear 12 1013 100 0 2.6 260 03:34 21.06.2019
6058 Clouds 13 1013 93 10000 4.6 260 02:53 21.06.2019
6059 Clouds 13 1013 93 10000 3.1 270 01:56 21.06.2019
6060 Clouds 14 1013 87 10000 4.1 290 00:58 21.06.2019
6061 Clouds 14 1013 93 0 2.1 260 00:27 21.06.2019
6062 Clouds 15 1013 87 10000 4.1 310 23:53 20.06.2019
6063 Clouds 15 1012 82 0 2.1 280 23:24 20.06.2019
6064 Clouds 15 1012 82 10000 5.7 300 22:58 20.06.2019
6065 Clouds 16 1012 82 10000 2.1 270 22:39 20.06.2019
6066 Clouds 16 1012 82 10000 2.1 270 22:21 20.06.2019
6067 Clouds 16 1011 77 10000 5.7 300 21:52 20.06.2019
6068 Clouds 17 1011 77 10000 2.1 310 21:19 20.06.2019
6069 Clouds 17 1011 72 10000 4.6 300 20:59 20.06.2019
6070 Clouds 18 1011 77 10000 2.1 250 20:40 20.06.2019
6071 Clouds 18 1010 72 10000 5.1 300 20:20 20.06.2019
6072 Clouds 18 1010 72 10000 4.6 290 19:43 20.06.2019
6073 Clouds 18 1011 77 10000 4.1 300 19:19 20.06.2019
6074 Clouds 18 1010 68 10000 6.2 290 18:55 20.06.2019
6075 Clouds 19 1010 68 10000 4.6 260 18:37 20.06.2019
6076 Clouds 19 1010 72 10000 3.6 290 18:18 20.06.2019
6077 Clouds 20 1010 68 10000 4.6 240 17:43 20.06.2019
6078 Clouds 20 1010 68 10000 5.7 270 17:22 20.06.2019
6079 Clouds 19 1010 68 10000 5.7 260 16:42 20.06.2019
6080 Clouds 19 1009 82 10000 4.1 260 16:19 20.06.2019
6081 Clouds 19 1009 77 10000 8.7 280 15:44 20.06.2019
6082 Clouds 19 1010 68 10000 7.2 260 15:24 20.06.2019
6083 Clouds 19 1009 77 8000 8.2 280 14:58 20.06.2019
6084 Clouds 18 1009 82 10000 3.6 240 14:39 20.06.2019
6085 Clouds 18 1009 82 10000 3.6 240 14:19 20.06.2019
6086 Rain 18 1009 82 10000 4.1 260 13:39 20.06.2019
6087 Rain 18 1008 82 10000 4.6 240 13:19 20.06.2019
6088 Rain 18 1008 88 10000 5.7 250 12:43 20.06.2019
6089 Rain 18 1007 88 10000 5.1 240 12:22 20.06.2019
6090 Rain 18 1007 82 10000 4.6 230 11:43 20.06.2019
6091 Rain 18 1008 82 8000 4.1 250 11:23 20.06.2019
6092 Rain 18 1007 82 10000 6.2 250 10:45 20.06.2019
6093 Rain 18 1007 82 10000 6.2 250 10:45 20.06.2019
6094 Rain 18 1007 82 10000 6.2 250 10:45 20.06.2019
6095 Rain 18 1007 93 8000 5.7 260 10:25 20.06.2019
6096 Mist 18 1007 77 10000 8.2 260 09:58 20.06.2019
6097 Rain 18 1007 88 10000 3.6 250 09:38 20.06.2019
6098 Rain 18 1006 82 8000 6.2 260 09:20 20.06.2019
6099 Mist 18 1006 82 10000 2.1 220 08:45 20.06.2019
6100 Mist 18 1006 93 10000 2.1 240 08:26 20.06.2019
6101 Mist 17 1006 93 7000 4.6 230 07:51 20.06.2019
6102 Mist 17 1005 93 10000 1.5 200 07:26 20.06.2019
6103 Mist 16 1005 93 6000 1.5 190 06:25 20.06.2019
6104 Rain 17 1005 93 0 1.5 180 03:55 20.06.2019
6105 Clouds 17 1006 93 0 4.1 200 02:29 20.06.2019
6106 Mist 17 1006 93 0 1 80 00:34 20.06.2019
6107 Rain 17 1006 93 0 4.1 230 23:49 19.06.2019
6108 Clear 18 1005 93 10000 2.6 210 23:30 19.06.2019
6109 -273 0 0 0 0 0 22:57 19.06.2019
6110 Clouds 18 1006 82 10000 2.1 230 22:39 19.06.2019
6111 Clear 19 1005 93 10000 2.1 200 22:18 19.06.2019
6112 Thunderstorm 19 1005 82 10000 2.6 170 21:42 19.06.2019
6113 Thunderstorm 20 1005 77 10000 3.1 160 21:23 19.06.2019
6114 Thunderstorm 22 1005 83 10000 1.5 160 20:42 19.06.2019
6115 Thunderstorm 22 1005 78 10000 2.6 200 20:22 19.06.2019
6116 Thunderstorm 23 1005 78 0 0.5 40 19:51 19.06.2019
6117 Thunderstorm 23 1005 73 10000 2.6 140 19:29 19.06.2019
6118 Rain 24 1006 78 0 1.5 20 18:57 19.06.2019
6119 Clear 24 1005 82 10000 4.1 120 18:28 19.06.2019
6120 Thunderstorm 24 1005 88 0 6.2 120 17:53 19.06.2019
6121 Thunderstorm 24 1005 88 0 6.2 120 17:53 19.06.2019
6122 Thunderstorm 25 1005 51 10000 4.6 160 17:33 19.06.2019
6123 Thunderstorm 25 1007 94 0 4.6 120 16:57 19.06.2019
6124 Thunderstorm 27 1006 57 10000 3.6 150 16:38 19.06.2019
6125 Thunderstorm 27 1006 69 10000 4.6 120 16:20 19.06.2019
6126 Thunderstorm 27 1006 61 0 3.1 120 15:48 19.06.2019
6127 Thunderstorm 27 1005 58 10000 3.6 130 15:26 19.06.2019
6128 Clouds 27 1007 61 10000 5.7 140 14:50 19.06.2019
6129 Clear 26 1007 69 10000 6.2 110 14:30 19.06.2019
6130 Clouds 26 1007 65 10000 5.7 130 13:59 19.06.2019
6131 Clear 25 1008 69 10000 7.2 110 13:40 19.06.2019
6132 Clear 25 1008 69 10000 7.2 110 13:21 19.06.2019
6133 Clouds 25 1008 64 10000 5.7 120 12:44 19.06.2019
6134 Clear 24 1008 73 10000 5.7 100 12:21 19.06.2019
6135 Clouds 24 1008 68 10000 5.1 130 11:55 19.06.2019
6136 Rain 22 1008 83 10000 5.1 110 11:37 19.06.2019
6137 Rain 22 1008 83 10000 5.1 110 11:18 19.06.2019
6138 Thunderstorm 21 1008 88 10000 5.7 100 10:41 19.06.2019
6139 Clouds 21 1008 88 10000 3.1 80 10:23 19.06.2019
6140 Thunderstorm 19 1009 93 10000 4.1 60 09:42 19.06.2019
6141 Thunderstorm 18 1009 88 10000 2.6 80 09:21 19.06.2019
6142 Thunderstorm 18 1010 93 9000 6.2 130 08:50 19.06.2019
6143 Thunderstorm 17 1010 93 10000 3.09 81.32 08:29 19.06.2019
6144 Thunderstorm 17 1011 93 10000 2.6 250 07:49 19.06.2019
6145 Thunderstorm 17 1010 93 10000 2.1 90 07:30 19.06.2019
6146 Thunderstorm 17 1010 93 10000 1.5 160 06:55 19.06.2019
6147 Thunderstorm 16 1010 93 0 1.5 90 06:30 19.06.2019
6148 Fog 16 1010 93 0 3.1 90 05:50 19.06.2019
6149 Mist 15 1011 93 0 0.5 10 04:41 19.06.2019
6150 Fog 16 1011 100 0 1.99 44.51 03:37 19.06.2019
6151 Fog 16 1012 93 0 2.26 13.87 02:34 19.06.2019
6152 Clouds 17 1012 88 0 0.5 30 01:29 19.06.2019
6153 Clouds 17 1012 93 0 1 360 00:52 19.06.2019
6154 Clouds 17 1013 88 0 1 350 00:34 19.06.2019
6155 Clouds 18 1013 93 0 1.5 130 23:58 18.06.2019
6156 Clear 18 1013 82 10000 1.88 334.227 23:30 18.06.2019
6157 Clouds 19 1013 82 0 1.5 30 22:55 18.06.2019
6158 Clear 20 1013 77 10000 1 140 22:37 18.06.2019
6159 Clear 20 1013 77 10000 1 140 22:19 18.06.2019
6160 Clear 21 1013 77 10000 1.5 140 21:44 18.06.2019
6161 Clear 21 1013 77 10000 1.5 140 21:21 18.06.2019
6162 Rain 22 1013 68 0 3.1 130 20:58 18.06.2019
6163 Thunderstorm 22 1013 68 10000 2.6 130 20:38 18.06.2019
6164 Thunderstorm 23 1013 68 10000 2.6 130 20:18 18.06.2019
6165 Thunderstorm 23 1013 73 10000 1.5 90 19:39 18.06.2019
6166 -273 0 0 0 0 0 19:20 18.06.2019
6167 Rain 23 1013 60 10000 4.1 290 18:48 18.06.2019
6168 Thunderstorm 24 1013 69 10000 3.6 130 18:25 18.06.2019
6169 Thunderstorm 25 1012 57 10000 5.7 280 17:46 18.06.2019
6170 Thunderstorm 26 1013 47 10000 3.6 250 17:21 18.06.2019
6171 Rain 26 1013 54 10000 4.6 270 16:57 18.06.2019
6172 Thunderstorm 26 1013 47 10000 2.6 250 16:39 18.06.2019
6173 Thunderstorm 27 1013 47 10000 2.6 250 16:20 18.06.2019
6174 Rain 27 1014 51 10000 3.6 160 15:39 18.06.2019
6175 Rain 27 1014 57 10000 4.1 210 15:20 18.06.2019
6176 Rain 27 1014 50 10000 3.6 180 14:56 18.06.2019
6177 Clouds 27 1014 54 10000 4.6 150 14:37 18.06.2019
6178 Clear 27 1014 61 10000 3.1 200 14:18 18.06.2019
6179 Clear 26 1015 57 10000 3.6 190 13:43 18.06.2019
6180 Clear 26 1015 54 10000 4.1 190 13:22 18.06.2019
6181 Clouds 26 1015 50 10000 3.6 190 12:45 18.06.2019
6182 Clear 25 1015 64 10000 2.6 160 12:27 18.06.2019
6183 Clouds 25 1015 57 10000 3.6 190 11:49 18.06.2019
6184 Clear 25 1015 69 10000 2.1 180 11:23 18.06.2019
6185 Clouds 24 1015 60 10000 1.5 250 10:58 18.06.2019
6186 Clear 23 1015 73 10000 3.6 150 10:39 18.06.2019
6187 Clouds 23 1016 56 10000 4.6 160 10:20 18.06.2019
6188 Clouds 22 1016 68 10000 3.6 190 09:51 18.06.2019
6189 Clear 21 1016 77 10000 3.6 150 09:24 18.06.2019
6190 Clouds 20 1016 77 10000 2.1 160 08:49 18.06.2019
6191 Clear 19 1016 82 10000 4.1 140 08:22 18.06.2019
6192 Clouds 19 1016 82 10000 5.1 170 07:55 18.06.2019
6193 Clear 18 1016 88 10000 2.6 140 07:25 18.06.2019
6194 Clouds 17 1016 82 10000 6.7 170 06:52 18.06.2019
6195 Rain 17 1017 93 0 3.1 140 05:25 18.06.2019
6196 Rain 17 1017 93 0 4.1 140 04:21 18.06.2019
6197 Clouds 16 1017 82 10000 7.2 160 02:47 18.06.2019
6198 Clear 16 1018 87 0 3.6 130 01:27 18.06.2019
6199 Clouds 17 1018 93 10000 3.6 130 00:58 18.06.2019
6200 Clear 17 1018 82 0 4.1 130 00:30 18.06.2019
6201 Clouds 17 1018 87 10000 5.1 130 23:58 17.06.2019
6202 Clear 17 1019 82 10000 3.6 110 23:37 17.06.2019
6203 Clear 17 1019 82 10000 3.6 110 23:18 17.06.2019
6204 Clear 19 1019 82 10000 2.6 110 22:40 17.06.2019
6205 Clear 19 1019 82 10000 2.6 110 22:21 17.06.2019
6206 Clouds 19 1019 72 10000 3.6 130 21:45 17.06.2019
6207 Clouds 19 1019 72 10000 3.6 130 21:45 17.06.2019
6208 Clear 20 1019 77 10000 2.6 130 21:23 17.06.2019
6209 Clouds 21 1019 64 10000 4.1 130 20:44 17.06.2019
6210 Clouds 21 1019 64 10000 4.1 130 20:44 17.06.2019
6211 Clouds 22 1019 68 10000 4.6 140 20:25 17.06.2019
6212 Clouds 22 1019 72 10000 4.6 130 19:57 17.06.2019
6213 Clouds 23 1019 72 10000 4.6 140 19:39 17.06.2019
6214 Clouds 23 1020 68 10000 4.1 150 19:21 17.06.2019
6215 Clouds 24 1020 49 10000 2.1 160 18:39 17.06.2019
6216 Clouds 23 1020 64 10000 4.6 60 18:18 17.06.2019
6217 Clouds 24 1020 49 10000 1 240 17:59 17.06.2019
6218 Clouds 23 1020 49 10000 1 240 17:39 17.06.2019
6219 Clouds 23 1020 60 10000 3.1 210 17:21 17.06.2019
6220 Clouds 23 1020 53 10000 2.1 210 16:43 17.06.2019
6221 Clouds 23 1020 53 10000 2.1 210 16:25 17.06.2019
6222 Clouds 24 1020 53 10000 3.1 250 15:55 17.06.2019
6223 Clouds 23 1020 53 10000 3.1 240 15:37 17.06.2019
6224 Clouds 23 1021 64 10000 5.7 250 15:18 17.06.2019
6225 Clouds 23 1021 49 10000 3.6 260 14:47 17.06.2019
6226 Clouds 23 1021 60 10000 5.7 270 14:26 17.06.2019
6227 Clouds 22 1021 56 10000 3.6 240 13:50 17.06.2019
6228 Clouds 22 1021 56 10000 3.6 240 13:23 17.06.2019
6229 Clouds 22 1021 60 10000 4.1 220 12:51 17.06.2019
6230 Clouds 22 1021 60 10000 4.1 220 12:31 17.06.2019
6231 Clouds 21 1021 60 10000 6.2 250 11:49 17.06.2019
6232 Clouds 21 1021 64 10000 6.7 240 11:26 17.06.2019
6233 Clouds 21 1021 64 10000 6.2 220 10:59 17.06.2019
6234 Clouds 20 1021 68 10000 6.2 220 10:40 17.06.2019
6235 Clouds 20 1021 68 10000 6.2 220 10:22 17.06.2019
6236 Clouds 19 1021 68 10000 6.2 220 09:53 17.06.2019
6237 Clouds 19 1021 77 10000 6.2 220 09:30 17.06.2019
6238 Clouds 18 1021 77 10000 2.6 200 08:42 17.06.2019
6239 Clouds 17 1021 77 10000 2.6 200 08:23 17.06.2019
6240 Clouds 16 1020 82 10000 2.1 200 07:46 17.06.2019
6241 Clouds 15 1020 82 10000 2.1 200 07:28 17.06.2019
6242 Clouds 14 1020 87 10000 2.1 200 06:46 17.06.2019
6243 Fog 12 1021 93 10000 2.6 160 05:50 17.06.2019
6244 Fog 12 1020 100 10000 2.1 170 04:52 17.06.2019
6245 Fog 12 1021 93 6000 2.1 140 03:50 17.06.2019
6246 Clear 12 1020 100 10000 1.5 170 03:25 17.06.2019
6247 Clouds 13 1020 93 0 2.1 220 02:42 17.06.2019
6248 Clear 13 1020 93 10000 2.1 210 02:18 17.06.2019
6249 Clouds 14 1020 87 0 1.5 240 01:34 17.06.2019
6250 Clear 14 1020 87 0 2.1 230 00:47 17.06.2019
6251 Clear 15 1020 87 0 2.1 230 00:26 17.06.2019
6252 Clear 15 1020 87 0 2.1 220 23:58 16.06.2019
6253 Clear 15 1020 87 0 1.5 200 23:37 16.06.2019
6254 Clouds 16 1020 82 10000 3.6 250 23:19 16.06.2019
6255 Clear 16 1020 82 8000 2.1 280 22:43 16.06.2019
6256 Clear 17 1020 77 10000 2.6 210 22:19 16.06.2019
6257 Clear 17 1020 77 10000 2.6 210 21:57 16.06.2019
6258 Clear 17 1020 72 10000 3.1 220 21:39 16.06.2019
6259 Rain 17 1020 72 10000 3.1 220 21:20 16.06.2019
6260 Rain 17 1019 72 10000 3.1 230 21:20 16.06.2019
6261 Rain 18 1019 63 10000 4.1 230 20:39 16.06.2019
6262 Rain 18 1019 72 10000 1 190 20:19 16.06.2019
6263 Rain 18 1019 72 10000 1 190 20:19 16.06.2019
6264 Rain 18 1019 72 10000 1 190 19:58 16.06.2019
6265 Rain 18 1019 72 10000 1 250 19:39 16.06.2019
6266 Rain 18 1019 63 10000 3.1 270 19:21 16.06.2019
6267 Clear 19 1019 63 10000 2.6 260 18:42 16.06.2019
6268 Clear 19 1019 63 10000 2.6 260 18:42 16.06.2019
6269 Rain 19 1019 63 10000 2.6 260 18:21 16.06.2019
6270 Rain 20 1019 56 10000 2.1 240 17:57 16.06.2019
6271 Clouds 20 1019 68 10000 4.6 220 17:38 16.06.2019
6272 Clouds 21 1019 68 10000 4.6 220 17:20 16.06.2019
6273 Clouds 21 1019 60 10000 4.6 230 16:55 16.06.2019
6274 Clouds 21 1019 56 10000 5.7 240 16:36 16.06.2019
6275 Clouds 21 1019 60 10000 4.6 230 16:18 16.06.2019
6276 Clouds 21 1019 56 10000 4.6 230 15:39 16.06.2019
6277 Clouds 21 1019 56 10000 4.6 230 15:21 16.06.2019
6278 Clouds 21 1019 63 10000 5.1 240 14:41 16.06.2019
6279 Clouds 21 1019 63 10000 5.1 240 14:22 16.06.2019
6280 Clouds 20 1019 64 10000 6.2 260 13:51 16.06.2019
6281 Clouds 20 1019 64 10000 6.2 260 13:51 16.06.2019
6282 Clouds 20 1019 64 10000 4.6 260 13:26 16.06.2019
6283 Clouds 20 1018 64 0 3.1 280 12:56 16.06.2019
6284 Clouds 20 1018 60 0 3.1 270 12:37 16.06.2019
6285 Clouds 19 1018 63 0 4.6 250 12:18 16.06.2019
6286 Clouds 19 1018 72 10000 5.7 260 11:40 16.06.2019
6287 Clouds 19 1018 68 10000 5.1 250 11:19 16.06.2019
6288 Clouds 19 1018 63 10000 4.6 260 10:45 16.06.2019
6289 Clouds 18 1017 72 10000 4.1 240 10:20 16.06.2019
6290 Clouds 18 1017 72 10000 4.1 240 10:20 16.06.2019
6291 Clouds 18 1018 77 9000 4.6 250 09:48 16.06.2019
6292 Clouds 17 1017 77 10000 4.6 240 09:26 16.06.2019
6293 Clouds 16 1017 77 10000 4.1 230 08:56 16.06.2019
6294 Clear 16 1017 77 0 2.1 240 08:38 16.06.2019
6295 Clear 15 1017 87 10000 3.6 240 08:18 16.06.2019
6296 Clear 14 1016 82 0 2.6 240 07:42 16.06.2019
6297 Clear 13 1016 82 0 2.6 240 06:57 16.06.2019
6298 Clear 12 1016 87 0 3.1 240 06:30 16.06.2019
6299 Clear 12 1015 93 0 3.1 240 05:43 16.06.2019
6300 Clear 13 1015 93 8000 3.6 250 04:36 16.06.2019
6301 Clouds 13 1015 100 8000 3.1 240 03:57 16.06.2019
6302 Clouds 13 1015 100 8000 3.1 240 03:57 16.06.2019
6303 Clouds 13 1015 93 8000 5.1 260 03:32 16.06.2019
6304 Clouds 14 1014 93 0 3.6 260 02:26 16.06.2019
6305 Clouds 14 1014 93 0 3.1 260 01:42 16.06.2019
6306 Clouds 15 1014 87 0 3.6 270 01:24 16.06.2019
6307 Rain 15 1014 93 0 4.1 280 00:40 16.06.2019
6308 Clouds 15 1014 87 9000 10.3 300 00:20 16.06.2019
6309 Mist 15 1014 87 9000 7.7 280 23:44 15.06.2019
6310 Mist 15 1013 100 4000 4.6 260 23:25 15.06.2019
6311 Mist 15 1013 93 8000 8.2 270 22:50 15.06.2019
6312 Mist 16 1012 100 1400 7.2 260 22:27 15.06.2019
6313 Mist 16 1011 93 4000 12.3 270 21:57 15.06.2019
6314 Rain 17 1011 100 8000 4.6 240 21:39 15.06.2019
6315 Rain 17 1010 100 8000 4.6 230 21:18 15.06.2019
6316 Mist 17 1011 82 9000 6.7 250 20:42 15.06.2019
6317 Mist 18 1011 93 0 2.6 160 20:22 15.06.2019
6318 Mist 18 1011 93 0 4.1 140 19:43 15.06.2019
6319 Mist 18 1011 93 0 4.1 140 19:24 15.06.2019
6320 Rain 18 1010 93 0 6.2 120 18:41 15.06.2019
6321 Rain 18 1010 93 0 6.2 120 18:21 15.06.2019
6322 Thunderstorm 18 1010 88 8000 2.1 190 17:44 15.06.2019
6323 Thunderstorm 17 1010 88 10000 2.1 70 17:25 15.06.2019
6324 Rain 17 1009 93 9000 5.7 150 16:49 15.06.2019
6325 Thunderstorm 17 1010 93 6000 2.1 100 16:20 15.06.2019
6326 -273 0 0 0 0 0 15:45 15.06.2019
6327 Thunderstorm 17 1009 82 10000 7.2 120 15:24 15.06.2019
6328 Rain 17 1010 93 9000 4.1 120 14:56 15.06.2019
6329 Rain 17 1009 82 10000 5.1 130 14:37 15.06.2019
6330 Rain 17 1009 82 9000 4.1 90 14:18 15.06.2019
6331 Thunderstorm 18 1010 88 8000 3.6 130 13:42 15.06.2019
6332 Thunderstorm 18 1009 88 4000 4.1 110 13:20 15.06.2019
6333 Thunderstorm 18 1010 82 10000 4.6 80 12:52 15.06.2019
6334 Thunderstorm 18 1010 88 10000 3.6 60 12:27 15.06.2019
6335 Rain 18 1010 93 7000 1.5 350 11:59 15.06.2019
6336 Rain 18 1010 93 10000 3.6 60 11:41 15.06.2019
6337 Rain 17 1010 93 10000 3.6 60 11:23 15.06.2019
6338 Rain 17 1012 93 10000 5.7 90 10:41 15.06.2019
6339 Rain 17 1012 93 10000 5.7 90 10:23 15.06.2019
6340 Rain 17 1010 93 9000 4.1 50 09:44 15.06.2019
6341 Rain 17 1011 93 8000 2.1 90 09:25 15.06.2019
6342 Rain 17 1011 93 9000 3.6 110 08:53 15.06.2019
6343 Rain 17 1011 93 8000 4.6 50 08:32 15.06.2019
6344 Rain 17 1011 93 6000 3.1 80 07:50 15.06.2019
6345 Rain 17 1011 93 6000 3.1 80 07:50 15.06.2019
6346 Rain 17 1012 93 10000 2.1 80 07:25 15.06.2019
6347 Clouds 16 1012 88 10000 3.1 50 06:44 15.06.2019
6348 Clouds 16 1012 88 0 2.6 60 06:19 15.06.2019
6349 Clouds 16 1013 88 0 2.1 80 05:27 15.06.2019
6350 Clouds 16 1012 88 7000 4.1 70 04:44 15.06.2019
6351 Clouds 16 1013 93 6000 3.1 60 03:47 15.06.2019
6352 Clouds 16 1014 93 10000 2.6 80 02:56 15.06.2019
6353 Clouds 16 1015 88 0 3.1 90 02:23 15.06.2019
6354 Clouds 16 1015 93 0 3.6 80 01:49 15.06.2019
6355 Clouds 16 1015 88 0 3.1 90 00:58 15.06.2019
6356 Clouds 16 1016 93 0 5.1 110 00:39 15.06.2019
6357 Clear 17 1015 93 0 4.6 90 23:55 14.06.2019
6358 Clouds 17 1016 93 10000 2.1 50 23:27 14.06.2019
6359 Clouds 16 1016 93 10000 2.1 20 22:56 14.06.2019
6360 Clear 17 1016 93 10000 1.5 70 22:37 14.06.2019
6361 Clear 17 1016 88 10000 2.6 80 22:19 14.06.2019
6362 Clear 19 1015 82 10000 0.5 50 21:41 14.06.2019
6363 Clear 19 1015 82 10000 0.5 50 21:22 14.06.2019
6364 Clouds 20 1016 77 10000 1 40 20:43 14.06.2019
6365 Clouds 20 1016 82 10000 1 60 20:19 14.06.2019
6366 Clouds 20 1016 82 10000 1 60 19:57 14.06.2019
6367 Clouds 20 1016 88 10000 3.1 30 19:37 14.06.2019
6368 Clouds 20 1015 88 10000 2.1 20 19:18 14.06.2019
6369 Thunderstorm 20 1015 82 10000 2.1 350 18:43 14.06.2019
6370 Thunderstorm 20 1015 82 10000 2.1 350 18:25 14.06.2019
6371 Thunderstorm 20 1015 82 10000 2.1 350 18:25 14.06.2019
6372 Clouds 20 1015 88 10000 1.5 30 17:57 14.06.2019
6373 Thunderstorm 20 1015 93 10000 4.6 360 17:39 14.06.2019
6374 Thunderstorm 21 1015 64 10000 6.7 310 17:19 14.06.2019
6375 Thunderstorm 21 1015 50 10000 9.3 230 16:46 14.06.2019
6376 Thunderstorm 22 1016 77 10000 3.1 60 16:21 14.06.2019
6377 Clouds 23 1016 68 10000 3.1 80 15:57 14.06.2019
6378 Clear 23 1015 73 10000 5.1 120 15:38 14.06.2019
6379 Clear 24 1015 72 10000 5.7 110 15:18 14.06.2019
6380 Clouds 23 1016 64 10000 3.6 100 14:41 14.06.2019
6381 Clouds 23 1016 56 10000 3.6 120 14:22 14.06.2019
6382 Clear 23 1016 53 10000 5.7 130 13:45 14.06.2019
6383 Clear 23 1016 53 10000 5.7 130 13:45 14.06.2019
6384 Clear 23 1016 53 10000 5.7 130 13:26 14.06.2019
6385 Clear 23 1016 64 10000 4.6 110 12:49 14.06.2019
6386 Clear 23 1016 64 10000 4.6 110 12:49 14.06.2019
6387 Clear 22 1016 64 10000 4.6 110 12:27 14.06.2019
6388 Clear 22 1016 56 10000 3.6 140 11:59 14.06.2019
6389 Clear 22 1017 56 10000 3.6 170 11:41 14.06.2019
6390 Clear 21 1017 56 10000 3.6 170 11:23 14.06.2019
6391 Clouds 20 1016 56 10000 3.6 170 10:46 14.06.2019
6392 Clear 20 1016 59 10000 4.6 190 10:20 14.06.2019
6393 Clear 19 1016 59 10000 4.6 180 09:52 14.06.2019
6394 Clear 18 1016 72 10000 2.1 160 09:33 14.06.2019
6395 Clouds 17 1016 72 10000 3.6 150 08:48 14.06.2019
6396 Rain 16 1015 72 10000 2.1 150 08:21 14.06.2019
6397 Rain 16 1015 72 10000 2.1 150 07:55 14.06.2019
6398 Clear 15 1015 77 10000 2.6 160 07:23 14.06.2019
6399 Clouds 14 1015 87 0 1.5 130 06:53 14.06.2019
6400 Fog 13 1015 93 0 2.1 130 06:18 14.06.2019
6401 Fog 13 1015 93 10000 1.5 140 05:42 14.06.2019
6402 Clouds 13 1015 87 10000 3.1 140 04:51 14.06.2019
6403 Rain 13 1014 93 10000 2.6 140 04:23 14.06.2019
6404 Rain 14 1015 93 10000 3.1 160 03:39 14.06.2019
6405 Rain 14 1015 93 10000 3.1 160 03:21 14.06.2019
6406 Clouds 13 1014 93 10000 2.6 150 02:36 14.06.2019
6407 Clouds 14 1014 93 0 2.6 130 01:47 14.06.2019
6408 Rain 15 1014 87 0 3.6 210 00:40 14.06.2019
6409 Rain 15 1013 87 0 1 180 00:21 14.06.2019
6410 Rain 16 1014 67 10000 5.7 240 23:49 13.06.2019
6411 Rain 16 1013 82 10000 2.6 180 23:25 13.06.2019
6412 Clouds 17 1013 82 10000 2.6 110 22:41 13.06.2019
6413 Clouds 17 1013 82 10000 2.6 110 22:22 13.06.2019
6414 Clouds 17 1013 77 10000 2.6 110 21:59 13.06.2019
6415 Clouds 19 1013 67 10000 1 150 21:38 13.06.2019
6416 Clouds 19 1012 72 10000 3.1 80 21:19 13.06.2019
6417 Clouds 20 1012 68 10000 3.1 80 20:45 13.06.2019
6418 Clouds 20 1012 68 10000 3.1 80 20:45 13.06.2019
6419 Clouds 21 1012 68 10000 3.1 80 20:20 13.06.2019
6420 Clouds 21 1012 60 10000 1.5 70 19:55 13.06.2019
6421 Clouds 21 1012 64 10000 1 0 19:36 13.06.2019
6422 Clouds 21 1012 56 10000 1.5 230 19:18 13.06.2019
6423 Rain 22 1012 52 10000 5.1 210 18:42 13.06.2019
6424 Rain 22 1012 52 10000 5.1 210 18:23 13.06.2019
6425 -273 0 0 0 0 0 17:57 13.06.2019
6426 Clouds 22 1012 52 10000 6.7 210 17:38 13.06.2019
6427 Clouds 22 1012 52 10000 7.2 220 17:19 13.06.2019
6428 Rain 22 1012 49 10000 5.7 220 16:44 13.06.2019
6429 Clouds 22 1012 52 10000 7.2 220 16:21 13.06.2019
6430 Clouds 22 1012 49 10000 6.2 220 15:43 13.06.2019
6431 Clouds 22 1012 49 10000 5.1 200 15:24 13.06.2019
6432 Clouds 22 1012 56 10000 7.7 220 14:56 13.06.2019
6433 Clouds 21 1011 53 10000 4.1 190 14:38 13.06.2019
6434 Clouds 21 1011 52 10000 7.7 200 14:19 13.06.2019
6435 Clouds 21 1011 46 10000 5.1 180 13:40 13.06.2019
6436 Clouds 21 1011 46 10000 5.1 180 13:21 13.06.2019
6437 Clouds 21 1011 46 10000 5.1 180 13:21 13.06.2019
6438 Clouds 21 1011 52 10000 7.7 210 12:42 13.06.2019
6439 Clouds 20 1011 56 10000 6.7 190 12:22 13.06.2019
6440 Clouds 20 1011 60 10000 4.6 170 11:57 13.06.2019
6441 Clouds 20 1011 63 10000 6.2 210 11:38 13.06.2019
6442 Clouds 20 1010 68 10000 5.7 190 11:19 13.06.2019
6443 Clouds 19 1011 68 10000 4.6 180 10:43 13.06.2019
6444 Clouds 18 1011 63 10000 5.1 180 10:24 13.06.2019
6445 Clouds 17 1011 72 10000 4.6 200 09:44 13.06.2019
6446 Clouds 17 1011 77 10000 3.1 180 09:24 13.06.2019
6447 Clouds 17 1011 77 10000 3.1 180 09:23 13.06.2019
6448 Clear 16 1011 87 10000 2.6 140 08:48 13.06.2019
6449 Clear 15 1011 87 10000 2.6 140 08:28 13.06.2019
6450 Clear 14 1010 87 8000 3.1 180 07:56 13.06.2019
6451 Mist 14 1010 87 7000 2.6 190 07:27 13.06.2019
6452 Mist 13 1010 93 7000 2.6 180 06:51 13.06.2019
6453 Clear 12 1010 93 9000 1.5 180 06:24 13.06.2019
6454 Clear 12 1010 93 5000 2.6 220 05:56 13.06.2019
6455 Clear 12 1010 93 0 1.5 180 05:37 13.06.2019
6456 Mist 13 1009 100 5000 2.6 210 04:59 13.06.2019
6457 Clouds 13 1009 93 7000 5.1 230 03:28 13.06.2019
6458 Clouds 15 1009 93 0 2.6 220 01:27 13.06.2019
6459 Mist 15 1008 100 0 4.1 210 00:29 13.06.2019
6460 Mist 16 1008 93 4000 3.6 170 23:24 12.06.2019
6461 Mist 16 1008 100 3500 2.6 170 22:47 12.06.2019
6462 Mist 17 1008 93 5000 4.6 170 22:28 12.06.2019
6463 Mist 16 1007 93 3000 3.1 150 21:59 12.06.2019
6464 Rain 16 1006 93 6000 4.1 90 21:40 12.06.2019
6465 Rain 16 1006 93 6000 4.1 90 21:22 12.06.2019
6466 Mist 16 1007 93 4000 2.1 130 20:48 12.06.2019
6467 Mist 16 1007 93 4000 2.1 130 20:29 12.06.2019
6468 Rain 16 1008 93 2500 3.1 150 19:57 12.06.2019
6469 Thunderstorm 16 1008 93 8000 3.1 90 19:38 12.06.2019
6470 Thunderstorm 16 1008 93 4500 3.1 110 19:19 12.06.2019
6471 Thunderstorm 17 1008 93 1500 5.1 120 18:44 12.06.2019
6472 Thunderstorm 17 1008 93 1500 5.1 120 18:24 12.06.2019
6473 Thunderstorm 17 1008 88 3500 4.1 80 17:46 12.06.2019
6474 Rain 17 1008 88 10000 3.6 100 17:23 12.06.2019
6475 Rain 17 1007 88 7000 6.2 60 16:43 12.06.2019
6476 Drizzle 17 1009 88 10000 4.1 80 16:25 12.06.2019
6477 Drizzle 17 1009 93 10000 3.6 80 15:58 12.06.2019
6478 Clouds 18 1009 88 10000 4.6 100 15:34 12.06.2019
6479 Clouds 18 1008 82 7000 3.1 100 14:58 12.06.2019
6480 Clouds 18 1009 88 10000 3.6 90 14:34 12.06.2019
6481 Clouds 18 1010 88 10000 4.6 90 13:58 12.06.2019
6482 Clouds 18 1009 82 9000 3.6 80 13:39 12.06.2019
6483 Clouds 18 1010 88 10000 3.1 90 13:19 12.06.2019
6484 Clouds 18 1010 88 10000 2.6 80 12:44 12.06.2019
6485 Clouds 17 1010 93 9000 4.1 50 12:22 12.06.2019
6486 Clouds 17 1011 93 10000 3.1 80 11:59 12.06.2019
6487 Drizzle 17 1011 93 8000 2.1 60 11:39 12.06.2019
6488 Drizzle 17 1011 93 8000 2.6 50 11:21 12.06.2019
6489 Drizzle 16 1011 100 5000 4.6 80 10:44 12.06.2019
6490 Drizzle 16 1011 93 9000 3.6 40 10:21 12.06.2019
6491 Mist 16 1011 93 6000 3.1 50 09:43 12.06.2019
6492 Mist 16 1011 93 6000 3.1 50 09:23 12.06.2019
6493 Mist 16 1011 93 2500 4.1 10 08:47 12.06.2019
6494 Mist 15 1011 100 4000 1.5 350 08:20 12.06.2019
6495 Mist 15 1009 93 7000 4.1 310 07:37 12.06.2019
6496 Mist 15 1009 100 8000 2.6 360 06:53 12.06.2019
6497 Mist 15 1011 93 3000 2.6 40 05:27 12.06.2019
6498 Mist 14 1013 100 2200 0.5 250 04:29 12.06.2019
6499 Fog 14 1012 93 0 2.6 330 01:32 12.06.2019
6500 Fog 14 1013 93 0 2.1 280 00:40 12.06.2019
6501 Mist 14 1013 100 0 1.5 300 23:48 11.06.2019
6502 Mist 15 1013 100 0 1.5 300 23:29 11.06.2019
6503 Mist 15 1013 93 3500 1.5 150 22:44 11.06.2019
6504 Clouds 16 1013 93 7000 2.6 140 22:20 11.06.2019
6505 Clouds 17 1013 93 7000 2.6 140 21:57 11.06.2019
6506 Clouds 17 1012 93 7000 2.6 150 21:38 11.06.2019
6507 Clouds 18 1012 88 8000 2.1 150 21:20 11.06.2019
6508 Clouds 18 1011 88 10000 1.5 60 20:48 11.06.2019
6509 Clouds 18 1011 88 10000 1.5 60 20:26 11.06.2019
6510 Clouds 19 1011 88 10000 0.5 80 19:56 11.06.2019
6511 -273 0 0 0 0 0 19:36 11.06.2019
6512 Clouds 19 1011 88 0 2.1 250 19:36 11.06.2019
6513 -273 0 0 0 0 0 18:58 11.06.2019
6514 Clouds 20 1011 88 10000 1.5 250 18:58 11.06.2019
6515 Clouds 20 1011 93 8000 1.5 200 18:23 11.06.2019
6516 Clouds 20 1011 93 8000 1.5 200 18:23 11.06.2019
6517 Mist 19 1011 88 10000 3.1 240 17:54 11.06.2019
6518 Mist 19 1011 88 10000 3.1 240 17:36 11.06.2019
6519 Mist 19 1011 93 4000 2.1 180 17:18 11.06.2019
6520 Mist 18 1011 93 2000 1.5 180 16:41 11.06.2019
6521 Mist 18 1011 93 2000 1.5 180 16:23 11.06.2019
6522 Mist 17 1011 93 4000 1 140 15:43 11.06.2019
6523 Mist 17 1011 93 4000 1 140 15:24 11.06.2019
6524 Mist 17 1010 93 5000 2.6 160 14:54 11.06.2019
6525 Mist 16 1010 100 5000 3.1 100 14:23 11.06.2019
6526 Rain 16 1010 93 2500 4.1 80 13:58 11.06.2019
6527 Rain 16 1010 93 5000 4.6 90 13:37 11.06.2019
6528 Thunderstorm 16 1010 93 2000 3.6 70 13:19 11.06.2019
6529 Thunderstorm 16 1010 88 10000 4.6 100 12:41 11.06.2019
6530 Mist 16 1010 87 10000 4.1 50 12:21 11.06.2019
6531 Drizzle 16 1010 93 3000 2.6 100 11:41 11.06.2019
6532 Drizzle 16 1010 87 7000 3.6 100 11:21 11.06.2019
6533 Drizzle 16 1011 82 10000 4.1 50 10:50 11.06.2019
6534 Rain 16 1010 82 10000 5.1 50 10:27 11.06.2019
6535 Mist 15 1011 82 10000 4.6 50 09:51 11.06.2019
6536 Mist 15 1011 82 10000 4.6 60 09:25 11.06.2019
6537 Mist 15 1010 87 10000 4.1 90 08:56 11.06.2019
6538 Clear 15 1011 82 10000 4.1 50 08:38 11.06.2019
6539 Clear 15 1011 87 10000 5.1 50 08:19 11.06.2019
6540 Rain 14 1010 87 10000 5.1 50 07:32 11.06.2019
6541 Rain 14 1011 93 10000 4.6 60 06:52 11.06.2019
6542 Rain 14 1012 87 10000 3.1 40 05:21 11.06.2019
6543 Rain 14 1012 87 10000 3.1 40 04:36 11.06.2019
6544 Rain 15 1013 82 10000 5.7 60 01:58 11.06.2019
6545 Rain 15 1012 87 4800 7.7 60 00:50 11.06.2019
6546 Rain 15 1014 77 0 5.1 40 00:24 11.06.2019
6547 Rain 15 1013 82 0 5.7 30 23:44 10.06.2019
6548 Clouds 15 1013 82 0 5.7 30 23:21 10.06.2019
6549 Clouds 15 1014 82 0 4.6 30 22:45 10.06.2019
6550 Clouds 16 1014 82 0 4.6 30 22:26 10.06.2019
6551 Clouds 16 1014 82 10000 4.1 70 21:56 10.06.2019
6552 Clouds 16 1015 77 10000 5.1 50 21:38 10.06.2019
6553 Clouds 16 1015 77 10000 4.6 50 21:19 10.06.2019
6554 Clear 16 1015 72 10000 6.2 40 20:42 10.06.2019
6555 Clear 16 1015 72 10000 6.2 40 20:21 10.06.2019
6556 Clouds 16 1014 82 0 5.7 40 19:44 10.06.2019
6557 Clouds 16 1014 82 0 5.7 40 19:22 10.06.2019
6558 Clouds 16 1015 82 0 6.7 40 18:57 10.06.2019
6559 Clouds 16 1015 82 0 6.7 40 18:39 10.06.2019
6560 Clear 16 1016 72 10000 5.1 50 18:19 10.06.2019
6561 Clouds 17 1014 82 5000 7.7 50 17:44 10.06.2019
6562 Clouds 17 1014 82 5000 7.7 50 17:44 10.06.2019
6563 Clear 17 1016 72 10000 5.7 50 17:24 10.06.2019
6564 Clouds 16 1015 82 4900 8.2 50 16:49 10.06.2019
6565 Clear 15 1016 72 10000 5.1 50 16:30 10.06.2019
6566 Clear 15 1016 72 10000 5.1 50 15:59 10.06.2019
6567 Clouds 15 1016 82 10000 7.2 30 15:40 10.06.2019
6568 Clouds 15 1016 82 0 5.7 60 15:22 10.06.2019
6569 Rain 15 1015 82 4500 7.7 50 14:45 10.06.2019
6570 Rain 15 1017 82 10000 5.1 50 14:25 10.06.2019
6571 Rain 15 1017 82 10000 4.6 20 13:47 10.06.2019
6572 Rain 15 1017 82 10000 4.6 20 13:28 10.06.2019
6573 Rain 15 1017 87 10000 4.6 30 12:55 10.06.2019
6574 Rain 15 1017 82 0 4.1 20 12:32 10.06.2019
6575 Rain 15 1018 87 10000 4.1 60 11:59 10.06.2019
6576 Rain 14 1018 87 10000 4.6 60 11:39 10.06.2019
6577 Rain 14 1018 82 10000 3.6 60 11:19 10.06.2019
6578 Rain 14 1018 77 10000 5.1 70 10:41 10.06.2019
6579 Rain 14 1018 87 0 3.1 70 10:19 10.06.2019
6580 Rain 14 1018 87 0 3.1 70 09:52 10.06.2019
6581 Rain 14 1019 77 10000 3.6 50 09:29 10.06.2019
6582 Rain 14 1017 87 4600 6.2 60 08:50 10.06.2019
6583 Rain 14 1019 82 10000 3.1 40 08:27 10.06.2019
6584 Rain 14 1019 87 0 2.6 30 07:46 10.06.2019
6585 Rain 14 1019 82 0 4.1 50 06:26 10.06.2019
6586 Clouds 13 1020 82 5000 3.1 80 03:46 10.06.2019
6587 Clouds 13 1021 100 10000 2.6 60 01:56 10.06.2019
6588 Clouds 13 1021 87 0 0.5 60 01:23 10.06.2019
6589 Clouds 13 1021 87 0 1.57 82.694 00:48 10.06.2019
6590 Clouds 13 1022 82 0 0.14 324.033 23:58 09.06.2019
6591 Clear 14 1022 82 10000 0.14 324.033 23:38 09.06.2019
6592 Clear 14 1022 82 10000 0.14 324.033 23:18 09.06.2019
6593 Clear 15 1022 82 10000 0.5 310 22:41 09.06.2019
6594 Clear 15 1022 82 10000 0.5 310 22:21 09.06.2019
6595 Clear 17 1022 72 10000 1.5 290 21:40 09.06.2019
6596 Clear 17 1022 72 10000 1.5 290 21:22 09.06.2019
6597 Clouds 17 1022 63 10000 2.6 250 20:42 09.06.2019
6598 Clouds 18 1022 63 10000 2.6 250 20:22 09.06.2019
6599 Clouds 18 1022 48 10000 1.5 260 19:46 09.06.2019
6600 Clouds 18 1022 48 10000 1.5 260 19:46 09.06.2019
6601 Clouds 18 1022 52 10000 2.6 250 19:19 09.06.2019
6602 Clouds 18 1022 52 10000 2.6 250 18:57 09.06.2019
6603 Clouds 18 1022 48 10000 3.1 250 18:39 09.06.2019
6604 Clouds 19 1022 48 10000 3.6 230 18:21 09.06.2019
6605 Clear 19 1022 48 6000 4.1 270 17:46 09.06.2019
6606 Clouds 19 1022 55 10000 4.1 260 17:26 09.06.2019
6607 Clouds 19 1023 59 10000 5.7 260 16:54 09.06.2019
6608 Clouds 19 1022 59 10000 5.1 240 16:36 09.06.2019
6609 Clouds 19 1022 55 10000 6.2 250 16:18 09.06.2019
6610 Clouds 19 1022 55 10000 6.2 250 15:42 09.06.2019
6611 Clouds 18 1022 59 10000 6.7 260 15:20 09.06.2019
6612 Clouds 18 1022 59 10000 6.2 230 14:43 09.06.2019
6613 Clouds 18 1023 63 10000 7.7 270 14:21 09.06.2019
6614 Rain 18 1023 48 5000 8.2 250 13:50 09.06.2019
6615 Rain 17 1022 67 0 4.1 240 13:22 09.06.2019
6616 Clouds 17 1022 63 10000 6.7 240 12:42 09.06.2019
6617 Clouds 17 1022 63 10000 6.7 240 12:23 09.06.2019
6618 Clouds 17 1022 59 10000 7.7 250 11:40 09.06.2019
6619 Clouds 16 1022 62 10000 8.2 240 11:21 09.06.2019
6620 Rain 16 1022 63 5000 8.2 230 10:46 09.06.2019
6621 Clouds 16 1021 67 10000 7.2 230 10:23 09.06.2019
6622 Clouds 15 1021 76 10000 8.2 240 09:41 09.06.2019
6623 Clouds 14 1021 76 10000 8.2 240 09:23 09.06.2019
6624 Clouds 14 1020 76 10000 7.7 240 08:55 09.06.2019
6625 Clouds 14 1020 76 10000 8.2 230 08:36 09.06.2019
6626 Rain 13 1020 87 0 4.1 220 07:28 09.06.2019
6627 Clouds 12 1019 87 0 4.1 210 06:30 09.06.2019
6628 Clouds 12 1017 87 10000 7.7 230 05:34 09.06.2019
6629 Rain 13 1016 87 0 4.1 180 01:46 09.06.2019
6630 Rain 13 1016 87 0 4.1 180 01:22 09.06.2019
6631 Rain 13 1017 87 0 4.6 180 01:00 09.06.2019
6632 Rain 13 1015 82 10000 8.2 210 00:21 09.06.2019
6633 Rain 13 1015 82 10000 9.8 210 23:38 08.06.2019
6634 Rain 13 1015 82 10000 9.8 210 23:20 08.06.2019
6635 Rain 13 1015 82 10000 7.7 210 22:43 08.06.2019
6636 Rain 13 1015 82 10000 7.7 210 22:25 08.06.2019
6637 Rain 13 1014 82 10000 6.2 200 21:53 08.06.2019
6638 Rain 13 1016 82 0 5.7 210 21:34 08.06.2019
6639 Rain 14 1014 87 10000 8.2 200 20:59 08.06.2019
6640 Rain 15 1014 93 10000 5.1 230 20:40 08.06.2019
6641 Thunderstorm 15 1015 87 2000 11.8 260 20:21 08.06.2019
6642 Rain 15 1015 82 0 3.6 190 19:42 08.06.2019
6643 Rain 15 1015 82 0 3.6 190 19:42 08.06.2019
6644 Rain 15 1014 82 0 4.6 190 19:22 08.06.2019
6645 Rain 15 1014 82 0 4.6 190 18:58 08.06.2019
6646 Rain 16 1014 72 0 6.2 190 18:39 08.06.2019
6647 Rain 16 1014 67 0 5.1 190 18:18 08.06.2019
6648 Rain 15 1014 82 10000 4.6 170 17:42 08.06.2019
6649 Rain 15 1013 87 5000 7.7 180 17:19 08.06.2019
6650 Rain 15 1014 72 5000 7.2 190 16:45 08.06.2019
6651 Rain 14 1014 71 10000 4.6 190 16:24 08.06.2019
6652 Rain 14 1013 87 7000 6.7 180 15:42 08.06.2019
6653 Rain 14 1013 87 7000 6.7 180 15:22 08.06.2019
6654 Rain 14 1014 62 5000 9.3 200 14:47 08.06.2019
6655 Rain 15 1013 62 4000 8.7 200 14:27 08.06.2019
6656 Rain 15 1012 72 10000 5.7 180 13:40 08.06.2019
6657 Clouds 16 1012 59 10000 5.1 200 12:52 08.06.2019
6658 Clouds 16 1012 59 10000 5.1 200 12:32 08.06.2019
6659 Rain 16 1012 63 6000 8.2 190 11:44 08.06.2019
6660 Clear 17 1011 63 10000 5.7 200 11:26 08.06.2019
6661 Rain 16 1011 59 5000 7.7 190 10:47 08.06.2019
6662 Clear 16 1011 63 10000 4.6 190 10:24 08.06.2019
6663 Clouds 16 1010 63 10000 8.2 190 09:52 08.06.2019
6664 Clouds 16 1010 63 10000 8.7 200 09:28 08.06.2019
6665 Clouds 16 1009 72 10000 6.2 190 08:40 08.06.2019
6666 Clouds 15 1009 77 10000 5.1 180 08:19 08.06.2019
6667 Clouds 14 1009 87 0 4.1 170 06:51 08.06.2019
6668 Clouds 14 1009 87 0 4.1 170 06:32 08.06.2019
6669 Rain 15 1009 93 10000 5.7 150 03:35 08.06.2019
6670 Rain 16 1009 93 10000 5.7 120 02:20 08.06.2019
6671 Thunderstorm 15 1009 82 0 7.7 110 00:30 08.06.2019
6672 Thunderstorm 15 1010 87 0 6.7 110 23:56 07.06.2019
6673 Clear 16 1010 87 10000 3.6 80 23:21 07.06.2019
6674 Rain 16 1010 77 6000 5.1 90 22:51 07.06.2019
6675 Clear 16 1011 87 10000 3.6 100 22:32 07.06.2019
6676 Clear 16 1010 82 10000 3.6 90 21:55 07.06.2019
6677 Clear 16 1011 87 10000 3.6 100 21:36 07.06.2019
6678 Clear 16 1011 77 10000 4.6 110 21:18 07.06.2019
6679 Clear 17 1011 72 10000 4.1 100 20:42 07.06.2019
6680 Clear 18 1011 72 10000 4.1 100 20:22 07.06.2019
6681 Clear 18 1011 72 10000 5.7 110 19:39 07.06.2019
6682 Clear 18 1011 63 10000 5.1 110 19:19 07.06.2019
6683 Clear 19 1012 59 10000 5.1 120 18:41 07.06.2019
6684 Clear 19 1012 59 10000 5.1 120 18:41 07.06.2019
6685 Clouds 19 1012 67 10000 6.2 120 18:22 07.06.2019
6686 Clouds 19 1012 49 10000 4.1 110 17:43 07.06.2019
6687 Clouds 20 1012 52 10000 5.1 120 17:21 07.06.2019
6688 Clouds 20 1013 52 10000 4.1 120 16:41 07.06.2019
6689 Clouds 20 1013 49 10000 3.6 120 16:20 07.06.2019
6690 Clouds 20 1013 39 7000 5.1 80 15:47 07.06.2019
6691 Clouds 20 1013 55 10000 4.1 60 15:20 07.06.2019
6692 Clouds 20 1014 55 10000 4.1 120 14:42 07.06.2019
6693 Clouds 19 1014 59 10000 3.6 120 14:21 07.06.2019
6694 Clouds 19 1014 48 10000 1 70 13:28 07.06.2019
6695 Clouds 19 1014 59 10000 2.1 20 12:56 07.06.2019
6696 Clouds 19 1015 55 10000 2.26 112.384 12:37 07.06.2019
6697 Clouds 18 1015 52 10000 2.1 60 12:18 07.06.2019
6698 Clouds 17 1015 59 10000 1.5 80 11:39 07.06.2019
6699 Clouds 17 1015 59 10000 1.5 80 11:21 07.06.2019
6700 Clouds 17 1015 63 10000 1.5 320 10:43 07.06.2019
6701 Clouds 17 1015 63 10000 1.5 320 10:21 07.06.2019
6702 Clouds 16 1015 63 10000 1.5 0 09:49 07.06.2019
6703 Clouds 16 1015 77 10000 1.5 300 09:27 07.06.2019
6704 Clouds 14 1015 72 10000 1 350 08:50 07.06.2019
6705 Clouds 14 1015 87 10000 1.5 320 08:28 07.06.2019
6706 Clouds 14 1015 87 10000 1.5 320 08:28 07.06.2019
6707 Clouds 13 1015 100 10000 1.5 290 07:55 07.06.2019
6708 Clear 11 1015 87 10000 1.5 260 07:23 07.06.2019
6709 Clouds 11 1015 93 10000 0.5 280 06:49 07.06.2019
6710 Clouds 11 1015 87 0 1.5 270 06:27 07.06.2019
6711 Clouds 11 1015 93 10000 1.5 260 05:46 07.06.2019
6712 Clouds 11 1015 93 0 2.1 260 03:34 07.06.2019
6713 Clouds 11 1014 87 0 3.1 280 01:39 07.06.2019
6714 Clouds 12 1014 82 0 4.1 280 00:49 07.06.2019
6715 Clouds 12 1014 82 0 4.1 280 00:49 07.06.2019
6716 Clouds 12 1014 82 0 4.1 280 00:25 07.06.2019
6717 Clouds 13 1014 81 10000 5.1 290 23:43 06.06.2019
6718 Clouds 13 1014 82 10000 4.6 300 23:21 06.06.2019
6719 Clouds 13 1013 82 10000 4.1 280 22:39 06.06.2019
6720 Clouds 13 1013 82 10000 4.1 280 22:21 06.06.2019
6721 Clouds 14 1013 87 10000 5.7 290 21:57 06.06.2019
6722 Clouds 14 1012 87 10000 7.2 280 21:39 06.06.2019
6723 Clouds 14 1013 76 10000 4.6 270 21:20 06.06.2019
6724 Clouds 14 1012 82 10000 4.6 280 20:46 06.06.2019
6725 Clouds 14 1012 82 10000 4.6 280 20:24 06.06.2019
6726 Rain 15 1011 82 10000 4.6 270